<?xml version="1.0" encoding="UTF-8" standalone="no" ?>
<gpx xmlns="http://www.topografix.com/GPX/1/1" xmlns:xsi="http://www.w3.org/2001/XMLSchema-instance" xsi:schemaLocation="http://www.topografix.com/GPX/1/1 http://www.topografix.com/GPX/1/1/gpx.xsd" version="1.1" creator="VisuGPX - https://www.visugpx.com">
  <metadata>
    <name>un tour à aydat jpm63</name>
    <desc><![CDATA[une ballade à trois chevaux avec pause repas au camping d aydat]]></desc>
  </metadata>
  <trk>
    <name><![CDATA[t 110714 aydat rz]]></name>
    <trkseg>
      <trkpt lat="45.68673" lon="3.16245">
        <ele>429.990875</ele>
        <time>2011-07-14T09:24:28Z</time>
      </trkpt>
      <trkpt lat="45.68679" lon="3.16269">
        <ele>427.298035</ele>
        <time>2011-07-14T09:27:35Z</time>
      </trkpt>
      <trkpt lat="45.68678" lon="3.16302">
        <ele>425.005005</ele>
        <time>2011-07-14T09:28:01Z</time>
      </trkpt>
      <trkpt lat="45.68691" lon="3.16291">
        <ele>424.097504</ele>
        <time>2011-07-14T09:28:11Z</time>
      </trkpt>
      <trkpt lat="45.68701" lon="3.16281">
        <ele>423.707489</ele>
        <time>2011-07-14T09:28:18Z</time>
      </trkpt>
      <trkpt lat="45.6871" lon="3.16273">
        <ele>423.167511</ele>
        <time>2011-07-14T09:28:26Z</time>
      </trkpt>
      <trkpt lat="45.68719" lon="3.16266">
        <ele>422.747498</ele>
        <time>2011-07-14T09:28:33Z</time>
      </trkpt>
      <trkpt lat="45.68737" lon="3.16244">
        <ele>422.492493</ele>
        <time>2011-07-14T09:28:53Z</time>
      </trkpt>
      <trkpt lat="45.68755" lon="3.16234">
        <ele>420.711212</ele>
        <time>2011-07-14T09:29:17Z</time>
      </trkpt>
      <trkpt lat="45.68773" lon="3.16245">
        <ele>417.214172</ele>
        <time>2011-07-14T09:29:38Z</time>
      </trkpt>
      <trkpt lat="45.68792" lon="3.16259">
        <ele>413.839294</ele>
        <time>2011-07-14T09:29:55Z</time>
      </trkpt>
      <trkpt lat="45.68803" lon="3.16264">
        <ele>412.217773</ele>
        <time>2011-07-14T09:30:03Z</time>
      </trkpt>
      <trkpt lat="45.68819" lon="3.16268">
        <ele>410.103455</ele>
        <time>2011-07-14T09:30:12Z</time>
      </trkpt>
      <trkpt lat="45.68828" lon="3.16276">
        <ele>408.674988</ele>
        <time>2011-07-14T09:30:19Z</time>
      </trkpt>
      <trkpt lat="45.68835" lon="3.16285">
        <ele>407.771271</ele>
        <time>2011-07-14T09:30:25Z</time>
      </trkpt>
      <trkpt lat="45.68844" lon="3.16283">
        <ele>407.29126</ele>
        <time>2011-07-14T09:30:32Z</time>
      </trkpt>
      <trkpt lat="45.6885" lon="3.1628">
        <ele>407.088745</ele>
        <time>2011-07-14T09:30:38Z</time>
      </trkpt>
      <trkpt lat="45.68858" lon="3.16271">
        <ele>406.953766</ele>
        <time>2011-07-14T09:30:44Z</time>
      </trkpt>
      <trkpt lat="45.68865" lon="3.16263">
        <ele>406.859985</ele>
        <time>2011-07-14T09:30:50Z</time>
      </trkpt>
      <trkpt lat="45.68874" lon="3.1625">
        <ele>406.843994</ele>
        <time>2011-07-14T09:30:56Z</time>
      </trkpt>
      <trkpt lat="45.68881" lon="3.16244">
        <ele>406.748444</ele>
        <time>2011-07-14T09:31:02Z</time>
      </trkpt>
      <trkpt lat="45.68885" lon="3.16243">
        <ele>406.513885</ele>
        <time>2011-07-14T09:31:08Z</time>
      </trkpt>
      <trkpt lat="45.68895" lon="3.16243">
        <ele>405.911835</ele>
        <time>2011-07-14T09:31:14Z</time>
      </trkpt>
      <trkpt lat="45.68906" lon="3.16253">
        <ele>404.913605</ele>
        <time>2011-07-14T09:31:36Z</time>
      </trkpt>
      <trkpt lat="45.68916" lon="3.16257">
        <ele>404.233917</ele>
        <time>2011-07-14T09:31:42Z</time>
      </trkpt>
      <trkpt lat="45.68927" lon="3.16258">
        <ele>403.572937</ele>
        <time>2011-07-14T09:31:49Z</time>
      </trkpt>
      <trkpt lat="45.68938" lon="3.16259">
        <ele>402.954742</ele>
        <time>2011-07-14T09:31:56Z</time>
      </trkpt>
      <trkpt lat="45.68947" lon="3.1626">
        <ele>402.379913</ele>
        <time>2011-07-14T09:32:03Z</time>
      </trkpt>
      <trkpt lat="45.68955" lon="3.16264">
        <ele>401.818146</ele>
        <time>2011-07-14T09:32:10Z</time>
      </trkpt>
      <trkpt lat="45.68963" lon="3.16267">
        <ele>401.177582</ele>
        <time>2011-07-14T09:32:18Z</time>
      </trkpt>
      <trkpt lat="45.68971" lon="3.16271">
        <ele>400.348541</ele>
        <time>2011-07-14T09:32:26Z</time>
      </trkpt>
      <trkpt lat="45.6898" lon="3.16275">
        <ele>399.462799</ele>
        <time>2011-07-14T09:32:35Z</time>
      </trkpt>
      <trkpt lat="45.68989" lon="3.16278">
        <ele>398.552185</ele>
        <time>2011-07-14T09:32:44Z</time>
      </trkpt>
      <trkpt lat="45.68999" lon="3.16282">
        <ele>397.436249</ele>
        <time>2011-07-14T09:32:52Z</time>
      </trkpt>
      <trkpt lat="45.69009" lon="3.16286">
        <ele>396.43811</ele>
        <time>2011-07-14T09:33:00Z</time>
      </trkpt>
      <trkpt lat="45.69019" lon="3.16289">
        <ele>395.537903</ele>
        <time>2011-07-14T09:33:08Z</time>
      </trkpt>
      <trkpt lat="45.6903" lon="3.16293">
        <ele>394.580719</ele>
        <time>2011-07-14T09:33:16Z</time>
      </trkpt>
      <trkpt lat="45.69039" lon="3.16296">
        <ele>393.860016</ele>
        <time>2011-07-14T09:33:23Z</time>
      </trkpt>
      <trkpt lat="45.69048" lon="3.16299">
        <ele>393.149994</ele>
        <time>2011-07-14T09:33:30Z</time>
      </trkpt>
      <trkpt lat="45.69056" lon="3.16303">
        <ele>392.48407</ele>
        <time>2011-07-14T09:33:38Z</time>
      </trkpt>
      <trkpt lat="45.69064" lon="3.16307">
        <ele>391.883484</ele>
        <time>2011-07-14T09:33:45Z</time>
      </trkpt>
      <trkpt lat="45.69074" lon="3.16311">
        <ele>391.183807</ele>
        <time>2011-07-14T09:33:53Z</time>
      </trkpt>
      <trkpt lat="45.69082" lon="3.16318">
        <ele>390.519531</ele>
        <time>2011-07-14T09:34:00Z</time>
      </trkpt>
      <trkpt lat="45.69094" lon="3.16319">
        <ele>389.830048</ele>
        <time>2011-07-14T09:34:08Z</time>
      </trkpt>
      <trkpt lat="45.69102" lon="3.16311">
        <ele>389.477264</ele>
        <time>2011-07-14T09:34:16Z</time>
      </trkpt>
      <trkpt lat="45.69105" lon="3.163">
        <ele>389.444458</ele>
        <time>2011-07-14T09:34:23Z</time>
      </trkpt>
      <trkpt lat="45.6911" lon="3.16286">
        <ele>389.307495</ele>
        <time>2011-07-14T09:34:32Z</time>
      </trkpt>
      <trkpt lat="45.69115" lon="3.16271">
        <ele>389.237488</ele>
        <time>2011-07-14T09:34:42Z</time>
      </trkpt>
      <trkpt lat="45.69119" lon="3.16255">
        <ele>389.186249</ele>
        <time>2011-07-14T09:34:50Z</time>
      </trkpt>
      <trkpt lat="45.69125" lon="3.16244">
        <ele>389.003754</ele>
        <time>2011-07-14T09:35:00Z</time>
      </trkpt>
      <trkpt lat="45.69134" lon="3.1624">
        <ele>388.440002</ele>
        <time>2011-07-14T09:35:10Z</time>
      </trkpt>
      <trkpt lat="45.69144" lon="3.16236">
        <ele>387.844025</ele>
        <time>2011-07-14T09:35:17Z</time>
      </trkpt>
      <trkpt lat="45.69153" lon="3.16236">
        <ele>387.033813</ele>
        <time>2011-07-14T09:35:25Z</time>
      </trkpt>
      <trkpt lat="45.69161" lon="3.16235">
        <ele>386.367584</ele>
        <time>2011-07-14T09:35:32Z</time>
      </trkpt>
      <trkpt lat="45.6917" lon="3.16229">
        <ele>385.602509</ele>
        <time>2011-07-14T09:35:39Z</time>
      </trkpt>
      <trkpt lat="45.69179" lon="3.16222">
        <ele>384.893738</ele>
        <time>2011-07-14T09:35:50Z</time>
      </trkpt>
      <trkpt lat="45.69188" lon="3.16213">
        <ele>384.282684</ele>
        <time>2011-07-14T09:35:57Z</time>
      </trkpt>
      <trkpt lat="45.69194" lon="3.16202">
        <ele>383.996033</ele>
        <time>2011-07-14T09:36:04Z</time>
      </trkpt>
      <trkpt lat="45.692" lon="3.1619">
        <ele>383.696533</ele>
        <time>2011-07-14T09:36:11Z</time>
      </trkpt>
      <trkpt lat="45.69202" lon="3.16176">
        <ele>383.639252</ele>
        <time>2011-07-14T09:36:22Z</time>
      </trkpt>
      <trkpt lat="45.69203" lon="3.16163">
        <ele>383.61969</ele>
        <time>2011-07-14T09:36:30Z</time>
      </trkpt>
      <trkpt lat="45.69205" lon="3.1615">
        <ele>383.358765</ele>
        <time>2011-07-14T09:36:37Z</time>
      </trkpt>
      <trkpt lat="45.69208" lon="3.16135">
        <ele>382.990875</ele>
        <time>2011-07-14T09:36:48Z</time>
      </trkpt>
      <trkpt lat="45.6921" lon="3.16121">
        <ele>382.719666</ele>
        <time>2011-07-14T09:36:55Z</time>
      </trkpt>
      <trkpt lat="45.69213" lon="3.16107">
        <ele>382.418274</ele>
        <time>2011-07-14T09:37:02Z</time>
      </trkpt>
      <trkpt lat="45.69214" lon="3.16091">
        <ele>382.116241</ele>
        <time>2011-07-14T09:37:10Z</time>
      </trkpt>
      <trkpt lat="45.69215" lon="3.16077">
        <ele>381.821259</ele>
        <time>2011-07-14T09:37:17Z</time>
      </trkpt>
      <trkpt lat="45.69216" lon="3.16062">
        <ele>381.507507</ele>
        <time>2011-07-14T09:37:25Z</time>
      </trkpt>
      <trkpt lat="45.69219" lon="3.16049">
        <ele>381.138763</ele>
        <time>2011-07-14T09:37:34Z</time>
      </trkpt>
      <trkpt lat="45.69223" lon="3.16035">
        <ele>380.691254</ele>
        <time>2011-07-14T09:37:42Z</time>
      </trkpt>
      <trkpt lat="45.69225" lon="3.16022">
        <ele>380.288757</ele>
        <time>2011-07-14T09:37:53Z</time>
      </trkpt>
      <trkpt lat="45.69229" lon="3.16009">
        <ele>379.882507</ele>
        <time>2011-07-14T09:38:00Z</time>
      </trkpt>
      <trkpt lat="45.69232" lon="3.15996">
        <ele>379.482513</ele>
        <time>2011-07-14T09:38:07Z</time>
      </trkpt>
      <trkpt lat="45.69235" lon="3.15981">
        <ele>379.063751</ele>
        <time>2011-07-14T09:38:15Z</time>
      </trkpt>
      <trkpt lat="45.69238" lon="3.15968">
        <ele>378.63208</ele>
        <time>2011-07-14T09:38:23Z</time>
      </trkpt>
      <trkpt lat="45.69245" lon="3.15958">
        <ele>378.11087</ele>
        <time>2011-07-14T09:38:30Z</time>
      </trkpt>
      <trkpt lat="45.69253" lon="3.15948">
        <ele>377.540894</ele>
        <time>2011-07-14T09:38:37Z</time>
      </trkpt>
      <trkpt lat="45.69261" lon="3.15942">
        <ele>377.03775</ele>
        <time>2011-07-14T09:38:44Z</time>
      </trkpt>
      <trkpt lat="45.6927" lon="3.15937">
        <ele>376.509277</ele>
        <time>2011-07-14T09:38:51Z</time>
      </trkpt>
      <trkpt lat="45.69278" lon="3.1593">
        <ele>376.0961</ele>
        <time>2011-07-14T09:38:59Z</time>
      </trkpt>
      <trkpt lat="45.69286" lon="3.15923">
        <ele>375.720001</ele>
        <time>2011-07-14T09:39:07Z</time>
      </trkpt>
      <trkpt lat="45.69295" lon="3.15917">
        <ele>375.334991</ele>
        <time>2011-07-14T09:39:14Z</time>
      </trkpt>
      <trkpt lat="45.69303" lon="3.15911">
        <ele>374.954987</ele>
        <time>2011-07-14T09:39:22Z</time>
      </trkpt>
      <trkpt lat="45.69312" lon="3.15901">
        <ele>374.600006</ele>
        <time>2011-07-14T09:39:33Z</time>
      </trkpt>
      <trkpt lat="45.69321" lon="3.15895">
        <ele>374.179993</ele>
        <time>2011-07-14T09:39:41Z</time>
      </trkpt>
      <trkpt lat="45.6933" lon="3.15889">
        <ele>373.822906</ele>
        <time>2011-07-14T09:39:47Z</time>
      </trkpt>
      <trkpt lat="45.6934" lon="3.15884">
        <ele>373.500305</ele>
        <time>2011-07-14T09:39:53Z</time>
      </trkpt>
      <trkpt lat="45.69349" lon="3.1588">
        <ele>373.230621</ele>
        <time>2011-07-14T09:39:59Z</time>
      </trkpt>
      <trkpt lat="45.69358" lon="3.15874">
        <ele>373.004242</ele>
        <time>2011-07-14T09:40:06Z</time>
      </trkpt>
      <trkpt lat="45.69365" lon="3.15868">
        <ele>372.88559</ele>
        <time>2011-07-14T09:40:13Z</time>
      </trkpt>
      <trkpt lat="45.69374" lon="3.15859">
        <ele>372.768799</ele>
        <time>2011-07-14T09:40:20Z</time>
      </trkpt>
      <trkpt lat="45.69384" lon="3.15854">
        <ele>372.609772</ele>
        <time>2011-07-14T09:40:27Z</time>
      </trkpt>
      <trkpt lat="45.69395" lon="3.15851">
        <ele>372.440155</ele>
        <time>2011-07-14T09:40:33Z</time>
      </trkpt>
      <trkpt lat="45.69404" lon="3.1585">
        <ele>372.261261</ele>
        <time>2011-07-14T09:40:40Z</time>
      </trkpt>
      <trkpt lat="45.69415" lon="3.1585">
        <ele>372.013763</ele>
        <time>2011-07-14T09:40:47Z</time>
      </trkpt>
      <trkpt lat="45.69426" lon="3.15852">
        <ele>371.737488</ele>
        <time>2011-07-14T09:40:55Z</time>
      </trkpt>
      <trkpt lat="45.69438" lon="3.15848">
        <ele>371.551239</ele>
        <time>2011-07-14T09:41:18Z</time>
      </trkpt>
      <trkpt lat="45.6946" lon="3.15848">
        <ele>371.07251</ele>
        <time>2011-07-14T09:42:02Z</time>
      </trkpt>
      <trkpt lat="45.69475" lon="3.15846">
        <ele>371.096252</ele>
        <time>2011-07-14T09:42:14Z</time>
      </trkpt>
      <trkpt lat="45.69492" lon="3.15844">
        <ele>371.123749</ele>
        <time>2011-07-14T09:42:28Z</time>
      </trkpt>
      <trkpt lat="45.69507" lon="3.15845">
        <ele>371.089996</ele>
        <time>2011-07-14T09:42:41Z</time>
      </trkpt>
      <trkpt lat="45.69519" lon="3.15844">
        <ele>370.830017</ele>
        <time>2011-07-14T09:42:50Z</time>
      </trkpt>
      <trkpt lat="45.69529" lon="3.15841">
        <ele>370.665009</ele>
        <time>2011-07-14T09:42:59Z</time>
      </trkpt>
      <trkpt lat="45.69539" lon="3.15837">
        <ele>370.501251</ele>
        <time>2011-07-14T09:43:08Z</time>
      </trkpt>
      <trkpt lat="45.69549" lon="3.15842">
        <ele>370.207489</ele>
        <time>2011-07-14T09:43:21Z</time>
      </trkpt>
      <trkpt lat="45.6955" lon="3.15848">
        <ele>370.084991</ele>
        <time>2011-07-14T09:44:32Z</time>
      </trkpt>
      <trkpt lat="45.69548" lon="3.15844">
        <ele>370.186249</ele>
        <time>2011-07-14T09:46:04Z</time>
      </trkpt>
      <trkpt lat="45.69544" lon="3.15846">
        <ele>370.248749</ele>
        <time>2011-07-14T09:46:43Z</time>
      </trkpt>
      <trkpt lat="45.69551" lon="3.15841">
        <ele>370.201782</ele>
        <time>2011-07-14T09:47:48Z</time>
      </trkpt>
      <trkpt lat="45.69545" lon="3.15844">
        <ele>370.269989</ele>
        <time>2011-07-14T09:50:00Z</time>
      </trkpt>
      <trkpt lat="45.69554" lon="3.1583">
        <ele>370.56012</ele>
        <time>2011-07-14T09:50:18Z</time>
      </trkpt>
      <trkpt lat="45.6955" lon="3.15817">
        <ele>370.556244</ele>
        <time>2011-07-14T09:50:26Z</time>
      </trkpt>
      <trkpt lat="45.69545" lon="3.15806">
        <ele>370.866241</ele>
        <time>2011-07-14T09:50:34Z</time>
      </trkpt>
      <trkpt lat="45.69541" lon="3.15793">
        <ele>371.137512</ele>
        <time>2011-07-14T09:50:41Z</time>
      </trkpt>
      <trkpt lat="45.69541" lon="3.15779">
        <ele>371.899445</ele>
        <time>2011-07-14T09:50:49Z</time>
      </trkpt>
      <trkpt lat="45.69542" lon="3.15762">
        <ele>373.014404</ele>
        <time>2011-07-14T09:50:57Z</time>
      </trkpt>
      <trkpt lat="45.69544" lon="3.15747">
        <ele>374.114075</ele>
        <time>2011-07-14T09:51:05Z</time>
      </trkpt>
      <trkpt lat="45.69546" lon="3.15732">
        <ele>375.241241</ele>
        <time>2011-07-14T09:51:13Z</time>
      </trkpt>
      <trkpt lat="45.69546" lon="3.15718">
        <ele>375.649994</ele>
        <time>2011-07-14T09:51:21Z</time>
      </trkpt>
      <trkpt lat="45.69545" lon="3.15704">
        <ele>375.397491</ele>
        <time>2011-07-14T09:51:29Z</time>
      </trkpt>
      <trkpt lat="45.69542" lon="3.15687">
        <ele>375.014984</ele>
        <time>2011-07-14T09:51:36Z</time>
      </trkpt>
      <trkpt lat="45.69542" lon="3.15673">
        <ele>374.753754</ele>
        <time>2011-07-14T09:51:44Z</time>
      </trkpt>
      <trkpt lat="45.6954" lon="3.15659">
        <ele>374.464264</ele>
        <time>2011-07-14T09:51:52Z</time>
      </trkpt>
      <trkpt lat="45.69538" lon="3.15643">
        <ele>374.211884</ele>
        <time>2011-07-14T09:52:01Z</time>
      </trkpt>
      <trkpt lat="45.69539" lon="3.15627">
        <ele>374.054169</ele>
        <time>2011-07-14T09:52:10Z</time>
      </trkpt>
      <trkpt lat="45.69539" lon="3.15612">
        <ele>373.884827</ele>
        <time>2011-07-14T09:52:18Z</time>
      </trkpt>
      <trkpt lat="45.69537" lon="3.15597">
        <ele>373.679199</ele>
        <time>2011-07-14T09:52:26Z</time>
      </trkpt>
      <trkpt lat="45.69535" lon="3.15584">
        <ele>373.619995</ele>
        <time>2011-07-14T09:52:35Z</time>
      </trkpt>
      <trkpt lat="45.69536" lon="3.15568">
        <ele>373.630005</ele>
        <time>2011-07-14T09:52:46Z</time>
      </trkpt>
      <trkpt lat="45.69535" lon="3.15552">
        <ele>373.617493</ele>
        <time>2011-07-14T09:52:55Z</time>
      </trkpt>
      <trkpt lat="45.69535" lon="3.15537">
        <ele>373.597504</ele>
        <time>2011-07-14T09:53:04Z</time>
      </trkpt>
      <trkpt lat="45.69533" lon="3.15522">
        <ele>373.557495</ele>
        <time>2011-07-14T09:53:13Z</time>
      </trkpt>
      <trkpt lat="45.69532" lon="3.15508">
        <ele>373.527496</ele>
        <time>2011-07-14T09:53:22Z</time>
      </trkpt>
      <trkpt lat="45.6953" lon="3.15494">
        <ele>373.48999</ele>
        <time>2011-07-14T09:53:30Z</time>
      </trkpt>
      <trkpt lat="45.69529" lon="3.1548">
        <ele>373.464996</ele>
        <time>2011-07-14T09:53:39Z</time>
      </trkpt>
      <trkpt lat="45.69528" lon="3.15466">
        <ele>373.462494</ele>
        <time>2011-07-14T09:53:47Z</time>
      </trkpt>
      <trkpt lat="45.69528" lon="3.15451">
        <ele>373.693756</ele>
        <time>2011-07-14T09:53:56Z</time>
      </trkpt>
      <trkpt lat="45.69529" lon="3.15437">
        <ele>373.933746</ele>
        <time>2011-07-14T09:54:06Z</time>
      </trkpt>
      <trkpt lat="45.69529" lon="3.15423">
        <ele>374.158752</ele>
        <time>2011-07-14T09:54:15Z</time>
      </trkpt>
      <trkpt lat="45.69531" lon="3.15408">
        <ele>374.42749</ele>
        <time>2011-07-14T09:54:24Z</time>
      </trkpt>
      <trkpt lat="45.69535" lon="3.15393">
        <ele>374.646698</ele>
        <time>2011-07-14T09:54:35Z</time>
      </trkpt>
      <trkpt lat="45.6954" lon="3.15379">
        <ele>374.816284</ele>
        <time>2011-07-14T09:54:44Z</time>
      </trkpt>
      <trkpt lat="45.69544" lon="3.15364">
        <ele>374.915161</ele>
        <time>2011-07-14T09:54:53Z</time>
      </trkpt>
      <trkpt lat="45.69549" lon="3.15351">
        <ele>374.979889</ele>
        <time>2011-07-14T09:55:02Z</time>
      </trkpt>
      <trkpt lat="45.69552" lon="3.15335">
        <ele>375.002563</ele>
        <time>2011-07-14T09:55:15Z</time>
      </trkpt>
      <trkpt lat="45.69556" lon="3.15322">
        <ele>375.043793</ele>
        <time>2011-07-14T09:55:22Z</time>
      </trkpt>
      <trkpt lat="45.69558" lon="3.15309">
        <ele>375.081177</ele>
        <time>2011-07-14T09:55:29Z</time>
      </trkpt>
      <trkpt lat="45.6956" lon="3.15295">
        <ele>375.081482</ele>
        <time>2011-07-14T09:55:47Z</time>
      </trkpt>
      <trkpt lat="45.69563" lon="3.1528">
        <ele>375.02774</ele>
        <time>2011-07-14T09:55:54Z</time>
      </trkpt>
      <trkpt lat="45.69565" lon="3.15265">
        <ele>375.194519</ele>
        <time>2011-07-14T09:56:01Z</time>
      </trkpt>
      <trkpt lat="45.69569" lon="3.15252">
        <ele>375.482147</ele>
        <time>2011-07-14T09:56:07Z</time>
      </trkpt>
      <trkpt lat="45.69569" lon="3.15237">
        <ele>375.793488</ele>
        <time>2011-07-14T09:56:15Z</time>
      </trkpt>
      <trkpt lat="45.69572" lon="3.15223">
        <ele>376.133331</ele>
        <time>2011-07-14T09:56:22Z</time>
      </trkpt>
      <trkpt lat="45.69575" lon="3.15209">
        <ele>376.460632</ele>
        <time>2011-07-14T09:56:29Z</time>
      </trkpt>
      <trkpt lat="45.69578" lon="3.15197">
        <ele>376.622101</ele>
        <time>2011-07-14T09:56:37Z</time>
      </trkpt>
      <trkpt lat="45.6958" lon="3.15183">
        <ele>376.753876</ele>
        <time>2011-07-14T09:56:45Z</time>
      </trkpt>
      <trkpt lat="45.69582" lon="3.15168">
        <ele>376.867676</ele>
        <time>2011-07-14T09:56:52Z</time>
      </trkpt>
      <trkpt lat="45.69585" lon="3.15155">
        <ele>376.959045</ele>
        <time>2011-07-14T09:57:01Z</time>
      </trkpt>
      <trkpt lat="45.69588" lon="3.15141">
        <ele>377.098755</ele>
        <time>2011-07-14T09:57:13Z</time>
      </trkpt>
      <trkpt lat="45.69591" lon="3.15128">
        <ele>377.307495</ele>
        <time>2011-07-14T09:57:20Z</time>
      </trkpt>
      <trkpt lat="45.69595" lon="3.15115">
        <ele>377.513763</ele>
        <time>2011-07-14T09:57:40Z</time>
      </trkpt>
      <trkpt lat="45.69598" lon="3.15101">
        <ele>377.727509</ele>
        <time>2011-07-14T09:57:46Z</time>
      </trkpt>
      <trkpt lat="45.69601" lon="3.15086">
        <ele>377.980011</ele>
        <time>2011-07-14T09:57:51Z</time>
      </trkpt>
      <trkpt lat="45.69605" lon="3.15071">
        <ele>378.371246</ele>
        <time>2011-07-14T09:57:56Z</time>
      </trkpt>
      <trkpt lat="45.69609" lon="3.15058">
        <ele>378.737488</ele>
        <time>2011-07-14T09:58:01Z</time>
      </trkpt>
      <trkpt lat="45.69616" lon="3.15046">
        <ele>379.236237</ele>
        <time>2011-07-14T09:58:10Z</time>
      </trkpt>
      <trkpt lat="45.69623" lon="3.15035">
        <ele>379.736237</ele>
        <time>2011-07-14T09:58:18Z</time>
      </trkpt>
      <trkpt lat="45.69618" lon="3.15026">
        <ele>379.64624</ele>
        <time>2011-07-14T09:58:31Z</time>
      </trkpt>
      <trkpt lat="45.69607" lon="3.15021">
        <ele>379.23999</ele>
        <time>2011-07-14T09:58:40Z</time>
      </trkpt>
      <trkpt lat="45.69599" lon="3.15012">
        <ele>379.054993</ele>
        <time>2011-07-14T09:58:47Z</time>
      </trkpt>
      <trkpt lat="45.69592" lon="3.15002">
        <ele>379.040009</ele>
        <time>2011-07-14T09:58:54Z</time>
      </trkpt>
      <trkpt lat="45.69583" lon="3.14992">
        <ele>379.005005</ele>
        <time>2011-07-14T09:59:05Z</time>
      </trkpt>
      <trkpt lat="45.69576" lon="3.14983">
        <ele>378.988739</ele>
        <time>2011-07-14T09:59:11Z</time>
      </trkpt>
      <trkpt lat="45.69568" lon="3.14975">
        <ele>378.92749</ele>
        <time>2011-07-14T09:59:18Z</time>
      </trkpt>
      <trkpt lat="45.6956" lon="3.14965">
        <ele>378.913757</ele>
        <time>2011-07-14T09:59:32Z</time>
      </trkpt>
      <trkpt lat="45.69551" lon="3.14961">
        <ele>379.025177</ele>
        <time>2011-07-14T09:59:40Z</time>
      </trkpt>
      <trkpt lat="45.69551" lon="3.14957">
        <ele>379.091553</ele>
        <time>2011-07-14T10:01:11Z</time>
      </trkpt>
      <trkpt lat="45.69548" lon="3.1495">
        <ele>379.442505</ele>
        <time>2011-07-14T10:05:55Z</time>
      </trkpt>
      <trkpt lat="45.69539" lon="3.14946">
        <ele>379.910004</ele>
        <time>2011-07-14T10:06:03Z</time>
      </trkpt>
      <trkpt lat="45.69527" lon="3.14942">
        <ele>380.402496</ele>
        <time>2011-07-14T10:06:13Z</time>
      </trkpt>
      <trkpt lat="45.69517" lon="3.14938">
        <ele>380.875</ele>
        <time>2011-07-14T10:06:20Z</time>
      </trkpt>
      <trkpt lat="45.69513" lon="3.14925">
        <ele>381.730011</ele>
        <time>2011-07-14T10:06:28Z</time>
      </trkpt>
      <trkpt lat="45.69518" lon="3.14913">
        <ele>382.375</ele>
        <time>2011-07-14T10:06:38Z</time>
      </trkpt>
      <trkpt lat="45.69526" lon="3.14906">
        <ele>382.662506</ele>
        <time>2011-07-14T10:06:48Z</time>
      </trkpt>
      <trkpt lat="45.69536" lon="3.14901">
        <ele>382.762512</ele>
        <time>2011-07-14T10:06:54Z</time>
      </trkpt>
      <trkpt lat="45.69545" lon="3.14896">
        <ele>382.867493</ele>
        <time>2011-07-14T10:06:57Z</time>
      </trkpt>
      <trkpt lat="45.69556" lon="3.14893">
        <ele>382.850006</ele>
        <time>2011-07-14T10:07:01Z</time>
      </trkpt>
      <trkpt lat="45.69568" lon="3.14888">
        <ele>382.959991</ele>
        <time>2011-07-14T10:07:05Z</time>
      </trkpt>
      <trkpt lat="45.69578" lon="3.14885">
        <ele>383.045013</ele>
        <time>2011-07-14T10:07:08Z</time>
      </trkpt>
      <trkpt lat="45.69591" lon="3.1488">
        <ele>383.267487</ele>
        <time>2011-07-14T10:07:12Z</time>
      </trkpt>
      <trkpt lat="45.69603" lon="3.14875">
        <ele>383.494751</ele>
        <time>2011-07-14T10:07:15Z</time>
      </trkpt>
      <trkpt lat="45.69614" lon="3.1487">
        <ele>384.498169</ele>
        <time>2011-07-14T10:07:18Z</time>
      </trkpt>
      <trkpt lat="45.69627" lon="3.14864">
        <ele>385.475922</ele>
        <time>2011-07-14T10:07:21Z</time>
      </trkpt>
      <trkpt lat="45.69639" lon="3.14859">
        <ele>386.206787</ele>
        <time>2011-07-14T10:07:24Z</time>
      </trkpt>
      <trkpt lat="45.6965" lon="3.14856">
        <ele>386.669189</ele>
        <time>2011-07-14T10:07:27Z</time>
      </trkpt>
      <trkpt lat="45.69662" lon="3.14849">
        <ele>386.910553</ele>
        <time>2011-07-14T10:07:31Z</time>
      </trkpt>
      <trkpt lat="45.69668" lon="3.14836">
        <ele>387.264038</ele>
        <time>2011-07-14T10:07:38Z</time>
      </trkpt>
      <trkpt lat="45.69673" lon="3.14825">
        <ele>387.452942</ele>
        <time>2011-07-14T10:07:52Z</time>
      </trkpt>
      <trkpt lat="45.69672" lon="3.14794">
        <ele>387.711456</ele>
        <time>2011-07-14T10:08:08Z</time>
      </trkpt>
      <trkpt lat="45.69674" lon="3.14775">
        <ele>387.791168</ele>
        <time>2011-07-14T10:08:14Z</time>
      </trkpt>
      <trkpt lat="45.69676" lon="3.14759">
        <ele>387.785522</ele>
        <time>2011-07-14T10:08:19Z</time>
      </trkpt>
      <trkpt lat="45.6968" lon="3.14743">
        <ele>387.731384</ele>
        <time>2011-07-14T10:08:24Z</time>
      </trkpt>
      <trkpt lat="45.69684" lon="3.14729">
        <ele>387.729279</ele>
        <time>2011-07-14T10:08:28Z</time>
      </trkpt>
      <trkpt lat="45.69688" lon="3.14715">
        <ele>387.821198</ele>
        <time>2011-07-14T10:08:32Z</time>
      </trkpt>
      <trkpt lat="45.69691" lon="3.14702">
        <ele>387.961731</ele>
        <time>2011-07-14T10:08:37Z</time>
      </trkpt>
      <trkpt lat="45.69694" lon="3.14688">
        <ele>388.000916</ele>
        <time>2011-07-14T10:08:43Z</time>
      </trkpt>
      <trkpt lat="45.69694" lon="3.14673">
        <ele>387.995544</ele>
        <time>2011-07-14T10:08:50Z</time>
      </trkpt>
      <trkpt lat="45.69697" lon="3.14659">
        <ele>387.978516</ele>
        <time>2011-07-14T10:08:58Z</time>
      </trkpt>
      <trkpt lat="45.69697" lon="3.14645">
        <ele>387.99173</ele>
        <time>2011-07-14T10:09:07Z</time>
      </trkpt>
      <trkpt lat="45.69696" lon="3.1463">
        <ele>388</ele>
        <time>2011-07-14T10:09:15Z</time>
      </trkpt>
      <trkpt lat="45.69696" lon="3.14613">
        <ele>388</ele>
        <time>2011-07-14T10:09:25Z</time>
      </trkpt>
      <trkpt lat="45.69699" lon="3.14596">
        <ele>388</ele>
        <time>2011-07-14T10:09:33Z</time>
      </trkpt>
      <trkpt lat="45.69703" lon="3.14581">
        <ele>388</ele>
        <time>2011-07-14T10:09:41Z</time>
      </trkpt>
      <trkpt lat="45.69705" lon="3.14567">
        <ele>388</ele>
        <time>2011-07-14T10:09:49Z</time>
      </trkpt>
      <trkpt lat="45.69702" lon="3.14555">
        <ele>388</ele>
        <time>2011-07-14T10:09:56Z</time>
      </trkpt>
      <trkpt lat="45.69698" lon="3.1454">
        <ele>388</ele>
        <time>2011-07-14T10:10:01Z</time>
      </trkpt>
      <trkpt lat="45.69694" lon="3.14526">
        <ele>388.083344</ele>
        <time>2011-07-14T10:10:04Z</time>
      </trkpt>
      <trkpt lat="45.69692" lon="3.1451">
        <ele>388.247498</ele>
        <time>2011-07-14T10:10:07Z</time>
      </trkpt>
      <trkpt lat="45.69694" lon="3.14493">
        <ele>388.33606</ele>
        <time>2011-07-14T10:10:10Z</time>
      </trkpt>
      <trkpt lat="45.69696" lon="3.14475">
        <ele>388.481415</ele>
        <time>2011-07-14T10:10:13Z</time>
      </trkpt>
      <trkpt lat="45.69697" lon="3.14458">
        <ele>388.736511</ele>
        <time>2011-07-14T10:10:16Z</time>
      </trkpt>
      <trkpt lat="45.69697" lon="3.1444">
        <ele>389.016602</ele>
        <time>2011-07-14T10:10:19Z</time>
      </trkpt>
      <trkpt lat="45.69696" lon="3.14425">
        <ele>389.257599</ele>
        <time>2011-07-14T10:10:22Z</time>
      </trkpt>
      <trkpt lat="45.69695" lon="3.14408">
        <ele>389.620575</ele>
        <time>2011-07-14T10:10:26Z</time>
      </trkpt>
      <trkpt lat="45.69694" lon="3.14391">
        <ele>390.0755</ele>
        <time>2011-07-14T10:10:30Z</time>
      </trkpt>
      <trkpt lat="45.69694" lon="3.14375">
        <ele>390.405304</ele>
        <time>2011-07-14T10:10:34Z</time>
      </trkpt>
      <trkpt lat="45.69694" lon="3.14359">
        <ele>390.953827</ele>
        <time>2011-07-14T10:10:38Z</time>
      </trkpt>
      <trkpt lat="45.69695" lon="3.14341">
        <ele>391.330811</ele>
        <time>2011-07-14T10:10:42Z</time>
      </trkpt>
      <trkpt lat="45.69698" lon="3.14327">
        <ele>391.459473</ele>
        <time>2011-07-14T10:10:45Z</time>
      </trkpt>
      <trkpt lat="45.69702" lon="3.14313">
        <ele>391.577515</ele>
        <time>2011-07-14T10:10:48Z</time>
      </trkpt>
      <trkpt lat="45.69706" lon="3.14299">
        <ele>391.894989</ele>
        <time>2011-07-14T10:10:51Z</time>
      </trkpt>
      <trkpt lat="45.6971" lon="3.14282">
        <ele>392.313751</ele>
        <time>2011-07-14T10:10:55Z</time>
      </trkpt>
      <trkpt lat="45.69714" lon="3.14269">
        <ele>392.636261</ele>
        <time>2011-07-14T10:10:58Z</time>
      </trkpt>
      <trkpt lat="45.69717" lon="3.14255">
        <ele>393.0625</ele>
        <time>2011-07-14T10:11:01Z</time>
      </trkpt>
      <trkpt lat="45.69717" lon="3.14236">
        <ele>393.85614</ele>
        <time>2011-07-14T10:11:05Z</time>
      </trkpt>
      <trkpt lat="45.69718" lon="3.14222">
        <ele>394.423798</ele>
        <time>2011-07-14T10:11:08Z</time>
      </trkpt>
      <trkpt lat="45.6972" lon="3.14206">
        <ele>395.081238</ele>
        <time>2011-07-14T10:11:11Z</time>
      </trkpt>
      <trkpt lat="45.69721" lon="3.14191">
        <ele>395.716614</ele>
        <time>2011-07-14T10:11:14Z</time>
      </trkpt>
      <trkpt lat="45.69725" lon="3.14176">
        <ele>395.982513</ele>
        <time>2011-07-14T10:11:17Z</time>
      </trkpt>
      <trkpt lat="45.69728" lon="3.14157">
        <ele>396.225464</ele>
        <time>2011-07-14T10:11:20Z</time>
      </trkpt>
      <trkpt lat="45.69731" lon="3.14139">
        <ele>396.4487</ele>
        <time>2011-07-14T10:11:22Z</time>
      </trkpt>
      <trkpt lat="45.69735" lon="3.14119">
        <ele>396.620178</ele>
        <time>2011-07-14T10:11:24Z</time>
      </trkpt>
      <trkpt lat="45.69737" lon="3.14098">
        <ele>396.796875</ele>
        <time>2011-07-14T10:11:26Z</time>
      </trkpt>
      <trkpt lat="45.6974" lon="3.14079">
        <ele>396.940277</ele>
        <time>2011-07-14T10:11:28Z</time>
      </trkpt>
      <trkpt lat="45.69744" lon="3.1406">
        <ele>396.940887</ele>
        <time>2011-07-14T10:11:30Z</time>
      </trkpt>
      <trkpt lat="45.6975" lon="3.14043">
        <ele>397.297119</ele>
        <time>2011-07-14T10:11:32Z</time>
      </trkpt>
      <trkpt lat="45.69755" lon="3.14022">
        <ele>397.713104</ele>
        <time>2011-07-14T10:11:34Z</time>
      </trkpt>
      <trkpt lat="45.69761" lon="3.14">
        <ele>398.063538</ele>
        <time>2011-07-14T10:11:36Z</time>
      </trkpt>
      <trkpt lat="45.69768" lon="3.13977">
        <ele>398.346252</ele>
        <time>2011-07-14T10:11:38Z</time>
      </trkpt>
      <trkpt lat="45.69773" lon="3.13954">
        <ele>398.590179</ele>
        <time>2011-07-14T10:11:40Z</time>
      </trkpt>
      <trkpt lat="45.69774" lon="3.13943">
        <ele>398.721588</ele>
        <time>2011-07-14T10:11:41Z</time>
      </trkpt>
      <trkpt lat="45.69777" lon="3.13922">
        <ele>398.970459</ele>
        <time>2011-07-14T10:11:43Z</time>
      </trkpt>
      <trkpt lat="45.6978" lon="3.13901">
        <ele>399.144501</ele>
        <time>2011-07-14T10:11:45Z</time>
      </trkpt>
      <trkpt lat="45.69784" lon="3.13881">
        <ele>399.208771</ele>
        <time>2011-07-14T10:11:47Z</time>
      </trkpt>
      <trkpt lat="45.6979" lon="3.13861">
        <ele>399.172485</ele>
        <time>2011-07-14T10:11:49Z</time>
      </trkpt>
      <trkpt lat="45.69795" lon="3.13839">
        <ele>399.760742</ele>
        <time>2011-07-14T10:11:51Z</time>
      </trkpt>
      <trkpt lat="45.69799" lon="3.13818">
        <ele>400.216003</ele>
        <time>2011-07-14T10:11:53Z</time>
      </trkpt>
      <trkpt lat="45.69805" lon="3.13798">
        <ele>400.587982</ele>
        <time>2011-07-14T10:11:55Z</time>
      </trkpt>
      <trkpt lat="45.69811" lon="3.1378">
        <ele>401.001343</ele>
        <time>2011-07-14T10:11:57Z</time>
      </trkpt>
      <trkpt lat="45.69819" lon="3.13765">
        <ele>400.981079</ele>
        <time>2011-07-14T10:11:59Z</time>
      </trkpt>
      <trkpt lat="45.69824" lon="3.1375">
        <ele>400.946259</ele>
        <time>2011-07-14T10:12:01Z</time>
      </trkpt>
      <trkpt lat="45.69828" lon="3.13737">
        <ele>400.888763</ele>
        <time>2011-07-14T10:12:03Z</time>
      </trkpt>
      <trkpt lat="45.69832" lon="3.13724">
        <ele>400.657501</ele>
        <time>2011-07-14T10:12:05Z</time>
      </trkpt>
      <trkpt lat="45.69837" lon="3.13711">
        <ele>400.440674</ele>
        <time>2011-07-14T10:12:07Z</time>
      </trkpt>
      <trkpt lat="45.69842" lon="3.137">
        <ele>400.627991</ele>
        <time>2011-07-14T10:12:10Z</time>
      </trkpt>
      <trkpt lat="45.69841" lon="3.13695">
        <ele>400.681458</ele>
        <time>2011-07-14T10:13:33Z</time>
      </trkpt>
      <trkpt lat="45.69844" lon="3.13687">
        <ele>400.725983</ele>
        <time>2011-07-14T10:16:21Z</time>
      </trkpt>
      <trkpt lat="45.69849" lon="3.13676">
        <ele>400.708038</ele>
        <time>2011-07-14T10:16:32Z</time>
      </trkpt>
      <trkpt lat="45.69852" lon="3.13662">
        <ele>400.91864</ele>
        <time>2011-07-14T10:16:38Z</time>
      </trkpt>
      <trkpt lat="45.69853" lon="3.13647">
        <ele>401.16095</ele>
        <time>2011-07-14T10:16:41Z</time>
      </trkpt>
      <trkpt lat="45.69854" lon="3.13627">
        <ele>401.519012</ele>
        <time>2011-07-14T10:16:44Z</time>
      </trkpt>
      <trkpt lat="45.69853" lon="3.13612">
        <ele>401.825897</ele>
        <time>2011-07-14T10:16:46Z</time>
      </trkpt>
      <trkpt lat="45.69853" lon="3.13597">
        <ele>402.299988</ele>
        <time>2011-07-14T10:16:48Z</time>
      </trkpt>
      <trkpt lat="45.69854" lon="3.1358">
        <ele>402.767517</ele>
        <time>2011-07-14T10:16:50Z</time>
      </trkpt>
      <trkpt lat="45.69855" lon="3.13564">
        <ele>403.26001</ele>
        <time>2011-07-14T10:16:52Z</time>
      </trkpt>
      <trkpt lat="45.69855" lon="3.1355">
        <ele>403.702515</ele>
        <time>2011-07-14T10:16:54Z</time>
      </trkpt>
      <trkpt lat="45.69856" lon="3.13538">
        <ele>403.761414</ele>
        <time>2011-07-14T10:16:56Z</time>
      </trkpt>
      <trkpt lat="45.69857" lon="3.13524">
        <ele>403.713196</ele>
        <time>2011-07-14T10:16:59Z</time>
      </trkpt>
      <trkpt lat="45.69858" lon="3.1351">
        <ele>403.624268</ele>
        <time>2011-07-14T10:17:05Z</time>
      </trkpt>
      <trkpt lat="45.69858" lon="3.13496">
        <ele>403.648132</ele>
        <time>2011-07-14T10:17:11Z</time>
      </trkpt>
      <trkpt lat="45.69855" lon="3.13478">
        <ele>404.082489</ele>
        <time>2011-07-14T10:17:15Z</time>
      </trkpt>
      <trkpt lat="45.69854" lon="3.13461">
        <ele>404.511261</ele>
        <time>2011-07-14T10:17:18Z</time>
      </trkpt>
      <trkpt lat="45.69853" lon="3.1344">
        <ele>404.985016</ele>
        <time>2011-07-14T10:17:21Z</time>
      </trkpt>
      <trkpt lat="45.69854" lon="3.13422">
        <ele>405.165009</ele>
        <time>2011-07-14T10:17:23Z</time>
      </trkpt>
      <trkpt lat="45.69856" lon="3.13402">
        <ele>405.293671</ele>
        <time>2011-07-14T10:17:25Z</time>
      </trkpt>
      <trkpt lat="45.69858" lon="3.13383">
        <ele>405.586609</ele>
        <time>2011-07-14T10:17:27Z</time>
      </trkpt>
      <trkpt lat="45.69859" lon="3.13365">
        <ele>405.892792</ele>
        <time>2011-07-14T10:17:29Z</time>
      </trkpt>
      <trkpt lat="45.6986" lon="3.13346">
        <ele>406.265717</ele>
        <time>2011-07-14T10:17:31Z</time>
      </trkpt>
      <trkpt lat="45.69861" lon="3.13327">
        <ele>406.813782</ele>
        <time>2011-07-14T10:17:33Z</time>
      </trkpt>
      <trkpt lat="45.69861" lon="3.13308">
        <ele>407.414642</ele>
        <time>2011-07-14T10:17:35Z</time>
      </trkpt>
      <trkpt lat="45.69861" lon="3.13289">
        <ele>407.998749</ele>
        <time>2011-07-14T10:17:37Z</time>
      </trkpt>
      <trkpt lat="45.69861" lon="3.13271">
        <ele>408.299988</ele>
        <time>2011-07-14T10:17:39Z</time>
      </trkpt>
      <trkpt lat="45.69862" lon="3.13254">
        <ele>408.554993</ele>
        <time>2011-07-14T10:17:41Z</time>
      </trkpt>
      <trkpt lat="45.69861" lon="3.13237">
        <ele>408.860016</ele>
        <time>2011-07-14T10:17:43Z</time>
      </trkpt>
      <trkpt lat="45.69859" lon="3.1322">
        <ele>409.226257</ele>
        <time>2011-07-14T10:17:45Z</time>
      </trkpt>
      <trkpt lat="45.69856" lon="3.13202">
        <ele>409.602509</ele>
        <time>2011-07-14T10:17:47Z</time>
      </trkpt>
      <trkpt lat="45.69855" lon="3.13187">
        <ele>409.932495</ele>
        <time>2011-07-14T10:17:49Z</time>
      </trkpt>
      <trkpt lat="45.69854" lon="3.13174">
        <ele>410.151245</ele>
        <time>2011-07-14T10:17:51Z</time>
      </trkpt>
      <trkpt lat="45.69855" lon="3.1316">
        <ele>410.364746</ele>
        <time>2011-07-14T10:17:54Z</time>
      </trkpt>
      <trkpt lat="45.69852" lon="3.13147">
        <ele>410.626343</ele>
        <time>2011-07-14T10:17:58Z</time>
      </trkpt>
      <trkpt lat="45.69847" lon="3.13135">
        <ele>410.871704</ele>
        <time>2011-07-14T10:18:04Z</time>
      </trkpt>
      <trkpt lat="45.69842" lon="3.13122">
        <ele>410.99292</ele>
        <time>2011-07-14T10:18:11Z</time>
      </trkpt>
      <trkpt lat="45.69835" lon="3.13111">
        <ele>411.337982</ele>
        <time>2011-07-14T10:18:18Z</time>
      </trkpt>
      <trkpt lat="45.69831" lon="3.13099">
        <ele>411.64386</ele>
        <time>2011-07-14T10:18:25Z</time>
      </trkpt>
      <trkpt lat="45.69824" lon="3.13088">
        <ele>412.346252</ele>
        <time>2011-07-14T10:18:32Z</time>
      </trkpt>
      <trkpt lat="45.69817" lon="3.13078">
        <ele>412.98114</ele>
        <time>2011-07-14T10:18:39Z</time>
      </trkpt>
      <trkpt lat="45.6981" lon="3.13069">
        <ele>413.4552</ele>
        <time>2011-07-14T10:18:46Z</time>
      </trkpt>
      <trkpt lat="45.69803" lon="3.1306">
        <ele>413.797424</ele>
        <time>2011-07-14T10:18:53Z</time>
      </trkpt>
      <trkpt lat="45.69795" lon="3.13051">
        <ele>414.032959</ele>
        <time>2011-07-14T10:19:01Z</time>
      </trkpt>
      <trkpt lat="45.69786" lon="3.13053">
        <ele>414.683929</ele>
        <time>2011-07-14T10:19:11Z</time>
      </trkpt>
      <trkpt lat="45.6978" lon="3.13061">
        <ele>415.208801</ele>
        <time>2011-07-14T10:19:17Z</time>
      </trkpt>
      <trkpt lat="45.69786" lon="3.13069">
        <ele>414.716003</ele>
        <time>2011-07-14T10:19:23Z</time>
      </trkpt>
      <trkpt lat="45.69791" lon="3.13082">
        <ele>414.340637</ele>
        <time>2011-07-14T10:19:30Z</time>
      </trkpt>
      <trkpt lat="45.69794" lon="3.13096">
        <ele>414.089813</ele>
        <time>2011-07-14T10:19:36Z</time>
      </trkpt>
      <trkpt lat="45.69795" lon="3.1311">
        <ele>414.254181</ele>
        <time>2011-07-14T10:19:43Z</time>
      </trkpt>
      <trkpt lat="45.69797" lon="3.13124">
        <ele>414.28183</ele>
        <time>2011-07-14T10:19:50Z</time>
      </trkpt>
      <trkpt lat="45.69796" lon="3.13138">
        <ele>414.515533</ele>
        <time>2011-07-14T10:19:57Z</time>
      </trkpt>
      <trkpt lat="45.69796" lon="3.13151">
        <ele>414.79245</ele>
        <time>2011-07-14T10:20:03Z</time>
      </trkpt>
      <trkpt lat="45.69785" lon="3.13158">
        <ele>416.06189</ele>
        <time>2011-07-14T10:20:08Z</time>
      </trkpt>
      <trkpt lat="45.69774" lon="3.1316">
        <ele>417.299988</ele>
        <time>2011-07-14T10:20:11Z</time>
      </trkpt>
      <trkpt lat="45.69764" lon="3.13162">
        <ele>418.450012</ele>
        <time>2011-07-14T10:20:14Z</time>
      </trkpt>
      <trkpt lat="45.69754" lon="3.13164">
        <ele>419.487488</ele>
        <time>2011-07-14T10:20:17Z</time>
      </trkpt>
      <trkpt lat="45.69744" lon="3.13167">
        <ele>420.575012</ele>
        <time>2011-07-14T10:20:20Z</time>
      </trkpt>
      <trkpt lat="45.69734" lon="3.13168">
        <ele>421.6875</ele>
        <time>2011-07-14T10:20:23Z</time>
      </trkpt>
      <trkpt lat="45.69723" lon="3.1317">
        <ele>422.987488</ele>
        <time>2011-07-14T10:20:27Z</time>
      </trkpt>
      <trkpt lat="45.69711" lon="3.13172">
        <ele>424.25</ele>
        <time>2011-07-14T10:20:31Z</time>
      </trkpt>
      <trkpt lat="45.697" lon="3.13175">
        <ele>425.475006</ele>
        <time>2011-07-14T10:20:35Z</time>
      </trkpt>
      <trkpt lat="45.6969" lon="3.13176">
        <ele>426.575012</ele>
        <time>2011-07-14T10:20:39Z</time>
      </trkpt>
      <trkpt lat="45.69681" lon="3.13179">
        <ele>427.649994</ele>
        <time>2011-07-14T10:20:45Z</time>
      </trkpt>
      <trkpt lat="45.6967" lon="3.13183">
        <ele>428.799988</ele>
        <time>2011-07-14T10:20:49Z</time>
      </trkpt>
      <trkpt lat="45.6966" lon="3.13186">
        <ele>429.924988</ele>
        <time>2011-07-14T10:20:53Z</time>
      </trkpt>
      <trkpt lat="45.69651" lon="3.1319">
        <ele>431.234283</ele>
        <time>2011-07-14T10:20:56Z</time>
      </trkpt>
      <trkpt lat="45.69641" lon="3.13195">
        <ele>432.712708</ele>
        <time>2011-07-14T10:21:00Z</time>
      </trkpt>
      <trkpt lat="45.6963" lon="3.132">
        <ele>434.362305</ele>
        <time>2011-07-14T10:21:05Z</time>
      </trkpt>
      <trkpt lat="45.69619" lon="3.13205">
        <ele>436.10083</ele>
        <time>2011-07-14T10:21:10Z</time>
      </trkpt>
      <trkpt lat="45.69609" lon="3.13208">
        <ele>437.552917</ele>
        <time>2011-07-14T10:21:14Z</time>
      </trkpt>
      <trkpt lat="45.69599" lon="3.13213">
        <ele>438.933075</ele>
        <time>2011-07-14T10:21:19Z</time>
      </trkpt>
      <trkpt lat="45.69589" lon="3.13219">
        <ele>440.314972</ele>
        <time>2011-07-14T10:21:28Z</time>
      </trkpt>
      <trkpt lat="45.69578" lon="3.13226">
        <ele>441.83783</ele>
        <time>2011-07-14T10:21:37Z</time>
      </trkpt>
      <trkpt lat="45.69569" lon="3.13233">
        <ele>443.248199</ele>
        <time>2011-07-14T10:21:46Z</time>
      </trkpt>
      <trkpt lat="45.69559" lon="3.1324">
        <ele>444.750397</ele>
        <time>2011-07-14T10:21:54Z</time>
      </trkpt>
      <trkpt lat="45.6955" lon="3.13246">
        <ele>446.21936</ele>
        <time>2011-07-14T10:22:02Z</time>
      </trkpt>
      <trkpt lat="45.69539" lon="3.13251">
        <ele>447.781921</ele>
        <time>2011-07-14T10:22:10Z</time>
      </trkpt>
      <trkpt lat="45.6953" lon="3.13257">
        <ele>449.099091</ele>
        <time>2011-07-14T10:22:17Z</time>
      </trkpt>
      <trkpt lat="45.69522" lon="3.13266">
        <ele>450.251526</ele>
        <time>2011-07-14T10:22:26Z</time>
      </trkpt>
      <trkpt lat="45.69514" lon="3.13276">
        <ele>451.18277</ele>
        <time>2011-07-14T10:22:35Z</time>
      </trkpt>
      <trkpt lat="45.69505" lon="3.13284">
        <ele>452.077606</ele>
        <time>2011-07-14T10:22:43Z</time>
      </trkpt>
      <trkpt lat="45.69496" lon="3.13293">
        <ele>453.0625</ele>
        <time>2011-07-14T10:22:51Z</time>
      </trkpt>
      <trkpt lat="45.69487" lon="3.13298">
        <ele>454.100006</ele>
        <time>2011-07-14T10:22:59Z</time>
      </trkpt>
      <trkpt lat="45.69483" lon="3.13284">
        <ele>454.528381</ele>
        <time>2011-07-14T10:23:06Z</time>
      </trkpt>
      <trkpt lat="45.6948" lon="3.13268">
        <ele>455.088867</ele>
        <time>2011-07-14T10:23:14Z</time>
      </trkpt>
      <trkpt lat="45.69479" lon="3.13252">
        <ele>455.466278</ele>
        <time>2011-07-14T10:23:22Z</time>
      </trkpt>
      <trkpt lat="45.6948" lon="3.13236">
        <ele>455.681824</ele>
        <time>2011-07-14T10:23:30Z</time>
      </trkpt>
      <trkpt lat="45.69479" lon="3.13221">
        <ele>456.058746</ele>
        <time>2011-07-14T10:23:38Z</time>
      </trkpt>
      <trkpt lat="45.69479" lon="3.13203">
        <ele>456.320007</ele>
        <time>2011-07-14T10:23:45Z</time>
      </trkpt>
      <trkpt lat="45.69478" lon="3.13189">
        <ele>456.600006</ele>
        <time>2011-07-14T10:23:48Z</time>
      </trkpt>
      <trkpt lat="45.69479" lon="3.13174">
        <ele>456.821259</ele>
        <time>2011-07-14T10:23:51Z</time>
      </trkpt>
      <trkpt lat="45.69478" lon="3.13157">
        <ele>457.186249</ele>
        <time>2011-07-14T10:23:57Z</time>
      </trkpt>
      <trkpt lat="45.69478" lon="3.13142">
        <ele>456.989777</ele>
        <time>2011-07-14T10:24:03Z</time>
      </trkpt>
      <trkpt lat="45.69479" lon="3.13125">
        <ele>456.704681</ele>
        <time>2011-07-14T10:24:11Z</time>
      </trkpt>
      <trkpt lat="45.69478" lon="3.1311">
        <ele>456.538757</ele>
        <time>2011-07-14T10:24:19Z</time>
      </trkpt>
      <trkpt lat="45.69479" lon="3.13093">
        <ele>456.154388</ele>
        <time>2011-07-14T10:24:28Z</time>
      </trkpt>
      <trkpt lat="45.69481" lon="3.13077">
        <ele>455.981934</ele>
        <time>2011-07-14T10:24:36Z</time>
      </trkpt>
      <trkpt lat="45.69481" lon="3.13062">
        <ele>455.888031</ele>
        <time>2011-07-14T10:24:45Z</time>
      </trkpt>
      <trkpt lat="45.69482" lon="3.13048">
        <ele>455.788635</ele>
        <time>2011-07-14T10:24:53Z</time>
      </trkpt>
      <trkpt lat="45.69483" lon="3.13034">
        <ele>455.565765</ele>
        <time>2011-07-14T10:25:02Z</time>
      </trkpt>
      <trkpt lat="45.69486" lon="3.13019">
        <ele>454.939301</ele>
        <time>2011-07-14T10:25:21Z</time>
      </trkpt>
      <trkpt lat="45.69488" lon="3.13004">
        <ele>454.434601</ele>
        <time>2011-07-14T10:25:29Z</time>
      </trkpt>
      <trkpt lat="45.6949" lon="3.12989">
        <ele>454.059265</ele>
        <time>2011-07-14T10:25:37Z</time>
      </trkpt>
      <trkpt lat="45.69491" lon="3.12975">
        <ele>453.703308</ele>
        <time>2011-07-14T10:25:46Z</time>
      </trkpt>
      <trkpt lat="45.69491" lon="3.12962">
        <ele>453.670288</ele>
        <time>2011-07-14T10:25:55Z</time>
      </trkpt>
      <trkpt lat="45.69494" lon="3.1295">
        <ele>453.58075</ele>
        <time>2011-07-14T10:26:16Z</time>
      </trkpt>
      <trkpt lat="45.69492" lon="3.12937">
        <ele>454.104065</ele>
        <time>2011-07-14T10:26:25Z</time>
      </trkpt>
      <trkpt lat="45.69483" lon="3.12931">
        <ele>455.26886</ele>
        <time>2011-07-14T10:26:34Z</time>
      </trkpt>
      <trkpt lat="45.69475" lon="3.12925">
        <ele>456.476257</ele>
        <time>2011-07-14T10:26:42Z</time>
      </trkpt>
      <trkpt lat="45.69466" lon="3.12918">
        <ele>457.726257</ele>
        <time>2011-07-14T10:26:51Z</time>
      </trkpt>
      <trkpt lat="45.69457" lon="3.12912">
        <ele>459.065002</ele>
        <time>2011-07-14T10:27:00Z</time>
      </trkpt>
      <trkpt lat="45.69448" lon="3.12907">
        <ele>460.276245</ele>
        <time>2011-07-14T10:27:08Z</time>
      </trkpt>
      <trkpt lat="45.69439" lon="3.12904">
        <ele>461.537506</ele>
        <time>2011-07-14T10:27:17Z</time>
      </trkpt>
      <trkpt lat="45.69429" lon="3.12901">
        <ele>462.761139</ele>
        <time>2011-07-14T10:27:25Z</time>
      </trkpt>
      <trkpt lat="45.69419" lon="3.129">
        <ele>463.903473</ele>
        <time>2011-07-14T10:27:33Z</time>
      </trkpt>
      <trkpt lat="45.69409" lon="3.12899">
        <ele>465.053772</ele>
        <time>2011-07-14T10:27:41Z</time>
      </trkpt>
      <trkpt lat="45.69399" lon="3.12897">
        <ele>466.243744</ele>
        <time>2011-07-14T10:27:50Z</time>
      </trkpt>
      <trkpt lat="45.69389" lon="3.12896">
        <ele>467.274597</ele>
        <time>2011-07-14T10:27:58Z</time>
      </trkpt>
      <trkpt lat="45.6938" lon="3.12891">
        <ele>468.10611</ele>
        <time>2011-07-14T10:28:06Z</time>
      </trkpt>
      <trkpt lat="45.69383" lon="3.1288">
        <ele>468.033295</ele>
        <time>2011-07-14T10:30:11Z</time>
      </trkpt>
      <trkpt lat="45.69387" lon="3.12868">
        <ele>467.811737</ele>
        <time>2011-07-14T10:30:20Z</time>
      </trkpt>
      <trkpt lat="45.69391" lon="3.12855">
        <ele>467.742493</ele>
        <time>2011-07-14T10:30:27Z</time>
      </trkpt>
      <trkpt lat="45.69397" lon="3.12844">
        <ele>467.243744</ele>
        <time>2011-07-14T10:30:31Z</time>
      </trkpt>
      <trkpt lat="45.69404" lon="3.1283">
        <ele>466.674988</ele>
        <time>2011-07-14T10:30:34Z</time>
      </trkpt>
      <trkpt lat="45.69409" lon="3.12817">
        <ele>466.162506</ele>
        <time>2011-07-14T10:30:36Z</time>
      </trkpt>
      <trkpt lat="45.69414" lon="3.12803">
        <ele>465.637512</ele>
        <time>2011-07-14T10:30:38Z</time>
      </trkpt>
      <trkpt lat="45.69418" lon="3.12788">
        <ele>465.112488</ele>
        <time>2011-07-14T10:30:40Z</time>
      </trkpt>
      <trkpt lat="45.69423" lon="3.12771">
        <ele>464.612488</ele>
        <time>2011-07-14T10:30:42Z</time>
      </trkpt>
      <trkpt lat="45.69427" lon="3.12754">
        <ele>463.705444</ele>
        <time>2011-07-14T10:30:44Z</time>
      </trkpt>
      <trkpt lat="45.69432" lon="3.12737">
        <ele>462.707733</ele>
        <time>2011-07-14T10:30:46Z</time>
      </trkpt>
      <trkpt lat="45.69435" lon="3.12721">
        <ele>461.792145</ele>
        <time>2011-07-14T10:30:48Z</time>
      </trkpt>
      <trkpt lat="45.69439" lon="3.12706">
        <ele>460.907501</ele>
        <time>2011-07-14T10:30:50Z</time>
      </trkpt>
      <trkpt lat="45.69441" lon="3.12692">
        <ele>460.789185</ele>
        <time>2011-07-14T10:30:52Z</time>
      </trkpt>
      <trkpt lat="45.69446" lon="3.12672">
        <ele>460.594238</ele>
        <time>2011-07-14T10:30:55Z</time>
      </trkpt>
      <trkpt lat="45.69449" lon="3.1266">
        <ele>460.438049</ele>
        <time>2011-07-14T10:30:57Z</time>
      </trkpt>
      <trkpt lat="45.69453" lon="3.12645">
        <ele>460.365814</ele>
        <time>2011-07-14T10:31:00Z</time>
      </trkpt>
      <trkpt lat="45.69456" lon="3.12629">
        <ele>460.48999</ele>
        <time>2011-07-14T10:31:04Z</time>
      </trkpt>
      <trkpt lat="45.69458" lon="3.12616">
        <ele>460.649994</ele>
        <time>2011-07-14T10:31:06Z</time>
      </trkpt>
      <trkpt lat="45.6946" lon="3.126">
        <ele>460.902496</ele>
        <time>2011-07-14T10:31:08Z</time>
      </trkpt>
      <trkpt lat="45.69462" lon="3.12583">
        <ele>461.225006</ele>
        <time>2011-07-14T10:31:10Z</time>
      </trkpt>
      <trkpt lat="45.69464" lon="3.12567">
        <ele>461.485046</ele>
        <time>2011-07-14T10:31:12Z</time>
      </trkpt>
      <trkpt lat="45.69466" lon="3.12548">
        <ele>461.751343</ele>
        <time>2011-07-14T10:31:14Z</time>
      </trkpt>
      <trkpt lat="45.69469" lon="3.12527">
        <ele>462.051239</ele>
        <time>2011-07-14T10:31:16Z</time>
      </trkpt>
      <trkpt lat="45.69472" lon="3.12506">
        <ele>462.238739</ele>
        <time>2011-07-14T10:31:18Z</time>
      </trkpt>
      <trkpt lat="45.69475" lon="3.12486">
        <ele>462.311249</ele>
        <time>2011-07-14T10:31:20Z</time>
      </trkpt>
      <trkpt lat="45.69477" lon="3.12467">
        <ele>462.378754</ele>
        <time>2011-07-14T10:31:22Z</time>
      </trkpt>
      <trkpt lat="45.69481" lon="3.12449">
        <ele>462.381317</ele>
        <time>2011-07-14T10:31:24Z</time>
      </trkpt>
      <trkpt lat="45.69484" lon="3.12431">
        <ele>462.128845</ele>
        <time>2011-07-14T10:31:26Z</time>
      </trkpt>
      <trkpt lat="45.69486" lon="3.12412">
        <ele>461.860321</ele>
        <time>2011-07-14T10:31:28Z</time>
      </trkpt>
      <trkpt lat="45.69487" lon="3.12394">
        <ele>461.706635</ele>
        <time>2011-07-14T10:31:30Z</time>
      </trkpt>
      <trkpt lat="45.69489" lon="3.12377">
        <ele>461.535004</ele>
        <time>2011-07-14T10:31:32Z</time>
      </trkpt>
      <trkpt lat="45.6949" lon="3.12358">
        <ele>461.355011</ele>
        <time>2011-07-14T10:31:35Z</time>
      </trkpt>
      <trkpt lat="45.69493" lon="3.12345">
        <ele>460.950012</ele>
        <time>2011-07-14T10:31:39Z</time>
      </trkpt>
      <trkpt lat="45.69497" lon="3.12333">
        <ele>460.5</ele>
        <time>2011-07-14T10:31:44Z</time>
      </trkpt>
      <trkpt lat="45.69501" lon="3.12319">
        <ele>459.897491</ele>
        <time>2011-07-14T10:31:53Z</time>
      </trkpt>
      <trkpt lat="45.69504" lon="3.12305">
        <ele>459.117493</ele>
        <time>2011-07-14T10:32:00Z</time>
      </trkpt>
      <trkpt lat="45.69508" lon="3.12291">
        <ele>458.142487</ele>
        <time>2011-07-14T10:32:08Z</time>
      </trkpt>
      <trkpt lat="45.69512" lon="3.12277">
        <ele>457.17749</ele>
        <time>2011-07-14T10:32:16Z</time>
      </trkpt>
      <trkpt lat="45.69514" lon="3.12261">
        <ele>456.342499</ele>
        <time>2011-07-14T10:32:24Z</time>
      </trkpt>
      <trkpt lat="45.69513" lon="3.12248">
        <ele>456.162506</ele>
        <time>2011-07-14T10:32:31Z</time>
      </trkpt>
      <trkpt lat="45.69503" lon="3.12249">
        <ele>457.445007</ele>
        <time>2011-07-14T10:32:35Z</time>
      </trkpt>
      <trkpt lat="45.69495" lon="3.12256">
        <ele>458.792511</ele>
        <time>2011-07-14T10:32:38Z</time>
      </trkpt>
      <trkpt lat="45.69486" lon="3.12266">
        <ele>460.274994</ele>
        <time>2011-07-14T10:32:41Z</time>
      </trkpt>
      <trkpt lat="45.69475" lon="3.12274">
        <ele>461.709991</ele>
        <time>2011-07-14T10:32:44Z</time>
      </trkpt>
      <trkpt lat="45.69467" lon="3.12275">
        <ele>462.735016</ele>
        <time>2011-07-14T10:32:46Z</time>
      </trkpt>
      <trkpt lat="45.69455" lon="3.12275">
        <ele>464.022491</ele>
        <time>2011-07-14T10:32:49Z</time>
      </trkpt>
      <trkpt lat="45.69442" lon="3.12277">
        <ele>465.487488</ele>
        <time>2011-07-14T10:32:52Z</time>
      </trkpt>
      <trkpt lat="45.6943" lon="3.12277">
        <ele>466.894989</ele>
        <time>2011-07-14T10:32:55Z</time>
      </trkpt>
      <trkpt lat="45.69417" lon="3.12277">
        <ele>468.262512</ele>
        <time>2011-07-14T10:32:58Z</time>
      </trkpt>
      <trkpt lat="45.69404" lon="3.12277">
        <ele>469.742493</ele>
        <time>2011-07-14T10:33:01Z</time>
      </trkpt>
      <trkpt lat="45.69395" lon="3.12278">
        <ele>470.804871</ele>
        <time>2011-07-14T10:33:03Z</time>
      </trkpt>
      <trkpt lat="45.69381" lon="3.12276">
        <ele>472.593689</ele>
        <time>2011-07-14T10:33:06Z</time>
      </trkpt>
      <trkpt lat="45.69371" lon="3.12275">
        <ele>473.791992</ele>
        <time>2011-07-14T10:33:08Z</time>
      </trkpt>
      <trkpt lat="45.69356" lon="3.1227">
        <ele>475.559479</ele>
        <time>2011-07-14T10:33:11Z</time>
      </trkpt>
      <trkpt lat="45.69347" lon="3.12266">
        <ele>476.702454</ele>
        <time>2011-07-14T10:33:13Z</time>
      </trkpt>
      <trkpt lat="45.69334" lon="3.12259">
        <ele>478.332825</ele>
        <time>2011-07-14T10:33:16Z</time>
      </trkpt>
      <trkpt lat="45.69323" lon="3.12254">
        <ele>479.723907</ele>
        <time>2011-07-14T10:33:19Z</time>
      </trkpt>
      <trkpt lat="45.69314" lon="3.12249">
        <ele>480.992249</ele>
        <time>2011-07-14T10:33:22Z</time>
      </trkpt>
      <trkpt lat="45.69305" lon="3.12245">
        <ele>482.303741</ele>
        <time>2011-07-14T10:33:25Z</time>
      </trkpt>
      <trkpt lat="45.69297" lon="3.12239">
        <ele>483.533752</ele>
        <time>2011-07-14T10:33:28Z</time>
      </trkpt>
      <trkpt lat="45.6929" lon="3.1223">
        <ele>484.626251</ele>
        <time>2011-07-14T10:33:31Z</time>
      </trkpt>
      <trkpt lat="45.69287" lon="3.12213">
        <ele>485.238739</ele>
        <time>2011-07-14T10:33:34Z</time>
      </trkpt>
      <trkpt lat="45.69289" lon="3.12197">
        <ele>485.285004</ele>
        <time>2011-07-14T10:33:36Z</time>
      </trkpt>
      <trkpt lat="45.69291" lon="3.12178">
        <ele>485.058594</ele>
        <time>2011-07-14T10:33:38Z</time>
      </trkpt>
      <trkpt lat="45.69292" lon="3.1216">
        <ele>484.803284</ele>
        <time>2011-07-14T10:33:40Z</time>
      </trkpt>
      <trkpt lat="45.69293" lon="3.12144">
        <ele>484.51001</ele>
        <time>2011-07-14T10:33:42Z</time>
      </trkpt>
      <trkpt lat="45.69295" lon="3.12128">
        <ele>484.111267</ele>
        <time>2011-07-14T10:33:44Z</time>
      </trkpt>
      <trkpt lat="45.69298" lon="3.12112">
        <ele>483.613312</ele>
        <time>2011-07-14T10:33:46Z</time>
      </trkpt>
      <trkpt lat="45.693" lon="3.12095">
        <ele>483.297424</ele>
        <time>2011-07-14T10:33:48Z</time>
      </trkpt>
      <trkpt lat="45.693" lon="3.12078">
        <ele>483.251709</ele>
        <time>2011-07-14T10:33:50Z</time>
      </trkpt>
      <trkpt lat="45.69299" lon="3.12063">
        <ele>483.385956</ele>
        <time>2011-07-14T10:33:52Z</time>
      </trkpt>
      <trkpt lat="45.69297" lon="3.12048">
        <ele>483.762939</ele>
        <time>2011-07-14T10:33:54Z</time>
      </trkpt>
      <trkpt lat="45.69295" lon="3.12032">
        <ele>484.180328</ele>
        <time>2011-07-14T10:33:56Z</time>
      </trkpt>
      <trkpt lat="45.69291" lon="3.12017">
        <ele>484.743317</ele>
        <time>2011-07-14T10:33:58Z</time>
      </trkpt>
      <trkpt lat="45.69284" lon="3.12002">
        <ele>485.680267</ele>
        <time>2011-07-14T10:34:01Z</time>
      </trkpt>
      <trkpt lat="45.69273" lon="3.11996">
        <ele>486.887573</ele>
        <time>2011-07-14T10:34:04Z</time>
      </trkpt>
      <trkpt lat="45.69263" lon="3.11997">
        <ele>488.081238</ele>
        <time>2011-07-14T10:34:07Z</time>
      </trkpt>
      <trkpt lat="45.69252" lon="3.12004">
        <ele>489.940277</ele>
        <time>2011-07-14T10:34:11Z</time>
      </trkpt>
      <trkpt lat="45.69244" lon="3.12012">
        <ele>491.417603</ele>
        <time>2011-07-14T10:34:16Z</time>
      </trkpt>
      <trkpt lat="45.69237" lon="3.12021">
        <ele>492.616669</ele>
        <time>2011-07-14T10:34:23Z</time>
      </trkpt>
      <trkpt lat="45.69228" lon="3.1203">
        <ele>493.901367</ele>
        <time>2011-07-14T10:34:31Z</time>
      </trkpt>
      <trkpt lat="45.6922" lon="3.12035">
        <ele>495.132599</ele>
        <time>2011-07-14T10:34:38Z</time>
      </trkpt>
      <trkpt lat="45.69209" lon="3.1204">
        <ele>496.654999</ele>
        <time>2011-07-14T10:34:46Z</time>
      </trkpt>
      <trkpt lat="45.69199" lon="3.12043">
        <ele>498.131256</ele>
        <time>2011-07-14T10:34:53Z</time>
      </trkpt>
      <trkpt lat="45.6919" lon="3.12047">
        <ele>499.571259</ele>
        <time>2011-07-14T10:35:01Z</time>
      </trkpt>
      <trkpt lat="45.69181" lon="3.1205">
        <ele>500.894989</ele>
        <time>2011-07-14T10:35:09Z</time>
      </trkpt>
      <trkpt lat="45.69172" lon="3.12054">
        <ele>502.266235</ele>
        <time>2011-07-14T10:35:17Z</time>
      </trkpt>
      <trkpt lat="45.69163" lon="3.12059">
        <ele>503.496246</ele>
        <time>2011-07-14T10:35:25Z</time>
      </trkpt>
      <trkpt lat="45.69154" lon="3.12063">
        <ele>504.9198</ele>
        <time>2011-07-14T10:35:33Z</time>
      </trkpt>
      <trkpt lat="45.69146" lon="3.12069">
        <ele>506.222717</ele>
        <time>2011-07-14T10:35:41Z</time>
      </trkpt>
      <trkpt lat="45.69138" lon="3.12079">
        <ele>507.408447</ele>
        <time>2011-07-14T10:35:51Z</time>
      </trkpt>
      <trkpt lat="45.69133" lon="3.12089">
        <ele>508.166138</ele>
        <time>2011-07-14T10:35:57Z</time>
      </trkpt>
      <trkpt lat="45.69123" lon="3.12094">
        <ele>509.518097</ele>
        <time>2011-07-14T10:36:03Z</time>
      </trkpt>
      <trkpt lat="45.69112" lon="3.121">
        <ele>510.86261</ele>
        <time>2011-07-14T10:36:11Z</time>
      </trkpt>
      <trkpt lat="45.69102" lon="3.12107">
        <ele>511.892303</ele>
        <time>2011-07-14T10:36:20Z</time>
      </trkpt>
      <trkpt lat="45.69091" lon="3.12112">
        <ele>513.133972</ele>
        <time>2011-07-14T10:36:28Z</time>
      </trkpt>
      <trkpt lat="45.69081" lon="3.12118">
        <ele>514.230408</ele>
        <time>2011-07-14T10:36:36Z</time>
      </trkpt>
      <trkpt lat="45.69073" lon="3.12124">
        <ele>515.288635</ele>
        <time>2011-07-14T10:36:43Z</time>
      </trkpt>
      <trkpt lat="45.69064" lon="3.12131">
        <ele>516.600342</ele>
        <time>2011-07-14T10:36:51Z</time>
      </trkpt>
      <trkpt lat="45.69055" lon="3.12136">
        <ele>518.007568</ele>
        <time>2011-07-14T10:36:58Z</time>
      </trkpt>
      <trkpt lat="45.69045" lon="3.12143">
        <ele>519.572266</ele>
        <time>2011-07-14T10:37:05Z</time>
      </trkpt>
      <trkpt lat="45.69035" lon="3.12149">
        <ele>521.137451</ele>
        <time>2011-07-14T10:37:11Z</time>
      </trkpt>
      <trkpt lat="45.69027" lon="3.12155">
        <ele>522.717407</ele>
        <time>2011-07-14T10:37:17Z</time>
      </trkpt>
      <trkpt lat="45.69018" lon="3.12161">
        <ele>524.41925</ele>
        <time>2011-07-14T10:37:23Z</time>
      </trkpt>
      <trkpt lat="45.69009" lon="3.12167">
        <ele>526.15802</ele>
        <time>2011-07-14T10:37:30Z</time>
      </trkpt>
      <trkpt lat="45.69001" lon="3.12173">
        <ele>527.770996</ele>
        <time>2011-07-14T10:37:37Z</time>
      </trkpt>
      <trkpt lat="45.68991" lon="3.12178">
        <ele>529.698059</ele>
        <time>2011-07-14T10:37:45Z</time>
      </trkpt>
      <trkpt lat="45.68983" lon="3.12184">
        <ele>530.922791</ele>
        <time>2011-07-14T10:37:52Z</time>
      </trkpt>
      <trkpt lat="45.68975" lon="3.12193">
        <ele>532.188171</ele>
        <time>2011-07-14T10:38:00Z</time>
      </trkpt>
      <trkpt lat="45.68965" lon="3.12198">
        <ele>533.386963</ele>
        <time>2011-07-14T10:38:07Z</time>
      </trkpt>
      <trkpt lat="45.68956" lon="3.12203">
        <ele>534.562561</ele>
        <time>2011-07-14T10:38:15Z</time>
      </trkpt>
      <trkpt lat="45.68949" lon="3.1221">
        <ele>535.5495</ele>
        <time>2011-07-14T10:38:23Z</time>
      </trkpt>
      <trkpt lat="45.68942" lon="3.1222">
        <ele>536.495728</ele>
        <time>2011-07-14T10:38:32Z</time>
      </trkpt>
      <trkpt lat="45.68937" lon="3.12231">
        <ele>537.362427</ele>
        <time>2011-07-14T10:38:40Z</time>
      </trkpt>
      <trkpt lat="45.68931" lon="3.12242">
        <ele>538.222656</ele>
        <time>2011-07-14T10:38:47Z</time>
      </trkpt>
      <trkpt lat="45.68925" lon="3.12252">
        <ele>538.889709</ele>
        <time>2011-07-14T10:38:53Z</time>
      </trkpt>
      <trkpt lat="45.68918" lon="3.12262">
        <ele>539.343384</ele>
        <time>2011-07-14T10:39:00Z</time>
      </trkpt>
      <trkpt lat="45.6891" lon="3.1227">
        <ele>539.931824</ele>
        <time>2011-07-14T10:39:07Z</time>
      </trkpt>
      <trkpt lat="45.68899" lon="3.12275">
        <ele>540.812378</ele>
        <time>2011-07-14T10:39:14Z</time>
      </trkpt>
      <trkpt lat="45.6889" lon="3.12279">
        <ele>541.933899</ele>
        <time>2011-07-14T10:39:22Z</time>
      </trkpt>
      <trkpt lat="45.6888" lon="3.12284">
        <ele>543.018921</ele>
        <time>2011-07-14T10:39:31Z</time>
      </trkpt>
      <trkpt lat="45.68871" lon="3.12286">
        <ele>544.200073</ele>
        <time>2011-07-14T10:39:38Z</time>
      </trkpt>
      <trkpt lat="45.68861" lon="3.12286">
        <ele>545.39856</ele>
        <time>2011-07-14T10:39:45Z</time>
      </trkpt>
      <trkpt lat="45.68851" lon="3.12286">
        <ele>546.575012</ele>
        <time>2011-07-14T10:39:54Z</time>
      </trkpt>
      <trkpt lat="45.68842" lon="3.12287">
        <ele>547.5625</ele>
        <time>2011-07-14T10:40:01Z</time>
      </trkpt>
      <trkpt lat="45.68833" lon="3.12287">
        <ele>548.612488</ele>
        <time>2011-07-14T10:40:08Z</time>
      </trkpt>
      <trkpt lat="45.68823" lon="3.12289">
        <ele>549.712524</ele>
        <time>2011-07-14T10:40:16Z</time>
      </trkpt>
      <trkpt lat="45.68813" lon="3.12292">
        <ele>550.775024</ele>
        <time>2011-07-14T10:40:24Z</time>
      </trkpt>
      <trkpt lat="45.68805" lon="3.12293">
        <ele>551.580017</ele>
        <time>2011-07-14T10:40:31Z</time>
      </trkpt>
      <trkpt lat="45.68802" lon="3.1228">
        <ele>551.789978</ele>
        <time>2011-07-14T10:40:45Z</time>
      </trkpt>
      <trkpt lat="45.68799" lon="3.12265">
        <ele>552.090027</ele>
        <time>2011-07-14T10:40:53Z</time>
      </trkpt>
      <trkpt lat="45.68795" lon="3.12251">
        <ele>552.450012</ele>
        <time>2011-07-14T10:41:01Z</time>
      </trkpt>
      <trkpt lat="45.68791" lon="3.1224">
        <ele>552.899719</ele>
        <time>2011-07-14T10:41:08Z</time>
      </trkpt>
      <trkpt lat="45.68788" lon="3.12244">
        <ele>553.145813</ele>
        <time>2011-07-14T10:41:35Z</time>
      </trkpt>
      <trkpt lat="45.68777" lon="3.12242">
        <ele>554.112915</ele>
        <time>2011-07-14T10:42:01Z</time>
      </trkpt>
      <trkpt lat="45.68768" lon="3.12237">
        <ele>554.997986</ele>
        <time>2011-07-14T10:42:08Z</time>
      </trkpt>
      <trkpt lat="45.68758" lon="3.12233">
        <ele>556.439392</ele>
        <time>2011-07-14T10:42:16Z</time>
      </trkpt>
      <trkpt lat="45.68749" lon="3.12226">
        <ele>557.856079</ele>
        <time>2011-07-14T10:42:24Z</time>
      </trkpt>
      <trkpt lat="45.68742" lon="3.1222">
        <ele>559.070251</ele>
        <time>2011-07-14T10:42:32Z</time>
      </trkpt>
      <trkpt lat="45.68733" lon="3.12214">
        <ele>560.309692</ele>
        <time>2011-07-14T10:42:40Z</time>
      </trkpt>
      <trkpt lat="45.68725" lon="3.12209">
        <ele>561.50238</ele>
        <time>2011-07-14T10:42:47Z</time>
      </trkpt>
      <trkpt lat="45.68724" lon="3.12201">
        <ele>561.638184</ele>
        <time>2011-07-14T10:43:01Z</time>
      </trkpt>
      <trkpt lat="45.68726" lon="3.12186">
        <ele>561.39325</ele>
        <time>2011-07-14T10:43:10Z</time>
      </trkpt>
      <trkpt lat="45.6873" lon="3.12174">
        <ele>561.173584</ele>
        <time>2011-07-14T10:43:13Z</time>
      </trkpt>
      <trkpt lat="45.68735" lon="3.12157">
        <ele>560.989868</ele>
        <time>2011-07-14T10:43:17Z</time>
      </trkpt>
      <trkpt lat="45.6874" lon="3.12143">
        <ele>560.65863</ele>
        <time>2011-07-14T10:43:20Z</time>
      </trkpt>
      <trkpt lat="45.68744" lon="3.12128">
        <ele>560.373962</ele>
        <time>2011-07-14T10:43:23Z</time>
      </trkpt>
      <trkpt lat="45.6875" lon="3.12113">
        <ele>559.782471</ele>
        <time>2011-07-14T10:43:26Z</time>
      </trkpt>
      <trkpt lat="45.68753" lon="3.121">
        <ele>559.205017</ele>
        <time>2011-07-14T10:43:28Z</time>
      </trkpt>
      <trkpt lat="45.68757" lon="3.12084">
        <ele>558.609985</ele>
        <time>2011-07-14T10:43:30Z</time>
      </trkpt>
      <trkpt lat="45.68762" lon="3.12068">
        <ele>557.909973</ele>
        <time>2011-07-14T10:43:32Z</time>
      </trkpt>
      <trkpt lat="45.68766" lon="3.12051">
        <ele>557.210022</ele>
        <time>2011-07-14T10:43:34Z</time>
      </trkpt>
      <trkpt lat="45.6877" lon="3.12033">
        <ele>556.669983</ele>
        <time>2011-07-14T10:43:36Z</time>
      </trkpt>
      <trkpt lat="45.68771" lon="3.12015">
        <ele>556.580017</ele>
        <time>2011-07-14T10:43:38Z</time>
      </trkpt>
      <trkpt lat="45.6877" lon="3.11996">
        <ele>556.715027</ele>
        <time>2011-07-14T10:43:40Z</time>
      </trkpt>
      <trkpt lat="45.68769" lon="3.11978">
        <ele>556.970947</ele>
        <time>2011-07-14T10:43:42Z</time>
      </trkpt>
      <trkpt lat="45.68769" lon="3.11961">
        <ele>556.930786</ele>
        <time>2011-07-14T10:43:44Z</time>
      </trkpt>
      <trkpt lat="45.68771" lon="3.11943">
        <ele>556.750183</ele>
        <time>2011-07-14T10:43:46Z</time>
      </trkpt>
      <trkpt lat="45.68771" lon="3.11925">
        <ele>556.724976</ele>
        <time>2011-07-14T10:43:48Z</time>
      </trkpt>
      <trkpt lat="45.68769" lon="3.11906">
        <ele>556.974976</ele>
        <time>2011-07-14T10:43:50Z</time>
      </trkpt>
      <trkpt lat="45.68767" lon="3.11888">
        <ele>557.297485</ele>
        <time>2011-07-14T10:43:52Z</time>
      </trkpt>
      <trkpt lat="45.68767" lon="3.11868">
        <ele>557.38501</ele>
        <time>2011-07-14T10:43:54Z</time>
      </trkpt>
      <trkpt lat="45.68766" lon="3.11849">
        <ele>557.686279</ele>
        <time>2011-07-14T10:43:56Z</time>
      </trkpt>
      <trkpt lat="45.68765" lon="3.11829">
        <ele>558.221252</ele>
        <time>2011-07-14T10:43:58Z</time>
      </trkpt>
      <trkpt lat="45.68759" lon="3.11812">
        <ele>559.407532</ele>
        <time>2011-07-14T10:44:00Z</time>
      </trkpt>
      <trkpt lat="45.68752" lon="3.11795">
        <ele>560.712524</ele>
        <time>2011-07-14T10:44:02Z</time>
      </trkpt>
      <trkpt lat="45.68746" lon="3.1178">
        <ele>561.674988</ele>
        <time>2011-07-14T10:44:04Z</time>
      </trkpt>
      <trkpt lat="45.68741" lon="3.11765">
        <ele>562.47998</ele>
        <time>2011-07-14T10:44:06Z</time>
      </trkpt>
      <trkpt lat="45.68738" lon="3.1175">
        <ele>562.952515</ele>
        <time>2011-07-14T10:44:08Z</time>
      </trkpt>
      <trkpt lat="45.68736" lon="3.11735">
        <ele>563.284973</ele>
        <time>2011-07-14T10:44:10Z</time>
      </trkpt>
      <trkpt lat="45.68735" lon="3.11722">
        <ele>563.500122</ele>
        <time>2011-07-14T10:44:12Z</time>
      </trkpt>
      <trkpt lat="45.68734" lon="3.11708">
        <ele>563.94989</ele>
        <time>2011-07-14T10:44:15Z</time>
      </trkpt>
      <trkpt lat="45.68732" lon="3.11695">
        <ele>564.325562</ele>
        <time>2011-07-14T10:44:19Z</time>
      </trkpt>
      <trkpt lat="45.68731" lon="3.11681">
        <ele>564.796204</ele>
        <time>2011-07-14T10:44:26Z</time>
      </trkpt>
      <trkpt lat="45.6873" lon="3.11667">
        <ele>565.032471</ele>
        <time>2011-07-14T10:44:33Z</time>
      </trkpt>
      <trkpt lat="45.68729" lon="3.11652">
        <ele>565.234985</ele>
        <time>2011-07-14T10:44:41Z</time>
      </trkpt>
      <trkpt lat="45.68732" lon="3.11634">
        <ele>564.672485</ele>
        <time>2011-07-14T10:44:47Z</time>
      </trkpt>
      <trkpt lat="45.68732" lon="3.11613">
        <ele>564.695007</ele>
        <time>2011-07-14T10:44:51Z</time>
      </trkpt>
      <trkpt lat="45.68729" lon="3.11599">
        <ele>565.30249</ele>
        <time>2011-07-14T10:44:53Z</time>
      </trkpt>
      <trkpt lat="45.68726" lon="3.11582">
        <ele>566.044983</ele>
        <time>2011-07-14T10:44:55Z</time>
      </trkpt>
      <trkpt lat="45.68721" lon="3.11567">
        <ele>566.967529</ele>
        <time>2011-07-14T10:44:57Z</time>
      </trkpt>
      <trkpt lat="45.68718" lon="3.11551">
        <ele>567.755005</ele>
        <time>2011-07-14T10:44:59Z</time>
      </trkpt>
      <trkpt lat="45.68717" lon="3.11532">
        <ele>567.690002</ele>
        <time>2011-07-14T10:45:01Z</time>
      </trkpt>
      <trkpt lat="45.68715" lon="3.11514">
        <ele>567.547485</ele>
        <time>2011-07-14T10:45:03Z</time>
      </trkpt>
      <trkpt lat="45.6871" lon="3.11497">
        <ele>568.039978</ele>
        <time>2011-07-14T10:45:05Z</time>
      </trkpt>
      <trkpt lat="45.68703" lon="3.11483">
        <ele>568.875</ele>
        <time>2011-07-14T10:45:07Z</time>
      </trkpt>
      <trkpt lat="45.68697" lon="3.11469">
        <ele>570.05127</ele>
        <time>2011-07-14T10:45:09Z</time>
      </trkpt>
      <trkpt lat="45.68692" lon="3.11455">
        <ele>571.248718</ele>
        <time>2011-07-14T10:45:11Z</time>
      </trkpt>
      <trkpt lat="45.68689" lon="3.11443">
        <ele>572.203735</ele>
        <time>2011-07-14T10:45:13Z</time>
      </trkpt>
      <trkpt lat="45.68681" lon="3.11427">
        <ele>573.973328</ele>
        <time>2011-07-14T10:45:16Z</time>
      </trkpt>
      <trkpt lat="45.68675" lon="3.1141">
        <ele>575.563171</ele>
        <time>2011-07-14T10:45:19Z</time>
      </trkpt>
      <trkpt lat="45.68672" lon="3.11395">
        <ele>576.478149</ele>
        <time>2011-07-14T10:45:21Z</time>
      </trkpt>
      <trkpt lat="45.68669" lon="3.1138">
        <ele>577.327637</ele>
        <time>2011-07-14T10:45:23Z</time>
      </trkpt>
      <trkpt lat="45.68667" lon="3.11364">
        <ele>578.047363</ele>
        <time>2011-07-14T10:45:25Z</time>
      </trkpt>
      <trkpt lat="45.68667" lon="3.11348">
        <ele>578.440002</ele>
        <time>2011-07-14T10:45:27Z</time>
      </trkpt>
      <trkpt lat="45.68664" lon="3.11334">
        <ele>579.221985</ele>
        <time>2011-07-14T10:45:29Z</time>
      </trkpt>
      <trkpt lat="45.6866" lon="3.11319">
        <ele>580.24353</ele>
        <time>2011-07-14T10:45:31Z</time>
      </trkpt>
      <trkpt lat="45.68653" lon="3.11305">
        <ele>581.581299</ele>
        <time>2011-07-14T10:45:33Z</time>
      </trkpt>
      <trkpt lat="45.68648" lon="3.1129">
        <ele>582.588745</ele>
        <time>2011-07-14T10:45:35Z</time>
      </trkpt>
      <trkpt lat="45.68643" lon="3.11276">
        <ele>583.413025</ele>
        <time>2011-07-14T10:45:37Z</time>
      </trkpt>
      <trkpt lat="45.68638" lon="3.11262">
        <ele>584.053223</ele>
        <time>2011-07-14T10:45:39Z</time>
      </trkpt>
      <trkpt lat="45.68633" lon="3.11249">
        <ele>584.689514</ele>
        <time>2011-07-14T10:45:41Z</time>
      </trkpt>
      <trkpt lat="45.68626" lon="3.11234">
        <ele>585.581238</ele>
        <time>2011-07-14T10:45:44Z</time>
      </trkpt>
      <trkpt lat="45.68619" lon="3.1122">
        <ele>586.582581</ele>
        <time>2011-07-14T10:45:47Z</time>
      </trkpt>
      <trkpt lat="45.68613" lon="3.11203">
        <ele>586.853027</ele>
        <time>2011-07-14T10:45:50Z</time>
      </trkpt>
      <trkpt lat="45.68607" lon="3.1119">
        <ele>587.270569</ele>
        <time>2011-07-14T10:45:52Z</time>
      </trkpt>
      <trkpt lat="45.68601" lon="3.11178">
        <ele>588.042358</ele>
        <time>2011-07-14T10:45:54Z</time>
      </trkpt>
      <trkpt lat="45.68593" lon="3.11168">
        <ele>589.288635</ele>
        <time>2011-07-14T10:45:56Z</time>
      </trkpt>
      <trkpt lat="45.68584" lon="3.11159">
        <ele>589.962891</ele>
        <time>2011-07-14T10:45:58Z</time>
      </trkpt>
      <trkpt lat="45.68575" lon="3.1115">
        <ele>590.521057</ele>
        <time>2011-07-14T10:46:00Z</time>
      </trkpt>
      <trkpt lat="45.68566" lon="3.11142">
        <ele>591.028992</ele>
        <time>2011-07-14T10:46:02Z</time>
      </trkpt>
      <trkpt lat="45.68557" lon="3.11131">
        <ele>591.522888</ele>
        <time>2011-07-14T10:46:04Z</time>
      </trkpt>
      <trkpt lat="45.68549" lon="3.11114">
        <ele>591.888855</ele>
        <time>2011-07-14T10:46:06Z</time>
      </trkpt>
      <trkpt lat="45.6854" lon="3.11104">
        <ele>592.570435</ele>
        <time>2011-07-14T10:46:08Z</time>
      </trkpt>
      <trkpt lat="45.68533" lon="3.1109">
        <ele>593.203491</ele>
        <time>2011-07-14T10:46:10Z</time>
      </trkpt>
      <trkpt lat="45.68526" lon="3.11076">
        <ele>593.911743</ele>
        <time>2011-07-14T10:46:12Z</time>
      </trkpt>
      <trkpt lat="45.68519" lon="3.11064">
        <ele>594.683899</ele>
        <time>2011-07-14T10:46:14Z</time>
      </trkpt>
      <trkpt lat="45.68509" lon="3.11055">
        <ele>595.837646</ele>
        <time>2011-07-14T10:46:16Z</time>
      </trkpt>
      <trkpt lat="45.685" lon="3.11049">
        <ele>597.066223</ele>
        <time>2011-07-14T10:46:18Z</time>
      </trkpt>
      <trkpt lat="45.68488" lon="3.11039">
        <ele>598.51001</ele>
        <time>2011-07-14T10:46:21Z</time>
      </trkpt>
      <trkpt lat="45.68479" lon="3.11032">
        <ele>599.533752</ele>
        <time>2011-07-14T10:46:25Z</time>
      </trkpt>
      <trkpt lat="45.6847" lon="3.11027">
        <ele>600.674988</ele>
        <time>2011-07-14T10:46:33Z</time>
      </trkpt>
      <trkpt lat="45.68461" lon="3.11024">
        <ele>601.868774</ele>
        <time>2011-07-14T10:46:41Z</time>
      </trkpt>
      <trkpt lat="45.68452" lon="3.11019">
        <ele>603.029053</ele>
        <time>2011-07-14T10:46:48Z</time>
      </trkpt>
      <trkpt lat="45.68443" lon="3.11013">
        <ele>604.097412</ele>
        <time>2011-07-14T10:46:54Z</time>
      </trkpt>
      <trkpt lat="45.68435" lon="3.11004">
        <ele>604.827393</ele>
        <time>2011-07-14T10:47:01Z</time>
      </trkpt>
      <trkpt lat="45.68427" lon="3.10991">
        <ele>605.296265</ele>
        <time>2011-07-14T10:47:10Z</time>
      </trkpt>
      <trkpt lat="45.68425" lon="3.10977">
        <ele>604.776184</ele>
        <time>2011-07-14T10:47:18Z</time>
      </trkpt>
      <trkpt lat="45.68422" lon="3.10964">
        <ele>604.488831</ele>
        <time>2011-07-14T10:47:28Z</time>
      </trkpt>
      <trkpt lat="45.68414" lon="3.10945">
        <ele>604.664795</ele>
        <time>2011-07-14T10:47:55Z</time>
      </trkpt>
      <trkpt lat="45.68409" lon="3.10933">
        <ele>604.613159</ele>
        <time>2011-07-14T10:48:05Z</time>
      </trkpt>
      <trkpt lat="45.68404" lon="3.10922">
        <ele>604.735779</ele>
        <time>2011-07-14T10:48:14Z</time>
      </trkpt>
      <trkpt lat="45.68398" lon="3.10909">
        <ele>604.733948</ele>
        <time>2011-07-14T10:48:24Z</time>
      </trkpt>
      <trkpt lat="45.68395" lon="3.10894">
        <ele>604.321167</ele>
        <time>2011-07-14T10:48:32Z</time>
      </trkpt>
      <trkpt lat="45.6839" lon="3.10881">
        <ele>604.497498</ele>
        <time>2011-07-14T10:48:41Z</time>
      </trkpt>
      <trkpt lat="45.68385" lon="3.10867">
        <ele>604.630005</ele>
        <time>2011-07-14T10:48:49Z</time>
      </trkpt>
      <trkpt lat="45.68381" lon="3.10854">
        <ele>604.6875</ele>
        <time>2011-07-14T10:48:57Z</time>
      </trkpt>
      <trkpt lat="45.68379" lon="3.10839">
        <ele>604.392517</ele>
        <time>2011-07-14T10:49:05Z</time>
      </trkpt>
      <trkpt lat="45.68379" lon="3.10824">
        <ele>603.962524</ele>
        <time>2011-07-14T10:49:15Z</time>
      </trkpt>
      <trkpt lat="45.68376" lon="3.1081">
        <ele>603.85498</ele>
        <time>2011-07-14T10:49:21Z</time>
      </trkpt>
      <trkpt lat="45.68374" lon="3.10796">
        <ele>603.667542</ele>
        <time>2011-07-14T10:49:27Z</time>
      </trkpt>
      <trkpt lat="45.68372" lon="3.10783">
        <ele>603.55249</ele>
        <time>2011-07-14T10:49:34Z</time>
      </trkpt>
      <trkpt lat="45.68368" lon="3.1077">
        <ele>603.73999</ele>
        <time>2011-07-14T10:49:41Z</time>
      </trkpt>
      <trkpt lat="45.68367" lon="3.10756">
        <ele>603.641907</ele>
        <time>2011-07-14T10:49:47Z</time>
      </trkpt>
      <trkpt lat="45.68365" lon="3.10742">
        <ele>603.720459</ele>
        <time>2011-07-14T10:49:54Z</time>
      </trkpt>
      <trkpt lat="45.68362" lon="3.1073">
        <ele>603.917358</ele>
        <time>2011-07-14T10:50:01Z</time>
      </trkpt>
      <trkpt lat="45.68358" lon="3.10717">
        <ele>604.245911</ele>
        <time>2011-07-14T10:50:08Z</time>
      </trkpt>
      <trkpt lat="45.68354" lon="3.10705">
        <ele>604.538269</ele>
        <time>2011-07-14T10:50:15Z</time>
      </trkpt>
      <trkpt lat="45.6835" lon="3.10693">
        <ele>604.712524</ele>
        <time>2011-07-14T10:50:22Z</time>
      </trkpt>
      <trkpt lat="45.68346" lon="3.10679">
        <ele>604.807495</ele>
        <time>2011-07-14T10:50:30Z</time>
      </trkpt>
      <trkpt lat="45.6834" lon="3.10665">
        <ele>605.192505</ele>
        <time>2011-07-14T10:50:37Z</time>
      </trkpt>
      <trkpt lat="45.68333" lon="3.10655">
        <ele>605.859985</ele>
        <time>2011-07-14T10:50:43Z</time>
      </trkpt>
      <trkpt lat="45.68327" lon="3.10645">
        <ele>606.369995</ele>
        <time>2011-07-14T10:50:50Z</time>
      </trkpt>
      <trkpt lat="45.68322" lon="3.10633">
        <ele>607.024231</ele>
        <time>2011-07-14T10:50:57Z</time>
      </trkpt>
      <trkpt lat="45.68317" lon="3.10619">
        <ele>607.676331</ele>
        <time>2011-07-14T10:51:05Z</time>
      </trkpt>
      <trkpt lat="45.68313" lon="3.10606">
        <ele>608.415588</ele>
        <time>2011-07-14T10:51:12Z</time>
      </trkpt>
      <trkpt lat="45.68309" lon="3.10593">
        <ele>608.90564</ele>
        <time>2011-07-14T10:51:19Z</time>
      </trkpt>
      <trkpt lat="45.68306" lon="3.1058">
        <ele>609.518127</ele>
        <time>2011-07-14T10:51:26Z</time>
      </trkpt>
      <trkpt lat="45.68303" lon="3.10565">
        <ele>610.08728</ele>
        <time>2011-07-14T10:51:34Z</time>
      </trkpt>
      <trkpt lat="45.68301" lon="3.10551">
        <ele>610.616272</ele>
        <time>2011-07-14T10:51:42Z</time>
      </trkpt>
      <trkpt lat="45.68295" lon="3.1055">
        <ele>611.745178</ele>
        <time>2011-07-14T10:51:50Z</time>
      </trkpt>
      <trkpt lat="45.6829" lon="3.1056">
        <ele>612.609253</ele>
        <time>2011-07-14T10:51:57Z</time>
      </trkpt>
      <trkpt lat="45.68284" lon="3.10572">
        <ele>613.775391</ele>
        <time>2011-07-14T10:52:06Z</time>
      </trkpt>
      <trkpt lat="45.6828" lon="3.10585">
        <ele>614.729248</ele>
        <time>2011-07-14T10:52:14Z</time>
      </trkpt>
      <trkpt lat="45.68277" lon="3.10598">
        <ele>615.45575</ele>
        <time>2011-07-14T10:52:22Z</time>
      </trkpt>
      <trkpt lat="45.68276" lon="3.10613">
        <ele>615.747314</ele>
        <time>2011-07-14T10:52:31Z</time>
      </trkpt>
      <trkpt lat="45.68272" lon="3.10627">
        <ele>616.8479</ele>
        <time>2011-07-14T10:52:40Z</time>
      </trkpt>
      <trkpt lat="45.68269" lon="3.10639">
        <ele>617.837524</ele>
        <time>2011-07-14T10:52:47Z</time>
      </trkpt>
      <trkpt lat="45.68266" lon="3.10653">
        <ele>618.900024</ele>
        <time>2011-07-14T10:52:55Z</time>
      </trkpt>
      <trkpt lat="45.68264" lon="3.10666">
        <ele>619.797485</ele>
        <time>2011-07-14T10:53:03Z</time>
      </trkpt>
      <trkpt lat="45.68261" lon="3.10679">
        <ele>621.099976</ele>
        <time>2011-07-14T10:53:12Z</time>
      </trkpt>
      <trkpt lat="45.68256" lon="3.10691">
        <ele>622.777466</ele>
        <time>2011-07-14T10:53:20Z</time>
      </trkpt>
      <trkpt lat="45.68251" lon="3.10702">
        <ele>624.474976</ele>
        <time>2011-07-14T10:53:28Z</time>
      </trkpt>
      <trkpt lat="45.68244" lon="3.10712">
        <ele>626.844971</ele>
        <time>2011-07-14T10:53:37Z</time>
      </trkpt>
      <trkpt lat="45.68237" lon="3.10722">
        <ele>629.263245</ele>
        <time>2011-07-14T10:53:47Z</time>
      </trkpt>
      <trkpt lat="45.68226" lon="3.10729">
        <ele>632.858521</ele>
        <time>2011-07-14T10:53:55Z</time>
      </trkpt>
      <trkpt lat="45.68218" lon="3.10737">
        <ele>635.983582</ele>
        <time>2011-07-14T10:54:05Z</time>
      </trkpt>
      <trkpt lat="45.68212" lon="3.10748">
        <ele>638.479309</ele>
        <time>2011-07-14T10:54:14Z</time>
      </trkpt>
      <trkpt lat="45.68208" lon="3.10761">
        <ele>640.612183</ele>
        <time>2011-07-14T10:54:23Z</time>
      </trkpt>
      <trkpt lat="45.68202" lon="3.10772">
        <ele>643.037476</ele>
        <time>2011-07-14T10:54:32Z</time>
      </trkpt>
      <trkpt lat="45.68197" lon="3.10786">
        <ele>645.190002</ele>
        <time>2011-07-14T10:54:42Z</time>
      </trkpt>
      <trkpt lat="45.68194" lon="3.10802">
        <ele>647.053772</ele>
        <time>2011-07-14T10:54:51Z</time>
      </trkpt>
      <trkpt lat="45.68192" lon="3.10818">
        <ele>648.463745</ele>
        <time>2011-07-14T10:55:01Z</time>
      </trkpt>
      <trkpt lat="45.68186" lon="3.10829">
        <ele>650.17218</ele>
        <time>2011-07-14T10:55:11Z</time>
      </trkpt>
      <trkpt lat="45.68178" lon="3.10824">
        <ele>651.630432</ele>
        <time>2011-07-14T10:55:40Z</time>
      </trkpt>
      <trkpt lat="45.68178" lon="3.10808">
        <ele>650.916992</ele>
        <time>2011-07-14T10:55:50Z</time>
      </trkpt>
      <trkpt lat="45.68175" lon="3.10793">
        <ele>650.945984</ele>
        <time>2011-07-14T10:56:00Z</time>
      </trkpt>
      <trkpt lat="45.68171" lon="3.1078">
        <ele>651.41687</ele>
        <time>2011-07-14T10:56:09Z</time>
      </trkpt>
      <trkpt lat="45.68166" lon="3.10768">
        <ele>651.980896</ele>
        <time>2011-07-14T10:56:18Z</time>
      </trkpt>
      <trkpt lat="45.68162" lon="3.10754">
        <ele>652.370911</ele>
        <time>2011-07-14T10:56:27Z</time>
      </trkpt>
      <trkpt lat="45.6816" lon="3.10739">
        <ele>652.366699</ele>
        <time>2011-07-14T10:56:35Z</time>
      </trkpt>
      <trkpt lat="45.68157" lon="3.10726">
        <ele>653.022461</ele>
        <time>2011-07-14T10:56:43Z</time>
      </trkpt>
      <trkpt lat="45.68154" lon="3.10712">
        <ele>653.374451</ele>
        <time>2011-07-14T10:56:51Z</time>
      </trkpt>
      <trkpt lat="45.68151" lon="3.10698">
        <ele>654.057312</ele>
        <time>2011-07-14T10:57:00Z</time>
      </trkpt>
      <trkpt lat="45.68148" lon="3.10685">
        <ele>654.731873</ele>
        <time>2011-07-14T10:57:08Z</time>
      </trkpt>
      <trkpt lat="45.68144" lon="3.10671">
        <ele>655.422852</ele>
        <time>2011-07-14T10:57:17Z</time>
      </trkpt>
      <trkpt lat="45.6814" lon="3.10657">
        <ele>656.017639</ele>
        <time>2011-07-14T10:57:26Z</time>
      </trkpt>
      <trkpt lat="45.68138" lon="3.10642">
        <ele>656.445313</ele>
        <time>2011-07-14T10:57:35Z</time>
      </trkpt>
      <trkpt lat="45.68136" lon="3.10627">
        <ele>656.757263</ele>
        <time>2011-07-14T10:57:44Z</time>
      </trkpt>
      <trkpt lat="45.68132" lon="3.10612">
        <ele>657.236389</ele>
        <time>2011-07-14T10:57:53Z</time>
      </trkpt>
      <trkpt lat="45.68129" lon="3.10597">
        <ele>657.548218</ele>
        <time>2011-07-14T10:58:01Z</time>
      </trkpt>
      <trkpt lat="45.6813" lon="3.10579">
        <ele>657.151794</ele>
        <time>2011-07-14T10:58:10Z</time>
      </trkpt>
      <trkpt lat="45.68129" lon="3.10564">
        <ele>657.049927</ele>
        <time>2011-07-14T10:58:19Z</time>
      </trkpt>
      <trkpt lat="45.68128" lon="3.1055">
        <ele>657.02124</ele>
        <time>2011-07-14T10:58:28Z</time>
      </trkpt>
      <trkpt lat="45.68127" lon="3.10535">
        <ele>656.78656</ele>
        <time>2011-07-14T10:58:37Z</time>
      </trkpt>
      <trkpt lat="45.68126" lon="3.10521">
        <ele>656.605103</ele>
        <time>2011-07-14T10:58:46Z</time>
      </trkpt>
      <trkpt lat="45.68123" lon="3.10507">
        <ele>657.033569</ele>
        <time>2011-07-14T10:58:55Z</time>
      </trkpt>
      <trkpt lat="45.6812" lon="3.10494">
        <ele>657.34259</ele>
        <time>2011-07-14T10:59:04Z</time>
      </trkpt>
      <trkpt lat="45.68117" lon="3.10481">
        <ele>657.672729</ele>
        <time>2011-07-14T10:59:12Z</time>
      </trkpt>
      <trkpt lat="45.68115" lon="3.10467">
        <ele>657.806824</ele>
        <time>2011-07-14T10:59:21Z</time>
      </trkpt>
      <trkpt lat="45.68112" lon="3.10453">
        <ele>658.239746</ele>
        <time>2011-07-14T10:59:30Z</time>
      </trkpt>
      <trkpt lat="45.68109" lon="3.1044">
        <ele>658.731262</ele>
        <time>2011-07-14T10:59:39Z</time>
      </trkpt>
      <trkpt lat="45.68107" lon="3.10425">
        <ele>659.090576</ele>
        <time>2011-07-14T10:59:49Z</time>
      </trkpt>
      <trkpt lat="45.68106" lon="3.1041">
        <ele>659.372681</ele>
        <time>2011-07-14T10:59:58Z</time>
      </trkpt>
      <trkpt lat="45.68105" lon="3.10396">
        <ele>659.712402</ele>
        <time>2011-07-14T11:00:07Z</time>
      </trkpt>
      <trkpt lat="45.68104" lon="3.10382">
        <ele>660.13501</ele>
        <time>2011-07-14T11:00:16Z</time>
      </trkpt>
      <trkpt lat="45.68101" lon="3.10368">
        <ele>660.21698</ele>
        <time>2011-07-14T11:00:25Z</time>
      </trkpt>
      <trkpt lat="45.68099" lon="3.10354">
        <ele>660.306274</ele>
        <time>2011-07-14T11:00:33Z</time>
      </trkpt>
      <trkpt lat="45.68094" lon="3.10341">
        <ele>660.829651</ele>
        <time>2011-07-14T11:00:40Z</time>
      </trkpt>
      <trkpt lat="45.68091" lon="3.10328">
        <ele>661.311584</ele>
        <time>2011-07-14T11:00:47Z</time>
      </trkpt>
      <trkpt lat="45.68086" lon="3.10316">
        <ele>662.292053</ele>
        <time>2011-07-14T11:00:55Z</time>
      </trkpt>
      <trkpt lat="45.68082" lon="3.10303">
        <ele>663.105774</ele>
        <time>2011-07-14T11:01:03Z</time>
      </trkpt>
      <trkpt lat="45.68079" lon="3.10288">
        <ele>663.888916</ele>
        <time>2011-07-14T11:01:11Z</time>
      </trkpt>
      <trkpt lat="45.68077" lon="3.10274">
        <ele>664.640381</ele>
        <time>2011-07-14T11:01:19Z</time>
      </trkpt>
      <trkpt lat="45.68076" lon="3.1026">
        <ele>665.052185</ele>
        <time>2011-07-14T11:01:26Z</time>
      </trkpt>
      <trkpt lat="45.68075" lon="3.10245">
        <ele>665.215759</ele>
        <time>2011-07-14T11:01:34Z</time>
      </trkpt>
      <trkpt lat="45.68072" lon="3.10233">
        <ele>665.725647</ele>
        <time>2011-07-14T11:01:41Z</time>
      </trkpt>
      <trkpt lat="45.68071" lon="3.10219">
        <ele>665.325256</ele>
        <time>2011-07-14T11:01:49Z</time>
      </trkpt>
      <trkpt lat="45.68067" lon="3.10206">
        <ele>665.617371</ele>
        <time>2011-07-14T11:01:56Z</time>
      </trkpt>
      <trkpt lat="45.68066" lon="3.10191">
        <ele>665.227966</ele>
        <time>2011-07-14T11:02:02Z</time>
      </trkpt>
      <trkpt lat="45.68065" lon="3.10177">
        <ele>664.718262</ele>
        <time>2011-07-14T11:02:10Z</time>
      </trkpt>
      <trkpt lat="45.68063" lon="3.10163">
        <ele>664.594971</ele>
        <time>2011-07-14T11:02:18Z</time>
      </trkpt>
      <trkpt lat="45.68063" lon="3.10147">
        <ele>663.772888</ele>
        <time>2011-07-14T11:02:26Z</time>
      </trkpt>
      <trkpt lat="45.68063" lon="3.10132">
        <ele>663.064331</ele>
        <time>2011-07-14T11:02:34Z</time>
      </trkpt>
      <trkpt lat="45.68063" lon="3.10119">
        <ele>662.477844</ele>
        <time>2011-07-14T11:02:41Z</time>
      </trkpt>
      <trkpt lat="45.68064" lon="3.10105">
        <ele>662.326355</ele>
        <time>2011-07-14T11:02:49Z</time>
      </trkpt>
      <trkpt lat="45.68064" lon="3.10091">
        <ele>662.471558</ele>
        <time>2011-07-14T11:02:59Z</time>
      </trkpt>
      <trkpt lat="45.68063" lon="3.10077">
        <ele>662.612305</ele>
        <time>2011-07-14T11:03:08Z</time>
      </trkpt>
      <trkpt lat="45.68063" lon="3.10062">
        <ele>662.595459</ele>
        <time>2011-07-14T11:03:17Z</time>
      </trkpt>
      <trkpt lat="45.68065" lon="3.10047">
        <ele>662.596741</ele>
        <time>2011-07-14T11:03:26Z</time>
      </trkpt>
      <trkpt lat="45.68064" lon="3.10034">
        <ele>663.470703</ele>
        <time>2011-07-14T11:03:34Z</time>
      </trkpt>
      <trkpt lat="45.68063" lon="3.1002">
        <ele>664.377991</ele>
        <time>2011-07-14T11:03:42Z</time>
      </trkpt>
      <trkpt lat="45.68062" lon="3.10006">
        <ele>665.324646</ele>
        <time>2011-07-14T11:03:51Z</time>
      </trkpt>
      <trkpt lat="45.68059" lon="3.09993">
        <ele>666.115845</ele>
        <time>2011-07-14T11:03:59Z</time>
      </trkpt>
      <trkpt lat="45.68055" lon="3.09981">
        <ele>666.889709</ele>
        <time>2011-07-14T11:04:07Z</time>
      </trkpt>
      <trkpt lat="45.68055" lon="3.09965">
        <ele>667.48761</ele>
        <time>2011-07-14T11:04:16Z</time>
      </trkpt>
      <trkpt lat="45.68056" lon="3.09951">
        <ele>668.015991</ele>
        <time>2011-07-14T11:04:24Z</time>
      </trkpt>
      <trkpt lat="45.68058" lon="3.09936">
        <ele>668.578125</ele>
        <time>2011-07-14T11:04:33Z</time>
      </trkpt>
      <trkpt lat="45.68061" lon="3.09922">
        <ele>669.203491</ele>
        <time>2011-07-14T11:04:42Z</time>
      </trkpt>
      <trkpt lat="45.68063" lon="3.09907">
        <ele>669.795715</ele>
        <time>2011-07-14T11:04:51Z</time>
      </trkpt>
      <trkpt lat="45.68064" lon="3.09892">
        <ele>670.435791</ele>
        <time>2011-07-14T11:05:00Z</time>
      </trkpt>
      <trkpt lat="45.68064" lon="3.09878">
        <ele>671.113159</ele>
        <time>2011-07-14T11:05:09Z</time>
      </trkpt>
      <trkpt lat="45.68065" lon="3.09863">
        <ele>671.676941</ele>
        <time>2011-07-14T11:05:18Z</time>
      </trkpt>
      <trkpt lat="45.68067" lon="3.09848">
        <ele>672.117615</ele>
        <time>2011-07-14T11:05:24Z</time>
      </trkpt>
      <trkpt lat="45.68069" lon="3.09835">
        <ele>672.60376</ele>
        <time>2011-07-14T11:05:29Z</time>
      </trkpt>
      <trkpt lat="45.68071" lon="3.0982">
        <ele>673.056335</ele>
        <time>2011-07-14T11:05:33Z</time>
      </trkpt>
      <trkpt lat="45.68073" lon="3.09804">
        <ele>673.681152</ele>
        <time>2011-07-14T11:05:37Z</time>
      </trkpt>
      <trkpt lat="45.68071" lon="3.09787">
        <ele>674.559998</ele>
        <time>2011-07-14T11:05:41Z</time>
      </trkpt>
      <trkpt lat="45.68071" lon="3.09776">
        <ele>674.924988</ele>
        <time>2011-07-14T11:05:43Z</time>
      </trkpt>
      <trkpt lat="45.6807" lon="3.09756">
        <ele>675.612488</ele>
        <time>2011-07-14T11:05:46Z</time>
      </trkpt>
      <trkpt lat="45.68069" lon="3.09742">
        <ele>676.227478</ele>
        <time>2011-07-14T11:05:48Z</time>
      </trkpt>
      <trkpt lat="45.68069" lon="3.09726">
        <ele>676.508789</ele>
        <time>2011-07-14T11:05:50Z</time>
      </trkpt>
      <trkpt lat="45.68072" lon="3.0971">
        <ele>676.528748</ele>
        <time>2011-07-14T11:05:52Z</time>
      </trkpt>
      <trkpt lat="45.68074" lon="3.09694">
        <ele>676.523743</ele>
        <time>2011-07-14T11:05:54Z</time>
      </trkpt>
      <trkpt lat="45.68078" lon="3.09679">
        <ele>676.303772</ele>
        <time>2011-07-14T11:05:56Z</time>
      </trkpt>
      <trkpt lat="45.6808" lon="3.09665">
        <ele>676.359253</ele>
        <time>2011-07-14T11:05:58Z</time>
      </trkpt>
      <trkpt lat="45.68081" lon="3.09651">
        <ele>676.375977</ele>
        <time>2011-07-14T11:06:00Z</time>
      </trkpt>
      <trkpt lat="45.68084" lon="3.09636">
        <ele>676.29126</ele>
        <time>2011-07-14T11:06:02Z</time>
      </trkpt>
      <trkpt lat="45.68086" lon="3.09621">
        <ele>676.134827</ele>
        <time>2011-07-14T11:06:04Z</time>
      </trkpt>
      <trkpt lat="45.68088" lon="3.09607">
        <ele>675.833923</ele>
        <time>2011-07-14T11:06:06Z</time>
      </trkpt>
      <trkpt lat="45.68091" lon="3.09593">
        <ele>675.382996</ele>
        <time>2011-07-14T11:06:08Z</time>
      </trkpt>
      <trkpt lat="45.68095" lon="3.0958">
        <ele>674.79718</ele>
        <time>2011-07-14T11:06:10Z</time>
      </trkpt>
      <trkpt lat="45.68098" lon="3.09567">
        <ele>674.389954</ele>
        <time>2011-07-14T11:06:12Z</time>
      </trkpt>
      <trkpt lat="45.681" lon="3.09549">
        <ele>674.06781</ele>
        <time>2011-07-14T11:06:15Z</time>
      </trkpt>
      <trkpt lat="45.68102" lon="3.09536">
        <ele>673.282959</ele>
        <time>2011-07-14T11:06:19Z</time>
      </trkpt>
      <trkpt lat="45.68102" lon="3.0952">
        <ele>672.264221</ele>
        <time>2011-07-14T11:06:23Z</time>
      </trkpt>
      <trkpt lat="45.68101" lon="3.09506">
        <ele>671.614014</ele>
        <time>2011-07-14T11:06:25Z</time>
      </trkpt>
      <trkpt lat="45.681" lon="3.0949">
        <ele>671.091492</ele>
        <time>2011-07-14T11:06:27Z</time>
      </trkpt>
      <trkpt lat="45.68099" lon="3.09473">
        <ele>670.291382</ele>
        <time>2011-07-14T11:06:29Z</time>
      </trkpt>
      <trkpt lat="45.681" lon="3.09456">
        <ele>668.861023</ele>
        <time>2011-07-14T11:06:31Z</time>
      </trkpt>
      <trkpt lat="45.68102" lon="3.09441">
        <ele>667.211426</ele>
        <time>2011-07-14T11:06:33Z</time>
      </trkpt>
      <trkpt lat="45.68104" lon="3.09424">
        <ele>665.550354</ele>
        <time>2011-07-14T11:06:36Z</time>
      </trkpt>
      <trkpt lat="45.68105" lon="3.09409">
        <ele>664.581299</ele>
        <time>2011-07-14T11:06:40Z</time>
      </trkpt>
      <trkpt lat="45.68106" lon="3.09395">
        <ele>664.464966</ele>
        <time>2011-07-14T11:06:47Z</time>
      </trkpt>
      <trkpt lat="45.68106" lon="3.09381">
        <ele>664.692993</ele>
        <time>2011-07-14T11:06:54Z</time>
      </trkpt>
      <trkpt lat="45.68104" lon="3.09371">
        <ele>665.396301</ele>
        <time>2011-07-14T11:07:17Z</time>
      </trkpt>
      <trkpt lat="45.68105" lon="3.09357">
        <ele>665.447998</ele>
        <time>2011-07-14T11:07:23Z</time>
      </trkpt>
      <trkpt lat="45.68106" lon="3.09339">
        <ele>665.408447</ele>
        <time>2011-07-14T11:07:27Z</time>
      </trkpt>
      <trkpt lat="45.68107" lon="3.09318">
        <ele>665.329956</ele>
        <time>2011-07-14T11:07:30Z</time>
      </trkpt>
      <trkpt lat="45.68108" lon="3.09302">
        <ele>665.224182</ele>
        <time>2011-07-14T11:07:32Z</time>
      </trkpt>
      <trkpt lat="45.6811" lon="3.09284">
        <ele>665.058289</ele>
        <time>2011-07-14T11:07:34Z</time>
      </trkpt>
      <trkpt lat="45.68111" lon="3.09267">
        <ele>665.655212</ele>
        <time>2011-07-14T11:07:36Z</time>
      </trkpt>
      <trkpt lat="45.68112" lon="3.0925">
        <ele>666.184998</ele>
        <time>2011-07-14T11:07:38Z</time>
      </trkpt>
      <trkpt lat="45.68113" lon="3.09233">
        <ele>666.770264</ele>
        <time>2011-07-14T11:07:40Z</time>
      </trkpt>
      <trkpt lat="45.68114" lon="3.09216">
        <ele>667.857483</ele>
        <time>2011-07-14T11:07:42Z</time>
      </trkpt>
      <trkpt lat="45.68113" lon="3.09199">
        <ele>669.665039</ele>
        <time>2011-07-14T11:07:44Z</time>
      </trkpt>
      <trkpt lat="45.68113" lon="3.09182">
        <ele>671.412537</ele>
        <time>2011-07-14T11:07:46Z</time>
      </trkpt>
      <trkpt lat="45.68112" lon="3.09165">
        <ele>673.329895</ele>
        <time>2011-07-14T11:07:48Z</time>
      </trkpt>
      <trkpt lat="45.68111" lon="3.0915">
        <ele>674.930176</ele>
        <time>2011-07-14T11:07:50Z</time>
      </trkpt>
      <trkpt lat="45.68109" lon="3.09135">
        <ele>676.335449</ele>
        <time>2011-07-14T11:07:52Z</time>
      </trkpt>
      <trkpt lat="45.68106" lon="3.0912">
        <ele>677.72229</ele>
        <time>2011-07-14T11:07:54Z</time>
      </trkpt>
      <trkpt lat="45.68103" lon="3.09106">
        <ele>679.07666</ele>
        <time>2011-07-14T11:07:56Z</time>
      </trkpt>
      <trkpt lat="45.68101" lon="3.0909">
        <ele>680.202454</ele>
        <time>2011-07-14T11:07:58Z</time>
      </trkpt>
      <trkpt lat="45.68098" lon="3.09074">
        <ele>681.553528</ele>
        <time>2011-07-14T11:08:00Z</time>
      </trkpt>
      <trkpt lat="45.68097" lon="3.09058">
        <ele>682.661255</ele>
        <time>2011-07-14T11:08:02Z</time>
      </trkpt>
      <trkpt lat="45.68095" lon="3.09042">
        <ele>683.763</ele>
        <time>2011-07-14T11:08:04Z</time>
      </trkpt>
      <trkpt lat="45.68092" lon="3.09026">
        <ele>684.864441</ele>
        <time>2011-07-14T11:08:06Z</time>
      </trkpt>
      <trkpt lat="45.68089" lon="3.09009">
        <ele>685.628479</ele>
        <time>2011-07-14T11:08:08Z</time>
      </trkpt>
      <trkpt lat="45.68086" lon="3.08993">
        <ele>686.341553</ele>
        <time>2011-07-14T11:08:10Z</time>
      </trkpt>
      <trkpt lat="45.68083" lon="3.08977">
        <ele>687.026611</ele>
        <time>2011-07-14T11:08:12Z</time>
      </trkpt>
      <trkpt lat="45.68082" lon="3.08963">
        <ele>687.30249</ele>
        <time>2011-07-14T11:08:14Z</time>
      </trkpt>
      <trkpt lat="45.68081" lon="3.08946">
        <ele>687.142517</ele>
        <time>2011-07-14T11:08:17Z</time>
      </trkpt>
      <trkpt lat="45.68081" lon="3.08933">
        <ele>687.013733</ele>
        <time>2011-07-14T11:08:21Z</time>
      </trkpt>
      <trkpt lat="45.6808" lon="3.08919">
        <ele>686.945007</ele>
        <time>2011-07-14T11:08:28Z</time>
      </trkpt>
      <trkpt lat="45.6808" lon="3.08904">
        <ele>686.679993</ele>
        <time>2011-07-14T11:08:36Z</time>
      </trkpt>
      <trkpt lat="45.68082" lon="3.08889">
        <ele>686.458618</ele>
        <time>2011-07-14T11:08:40Z</time>
      </trkpt>
      <trkpt lat="45.68084" lon="3.08876">
        <ele>686.457275</ele>
        <time>2011-07-14T11:08:42Z</time>
      </trkpt>
      <trkpt lat="45.68087" lon="3.08862">
        <ele>686.423584</ele>
        <time>2011-07-14T11:08:44Z</time>
      </trkpt>
      <trkpt lat="45.68092" lon="3.08846">
        <ele>686.304932</ele>
        <time>2011-07-14T11:08:46Z</time>
      </trkpt>
      <trkpt lat="45.68097" lon="3.08832">
        <ele>686.44928</ele>
        <time>2011-07-14T11:08:48Z</time>
      </trkpt>
      <trkpt lat="45.68103" lon="3.08814">
        <ele>687.249451</ele>
        <time>2011-07-14T11:08:51Z</time>
      </trkpt>
      <trkpt lat="45.68107" lon="3.08803">
        <ele>687.818298</ele>
        <time>2011-07-14T11:08:53Z</time>
      </trkpt>
      <trkpt lat="45.68114" lon="3.08792">
        <ele>688.443481</ele>
        <time>2011-07-14T11:08:55Z</time>
      </trkpt>
      <trkpt lat="45.68124" lon="3.08775">
        <ele>688.591309</ele>
        <time>2011-07-14T11:08:58Z</time>
      </trkpt>
      <trkpt lat="45.68131" lon="3.08762">
        <ele>688.861816</ele>
        <time>2011-07-14T11:09:00Z</time>
      </trkpt>
      <trkpt lat="45.68136" lon="3.08748">
        <ele>689.452637</ele>
        <time>2011-07-14T11:09:02Z</time>
      </trkpt>
      <trkpt lat="45.68142" lon="3.08735">
        <ele>690.104919</ele>
        <time>2011-07-14T11:09:04Z</time>
      </trkpt>
      <trkpt lat="45.68147" lon="3.0872">
        <ele>691.039978</ele>
        <time>2011-07-14T11:09:07Z</time>
      </trkpt>
      <trkpt lat="45.68151" lon="3.08707">
        <ele>692.021179</ele>
        <time>2011-07-14T11:09:12Z</time>
      </trkpt>
      <trkpt lat="45.68153" lon="3.08694">
        <ele>693.133423</ele>
        <time>2011-07-14T11:09:19Z</time>
      </trkpt>
      <trkpt lat="45.68156" lon="3.08679">
        <ele>694.427612</ele>
        <time>2011-07-14T11:09:27Z</time>
      </trkpt>
      <trkpt lat="45.68157" lon="3.08666">
        <ele>695.739014</ele>
        <time>2011-07-14T11:09:35Z</time>
      </trkpt>
      <trkpt lat="45.6816" lon="3.08652">
        <ele>697.151062</ele>
        <time>2011-07-14T11:09:43Z</time>
      </trkpt>
      <trkpt lat="45.68163" lon="3.08639">
        <ele>698.303528</ele>
        <time>2011-07-14T11:09:51Z</time>
      </trkpt>
      <trkpt lat="45.68164" lon="3.08624">
        <ele>699.513184</ele>
        <time>2011-07-14T11:10:00Z</time>
      </trkpt>
      <trkpt lat="45.68166" lon="3.08609">
        <ele>700.728271</ele>
        <time>2011-07-14T11:10:09Z</time>
      </trkpt>
      <trkpt lat="45.68168" lon="3.08596">
        <ele>701.816162</ele>
        <time>2011-07-14T11:10:16Z</time>
      </trkpt>
      <trkpt lat="45.68168" lon="3.08582">
        <ele>702.990845</ele>
        <time>2011-07-14T11:10:24Z</time>
      </trkpt>
      <trkpt lat="45.68169" lon="3.08567">
        <ele>703.55249</ele>
        <time>2011-07-14T11:10:32Z</time>
      </trkpt>
      <trkpt lat="45.68174" lon="3.08555">
        <ele>704.0625</ele>
        <time>2011-07-14T11:10:40Z</time>
      </trkpt>
      <trkpt lat="45.68181" lon="3.08544">
        <ele>704.539978</ele>
        <time>2011-07-14T11:10:47Z</time>
      </trkpt>
      <trkpt lat="45.68187" lon="3.08534">
        <ele>705.007507</ele>
        <time>2011-07-14T11:10:54Z</time>
      </trkpt>
      <trkpt lat="45.6819" lon="3.08522">
        <ele>705.467529</ele>
        <time>2011-07-14T11:11:01Z</time>
      </trkpt>
      <trkpt lat="45.68195" lon="3.08508">
        <ele>706.031433</ele>
        <time>2011-07-14T11:11:09Z</time>
      </trkpt>
      <trkpt lat="45.682" lon="3.08495">
        <ele>706.546753</ele>
        <time>2011-07-14T11:11:16Z</time>
      </trkpt>
      <trkpt lat="45.68202" lon="3.08482">
        <ele>707.03241</ele>
        <time>2011-07-14T11:11:23Z</time>
      </trkpt>
      <trkpt lat="45.68204" lon="3.08467">
        <ele>707.520996</ele>
        <time>2011-07-14T11:11:30Z</time>
      </trkpt>
      <trkpt lat="45.68204" lon="3.08452">
        <ele>708.002502</ele>
        <time>2011-07-14T11:11:37Z</time>
      </trkpt>
      <trkpt lat="45.68205" lon="3.08438">
        <ele>708.462524</ele>
        <time>2011-07-14T11:11:44Z</time>
      </trkpt>
      <trkpt lat="45.68207" lon="3.08423">
        <ele>708.91748</ele>
        <time>2011-07-14T11:11:51Z</time>
      </trkpt>
      <trkpt lat="45.68209" lon="3.08409">
        <ele>709.340027</ele>
        <time>2011-07-14T11:11:58Z</time>
      </trkpt>
      <trkpt lat="45.68213" lon="3.08396">
        <ele>709.747498</ele>
        <time>2011-07-14T11:12:05Z</time>
      </trkpt>
      <trkpt lat="45.68218" lon="3.08383">
        <ele>710.08252</ele>
        <time>2011-07-14T11:12:12Z</time>
      </trkpt>
      <trkpt lat="45.68223" lon="3.08371">
        <ele>710.278748</ele>
        <time>2011-07-14T11:12:19Z</time>
      </trkpt>
      <trkpt lat="45.68229" lon="3.08358">
        <ele>710.476257</ele>
        <time>2011-07-14T11:12:26Z</time>
      </trkpt>
      <trkpt lat="45.68235" lon="3.08347">
        <ele>710.652527</ele>
        <time>2011-07-14T11:12:33Z</time>
      </trkpt>
      <trkpt lat="45.68242" lon="3.08334">
        <ele>710.85498</ele>
        <time>2011-07-14T11:12:41Z</time>
      </trkpt>
      <trkpt lat="45.68249" lon="3.08322">
        <ele>711.034607</ele>
        <time>2011-07-14T11:12:48Z</time>
      </trkpt>
      <trkpt lat="45.68253" lon="3.0831">
        <ele>711.225708</ele>
        <time>2011-07-14T11:12:55Z</time>
      </trkpt>
      <trkpt lat="45.68259" lon="3.08299">
        <ele>711.448181</ele>
        <time>2011-07-14T11:13:02Z</time>
      </trkpt>
      <trkpt lat="45.68264" lon="3.08287">
        <ele>711.722778</ele>
        <time>2011-07-14T11:13:10Z</time>
      </trkpt>
      <trkpt lat="45.68269" lon="3.08275">
        <ele>712.050781</ele>
        <time>2011-07-14T11:13:18Z</time>
      </trkpt>
      <trkpt lat="45.68274" lon="3.08262">
        <ele>712.426453</ele>
        <time>2011-07-14T11:13:25Z</time>
      </trkpt>
      <trkpt lat="45.68275" lon="3.08247">
        <ele>712.47998</ele>
        <time>2011-07-14T11:13:31Z</time>
      </trkpt>
      <trkpt lat="45.68277" lon="3.08231">
        <ele>712.505005</ele>
        <time>2011-07-14T11:13:37Z</time>
      </trkpt>
      <trkpt lat="45.6828" lon="3.08215">
        <ele>712.567505</ele>
        <time>2011-07-14T11:13:41Z</time>
      </trkpt>
      <trkpt lat="45.68282" lon="3.08198">
        <ele>712.609985</ele>
        <time>2011-07-14T11:13:45Z</time>
      </trkpt>
      <trkpt lat="45.68284" lon="3.08185">
        <ele>712.652527</ele>
        <time>2011-07-14T11:13:51Z</time>
      </trkpt>
      <trkpt lat="45.68287" lon="3.08172">
        <ele>712.724976</ele>
        <time>2011-07-14T11:13:57Z</time>
      </trkpt>
      <trkpt lat="45.68291" lon="3.08158">
        <ele>712.807495</ele>
        <time>2011-07-14T11:14:03Z</time>
      </trkpt>
      <trkpt lat="45.68294" lon="3.08145">
        <ele>712.88501</ele>
        <time>2011-07-14T11:14:09Z</time>
      </trkpt>
      <trkpt lat="45.68298" lon="3.08131">
        <ele>712.999451</ele>
        <time>2011-07-14T11:14:17Z</time>
      </trkpt>
      <trkpt lat="45.68302" lon="3.08118">
        <ele>713.325623</ele>
        <time>2011-07-14T11:14:25Z</time>
      </trkpt>
      <trkpt lat="45.68306" lon="3.08104">
        <ele>713.67865</ele>
        <time>2011-07-14T11:14:33Z</time>
      </trkpt>
      <trkpt lat="45.68311" lon="3.08091">
        <ele>713.990723</ele>
        <time>2011-07-14T11:14:41Z</time>
      </trkpt>
      <trkpt lat="45.68315" lon="3.08077">
        <ele>714.243225</ele>
        <time>2011-07-14T11:15:00Z</time>
      </trkpt>
      <trkpt lat="45.6832" lon="3.08065">
        <ele>714.507507</ele>
        <time>2011-07-14T11:15:07Z</time>
      </trkpt>
      <trkpt lat="45.68323" lon="3.08053">
        <ele>714.768738</ele>
        <time>2011-07-14T11:15:15Z</time>
      </trkpt>
      <trkpt lat="45.68325" lon="3.08039">
        <ele>715.023743</ele>
        <time>2011-07-14T11:15:23Z</time>
      </trkpt>
      <trkpt lat="45.68328" lon="3.08025">
        <ele>715.293762</ele>
        <time>2011-07-14T11:15:31Z</time>
      </trkpt>
      <trkpt lat="45.68331" lon="3.08011">
        <ele>715.581238</ele>
        <time>2011-07-14T11:15:39Z</time>
      </trkpt>
      <trkpt lat="45.68334" lon="3.07998">
        <ele>715.79718</ele>
        <time>2011-07-14T11:15:47Z</time>
      </trkpt>
      <trkpt lat="45.68338" lon="3.07984">
        <ele>715.938354</ele>
        <time>2011-07-14T11:15:55Z</time>
      </trkpt>
      <trkpt lat="45.6834" lon="3.07971">
        <ele>716.008606</ele>
        <time>2011-07-14T11:16:03Z</time>
      </trkpt>
      <trkpt lat="45.68341" lon="3.07956">
        <ele>716.059631</ele>
        <time>2011-07-14T11:16:12Z</time>
      </trkpt>
      <trkpt lat="45.68343" lon="3.07942">
        <ele>716.059387</ele>
        <time>2011-07-14T11:16:21Z</time>
      </trkpt>
      <trkpt lat="45.68345" lon="3.07927">
        <ele>716.227295</ele>
        <time>2011-07-14T11:16:31Z</time>
      </trkpt>
      <trkpt lat="45.68346" lon="3.07913">
        <ele>716.434448</ele>
        <time>2011-07-14T11:16:41Z</time>
      </trkpt>
      <trkpt lat="45.68346" lon="3.07899">
        <ele>716.658386</ele>
        <time>2011-07-14T11:16:50Z</time>
      </trkpt>
      <trkpt lat="45.68348" lon="3.07884">
        <ele>716.804932</ele>
        <time>2011-07-14T11:16:59Z</time>
      </trkpt>
      <trkpt lat="45.6835" lon="3.07869">
        <ele>716.854858</ele>
        <time>2011-07-14T11:17:08Z</time>
      </trkpt>
      <trkpt lat="45.68352" lon="3.07851">
        <ele>716.803406</ele>
        <time>2011-07-14T11:17:21Z</time>
      </trkpt>
      <trkpt lat="45.68356" lon="3.07836">
        <ele>716.716003</ele>
        <time>2011-07-14T11:17:32Z</time>
      </trkpt>
      <trkpt lat="45.68358" lon="3.07822">
        <ele>716.707092</ele>
        <time>2011-07-14T11:17:41Z</time>
      </trkpt>
      <trkpt lat="45.68357" lon="3.07807">
        <ele>716.908386</ele>
        <time>2011-07-14T11:17:50Z</time>
      </trkpt>
      <trkpt lat="45.68358" lon="3.07794">
        <ele>717.282471</ele>
        <time>2011-07-14T11:17:58Z</time>
      </trkpt>
      <trkpt lat="45.68361" lon="3.07779">
        <ele>717.592957</ele>
        <time>2011-07-14T11:18:06Z</time>
      </trkpt>
      <trkpt lat="45.68362" lon="3.07764">
        <ele>717.933167</ele>
        <time>2011-07-14T11:18:14Z</time>
      </trkpt>
      <trkpt lat="45.68363" lon="3.0775">
        <ele>718.232849</ele>
        <time>2011-07-14T11:18:21Z</time>
      </trkpt>
      <trkpt lat="45.68366" lon="3.07736">
        <ele>718.38501</ele>
        <time>2011-07-14T11:18:29Z</time>
      </trkpt>
      <trkpt lat="45.68368" lon="3.07722">
        <ele>718.518738</ele>
        <time>2011-07-14T11:18:37Z</time>
      </trkpt>
      <trkpt lat="45.68369" lon="3.07708">
        <ele>718.662476</ele>
        <time>2011-07-14T11:18:45Z</time>
      </trkpt>
      <trkpt lat="45.68372" lon="3.07694">
        <ele>718.77002</ele>
        <time>2011-07-14T11:18:53Z</time>
      </trkpt>
      <trkpt lat="45.68373" lon="3.0768">
        <ele>718.923767</ele>
        <time>2011-07-14T11:19:02Z</time>
      </trkpt>
      <trkpt lat="45.68375" lon="3.07666">
        <ele>719.07373</ele>
        <time>2011-07-14T11:19:11Z</time>
      </trkpt>
      <trkpt lat="45.68377" lon="3.0765">
        <ele>719.222473</ele>
        <time>2011-07-14T11:19:19Z</time>
      </trkpt>
      <trkpt lat="45.6838" lon="3.07636">
        <ele>719.341248</ele>
        <time>2011-07-14T11:19:22Z</time>
      </trkpt>
      <trkpt lat="45.68382" lon="3.07619">
        <ele>719.537476</ele>
        <time>2011-07-14T11:19:25Z</time>
      </trkpt>
      <trkpt lat="45.68384" lon="3.07605">
        <ele>719.892517</ele>
        <time>2011-07-14T11:19:27Z</time>
      </trkpt>
      <trkpt lat="45.68387" lon="3.07591">
        <ele>720.19751</ele>
        <time>2011-07-14T11:19:29Z</time>
      </trkpt>
      <trkpt lat="45.68391" lon="3.07576">
        <ele>720.497498</ele>
        <time>2011-07-14T11:19:31Z</time>
      </trkpt>
      <trkpt lat="45.68393" lon="3.07563">
        <ele>720.804993</ele>
        <time>2011-07-14T11:19:33Z</time>
      </trkpt>
      <trkpt lat="45.68395" lon="3.07545">
        <ele>720.991089</ele>
        <time>2011-07-14T11:19:36Z</time>
      </trkpt>
      <trkpt lat="45.68396" lon="3.07531">
        <ele>721.149292</ele>
        <time>2011-07-14T11:19:38Z</time>
      </trkpt>
      <trkpt lat="45.68398" lon="3.07516">
        <ele>721.21344</ele>
        <time>2011-07-14T11:19:40Z</time>
      </trkpt>
      <trkpt lat="45.68401" lon="3.075">
        <ele>721.244507</ele>
        <time>2011-07-14T11:19:42Z</time>
      </trkpt>
      <trkpt lat="45.68403" lon="3.07485">
        <ele>721.4375</ele>
        <time>2011-07-14T11:19:44Z</time>
      </trkpt>
      <trkpt lat="45.68405" lon="3.07471">
        <ele>721.674988</ele>
        <time>2011-07-14T11:19:46Z</time>
      </trkpt>
      <trkpt lat="45.68407" lon="3.07458">
        <ele>721.945007</ele>
        <time>2011-07-14T11:19:48Z</time>
      </trkpt>
      <trkpt lat="45.68407" lon="3.07443">
        <ele>722.372498</ele>
        <time>2011-07-14T11:19:50Z</time>
      </trkpt>
      <trkpt lat="45.68407" lon="3.07427">
        <ele>722.854431</ele>
        <time>2011-07-14T11:19:52Z</time>
      </trkpt>
      <trkpt lat="45.68409" lon="3.07412">
        <ele>723.313843</ele>
        <time>2011-07-14T11:19:54Z</time>
      </trkpt>
      <trkpt lat="45.68411" lon="3.07396">
        <ele>723.710693</ele>
        <time>2011-07-14T11:19:56Z</time>
      </trkpt>
      <trkpt lat="45.68412" lon="3.07382">
        <ele>724.192139</ele>
        <time>2011-07-14T11:19:58Z</time>
      </trkpt>
      <trkpt lat="45.68413" lon="3.07364">
        <ele>724.807495</ele>
        <time>2011-07-14T11:20:01Z</time>
      </trkpt>
      <trkpt lat="45.68413" lon="3.0735">
        <ele>725.262512</ele>
        <time>2011-07-14T11:20:05Z</time>
      </trkpt>
      <trkpt lat="45.68411" lon="3.07336">
        <ele>725.767517</ele>
        <time>2011-07-14T11:20:10Z</time>
      </trkpt>
      <trkpt lat="45.6841" lon="3.07324">
        <ele>726.280029</ele>
        <time>2011-07-14T11:20:13Z</time>
      </trkpt>
      <trkpt lat="45.68408" lon="3.07305">
        <ele>727.01001</ele>
        <time>2011-07-14T11:20:16Z</time>
      </trkpt>
      <trkpt lat="45.68406" lon="3.07289">
        <ele>727.689636</ele>
        <time>2011-07-14T11:20:18Z</time>
      </trkpt>
      <trkpt lat="45.68404" lon="3.07272">
        <ele>728.546936</ele>
        <time>2011-07-14T11:20:20Z</time>
      </trkpt>
      <trkpt lat="45.68401" lon="3.07255">
        <ele>729.558777</ele>
        <time>2011-07-14T11:20:22Z</time>
      </trkpt>
      <trkpt lat="45.68396" lon="3.07239">
        <ele>730.746826</ele>
        <time>2011-07-14T11:20:24Z</time>
      </trkpt>
      <trkpt lat="45.68391" lon="3.07224">
        <ele>731.077515</ele>
        <time>2011-07-14T11:20:26Z</time>
      </trkpt>
      <trkpt lat="45.68387" lon="3.07209">
        <ele>731.224976</ele>
        <time>2011-07-14T11:20:28Z</time>
      </trkpt>
      <trkpt lat="45.68387" lon="3.07192">
        <ele>731.48877</ele>
        <time>2011-07-14T11:20:30Z</time>
      </trkpt>
      <trkpt lat="45.68388" lon="3.07174">
        <ele>731.772522</ele>
        <time>2011-07-14T11:20:32Z</time>
      </trkpt>
      <trkpt lat="45.68388" lon="3.07156">
        <ele>732.089661</ele>
        <time>2011-07-14T11:20:34Z</time>
      </trkpt>
      <trkpt lat="45.68387" lon="3.07138">
        <ele>732.416199</ele>
        <time>2011-07-14T11:20:36Z</time>
      </trkpt>
      <trkpt lat="45.68387" lon="3.07119">
        <ele>732.774536</ele>
        <time>2011-07-14T11:20:38Z</time>
      </trkpt>
      <trkpt lat="45.68388" lon="3.07101">
        <ele>733.077942</ele>
        <time>2011-07-14T11:20:40Z</time>
      </trkpt>
      <trkpt lat="45.68388" lon="3.07083">
        <ele>733.30365</ele>
        <time>2011-07-14T11:20:42Z</time>
      </trkpt>
      <trkpt lat="45.68388" lon="3.07066">
        <ele>733.515381</ele>
        <time>2011-07-14T11:20:44Z</time>
      </trkpt>
      <trkpt lat="45.68388" lon="3.0705">
        <ele>733.709534</ele>
        <time>2011-07-14T11:20:46Z</time>
      </trkpt>
      <trkpt lat="45.68387" lon="3.07037">
        <ele>733.88501</ele>
        <time>2011-07-14T11:20:48Z</time>
      </trkpt>
      <trkpt lat="45.68387" lon="3.07022">
        <ele>734.118774</ele>
        <time>2011-07-14T11:20:51Z</time>
      </trkpt>
      <trkpt lat="45.68387" lon="3.07005">
        <ele>734.362488</ele>
        <time>2011-07-14T11:20:55Z</time>
      </trkpt>
      <trkpt lat="45.68391" lon="3.06992">
        <ele>734.661255</ele>
        <time>2011-07-14T11:21:01Z</time>
      </trkpt>
      <trkpt lat="45.68395" lon="3.06977">
        <ele>734.969971</ele>
        <time>2011-07-14T11:21:08Z</time>
      </trkpt>
      <trkpt lat="45.684" lon="3.06964">
        <ele>735.13623</ele>
        <time>2011-07-14T11:21:14Z</time>
      </trkpt>
      <trkpt lat="45.68404" lon="3.06952">
        <ele>735.188721</ele>
        <time>2011-07-14T11:21:20Z</time>
      </trkpt>
      <trkpt lat="45.68408" lon="3.06939">
        <ele>735.286072</ele>
        <time>2011-07-14T11:21:26Z</time>
      </trkpt>
      <trkpt lat="45.68412" lon="3.06927">
        <ele>735.434143</ele>
        <time>2011-07-14T11:21:32Z</time>
      </trkpt>
      <trkpt lat="45.68416" lon="3.06915">
        <ele>735.595032</ele>
        <time>2011-07-14T11:21:39Z</time>
      </trkpt>
      <trkpt lat="45.68422" lon="3.06903">
        <ele>736.026245</ele>
        <time>2011-07-14T11:21:47Z</time>
      </trkpt>
      <trkpt lat="45.68427" lon="3.06891">
        <ele>736.442505</ele>
        <time>2011-07-14T11:21:55Z</time>
      </trkpt>
      <trkpt lat="45.68432" lon="3.06878">
        <ele>736.98999</ele>
        <time>2011-07-14T11:22:04Z</time>
      </trkpt>
      <trkpt lat="45.68436" lon="3.06865">
        <ele>737.501221</ele>
        <time>2011-07-14T11:22:12Z</time>
      </trkpt>
      <trkpt lat="45.68441" lon="3.06851">
        <ele>738.056274</ele>
        <time>2011-07-14T11:22:21Z</time>
      </trkpt>
      <trkpt lat="45.68442" lon="3.06835">
        <ele>738.77124</ele>
        <time>2011-07-14T11:22:30Z</time>
      </trkpt>
      <trkpt lat="45.68444" lon="3.06822">
        <ele>739.317505</ele>
        <time>2011-07-14T11:22:37Z</time>
      </trkpt>
      <trkpt lat="45.6845" lon="3.06809">
        <ele>739.64502</ele>
        <time>2011-07-14T11:22:45Z</time>
      </trkpt>
      <trkpt lat="45.68456" lon="3.06798">
        <ele>739.918762</ele>
        <time>2011-07-14T11:22:52Z</time>
      </trkpt>
      <trkpt lat="45.6846" lon="3.06784">
        <ele>740.461548</ele>
        <time>2011-07-14T11:23:00Z</time>
      </trkpt>
      <trkpt lat="45.68461" lon="3.0677">
        <ele>741.383118</ele>
        <time>2011-07-14T11:23:07Z</time>
      </trkpt>
      <trkpt lat="45.68461" lon="3.06755">
        <ele>742.414978</ele>
        <time>2011-07-14T11:23:15Z</time>
      </trkpt>
      <trkpt lat="45.68461" lon="3.0674">
        <ele>743.476563</ele>
        <time>2011-07-14T11:23:22Z</time>
      </trkpt>
      <trkpt lat="45.6846" lon="3.06725">
        <ele>744.476501</ele>
        <time>2011-07-14T11:23:29Z</time>
      </trkpt>
      <trkpt lat="45.68459" lon="3.06711">
        <ele>745.41748</ele>
        <time>2011-07-14T11:23:36Z</time>
      </trkpt>
      <trkpt lat="45.68458" lon="3.06697">
        <ele>746.309998</ele>
        <time>2011-07-14T11:23:43Z</time>
      </trkpt>
      <trkpt lat="45.68457" lon="3.06683">
        <ele>747.182495</ele>
        <time>2011-07-14T11:23:50Z</time>
      </trkpt>
      <trkpt lat="45.68457" lon="3.06669">
        <ele>748.05249</ele>
        <time>2011-07-14T11:23:57Z</time>
      </trkpt>
      <trkpt lat="45.68456" lon="3.06655">
        <ele>748.877075</ele>
        <time>2011-07-14T11:24:05Z</time>
      </trkpt>
      <trkpt lat="45.68456" lon="3.0664">
        <ele>749.403198</ele>
        <time>2011-07-14T11:24:13Z</time>
      </trkpt>
      <trkpt lat="45.68456" lon="3.06625">
        <ele>749.928162</ele>
        <time>2011-07-14T11:24:21Z</time>
      </trkpt>
      <trkpt lat="45.68457" lon="3.06612">
        <ele>750.387268</ele>
        <time>2011-07-14T11:24:28Z</time>
      </trkpt>
      <trkpt lat="45.68458" lon="3.06597">
        <ele>750.919434</ele>
        <time>2011-07-14T11:24:36Z</time>
      </trkpt>
      <trkpt lat="45.68459" lon="3.06583">
        <ele>751.349976</ele>
        <time>2011-07-14T11:24:43Z</time>
      </trkpt>
      <trkpt lat="45.6846" lon="3.06568">
        <ele>751.82251</ele>
        <time>2011-07-14T11:24:51Z</time>
      </trkpt>
      <trkpt lat="45.6846" lon="3.06554">
        <ele>752.277527</ele>
        <time>2011-07-14T11:24:59Z</time>
      </trkpt>
      <trkpt lat="45.68461" lon="3.06539">
        <ele>752.719971</ele>
        <time>2011-07-14T11:25:07Z</time>
      </trkpt>
      <trkpt lat="45.68462" lon="3.06525">
        <ele>753.132813</ele>
        <time>2011-07-14T11:25:15Z</time>
      </trkpt>
      <trkpt lat="45.68463" lon="3.06511">
        <ele>753.474976</ele>
        <time>2011-07-14T11:25:22Z</time>
      </trkpt>
      <trkpt lat="45.68463" lon="3.06497">
        <ele>753.834595</ele>
        <time>2011-07-14T11:25:30Z</time>
      </trkpt>
      <trkpt lat="45.68463" lon="3.06483">
        <ele>754.187683</ele>
        <time>2011-07-14T11:25:38Z</time>
      </trkpt>
      <trkpt lat="45.68463" lon="3.06469">
        <ele>754.533997</ele>
        <time>2011-07-14T11:25:46Z</time>
      </trkpt>
      <trkpt lat="45.68464" lon="3.06456">
        <ele>754.850891</ele>
        <time>2011-07-14T11:25:53Z</time>
      </trkpt>
      <trkpt lat="45.68462" lon="3.06442">
        <ele>755.254089</ele>
        <time>2011-07-14T11:26:01Z</time>
      </trkpt>
      <trkpt lat="45.6846" lon="3.06427">
        <ele>755.690491</ele>
        <time>2011-07-14T11:26:09Z</time>
      </trkpt>
      <trkpt lat="45.68459" lon="3.06415">
        <ele>756.086548</ele>
        <time>2011-07-14T11:26:16Z</time>
      </trkpt>
      <trkpt lat="45.68457" lon="3.064">
        <ele>756.545776</ele>
        <time>2011-07-14T11:26:24Z</time>
      </trkpt>
      <trkpt lat="45.68455" lon="3.06385">
        <ele>756.898743</ele>
        <time>2011-07-14T11:26:32Z</time>
      </trkpt>
      <trkpt lat="45.68453" lon="3.0637">
        <ele>757.251282</ele>
        <time>2011-07-14T11:26:40Z</time>
      </trkpt>
      <trkpt lat="45.68452" lon="3.06358">
        <ele>757.521118</ele>
        <time>2011-07-14T11:26:47Z</time>
      </trkpt>
      <trkpt lat="45.68451" lon="3.06343">
        <ele>757.794434</ele>
        <time>2011-07-14T11:26:55Z</time>
      </trkpt>
      <trkpt lat="45.68451" lon="3.06329">
        <ele>758.270569</ele>
        <time>2011-07-14T11:27:02Z</time>
      </trkpt>
      <trkpt lat="45.68451" lon="3.06314">
        <ele>758.961487</ele>
        <time>2011-07-14T11:27:10Z</time>
      </trkpt>
      <trkpt lat="45.68451" lon="3.063">
        <ele>759.618286</ele>
        <time>2011-07-14T11:27:18Z</time>
      </trkpt>
      <trkpt lat="45.6845" lon="3.06284">
        <ele>760.339966</ele>
        <time>2011-07-14T11:27:26Z</time>
      </trkpt>
      <trkpt lat="45.6845" lon="3.06271">
        <ele>760.94751</ele>
        <time>2011-07-14T11:27:33Z</time>
      </trkpt>
      <trkpt lat="45.68448" lon="3.06256">
        <ele>761.472473</ele>
        <time>2011-07-14T11:27:41Z</time>
      </trkpt>
      <trkpt lat="45.68448" lon="3.06243">
        <ele>761.922485</ele>
        <time>2011-07-14T11:27:48Z</time>
      </trkpt>
      <trkpt lat="45.68448" lon="3.06227">
        <ele>762.429993</ele>
        <time>2011-07-14T11:27:56Z</time>
      </trkpt>
      <trkpt lat="45.68448" lon="3.06213">
        <ele>762.867493</ele>
        <time>2011-07-14T11:28:03Z</time>
      </trkpt>
      <trkpt lat="45.68446" lon="3.06198">
        <ele>763.387512</ele>
        <time>2011-07-14T11:28:11Z</time>
      </trkpt>
      <trkpt lat="45.68445" lon="3.06183">
        <ele>763.897522</ele>
        <time>2011-07-14T11:28:19Z</time>
      </trkpt>
      <trkpt lat="45.68445" lon="3.06168">
        <ele>764.380005</ele>
        <time>2011-07-14T11:28:27Z</time>
      </trkpt>
      <trkpt lat="45.68445" lon="3.06153">
        <ele>764.869995</ele>
        <time>2011-07-14T11:28:35Z</time>
      </trkpt>
      <trkpt lat="45.68445" lon="3.06138">
        <ele>765.35498</ele>
        <time>2011-07-14T11:28:43Z</time>
      </trkpt>
      <trkpt lat="45.68445" lon="3.06123">
        <ele>765.835022</ele>
        <time>2011-07-14T11:28:51Z</time>
      </trkpt>
      <trkpt lat="45.68445" lon="3.06109">
        <ele>766.257507</ele>
        <time>2011-07-14T11:28:58Z</time>
      </trkpt>
      <trkpt lat="45.68445" lon="3.06094">
        <ele>766.6875</ele>
        <time>2011-07-14T11:29:05Z</time>
      </trkpt>
      <trkpt lat="45.68447" lon="3.0608">
        <ele>767.045166</ele>
        <time>2011-07-14T11:29:12Z</time>
      </trkpt>
      <trkpt lat="45.68449" lon="3.06066">
        <ele>767.184998</ele>
        <time>2011-07-14T11:29:19Z</time>
      </trkpt>
      <trkpt lat="45.68451" lon="3.06052">
        <ele>767.294983</ele>
        <time>2011-07-14T11:29:26Z</time>
      </trkpt>
      <trkpt lat="45.68452" lon="3.06038">
        <ele>767.446228</ele>
        <time>2011-07-14T11:29:33Z</time>
      </trkpt>
      <trkpt lat="45.68452" lon="3.06022">
        <ele>767.696228</ele>
        <time>2011-07-14T11:29:41Z</time>
      </trkpt>
      <trkpt lat="45.68452" lon="3.06008">
        <ele>767.894592</ele>
        <time>2011-07-14T11:29:48Z</time>
      </trkpt>
      <trkpt lat="45.68453" lon="3.05994">
        <ele>768.11853</ele>
        <time>2011-07-14T11:29:56Z</time>
      </trkpt>
      <trkpt lat="45.68453" lon="3.05978">
        <ele>768.395996</ele>
        <time>2011-07-14T11:30:04Z</time>
      </trkpt>
      <trkpt lat="45.68452" lon="3.05963">
        <ele>768.671265</ele>
        <time>2011-07-14T11:30:12Z</time>
      </trkpt>
      <trkpt lat="45.68452" lon="3.05949">
        <ele>769.028687</ele>
        <time>2011-07-14T11:30:19Z</time>
      </trkpt>
      <trkpt lat="45.68451" lon="3.05933">
        <ele>769.826416</ele>
        <time>2011-07-14T11:30:27Z</time>
      </trkpt>
      <trkpt lat="45.68451" lon="3.05918">
        <ele>770.584106</ele>
        <time>2011-07-14T11:30:35Z</time>
      </trkpt>
      <trkpt lat="45.6845" lon="3.05903">
        <ele>771.261047</ele>
        <time>2011-07-14T11:30:43Z</time>
      </trkpt>
      <trkpt lat="45.6845" lon="3.05889">
        <ele>771.968689</ele>
        <time>2011-07-14T11:30:51Z</time>
      </trkpt>
      <trkpt lat="45.68451" lon="3.05873">
        <ele>772.947266</ele>
        <time>2011-07-14T11:31:00Z</time>
      </trkpt>
      <trkpt lat="45.68452" lon="3.05859">
        <ele>773.799194</ele>
        <time>2011-07-14T11:31:08Z</time>
      </trkpt>
      <trkpt lat="45.68454" lon="3.05843">
        <ele>774.808777</ele>
        <time>2011-07-14T11:31:17Z</time>
      </trkpt>
      <trkpt lat="45.68453" lon="3.05829">
        <ele>775.708984</ele>
        <time>2011-07-14T11:31:25Z</time>
      </trkpt>
      <trkpt lat="45.68456" lon="3.05815">
        <ele>776.73584</ele>
        <time>2011-07-14T11:31:33Z</time>
      </trkpt>
      <trkpt lat="45.68458" lon="3.058">
        <ele>777.821777</ele>
        <time>2011-07-14T11:31:41Z</time>
      </trkpt>
      <trkpt lat="45.68461" lon="3.05786">
        <ele>778.872314</ele>
        <time>2011-07-14T11:31:49Z</time>
      </trkpt>
      <trkpt lat="45.68462" lon="3.05772">
        <ele>779.878601</ele>
        <time>2011-07-14T11:31:56Z</time>
      </trkpt>
      <trkpt lat="45.68464" lon="3.05758">
        <ele>780.794983</ele>
        <time>2011-07-14T11:32:03Z</time>
      </trkpt>
      <trkpt lat="45.68468" lon="3.05744">
        <ele>781.550354</ele>
        <time>2011-07-14T11:32:11Z</time>
      </trkpt>
      <trkpt lat="45.68468" lon="3.05731">
        <ele>782.275085</ele>
        <time>2011-07-14T11:32:18Z</time>
      </trkpt>
      <trkpt lat="45.6847" lon="3.05715">
        <ele>783.091309</ele>
        <time>2011-07-14T11:32:26Z</time>
      </trkpt>
      <trkpt lat="45.68471" lon="3.05702">
        <ele>783.775757</ele>
        <time>2011-07-14T11:32:33Z</time>
      </trkpt>
      <trkpt lat="45.68471" lon="3.05687">
        <ele>783.958191</ele>
        <time>2011-07-14T11:32:41Z</time>
      </trkpt>
      <trkpt lat="45.68471" lon="3.05673">
        <ele>783.768982</ele>
        <time>2011-07-14T11:32:50Z</time>
      </trkpt>
      <trkpt lat="45.68464" lon="3.05664">
        <ele>784.349426</ele>
        <time>2011-07-14T11:32:57Z</time>
      </trkpt>
      <trkpt lat="45.68457" lon="3.05654">
        <ele>785.069031</ele>
        <time>2011-07-14T11:33:06Z</time>
      </trkpt>
      <trkpt lat="45.68449" lon="3.05643">
        <ele>785.976379</ele>
        <time>2011-07-14T11:33:16Z</time>
      </trkpt>
      <trkpt lat="45.68441" lon="3.0563">
        <ele>786.852478</ele>
        <time>2011-07-14T11:33:25Z</time>
      </trkpt>
      <trkpt lat="45.68437" lon="3.05617">
        <ele>787.270691</ele>
        <time>2011-07-14T11:33:33Z</time>
      </trkpt>
      <trkpt lat="45.68432" lon="3.05603">
        <ele>787.835388</ele>
        <time>2011-07-14T11:33:42Z</time>
      </trkpt>
      <trkpt lat="45.68429" lon="3.05589">
        <ele>788.347473</ele>
        <time>2011-07-14T11:33:50Z</time>
      </trkpt>
      <trkpt lat="45.68424" lon="3.05575">
        <ele>789.184937</ele>
        <time>2011-07-14T11:33:58Z</time>
      </trkpt>
      <trkpt lat="45.68419" lon="3.05562">
        <ele>790.286316</ele>
        <time>2011-07-14T11:34:07Z</time>
      </trkpt>
      <trkpt lat="45.68413" lon="3.05549">
        <ele>791.778198</ele>
        <time>2011-07-14T11:34:16Z</time>
      </trkpt>
      <trkpt lat="45.68408" lon="3.05536">
        <ele>793.109009</ele>
        <time>2011-07-14T11:34:25Z</time>
      </trkpt>
      <trkpt lat="45.68405" lon="3.05521">
        <ele>794.25</ele>
        <time>2011-07-14T11:34:34Z</time>
      </trkpt>
      <trkpt lat="45.68399" lon="3.0551">
        <ele>795.33374</ele>
        <time>2011-07-14T11:34:42Z</time>
      </trkpt>
      <trkpt lat="45.68393" lon="3.05499">
        <ele>796.541809</ele>
        <time>2011-07-14T11:34:51Z</time>
      </trkpt>
      <trkpt lat="45.68386" lon="3.05487">
        <ele>798.192078</ele>
        <time>2011-07-14T11:35:01Z</time>
      </trkpt>
      <trkpt lat="45.68379" lon="3.05473">
        <ele>800.060547</ele>
        <time>2011-07-14T11:35:11Z</time>
      </trkpt>
      <trkpt lat="45.68371" lon="3.05462">
        <ele>801.835205</ele>
        <time>2011-07-14T11:35:20Z</time>
      </trkpt>
      <trkpt lat="45.68363" lon="3.05452">
        <ele>803.629211</ele>
        <time>2011-07-14T11:35:31Z</time>
      </trkpt>
      <trkpt lat="45.68353" lon="3.05448">
        <ele>804.662476</ele>
        <time>2011-07-14T11:35:41Z</time>
      </trkpt>
      <trkpt lat="45.68343" lon="3.05445">
        <ele>805.592468</ele>
        <time>2011-07-14T11:35:52Z</time>
      </trkpt>
      <trkpt lat="45.68332" lon="3.05445">
        <ele>806.282532</ele>
        <time>2011-07-14T11:36:01Z</time>
      </trkpt>
      <trkpt lat="45.68321" lon="3.05443">
        <ele>807.182495</ele>
        <time>2011-07-14T11:36:11Z</time>
      </trkpt>
      <trkpt lat="45.6831" lon="3.05442">
        <ele>807.850281</ele>
        <time>2011-07-14T11:36:20Z</time>
      </trkpt>
      <trkpt lat="45.68301" lon="3.05439">
        <ele>808.501587</ele>
        <time>2011-07-14T11:36:28Z</time>
      </trkpt>
      <trkpt lat="45.68294" lon="3.05432">
        <ele>809.303101</ele>
        <time>2011-07-14T11:36:36Z</time>
      </trkpt>
      <trkpt lat="45.68288" lon="3.05422">
        <ele>810.112366</ele>
        <time>2011-07-14T11:36:45Z</time>
      </trkpt>
      <trkpt lat="45.68283" lon="3.0541">
        <ele>810.908508</ele>
        <time>2011-07-14T11:36:54Z</time>
      </trkpt>
      <trkpt lat="45.68279" lon="3.05395">
        <ele>811.76886</ele>
        <time>2011-07-14T11:37:03Z</time>
      </trkpt>
      <trkpt lat="45.68275" lon="3.05382">
        <ele>812.51825</ele>
        <time>2011-07-14T11:37:12Z</time>
      </trkpt>
      <trkpt lat="45.68272" lon="3.05368">
        <ele>813.10498</ele>
        <time>2011-07-14T11:37:21Z</time>
      </trkpt>
      <trkpt lat="45.6827" lon="3.05353">
        <ele>813.611267</ele>
        <time>2011-07-14T11:37:30Z</time>
      </trkpt>
      <trkpt lat="45.68267" lon="3.05339">
        <ele>813.783752</ele>
        <time>2011-07-14T11:37:40Z</time>
      </trkpt>
      <trkpt lat="45.68264" lon="3.05326">
        <ele>813.967529</ele>
        <time>2011-07-14T11:37:49Z</time>
      </trkpt>
      <trkpt lat="45.68259" lon="3.05314">
        <ele>813.9375</ele>
        <time>2011-07-14T11:37:58Z</time>
      </trkpt>
      <trkpt lat="45.68253" lon="3.05304">
        <ele>813.818176</ele>
        <time>2011-07-14T11:38:07Z</time>
      </trkpt>
      <trkpt lat="45.68249" lon="3.0529">
        <ele>814.637573</ele>
        <time>2011-07-14T11:38:16Z</time>
      </trkpt>
      <trkpt lat="45.68248" lon="3.05273">
        <ele>816.276428</ele>
        <time>2011-07-14T11:38:27Z</time>
      </trkpt>
      <trkpt lat="45.68247" lon="3.05258">
        <ele>817.791992</ele>
        <time>2011-07-14T11:38:37Z</time>
      </trkpt>
      <trkpt lat="45.68248" lon="3.05242">
        <ele>819.481262</ele>
        <time>2011-07-14T11:38:47Z</time>
      </trkpt>
      <trkpt lat="45.68246" lon="3.05227">
        <ele>820.813538</ele>
        <time>2011-07-14T11:38:57Z</time>
      </trkpt>
      <trkpt lat="45.68244" lon="3.05213">
        <ele>822.097595</ele>
        <time>2011-07-14T11:39:07Z</time>
      </trkpt>
      <trkpt lat="45.6824" lon="3.052">
        <ele>823.194336</ele>
        <time>2011-07-14T11:39:17Z</time>
      </trkpt>
      <trkpt lat="45.68236" lon="3.05187">
        <ele>824.35437</ele>
        <time>2011-07-14T11:39:27Z</time>
      </trkpt>
      <trkpt lat="45.6823" lon="3.05175">
        <ele>825.225403</ele>
        <time>2011-07-14T11:39:37Z</time>
      </trkpt>
      <trkpt lat="45.68225" lon="3.05164">
        <ele>825.147766</ele>
        <time>2011-07-14T11:39:47Z</time>
      </trkpt>
      <trkpt lat="45.68219" lon="3.05153">
        <ele>824.951477</ele>
        <time>2011-07-14T11:39:57Z</time>
      </trkpt>
      <trkpt lat="45.68211" lon="3.05144">
        <ele>824.579712</ele>
        <time>2011-07-14T11:40:06Z</time>
      </trkpt>
      <trkpt lat="45.68203" lon="3.05136">
        <ele>824.549316</ele>
        <time>2011-07-14T11:40:14Z</time>
      </trkpt>
      <trkpt lat="45.68195" lon="3.05128">
        <ele>824.819092</ele>
        <time>2011-07-14T11:40:22Z</time>
      </trkpt>
      <trkpt lat="45.68188" lon="3.05119">
        <ele>825.552551</ele>
        <time>2011-07-14T11:40:30Z</time>
      </trkpt>
      <trkpt lat="45.68181" lon="3.05111">
        <ele>825.579346</ele>
        <time>2011-07-14T11:40:38Z</time>
      </trkpt>
      <trkpt lat="45.68172" lon="3.05105">
        <ele>824.760437</ele>
        <time>2011-07-14T11:40:46Z</time>
      </trkpt>
      <trkpt lat="45.68164" lon="3.05099">
        <ele>823.909607</ele>
        <time>2011-07-14T11:40:54Z</time>
      </trkpt>
      <trkpt lat="45.68156" lon="3.05092">
        <ele>823.59491</ele>
        <time>2011-07-14T11:41:02Z</time>
      </trkpt>
      <trkpt lat="45.68148" lon="3.05086">
        <ele>823.342529</ele>
        <time>2011-07-14T11:41:11Z</time>
      </trkpt>
      <trkpt lat="45.68138" lon="3.05082">
        <ele>822.770264</ele>
        <time>2011-07-14T11:41:19Z</time>
      </trkpt>
      <trkpt lat="45.68129" lon="3.05078">
        <ele>822.242981</ele>
        <time>2011-07-14T11:41:28Z</time>
      </trkpt>
      <trkpt lat="45.68119" lon="3.05072">
        <ele>822.096802</ele>
        <time>2011-07-14T11:41:37Z</time>
      </trkpt>
      <trkpt lat="45.6811" lon="3.05067">
        <ele>822.115295</ele>
        <time>2011-07-14T11:41:46Z</time>
      </trkpt>
      <trkpt lat="45.68101" lon="3.05061">
        <ele>822.464294</ele>
        <time>2011-07-14T11:41:55Z</time>
      </trkpt>
      <trkpt lat="45.68093" lon="3.05052">
        <ele>824.115051</ele>
        <time>2011-07-14T11:42:03Z</time>
      </trkpt>
      <trkpt lat="45.68086" lon="3.0504">
        <ele>825.487793</ele>
        <time>2011-07-14T11:42:12Z</time>
      </trkpt>
      <trkpt lat="45.68078" lon="3.05032">
        <ele>825.921387</ele>
        <time>2011-07-14T11:42:20Z</time>
      </trkpt>
      <trkpt lat="45.68071" lon="3.05022">
        <ele>827.093994</ele>
        <time>2011-07-14T11:42:27Z</time>
      </trkpt>
      <trkpt lat="45.68063" lon="3.05012">
        <ele>828.448975</ele>
        <time>2011-07-14T11:42:35Z</time>
      </trkpt>
      <trkpt lat="45.68056" lon="3.05001">
        <ele>830.404724</ele>
        <time>2011-07-14T11:42:43Z</time>
      </trkpt>
      <trkpt lat="45.68049" lon="3.0499">
        <ele>832.720215</ele>
        <time>2011-07-14T11:42:52Z</time>
      </trkpt>
      <trkpt lat="45.68042" lon="3.04981">
        <ele>833.968323</ele>
        <time>2011-07-14T11:43:01Z</time>
      </trkpt>
      <trkpt lat="45.68033" lon="3.04974">
        <ele>834.583618</ele>
        <time>2011-07-14T11:43:09Z</time>
      </trkpt>
      <trkpt lat="45.68025" lon="3.04966">
        <ele>835.379822</ele>
        <time>2011-07-14T11:43:13Z</time>
      </trkpt>
      <trkpt lat="45.68017" lon="3.04958">
        <ele>836.380981</ele>
        <time>2011-07-14T11:43:16Z</time>
      </trkpt>
      <trkpt lat="45.68009" lon="3.0495">
        <ele>837.575684</ele>
        <time>2011-07-14T11:43:19Z</time>
      </trkpt>
      <trkpt lat="45.68002" lon="3.04941">
        <ele>838.929993</ele>
        <time>2011-07-14T11:43:22Z</time>
      </trkpt>
      <trkpt lat="45.67991" lon="3.0493">
        <ele>840.462097</ele>
        <time>2011-07-14T11:43:26Z</time>
      </trkpt>
      <trkpt lat="45.67984" lon="3.04919">
        <ele>842.538452</ele>
        <time>2011-07-14T11:43:29Z</time>
      </trkpt>
      <trkpt lat="45.67981" lon="3.04905">
        <ele>843.002258</ele>
        <time>2011-07-14T11:43:32Z</time>
      </trkpt>
      <trkpt lat="45.6798" lon="3.0489">
        <ele>843.473694</ele>
        <time>2011-07-14T11:43:38Z</time>
      </trkpt>
      <trkpt lat="45.67978" lon="3.04874">
        <ele>843.919861</ele>
        <time>2011-07-14T11:43:47Z</time>
      </trkpt>
      <trkpt lat="45.67982" lon="3.04879">
        <ele>843.98584</ele>
        <time>2011-07-14T11:44:04Z</time>
      </trkpt>
      <trkpt lat="45.67983" lon="3.04892">
        <ele>843.549438</ele>
        <time>2011-07-14T11:44:11Z</time>
      </trkpt>
      <trkpt lat="45.67983" lon="3.04905">
        <ele>843.060425</ele>
        <time>2011-07-14T11:44:18Z</time>
      </trkpt>
      <trkpt lat="45.67981" lon="3.04917">
        <ele>842.567322</ele>
        <time>2011-07-14T11:44:39Z</time>
      </trkpt>
      <trkpt lat="45.67981" lon="3.04907">
        <ele>842.933899</ele>
        <time>2011-07-14T11:46:14Z</time>
      </trkpt>
      <trkpt lat="45.67982" lon="3.04888">
        <ele>843.63855</ele>
        <time>2011-07-14T11:46:25Z</time>
      </trkpt>
      <trkpt lat="45.6798" lon="3.04869">
        <ele>844.191345</ele>
        <time>2011-07-14T11:46:40Z</time>
      </trkpt>
      <trkpt lat="45.6798" lon="3.04852">
        <ele>844.566833</ele>
        <time>2011-07-14T11:46:53Z</time>
      </trkpt>
      <trkpt lat="45.67983" lon="3.04834">
        <ele>844.134155</ele>
        <time>2011-07-14T11:47:17Z</time>
      </trkpt>
      <trkpt lat="45.67985" lon="3.04818">
        <ele>843.788574</ele>
        <time>2011-07-14T11:47:26Z</time>
      </trkpt>
      <trkpt lat="45.67987" lon="3.04799">
        <ele>843.396057</ele>
        <time>2011-07-14T11:47:37Z</time>
      </trkpt>
      <trkpt lat="45.67986" lon="3.04782">
        <ele>842.629395</ele>
        <time>2011-07-14T11:47:48Z</time>
      </trkpt>
      <trkpt lat="45.67986" lon="3.04766">
        <ele>842.240234</ele>
        <time>2011-07-14T11:47:58Z</time>
      </trkpt>
      <trkpt lat="45.67983" lon="3.04752">
        <ele>841.343262</ele>
        <time>2011-07-14T11:48:06Z</time>
      </trkpt>
      <trkpt lat="45.67981" lon="3.04738">
        <ele>840.432678</ele>
        <time>2011-07-14T11:48:16Z</time>
      </trkpt>
      <trkpt lat="45.67976" lon="3.0472">
        <ele>838.945801</ele>
        <time>2011-07-14T11:48:26Z</time>
      </trkpt>
      <trkpt lat="45.67971" lon="3.04705">
        <ele>837.442322</ele>
        <time>2011-07-14T11:48:30Z</time>
      </trkpt>
      <trkpt lat="45.67965" lon="3.0469">
        <ele>835.756714</ele>
        <time>2011-07-14T11:48:34Z</time>
      </trkpt>
      <trkpt lat="45.67958" lon="3.04669">
        <ele>833.844116</ele>
        <time>2011-07-14T11:48:38Z</time>
      </trkpt>
      <trkpt lat="45.67953" lon="3.04656">
        <ele>832.401611</ele>
        <time>2011-07-14T11:48:41Z</time>
      </trkpt>
      <trkpt lat="45.67947" lon="3.04638">
        <ele>831.127441</ele>
        <time>2011-07-14T11:48:46Z</time>
      </trkpt>
      <trkpt lat="45.67941" lon="3.04621">
        <ele>829.683716</ele>
        <time>2011-07-14T11:48:50Z</time>
      </trkpt>
      <trkpt lat="45.67938" lon="3.04607">
        <ele>829.184937</ele>
        <time>2011-07-14T11:48:54Z</time>
      </trkpt>
      <trkpt lat="45.67932" lon="3.04592">
        <ele>827.869995</ele>
        <time>2011-07-14T11:49:02Z</time>
      </trkpt>
      <trkpt lat="45.67928" lon="3.04592">
        <ele>826.95752</ele>
        <time>2011-07-14T11:50:02Z</time>
      </trkpt>
      <trkpt lat="45.67934" lon="3.04607">
        <ele>828.16333</ele>
        <time>2011-07-14T11:50:08Z</time>
      </trkpt>
      <trkpt lat="45.67938" lon="3.04622">
        <ele>828.948303</ele>
        <time>2011-07-14T11:50:13Z</time>
      </trkpt>
      <trkpt lat="45.67945" lon="3.04635">
        <ele>830.468323</ele>
        <time>2011-07-14T11:50:18Z</time>
      </trkpt>
      <trkpt lat="45.67951" lon="3.0465">
        <ele>831.836853</ele>
        <time>2011-07-14T11:50:27Z</time>
      </trkpt>
      <trkpt lat="45.67955" lon="3.04663">
        <ele>833.046631</ele>
        <time>2011-07-14T11:50:35Z</time>
      </trkpt>
      <trkpt lat="45.6796" lon="3.04677">
        <ele>834.29425</ele>
        <time>2011-07-14T11:50:43Z</time>
      </trkpt>
      <trkpt lat="45.67965" lon="3.0469">
        <ele>835.722717</ele>
        <time>2011-07-14T11:50:52Z</time>
      </trkpt>
      <trkpt lat="45.67969" lon="3.04704">
        <ele>836.970459</ele>
        <time>2011-07-14T11:51:00Z</time>
      </trkpt>
      <trkpt lat="45.67973" lon="3.04718">
        <ele>837.949585</ele>
        <time>2011-07-14T11:51:08Z</time>
      </trkpt>
      <trkpt lat="45.67976" lon="3.04732">
        <ele>838.88562</ele>
        <time>2011-07-14T11:51:15Z</time>
      </trkpt>
      <trkpt lat="45.67979" lon="3.04746">
        <ele>840.041443</ele>
        <time>2011-07-14T11:51:21Z</time>
      </trkpt>
      <trkpt lat="45.67981" lon="3.0476">
        <ele>841.116943</ele>
        <time>2011-07-14T11:51:28Z</time>
      </trkpt>
      <trkpt lat="45.67983" lon="3.04774">
        <ele>841.857605</ele>
        <time>2011-07-14T11:51:35Z</time>
      </trkpt>
      <trkpt lat="45.67984" lon="3.04788">
        <ele>842.535706</ele>
        <time>2011-07-14T11:51:42Z</time>
      </trkpt>
      <trkpt lat="45.67986" lon="3.04803">
        <ele>843.329102</ele>
        <time>2011-07-14T11:51:49Z</time>
      </trkpt>
      <trkpt lat="45.67986" lon="3.04817">
        <ele>843.829651</ele>
        <time>2011-07-14T11:51:56Z</time>
      </trkpt>
      <trkpt lat="45.67983" lon="3.04831">
        <ele>843.894409</ele>
        <time>2011-07-14T11:52:04Z</time>
      </trkpt>
      <trkpt lat="45.67978" lon="3.04843">
        <ele>843.96344</ele>
        <time>2011-07-14T11:52:12Z</time>
      </trkpt>
      <trkpt lat="45.67976" lon="3.04857">
        <ele>844.267761</ele>
        <time>2011-07-14T11:52:20Z</time>
      </trkpt>
      <trkpt lat="45.67978" lon="3.04871">
        <ele>843.998352</ele>
        <time>2011-07-14T11:52:28Z</time>
      </trkpt>
      <trkpt lat="45.6798" lon="3.04885">
        <ele>843.684631</ele>
        <time>2011-07-14T11:52:36Z</time>
      </trkpt>
      <trkpt lat="45.67982" lon="3.04899">
        <ele>843.262268</ele>
        <time>2011-07-14T11:52:44Z</time>
      </trkpt>
      <trkpt lat="45.67984" lon="3.04912">
        <ele>842.804626</ele>
        <time>2011-07-14T11:52:49Z</time>
      </trkpt>
      <trkpt lat="45.67992" lon="3.04925">
        <ele>841.660278</ele>
        <time>2011-07-14T11:52:53Z</time>
      </trkpt>
      <trkpt lat="45.68" lon="3.04931">
        <ele>840.604065</ele>
        <time>2011-07-14T11:52:58Z</time>
      </trkpt>
      <trkpt lat="45.68003" lon="3.04919">
        <ele>842.973022</ele>
        <time>2011-07-14T11:53:12Z</time>
      </trkpt>
      <trkpt lat="45.68003" lon="3.04904">
        <ele>843.865906</ele>
        <time>2011-07-14T11:53:17Z</time>
      </trkpt>
      <trkpt lat="45.68007" lon="3.04891">
        <ele>844.840332</ele>
        <time>2011-07-14T11:53:20Z</time>
      </trkpt>
      <trkpt lat="45.6801" lon="3.04877">
        <ele>845.742065</ele>
        <time>2011-07-14T11:53:23Z</time>
      </trkpt>
      <trkpt lat="45.68013" lon="3.04859">
        <ele>846.961975</ele>
        <time>2011-07-14T11:53:27Z</time>
      </trkpt>
      <trkpt lat="45.68019" lon="3.04845">
        <ele>847.376587</ele>
        <time>2011-07-14T11:53:30Z</time>
      </trkpt>
      <trkpt lat="45.68026" lon="3.04833">
        <ele>847.760071</ele>
        <time>2011-07-14T11:53:33Z</time>
      </trkpt>
      <trkpt lat="45.68032" lon="3.04821">
        <ele>848.202637</ele>
        <time>2011-07-14T11:53:36Z</time>
      </trkpt>
      <trkpt lat="45.68038" lon="3.04808">
        <ele>848.738525</ele>
        <time>2011-07-14T11:53:39Z</time>
      </trkpt>
      <trkpt lat="45.68046" lon="3.04796">
        <ele>849.529419</ele>
        <time>2011-07-14T11:53:43Z</time>
      </trkpt>
      <trkpt lat="45.68049" lon="3.04782">
        <ele>850.2677</ele>
        <time>2011-07-14T11:53:47Z</time>
      </trkpt>
      <trkpt lat="45.68043" lon="3.04769">
        <ele>850.298706</ele>
        <time>2011-07-14T11:53:50Z</time>
      </trkpt>
      <trkpt lat="45.68043" lon="3.04754">
        <ele>850.896423</ele>
        <time>2011-07-14T11:53:53Z</time>
      </trkpt>
      <trkpt lat="45.68048" lon="3.04741">
        <ele>851.900513</ele>
        <time>2011-07-14T11:53:56Z</time>
      </trkpt>
      <trkpt lat="45.68052" lon="3.04728">
        <ele>852.969971</ele>
        <time>2011-07-14T11:53:59Z</time>
      </trkpt>
      <trkpt lat="45.68056" lon="3.0471">
        <ele>853.949341</ele>
        <time>2011-07-14T11:54:03Z</time>
      </trkpt>
      <trkpt lat="45.68061" lon="3.04691">
        <ele>855.036072</ele>
        <time>2011-07-14T11:54:06Z</time>
      </trkpt>
      <trkpt lat="45.68064" lon="3.04677">
        <ele>855.84845</ele>
        <time>2011-07-14T11:54:08Z</time>
      </trkpt>
      <trkpt lat="45.68067" lon="3.04663">
        <ele>856.730347</ele>
        <time>2011-07-14T11:54:10Z</time>
      </trkpt>
      <trkpt lat="45.6807" lon="3.04648">
        <ele>857.855652</ele>
        <time>2011-07-14T11:54:12Z</time>
      </trkpt>
      <trkpt lat="45.68075" lon="3.04633">
        <ele>859.207336</ele>
        <time>2011-07-14T11:54:15Z</time>
      </trkpt>
      <trkpt lat="45.68084" lon="3.04621">
        <ele>860.555664</ele>
        <time>2011-07-14T11:54:23Z</time>
      </trkpt>
      <trkpt lat="45.68092" lon="3.04609">
        <ele>861.936401</ele>
        <time>2011-07-14T11:54:30Z</time>
      </trkpt>
      <trkpt lat="45.68097" lon="3.04598">
        <ele>863.247314</ele>
        <time>2011-07-14T11:54:33Z</time>
      </trkpt>
      <trkpt lat="45.68101" lon="3.04585">
        <ele>864.440002</ele>
        <time>2011-07-14T11:54:36Z</time>
      </trkpt>
      <trkpt lat="45.68107" lon="3.04569">
        <ele>865.955017</ele>
        <time>2011-07-14T11:54:40Z</time>
      </trkpt>
      <trkpt lat="45.6811" lon="3.04555">
        <ele>867.275024</ele>
        <time>2011-07-14T11:54:43Z</time>
      </trkpt>
      <trkpt lat="45.68114" lon="3.04537">
        <ele>868.977478</ele>
        <time>2011-07-14T11:54:47Z</time>
      </trkpt>
      <trkpt lat="45.68118" lon="3.04518">
        <ele>870.812683</ele>
        <time>2011-07-14T11:54:51Z</time>
      </trkpt>
      <trkpt lat="45.68118" lon="3.04503">
        <ele>872.375732</ele>
        <time>2011-07-14T11:54:54Z</time>
      </trkpt>
      <trkpt lat="45.68114" lon="3.04483">
        <ele>874.266724</ele>
        <time>2011-07-14T11:54:57Z</time>
      </trkpt>
      <trkpt lat="45.68112" lon="3.0447">
        <ele>875.48291</ele>
        <time>2011-07-14T11:54:59Z</time>
      </trkpt>
      <trkpt lat="45.68108" lon="3.04452">
        <ele>876.873962</ele>
        <time>2011-07-14T11:55:02Z</time>
      </trkpt>
      <trkpt lat="45.68105" lon="3.04439">
        <ele>877.805176</ele>
        <time>2011-07-14T11:55:05Z</time>
      </trkpt>
      <trkpt lat="45.68101" lon="3.04423">
        <ele>878.862183</ele>
        <time>2011-07-14T11:55:11Z</time>
      </trkpt>
      <trkpt lat="45.68098" lon="3.04407">
        <ele>880.000061</ele>
        <time>2011-07-14T11:55:17Z</time>
      </trkpt>
      <trkpt lat="45.68097" lon="3.04387">
        <ele>881.822083</ele>
        <time>2011-07-14T11:55:21Z</time>
      </trkpt>
      <trkpt lat="45.68093" lon="3.04367">
        <ele>883.476074</ele>
        <time>2011-07-14T11:55:24Z</time>
      </trkpt>
      <trkpt lat="45.68092" lon="3.04354">
        <ele>884.69751</ele>
        <time>2011-07-14T11:55:26Z</time>
      </trkpt>
      <trkpt lat="45.6809" lon="3.04339">
        <ele>885.852417</ele>
        <time>2011-07-14T11:55:28Z</time>
      </trkpt>
      <trkpt lat="45.68087" lon="3.04324">
        <ele>886.793091</ele>
        <time>2011-07-14T11:55:30Z</time>
      </trkpt>
      <trkpt lat="45.68084" lon="3.04309">
        <ele>887.806274</ele>
        <time>2011-07-14T11:55:32Z</time>
      </trkpt>
      <trkpt lat="45.68081" lon="3.04297">
        <ele>888.699951</ele>
        <time>2011-07-14T11:55:34Z</time>
      </trkpt>
      <trkpt lat="45.68076" lon="3.04286">
        <ele>889.494507</ele>
        <time>2011-07-14T11:55:37Z</time>
      </trkpt>
      <trkpt lat="45.68064" lon="3.04275">
        <ele>890.191223</ele>
        <time>2011-07-14T11:55:40Z</time>
      </trkpt>
      <trkpt lat="45.68056" lon="3.04266">
        <ele>890.60376</ele>
        <time>2011-07-14T11:55:42Z</time>
      </trkpt>
      <trkpt lat="45.68047" lon="3.04258">
        <ele>890.752258</ele>
        <time>2011-07-14T11:55:44Z</time>
      </trkpt>
      <trkpt lat="45.68039" lon="3.0425">
        <ele>890.957642</ele>
        <time>2011-07-14T11:55:46Z</time>
      </trkpt>
      <trkpt lat="45.6803" lon="3.04237">
        <ele>891.542908</ele>
        <time>2011-07-14T11:55:49Z</time>
      </trkpt>
      <trkpt lat="45.68029" lon="3.04222">
        <ele>892.495605</ele>
        <time>2011-07-14T11:55:52Z</time>
      </trkpt>
      <trkpt lat="45.68028" lon="3.04206">
        <ele>893.325012</ele>
        <time>2011-07-14T11:55:55Z</time>
      </trkpt>
      <trkpt lat="45.68027" lon="3.04188">
        <ele>894.068176</ele>
        <time>2011-07-14T11:55:58Z</time>
      </trkpt>
      <trkpt lat="45.68027" lon="3.04174">
        <ele>894.652039</ele>
        <time>2011-07-14T11:56:00Z</time>
      </trkpt>
      <trkpt lat="45.68026" lon="3.04159">
        <ele>895.287903</ele>
        <time>2011-07-14T11:56:02Z</time>
      </trkpt>
      <trkpt lat="45.68026" lon="3.04144">
        <ele>895.728333</ele>
        <time>2011-07-14T11:56:04Z</time>
      </trkpt>
      <trkpt lat="45.68025" lon="3.04129">
        <ele>895.889526</ele>
        <time>2011-07-14T11:56:06Z</time>
      </trkpt>
      <trkpt lat="45.68025" lon="3.04112">
        <ele>896.053467</ele>
        <time>2011-07-14T11:56:08Z</time>
      </trkpt>
      <trkpt lat="45.68025" lon="3.04096">
        <ele>896.224365</ele>
        <time>2011-07-14T11:56:10Z</time>
      </trkpt>
      <trkpt lat="45.68026" lon="3.0408">
        <ele>896.476746</ele>
        <time>2011-07-14T11:56:12Z</time>
      </trkpt>
      <trkpt lat="45.68027" lon="3.04062">
        <ele>896.842651</ele>
        <time>2011-07-14T11:56:14Z</time>
      </trkpt>
      <trkpt lat="45.68027" lon="3.04045">
        <ele>897.209656</ele>
        <time>2011-07-14T11:56:16Z</time>
      </trkpt>
      <trkpt lat="45.68028" lon="3.04028">
        <ele>897.590454</ele>
        <time>2011-07-14T11:56:18Z</time>
      </trkpt>
      <trkpt lat="45.68028" lon="3.0401">
        <ele>898.293762</ele>
        <time>2011-07-14T11:56:20Z</time>
      </trkpt>
      <trkpt lat="45.68029" lon="3.03993">
        <ele>899.131226</ele>
        <time>2011-07-14T11:56:22Z</time>
      </trkpt>
      <trkpt lat="45.68029" lon="3.03975">
        <ele>899.952515</ele>
        <time>2011-07-14T11:56:24Z</time>
      </trkpt>
      <trkpt lat="45.6803" lon="3.03957">
        <ele>900.851257</ele>
        <time>2011-07-14T11:56:26Z</time>
      </trkpt>
      <trkpt lat="45.68031" lon="3.03939">
        <ele>901.712524</ele>
        <time>2011-07-14T11:56:28Z</time>
      </trkpt>
      <trkpt lat="45.68032" lon="3.03922">
        <ele>902.57251</ele>
        <time>2011-07-14T11:56:30Z</time>
      </trkpt>
      <trkpt lat="45.68037" lon="3.03908">
        <ele>903.440002</ele>
        <time>2011-07-14T11:56:32Z</time>
      </trkpt>
      <trkpt lat="45.68043" lon="3.03896">
        <ele>904.272522</ele>
        <time>2011-07-14T11:56:34Z</time>
      </trkpt>
      <trkpt lat="45.68051" lon="3.03883">
        <ele>905.365356</ele>
        <time>2011-07-14T11:56:37Z</time>
      </trkpt>
      <trkpt lat="45.68052" lon="3.03867">
        <ele>906.366638</ele>
        <time>2011-07-14T11:56:41Z</time>
      </trkpt>
      <trkpt lat="45.6805" lon="3.03852">
        <ele>907.18927</ele>
        <time>2011-07-14T11:56:47Z</time>
      </trkpt>
      <trkpt lat="45.68049" lon="3.03838">
        <ele>907.975342</ele>
        <time>2011-07-14T11:56:55Z</time>
      </trkpt>
      <trkpt lat="45.68047" lon="3.03819">
        <ele>908.647034</ele>
        <time>2011-07-14T11:57:04Z</time>
      </trkpt>
      <trkpt lat="45.68049" lon="3.03804">
        <ele>909.310181</ele>
        <time>2011-07-14T11:57:12Z</time>
      </trkpt>
      <trkpt lat="45.68052" lon="3.03791">
        <ele>909.903992</ele>
        <time>2011-07-14T11:57:20Z</time>
      </trkpt>
      <trkpt lat="45.68053" lon="3.03776">
        <ele>910.448425</ele>
        <time>2011-07-14T11:57:28Z</time>
      </trkpt>
      <trkpt lat="45.68055" lon="3.03762">
        <ele>910.98999</ele>
        <time>2011-07-14T11:57:37Z</time>
      </trkpt>
      <trkpt lat="45.68055" lon="3.03747">
        <ele>911.429993</ele>
        <time>2011-07-14T11:57:45Z</time>
      </trkpt>
      <trkpt lat="45.68054" lon="3.03731">
        <ele>911.877502</ele>
        <time>2011-07-14T11:57:53Z</time>
      </trkpt>
      <trkpt lat="45.68054" lon="3.03716">
        <ele>912.362488</ele>
        <time>2011-07-14T11:57:58Z</time>
      </trkpt>
      <trkpt lat="45.68055" lon="3.037">
        <ele>912.900269</ele>
        <time>2011-07-14T11:58:02Z</time>
      </trkpt>
      <trkpt lat="45.68056" lon="3.03685">
        <ele>913.631653</ele>
        <time>2011-07-14T11:58:06Z</time>
      </trkpt>
      <trkpt lat="45.68058" lon="3.03668">
        <ele>914.490967</ele>
        <time>2011-07-14T11:58:10Z</time>
      </trkpt>
      <trkpt lat="45.6806" lon="3.03653">
        <ele>915.412537</ele>
        <time>2011-07-14T11:58:13Z</time>
      </trkpt>
      <trkpt lat="45.68062" lon="3.03639">
        <ele>916.25</ele>
        <time>2011-07-14T11:58:15Z</time>
      </trkpt>
      <trkpt lat="45.68065" lon="3.03626">
        <ele>916.88501</ele>
        <time>2011-07-14T11:58:17Z</time>
      </trkpt>
      <trkpt lat="45.68068" lon="3.03606">
        <ele>917.787537</ele>
        <time>2011-07-14T11:58:20Z</time>
      </trkpt>
      <trkpt lat="45.6807" lon="3.03589">
        <ele>918.474976</ele>
        <time>2011-07-14T11:58:23Z</time>
      </trkpt>
      <trkpt lat="45.68071" lon="3.03574">
        <ele>919.01001</ele>
        <time>2011-07-14T11:58:26Z</time>
      </trkpt>
      <trkpt lat="45.68071" lon="3.0356">
        <ele>919.340332</ele>
        <time>2011-07-14T11:58:29Z</time>
      </trkpt>
      <trkpt lat="45.68073" lon="3.03547">
        <ele>919.72522</ele>
        <time>2011-07-14T11:58:32Z</time>
      </trkpt>
      <trkpt lat="45.68075" lon="3.03533">
        <ele>920.195984</ele>
        <time>2011-07-14T11:58:35Z</time>
      </trkpt>
      <trkpt lat="45.68075" lon="3.03519">
        <ele>920.500671</ele>
        <time>2011-07-14T11:58:38Z</time>
      </trkpt>
      <trkpt lat="45.68073" lon="3.03504">
        <ele>920.655029</ele>
        <time>2011-07-14T11:58:41Z</time>
      </trkpt>
      <trkpt lat="45.6807" lon="3.0349">
        <ele>920.6875</ele>
        <time>2011-07-14T11:58:44Z</time>
      </trkpt>
      <trkpt lat="45.68067" lon="3.03475">
        <ele>920.887512</ele>
        <time>2011-07-14T11:58:47Z</time>
      </trkpt>
      <trkpt lat="45.68067" lon="3.03461">
        <ele>921.22998</ele>
        <time>2011-07-14T11:58:49Z</time>
      </trkpt>
      <trkpt lat="45.68066" lon="3.03447">
        <ele>921.659973</ele>
        <time>2011-07-14T11:58:51Z</time>
      </trkpt>
      <trkpt lat="45.68069" lon="3.03433">
        <ele>921.997864</ele>
        <time>2011-07-14T11:58:53Z</time>
      </trkpt>
      <trkpt lat="45.68075" lon="3.03419">
        <ele>922.811951</ele>
        <time>2011-07-14T11:58:56Z</time>
      </trkpt>
      <trkpt lat="45.68079" lon="3.03409">
        <ele>923.345398</ele>
        <time>2011-07-14T11:59:22Z</time>
      </trkpt>
      <trkpt lat="45.68082" lon="3.03395">
        <ele>923.769592</ele>
        <time>2011-07-14T11:59:30Z</time>
      </trkpt>
      <trkpt lat="45.68085" lon="3.03382">
        <ele>924.344604</ele>
        <time>2011-07-14T11:59:38Z</time>
      </trkpt>
      <trkpt lat="45.6809" lon="3.03369">
        <ele>924.643372</ele>
        <time>2011-07-14T11:59:47Z</time>
      </trkpt>
      <trkpt lat="45.68092" lon="3.03353">
        <ele>924.59967</ele>
        <time>2011-07-14T11:59:57Z</time>
      </trkpt>
      <trkpt lat="45.68093" lon="3.03338">
        <ele>924.31189</ele>
        <time>2011-07-14T12:00:03Z</time>
      </trkpt>
      <trkpt lat="45.68093" lon="3.03323">
        <ele>924.133667</ele>
        <time>2011-07-14T12:00:07Z</time>
      </trkpt>
      <trkpt lat="45.68095" lon="3.03305">
        <ele>924.325134</ele>
        <time>2011-07-14T12:00:11Z</time>
      </trkpt>
      <trkpt lat="45.68095" lon="3.03289">
        <ele>924.387268</ele>
        <time>2011-07-14T12:00:14Z</time>
      </trkpt>
      <trkpt lat="45.68094" lon="3.03274">
        <ele>924.190063</ele>
        <time>2011-07-14T12:00:17Z</time>
      </trkpt>
      <trkpt lat="45.68091" lon="3.03258">
        <ele>923.447632</ele>
        <time>2011-07-14T12:00:20Z</time>
      </trkpt>
      <trkpt lat="45.68088" lon="3.03244">
        <ele>922.679016</ele>
        <time>2011-07-14T12:00:23Z</time>
      </trkpt>
      <trkpt lat="45.68086" lon="3.03229">
        <ele>922.224731</ele>
        <time>2011-07-14T12:00:26Z</time>
      </trkpt>
      <trkpt lat="45.68082" lon="3.03211">
        <ele>921.366455</ele>
        <time>2011-07-14T12:00:30Z</time>
      </trkpt>
      <trkpt lat="45.68078" lon="3.03195">
        <ele>920.002563</ele>
        <time>2011-07-14T12:00:34Z</time>
      </trkpt>
      <trkpt lat="45.68073" lon="3.0318">
        <ele>918.571899</ele>
        <time>2011-07-14T12:00:37Z</time>
      </trkpt>
      <trkpt lat="45.68069" lon="3.03163">
        <ele>917.021301</ele>
        <time>2011-07-14T12:00:40Z</time>
      </trkpt>
      <trkpt lat="45.68068" lon="3.03149">
        <ele>916.414124</ele>
        <time>2011-07-14T12:00:42Z</time>
      </trkpt>
      <trkpt lat="45.68066" lon="3.03133">
        <ele>915.77771</ele>
        <time>2011-07-14T12:00:44Z</time>
      </trkpt>
      <trkpt lat="45.68065" lon="3.03118">
        <ele>915.377258</ele>
        <time>2011-07-14T12:00:46Z</time>
      </trkpt>
      <trkpt lat="45.68065" lon="3.03102">
        <ele>915.501709</ele>
        <time>2011-07-14T12:00:48Z</time>
      </trkpt>
      <trkpt lat="45.68063" lon="3.03086">
        <ele>915.033325</ele>
        <time>2011-07-14T12:00:50Z</time>
      </trkpt>
      <trkpt lat="45.68061" lon="3.0307">
        <ele>914.413757</ele>
        <time>2011-07-14T12:00:52Z</time>
      </trkpt>
      <trkpt lat="45.68058" lon="3.03054">
        <ele>913.890015</ele>
        <time>2011-07-14T12:00:54Z</time>
      </trkpt>
      <trkpt lat="45.68056" lon="3.03038">
        <ele>913.380005</ele>
        <time>2011-07-14T12:00:56Z</time>
      </trkpt>
      <trkpt lat="45.68052" lon="3.03024">
        <ele>912.537476</ele>
        <time>2011-07-14T12:00:58Z</time>
      </trkpt>
      <trkpt lat="45.68049" lon="3.03009">
        <ele>911.752502</ele>
        <time>2011-07-14T12:01:00Z</time>
      </trkpt>
      <trkpt lat="45.68046" lon="3.02996">
        <ele>911.17627</ele>
        <time>2011-07-14T12:01:02Z</time>
      </trkpt>
      <trkpt lat="45.68044" lon="3.02982">
        <ele>910.856018</ele>
        <time>2011-07-14T12:01:04Z</time>
      </trkpt>
      <trkpt lat="45.68041" lon="3.02967">
        <ele>910.352112</ele>
        <time>2011-07-14T12:01:06Z</time>
      </trkpt>
      <trkpt lat="45.68038" lon="3.02949">
        <ele>909.899414</ele>
        <time>2011-07-14T12:01:09Z</time>
      </trkpt>
      <trkpt lat="45.68035" lon="3.02933">
        <ele>909.125183</ele>
        <time>2011-07-14T12:01:12Z</time>
      </trkpt>
      <trkpt lat="45.6803" lon="3.02919">
        <ele>908.324951</ele>
        <time>2011-07-14T12:01:15Z</time>
      </trkpt>
      <trkpt lat="45.68026" lon="3.029">
        <ele>907.428406</ele>
        <time>2011-07-14T12:01:18Z</time>
      </trkpt>
      <trkpt lat="45.68022" lon="3.02885">
        <ele>906.702942</ele>
        <time>2011-07-14T12:01:20Z</time>
      </trkpt>
      <trkpt lat="45.68017" lon="3.0287">
        <ele>905.636414</ele>
        <time>2011-07-14T12:01:22Z</time>
      </trkpt>
      <trkpt lat="45.68012" lon="3.02856">
        <ele>905.062378</ele>
        <time>2011-07-14T12:01:24Z</time>
      </trkpt>
      <trkpt lat="45.68009" lon="3.02843">
        <ele>904.84491</ele>
        <time>2011-07-14T12:01:26Z</time>
      </trkpt>
      <trkpt lat="45.68004" lon="3.02828">
        <ele>904.092285</ele>
        <time>2011-07-14T12:01:29Z</time>
      </trkpt>
      <trkpt lat="45.68" lon="3.02812">
        <ele>903.68634</ele>
        <time>2011-07-14T12:01:32Z</time>
      </trkpt>
      <trkpt lat="45.67997" lon="3.02791">
        <ele>903.328064</ele>
        <time>2011-07-14T12:01:35Z</time>
      </trkpt>
      <trkpt lat="45.67996" lon="3.02774">
        <ele>903.247986</ele>
        <time>2011-07-14T12:01:37Z</time>
      </trkpt>
      <trkpt lat="45.67995" lon="3.02756">
        <ele>903.139648</ele>
        <time>2011-07-14T12:01:39Z</time>
      </trkpt>
      <trkpt lat="45.67994" lon="3.02739">
        <ele>903.046326</ele>
        <time>2011-07-14T12:01:41Z</time>
      </trkpt>
      <trkpt lat="45.67994" lon="3.02722">
        <ele>903.018738</ele>
        <time>2011-07-14T12:01:43Z</time>
      </trkpt>
      <trkpt lat="45.67999" lon="3.02707">
        <ele>904.003723</ele>
        <time>2011-07-14T12:01:45Z</time>
      </trkpt>
      <trkpt lat="45.68002" lon="3.02692">
        <ele>904.712524</ele>
        <time>2011-07-14T12:01:47Z</time>
      </trkpt>
      <trkpt lat="45.68006" lon="3.02677">
        <ele>905.888733</ele>
        <time>2011-07-14T12:01:49Z</time>
      </trkpt>
      <trkpt lat="45.6801" lon="3.02663">
        <ele>906.378174</ele>
        <time>2011-07-14T12:01:51Z</time>
      </trkpt>
      <trkpt lat="45.68014" lon="3.0265">
        <ele>906.56189</ele>
        <time>2011-07-14T12:01:53Z</time>
      </trkpt>
      <trkpt lat="45.68019" lon="3.02633">
        <ele>906.46167</ele>
        <time>2011-07-14T12:01:56Z</time>
      </trkpt>
      <trkpt lat="45.68024" lon="3.02618">
        <ele>907.162292</ele>
        <time>2011-07-14T12:01:59Z</time>
      </trkpt>
      <trkpt lat="45.68028" lon="3.026">
        <ele>907.240417</ele>
        <time>2011-07-14T12:02:02Z</time>
      </trkpt>
      <trkpt lat="45.6803" lon="3.02585">
        <ele>907.194641</ele>
        <time>2011-07-14T12:02:04Z</time>
      </trkpt>
      <trkpt lat="45.68033" lon="3.02569">
        <ele>906.907288</ele>
        <time>2011-07-14T12:02:06Z</time>
      </trkpt>
      <trkpt lat="45.68035" lon="3.02553">
        <ele>906.575806</ele>
        <time>2011-07-14T12:02:08Z</time>
      </trkpt>
      <trkpt lat="45.68036" lon="3.02535">
        <ele>906.188843</ele>
        <time>2011-07-14T12:02:10Z</time>
      </trkpt>
      <trkpt lat="45.68038" lon="3.02518">
        <ele>906.372803</ele>
        <time>2011-07-14T12:02:12Z</time>
      </trkpt>
      <trkpt lat="45.68041" lon="3.02502">
        <ele>906.757202</ele>
        <time>2011-07-14T12:02:14Z</time>
      </trkpt>
      <trkpt lat="45.68041" lon="3.02485">
        <ele>906.451416</ele>
        <time>2011-07-14T12:02:16Z</time>
      </trkpt>
      <trkpt lat="45.68039" lon="3.0247">
        <ele>905.816162</ele>
        <time>2011-07-14T12:02:18Z</time>
      </trkpt>
      <trkpt lat="45.68038" lon="3.02455">
        <ele>905.257507</ele>
        <time>2011-07-14T12:02:20Z</time>
      </trkpt>
      <trkpt lat="45.68035" lon="3.0244">
        <ele>904.548462</ele>
        <time>2011-07-14T12:02:22Z</time>
      </trkpt>
      <trkpt lat="45.68032" lon="3.02425">
        <ele>903.668823</ele>
        <time>2011-07-14T12:02:24Z</time>
      </trkpt>
      <trkpt lat="45.68029" lon="3.02411">
        <ele>903.077515</ele>
        <time>2011-07-14T12:02:26Z</time>
      </trkpt>
      <trkpt lat="45.68026" lon="3.02394">
        <ele>902.428772</ele>
        <time>2011-07-14T12:02:29Z</time>
      </trkpt>
      <trkpt lat="45.68022" lon="3.02381">
        <ele>901.710022</ele>
        <time>2011-07-14T12:02:32Z</time>
      </trkpt>
      <trkpt lat="45.68018" lon="3.02366">
        <ele>901.180969</ele>
        <time>2011-07-14T12:02:35Z</time>
      </trkpt>
      <trkpt lat="45.68016" lon="3.02352">
        <ele>901.026489</ele>
        <time>2011-07-14T12:02:39Z</time>
      </trkpt>
      <trkpt lat="45.6801" lon="3.02338">
        <ele>900.646301</ele>
        <time>2011-07-14T12:02:48Z</time>
      </trkpt>
      <trkpt lat="45.67997" lon="3.0233">
        <ele>898.848694</ele>
        <time>2011-07-14T12:02:58Z</time>
      </trkpt>
      <trkpt lat="45.67988" lon="3.0232">
        <ele>897.945313</ele>
        <time>2011-07-14T12:03:07Z</time>
      </trkpt>
      <trkpt lat="45.67984" lon="3.02304">
        <ele>898.233521</ele>
        <time>2011-07-14T12:03:13Z</time>
      </trkpt>
      <trkpt lat="45.67982" lon="3.02289">
        <ele>898.712646</ele>
        <time>2011-07-14T12:03:18Z</time>
      </trkpt>
      <trkpt lat="45.67978" lon="3.02273">
        <ele>899.066406</ele>
        <time>2011-07-14T12:03:23Z</time>
      </trkpt>
      <trkpt lat="45.67975" lon="3.02257">
        <ele>899.695618</ele>
        <time>2011-07-14T12:03:29Z</time>
      </trkpt>
      <trkpt lat="45.67972" lon="3.02243">
        <ele>900.315369</ele>
        <time>2011-07-14T12:03:35Z</time>
      </trkpt>
      <trkpt lat="45.6797" lon="3.02226">
        <ele>901.168823</ele>
        <time>2011-07-14T12:03:45Z</time>
      </trkpt>
      <trkpt lat="45.67968" lon="3.02211">
        <ele>901.717957</ele>
        <time>2011-07-14T12:03:54Z</time>
      </trkpt>
      <trkpt lat="45.67963" lon="3.02196">
        <ele>901.844788</ele>
        <time>2011-07-14T12:04:03Z</time>
      </trkpt>
      <trkpt lat="45.67959" lon="3.0218">
        <ele>902.104248</ele>
        <time>2011-07-14T12:04:11Z</time>
      </trkpt>
      <trkpt lat="45.67958" lon="3.02164">
        <ele>902.61853</ele>
        <time>2011-07-14T12:04:18Z</time>
      </trkpt>
      <trkpt lat="45.67959" lon="3.02148">
        <ele>902.970581</ele>
        <time>2011-07-14T12:04:22Z</time>
      </trkpt>
      <trkpt lat="45.6796" lon="3.02127">
        <ele>903.275452</ele>
        <time>2011-07-14T12:04:25Z</time>
      </trkpt>
      <trkpt lat="45.67959" lon="3.02111">
        <ele>903.268066</ele>
        <time>2011-07-14T12:04:27Z</time>
      </trkpt>
      <trkpt lat="45.67957" lon="3.02095">
        <ele>903.126526</ele>
        <time>2011-07-14T12:04:29Z</time>
      </trkpt>
      <trkpt lat="45.67953" lon="3.02079">
        <ele>902.674561</ele>
        <time>2011-07-14T12:04:31Z</time>
      </trkpt>
      <trkpt lat="45.67947" lon="3.02065">
        <ele>901.990662</ele>
        <time>2011-07-14T12:04:33Z</time>
      </trkpt>
      <trkpt lat="45.67941" lon="3.02051">
        <ele>901.087952</ele>
        <time>2011-07-14T12:04:35Z</time>
      </trkpt>
      <trkpt lat="45.67934" lon="3.02034">
        <ele>900.017395</ele>
        <time>2011-07-14T12:04:37Z</time>
      </trkpt>
      <trkpt lat="45.67928" lon="3.02016">
        <ele>898.747498</ele>
        <time>2011-07-14T12:04:39Z</time>
      </trkpt>
      <trkpt lat="45.67922" lon="3.01998">
        <ele>897.405029</ele>
        <time>2011-07-14T12:04:41Z</time>
      </trkpt>
      <trkpt lat="45.67916" lon="3.01979">
        <ele>896.01001</ele>
        <time>2011-07-14T12:04:43Z</time>
      </trkpt>
      <trkpt lat="45.6791" lon="3.01962">
        <ele>894.682434</ele>
        <time>2011-07-14T12:04:45Z</time>
      </trkpt>
      <trkpt lat="45.67904" lon="3.01944">
        <ele>893.450684</ele>
        <time>2011-07-14T12:04:47Z</time>
      </trkpt>
      <trkpt lat="45.67898" lon="3.01927">
        <ele>892.128357</ele>
        <time>2011-07-14T12:04:49Z</time>
      </trkpt>
      <trkpt lat="45.67892" lon="3.01912">
        <ele>890.740234</ele>
        <time>2011-07-14T12:04:51Z</time>
      </trkpt>
      <trkpt lat="45.67886" lon="3.019">
        <ele>889.472534</ele>
        <time>2011-07-14T12:04:53Z</time>
      </trkpt>
      <trkpt lat="45.67879" lon="3.01885">
        <ele>888.281494</ele>
        <time>2011-07-14T12:04:56Z</time>
      </trkpt>
      <trkpt lat="45.67878" lon="3.01877">
        <ele>888.02533</ele>
        <time>2011-07-14T12:05:05Z</time>
      </trkpt>
      <trkpt lat="45.67881" lon="3.01888">
        <ele>888.615234</ele>
        <time>2011-07-14T12:05:13Z</time>
      </trkpt>
      <trkpt lat="45.67885" lon="3.019">
        <ele>889.384827</ele>
        <time>2011-07-14T12:05:25Z</time>
      </trkpt>
      <trkpt lat="45.67891" lon="3.0191">
        <ele>890.507813</ele>
        <time>2011-07-14T12:05:36Z</time>
      </trkpt>
      <trkpt lat="45.67896" lon="3.01898">
        <ele>890.99585</ele>
        <time>2011-07-14T12:05:43Z</time>
      </trkpt>
      <trkpt lat="45.67901" lon="3.0188">
        <ele>891.48938</ele>
        <time>2011-07-14T12:05:47Z</time>
      </trkpt>
      <trkpt lat="45.67903" lon="3.01867">
        <ele>891.769043</ele>
        <time>2011-07-14T12:05:49Z</time>
      </trkpt>
      <trkpt lat="45.67907" lon="3.01853">
        <ele>892.160828</ele>
        <time>2011-07-14T12:05:51Z</time>
      </trkpt>
      <trkpt lat="45.6791" lon="3.0184">
        <ele>892.676941</ele>
        <time>2011-07-14T12:05:53Z</time>
      </trkpt>
      <trkpt lat="45.67913" lon="3.01823">
        <ele>892.934998</ele>
        <time>2011-07-14T12:05:56Z</time>
      </trkpt>
      <trkpt lat="45.67916" lon="3.01806">
        <ele>893.047485</ele>
        <time>2011-07-14T12:05:59Z</time>
      </trkpt>
      <trkpt lat="45.67919" lon="3.01793">
        <ele>893.36499</ele>
        <time>2011-07-14T12:06:01Z</time>
      </trkpt>
      <trkpt lat="45.67922" lon="3.01778">
        <ele>893.713745</ele>
        <time>2011-07-14T12:06:03Z</time>
      </trkpt>
      <trkpt lat="45.67926" lon="3.01763">
        <ele>893.625</ele>
        <time>2011-07-14T12:06:05Z</time>
      </trkpt>
      <trkpt lat="45.67929" lon="3.0175">
        <ele>893.405029</ele>
        <time>2011-07-14T12:06:07Z</time>
      </trkpt>
      <trkpt lat="45.67933" lon="3.01735">
        <ele>893.11499</ele>
        <time>2011-07-14T12:06:10Z</time>
      </trkpt>
      <trkpt lat="45.67935" lon="3.01719">
        <ele>892.38501</ele>
        <time>2011-07-14T12:06:14Z</time>
      </trkpt>
      <trkpt lat="45.67937" lon="3.01701">
        <ele>891.794983</ele>
        <time>2011-07-14T12:06:18Z</time>
      </trkpt>
      <trkpt lat="45.67939" lon="3.01685">
        <ele>891.27002</ele>
        <time>2011-07-14T12:06:22Z</time>
      </trkpt>
      <trkpt lat="45.67941" lon="3.01671">
        <ele>890.734985</ele>
        <time>2011-07-14T12:06:28Z</time>
      </trkpt>
      <trkpt lat="45.67942" lon="3.01654">
        <ele>890.065002</ele>
        <time>2011-07-14T12:06:34Z</time>
      </trkpt>
      <trkpt lat="45.67946" lon="3.01639">
        <ele>889.987427</ele>
        <time>2011-07-14T12:06:37Z</time>
      </trkpt>
      <trkpt lat="45.67948" lon="3.01618">
        <ele>888.779297</ele>
        <time>2011-07-14T12:06:40Z</time>
      </trkpt>
      <trkpt lat="45.67949" lon="3.016">
        <ele>887.88092</ele>
        <time>2011-07-14T12:06:42Z</time>
      </trkpt>
      <trkpt lat="45.6795" lon="3.01583">
        <ele>886.676941</ele>
        <time>2011-07-14T12:06:44Z</time>
      </trkpt>
      <trkpt lat="45.6795" lon="3.01565">
        <ele>885.999695</ele>
        <time>2011-07-14T12:06:46Z</time>
      </trkpt>
      <trkpt lat="45.67948" lon="3.01549">
        <ele>884.967834</ele>
        <time>2011-07-14T12:06:48Z</time>
      </trkpt>
      <trkpt lat="45.67947" lon="3.01533">
        <ele>884.171997</ele>
        <time>2011-07-14T12:06:50Z</time>
      </trkpt>
      <trkpt lat="45.67946" lon="3.01517">
        <ele>883.384583</ele>
        <time>2011-07-14T12:06:52Z</time>
      </trkpt>
      <trkpt lat="45.67945" lon="3.01502">
        <ele>883.857178</ele>
        <time>2011-07-14T12:06:54Z</time>
      </trkpt>
      <trkpt lat="45.67944" lon="3.01482">
        <ele>884.566895</ele>
        <time>2011-07-14T12:06:57Z</time>
      </trkpt>
      <trkpt lat="45.67941" lon="3.01466">
        <ele>884.534241</ele>
        <time>2011-07-14T12:06:59Z</time>
      </trkpt>
      <trkpt lat="45.67938" lon="3.01449">
        <ele>884.382507</ele>
        <time>2011-07-14T12:07:01Z</time>
      </trkpt>
      <trkpt lat="45.67935" lon="3.01433">
        <ele>884.114258</ele>
        <time>2011-07-14T12:07:03Z</time>
      </trkpt>
      <trkpt lat="45.67932" lon="3.01418">
        <ele>883.790649</ele>
        <time>2011-07-14T12:07:05Z</time>
      </trkpt>
      <trkpt lat="45.6793" lon="3.01402">
        <ele>883.727844</ele>
        <time>2011-07-14T12:07:08Z</time>
      </trkpt>
      <trkpt lat="45.67927" lon="3.01387">
        <ele>883.559753</ele>
        <time>2011-07-14T12:07:14Z</time>
      </trkpt>
      <trkpt lat="45.67925" lon="3.01371">
        <ele>883.107971</ele>
        <time>2011-07-14T12:07:20Z</time>
      </trkpt>
      <trkpt lat="45.67926" lon="3.01354">
        <ele>883.203979</ele>
        <time>2011-07-14T12:07:27Z</time>
      </trkpt>
      <trkpt lat="45.67925" lon="3.01336">
        <ele>883.125183</ele>
        <time>2011-07-14T12:07:35Z</time>
      </trkpt>
      <trkpt lat="45.67925" lon="3.01319">
        <ele>883.174988</ele>
        <time>2011-07-14T12:07:42Z</time>
      </trkpt>
      <trkpt lat="45.67926" lon="3.01305">
        <ele>883.400024</ele>
        <time>2011-07-14T12:07:49Z</time>
      </trkpt>
      <trkpt lat="45.67928" lon="3.01291">
        <ele>883.775024</ele>
        <time>2011-07-14T12:07:56Z</time>
      </trkpt>
      <trkpt lat="45.67929" lon="3.01277">
        <ele>884.049988</ele>
        <time>2011-07-14T12:08:03Z</time>
      </trkpt>
      <trkpt lat="45.67932" lon="3.01263">
        <ele>884.575012</ele>
        <time>2011-07-14T12:08:11Z</time>
      </trkpt>
      <trkpt lat="45.67935" lon="3.01247">
        <ele>884.755554</ele>
        <time>2011-07-14T12:08:21Z</time>
      </trkpt>
      <trkpt lat="45.67937" lon="3.0123">
        <ele>884.680542</ele>
        <time>2011-07-14T12:08:30Z</time>
      </trkpt>
      <trkpt lat="45.67937" lon="3.01215">
        <ele>884.302307</ele>
        <time>2011-07-14T12:08:38Z</time>
      </trkpt>
      <trkpt lat="45.6794" lon="3.01201">
        <ele>884.411255</ele>
        <time>2011-07-14T12:08:46Z</time>
      </trkpt>
      <trkpt lat="45.67941" lon="3.01186">
        <ele>884.181824</ele>
        <time>2011-07-14T12:08:54Z</time>
      </trkpt>
      <trkpt lat="45.67939" lon="3.01174">
        <ele>883.717712</ele>
        <time>2011-07-14T12:09:03Z</time>
      </trkpt>
      <trkpt lat="45.67937" lon="3.01162">
        <ele>883.092529</ele>
        <time>2011-07-14T12:09:40Z</time>
      </trkpt>
      <trkpt lat="45.67938" lon="3.01146">
        <ele>882.936279</ele>
        <time>2011-07-14T12:09:50Z</time>
      </trkpt>
      <trkpt lat="45.67932" lon="3.0113">
        <ele>881.656738</ele>
        <time>2011-07-14T12:10:00Z</time>
      </trkpt>
      <trkpt lat="45.67927" lon="3.01117">
        <ele>880.612915</ele>
        <time>2011-07-14T12:10:09Z</time>
      </trkpt>
      <trkpt lat="45.67919" lon="3.01104">
        <ele>879.082092</ele>
        <time>2011-07-14T12:10:19Z</time>
      </trkpt>
      <trkpt lat="45.67909" lon="3.01096">
        <ele>877.370483</ele>
        <time>2011-07-14T12:10:27Z</time>
      </trkpt>
      <trkpt lat="45.67902" lon="3.01084">
        <ele>876.07312</ele>
        <time>2011-07-14T12:10:36Z</time>
      </trkpt>
      <trkpt lat="45.67896" lon="3.0107">
        <ele>875.190796</ele>
        <time>2011-07-14T12:10:44Z</time>
      </trkpt>
      <trkpt lat="45.67895" lon="3.01057">
        <ele>875.812012</ele>
        <time>2011-07-14T12:10:51Z</time>
      </trkpt>
      <trkpt lat="45.67898" lon="3.01044">
        <ele>877.024536</ele>
        <time>2011-07-14T12:10:59Z</time>
      </trkpt>
      <trkpt lat="45.67897" lon="3.01029">
        <ele>877.739258</ele>
        <time>2011-07-14T12:11:07Z</time>
      </trkpt>
      <trkpt lat="45.67897" lon="3.01015">
        <ele>878.653809</ele>
        <time>2011-07-14T12:11:15Z</time>
      </trkpt>
      <trkpt lat="45.67896" lon="3.01001">
        <ele>879.343445</ele>
        <time>2011-07-14T12:11:23Z</time>
      </trkpt>
      <trkpt lat="45.67896" lon="3.00986">
        <ele>879.968811</ele>
        <time>2011-07-14T12:11:31Z</time>
      </trkpt>
      <trkpt lat="45.67895" lon="3.00972">
        <ele>880.537476</ele>
        <time>2011-07-14T12:11:39Z</time>
      </trkpt>
      <trkpt lat="45.67896" lon="3.00957">
        <ele>881.272095</ele>
        <time>2011-07-14T12:11:47Z</time>
      </trkpt>
      <trkpt lat="45.67897" lon="3.00943">
        <ele>882.103149</ele>
        <time>2011-07-14T12:11:56Z</time>
      </trkpt>
      <trkpt lat="45.67897" lon="3.00926">
        <ele>880.889038</ele>
        <time>2011-07-14T12:12:05Z</time>
      </trkpt>
      <trkpt lat="45.67902" lon="3.00916">
        <ele>880.59082</ele>
        <time>2011-07-14T12:12:13Z</time>
      </trkpt>
      <trkpt lat="45.67912" lon="3.00912">
        <ele>881.463562</ele>
        <time>2011-07-14T12:12:21Z</time>
      </trkpt>
      <trkpt lat="45.67922" lon="3.0091">
        <ele>882.681824</ele>
        <time>2011-07-14T12:12:29Z</time>
      </trkpt>
      <trkpt lat="45.67932" lon="3.00909">
        <ele>883.989441</ele>
        <time>2011-07-14T12:12:37Z</time>
      </trkpt>
      <trkpt lat="45.67943" lon="3.00907">
        <ele>885.288452</ele>
        <time>2011-07-14T12:12:45Z</time>
      </trkpt>
      <trkpt lat="45.67953" lon="3.00903">
        <ele>886.274597</ele>
        <time>2011-07-14T12:12:53Z</time>
      </trkpt>
      <trkpt lat="45.67959" lon="3.00892">
        <ele>886.246277</ele>
        <time>2011-07-14T12:13:02Z</time>
      </trkpt>
      <trkpt lat="45.67958" lon="3.00876">
        <ele>885.000916</ele>
        <time>2011-07-14T12:13:11Z</time>
      </trkpt>
      <trkpt lat="45.67956" lon="3.00859">
        <ele>885.878723</ele>
        <time>2011-07-14T12:13:21Z</time>
      </trkpt>
      <trkpt lat="45.67953" lon="3.00845">
        <ele>886.399597</ele>
        <time>2011-07-14T12:13:30Z</time>
      </trkpt>
      <trkpt lat="45.67947" lon="3.00832">
        <ele>886.595398</ele>
        <time>2011-07-14T12:13:40Z</time>
      </trkpt>
      <trkpt lat="45.67939" lon="3.00823">
        <ele>886.070007</ele>
        <time>2011-07-14T12:13:49Z</time>
      </trkpt>
      <trkpt lat="45.67929" lon="3.00816">
        <ele>884.909973</ele>
        <time>2011-07-14T12:13:59Z</time>
      </trkpt>
      <trkpt lat="45.67919" lon="3.00811">
        <ele>883.664978</ele>
        <time>2011-07-14T12:14:08Z</time>
      </trkpt>
      <trkpt lat="45.67907" lon="3.00802">
        <ele>883.29248</ele>
        <time>2011-07-14T12:14:17Z</time>
      </trkpt>
      <trkpt lat="45.67896" lon="3.00799">
        <ele>881.929993</ele>
        <time>2011-07-14T12:14:26Z</time>
      </trkpt>
      <trkpt lat="45.67886" lon="3.00793">
        <ele>881.608704</ele>
        <time>2011-07-14T12:14:37Z</time>
      </trkpt>
      <trkpt lat="45.67877" lon="3.00787">
        <ele>881.312073</ele>
        <time>2011-07-14T12:14:45Z</time>
      </trkpt>
      <trkpt lat="45.67868" lon="3.00785">
        <ele>880.487976</ele>
        <time>2011-07-14T12:14:50Z</time>
      </trkpt>
      <trkpt lat="45.67859" lon="3.00782">
        <ele>879.626343</ele>
        <time>2011-07-14T12:14:53Z</time>
      </trkpt>
      <trkpt lat="45.6785" lon="3.0078">
        <ele>878.72998</ele>
        <time>2011-07-14T12:14:56Z</time>
      </trkpt>
      <trkpt lat="45.67839" lon="3.00774">
        <ele>878.5</ele>
        <time>2011-07-14T12:15:00Z</time>
      </trkpt>
      <trkpt lat="45.67832" lon="3.00764">
        <ele>879.179993</ele>
        <time>2011-07-14T12:15:04Z</time>
      </trkpt>
      <trkpt lat="45.67822" lon="3.00756">
        <ele>879.23999</ele>
        <time>2011-07-14T12:15:12Z</time>
      </trkpt>
      <trkpt lat="45.67814" lon="3.0076">
        <ele>877.960022</ele>
        <time>2011-07-14T12:16:13Z</time>
      </trkpt>
      <trkpt lat="45.67808" lon="3.00761">
        <ele>877.26001</ele>
        <time>2011-07-14T12:16:29Z</time>
      </trkpt>
      <trkpt lat="45.67797" lon="3.00761">
        <ele>876.451355</ele>
        <time>2011-07-14T12:16:38Z</time>
      </trkpt>
      <trkpt lat="45.67796" lon="3.00758">
        <ele>876.702515</ele>
        <time>2011-07-14T12:18:15Z</time>
      </trkpt>
      <trkpt lat="45.67808" lon="3.00762">
        <ele>877.219971</ele>
        <time>2011-07-14T12:19:53Z</time>
      </trkpt>
      <trkpt lat="45.67811" lon="3.00757">
        <ele>878.030029</ele>
        <time>2011-07-14T12:20:46Z</time>
      </trkpt>
      <trkpt lat="45.67814" lon="3.00743">
        <ele>880.136963</ele>
        <time>2011-07-14T12:21:00Z</time>
      </trkpt>
      <trkpt lat="45.67808" lon="3.00732">
        <ele>881.425293</ele>
        <time>2011-07-14T12:21:14Z</time>
      </trkpt>
      <trkpt lat="45.67801" lon="3.0072">
        <ele>882.471375</ele>
        <time>2011-07-14T12:21:25Z</time>
      </trkpt>
      <trkpt lat="45.67795" lon="3.00708">
        <ele>883.411255</ele>
        <time>2011-07-14T12:21:33Z</time>
      </trkpt>
      <trkpt lat="45.6779" lon="3.00696">
        <ele>884.465332</ele>
        <time>2011-07-14T12:21:42Z</time>
      </trkpt>
      <trkpt lat="45.67785" lon="3.00682">
        <ele>885.625366</ele>
        <time>2011-07-14T12:21:51Z</time>
      </trkpt>
      <trkpt lat="45.6778" lon="3.00669">
        <ele>886.636475</ele>
        <time>2011-07-14T12:21:59Z</time>
      </trkpt>
      <trkpt lat="45.67773" lon="3.00656">
        <ele>887.165344</ele>
        <time>2011-07-14T12:22:07Z</time>
      </trkpt>
      <trkpt lat="45.67767" lon="3.00639">
        <ele>888.299011</ele>
        <time>2011-07-14T12:22:19Z</time>
      </trkpt>
      <trkpt lat="45.67762" lon="3.00623">
        <ele>889.141907</ele>
        <time>2011-07-14T12:22:30Z</time>
      </trkpt>
      <trkpt lat="45.67752" lon="3.00605">
        <ele>889.549988</ele>
        <time>2011-07-14T12:22:40Z</time>
      </trkpt>
      <trkpt lat="45.67749" lon="3.00589">
        <ele>891.299988</ele>
        <time>2011-07-14T12:22:49Z</time>
      </trkpt>
      <trkpt lat="45.67745" lon="3.00576">
        <ele>892.637512</ele>
        <time>2011-07-14T12:22:57Z</time>
      </trkpt>
      <trkpt lat="45.67738" lon="3.00561">
        <ele>893.412476</ele>
        <time>2011-07-14T12:23:06Z</time>
      </trkpt>
      <trkpt lat="45.67732" lon="3.00548">
        <ele>893.944092</ele>
        <time>2011-07-14T12:23:12Z</time>
      </trkpt>
      <trkpt lat="45.67724" lon="3.00535">
        <ele>894.532593</ele>
        <time>2011-07-14T12:23:22Z</time>
      </trkpt>
      <trkpt lat="45.67716" lon="3.00522">
        <ele>895.387939</ele>
        <time>2011-07-14T12:23:31Z</time>
      </trkpt>
      <trkpt lat="45.6771" lon="3.00509">
        <ele>896.567505</ele>
        <time>2011-07-14T12:23:38Z</time>
      </trkpt>
      <trkpt lat="45.67699" lon="3.00491">
        <ele>897.697937</ele>
        <time>2011-07-14T12:23:42Z</time>
      </trkpt>
      <trkpt lat="45.67689" lon="3.00476">
        <ele>897.929749</ele>
        <time>2011-07-14T12:23:46Z</time>
      </trkpt>
      <trkpt lat="45.67682" lon="3.00461">
        <ele>898.585999</ele>
        <time>2011-07-14T12:23:50Z</time>
      </trkpt>
      <trkpt lat="45.67685" lon="3.00447">
        <ele>901.083069</ele>
        <time>2011-07-14T12:23:54Z</time>
      </trkpt>
      <trkpt lat="45.67694" lon="3.00439">
        <ele>903.402771</ele>
        <time>2011-07-14T12:23:57Z</time>
      </trkpt>
      <trkpt lat="45.67702" lon="3.00428">
        <ele>905.736694</ele>
        <time>2011-07-14T12:24:00Z</time>
      </trkpt>
      <trkpt lat="45.67708" lon="3.00416">
        <ele>907.08252</ele>
        <time>2011-07-14T12:24:02Z</time>
      </trkpt>
      <trkpt lat="45.67714" lon="3.00403">
        <ele>908.169983</ele>
        <time>2011-07-14T12:24:04Z</time>
      </trkpt>
      <trkpt lat="45.67719" lon="3.0039">
        <ele>909.116882</ele>
        <time>2011-07-14T12:24:06Z</time>
      </trkpt>
      <trkpt lat="45.67723" lon="3.00375">
        <ele>909.930237</ele>
        <time>2011-07-14T12:24:08Z</time>
      </trkpt>
      <trkpt lat="45.67726" lon="3.00359">
        <ele>910.589233</ele>
        <time>2011-07-14T12:24:10Z</time>
      </trkpt>
      <trkpt lat="45.67728" lon="3.00343">
        <ele>910.354492</ele>
        <time>2011-07-14T12:24:12Z</time>
      </trkpt>
      <trkpt lat="45.6773" lon="3.00327">
        <ele>910.035706</ele>
        <time>2011-07-14T12:24:14Z</time>
      </trkpt>
      <trkpt lat="45.67731" lon="3.00313">
        <ele>909.737427</ele>
        <time>2011-07-14T12:24:16Z</time>
      </trkpt>
      <trkpt lat="45.67731" lon="3.00297">
        <ele>909.361877</ele>
        <time>2011-07-14T12:24:19Z</time>
      </trkpt>
      <trkpt lat="45.67731" lon="3.00282">
        <ele>908.820007</ele>
        <time>2011-07-14T12:24:25Z</time>
      </trkpt>
      <trkpt lat="45.67731" lon="3.00268">
        <ele>908.460022</ele>
        <time>2011-07-14T12:24:31Z</time>
      </trkpt>
      <trkpt lat="45.67733" lon="3.00251">
        <ele>908.162476</ele>
        <time>2011-07-14T12:24:37Z</time>
      </trkpt>
      <trkpt lat="45.67735" lon="3.00234">
        <ele>907.777527</ele>
        <time>2011-07-14T12:24:41Z</time>
      </trkpt>
      <trkpt lat="45.67736" lon="3.00221">
        <ele>907.152527</ele>
        <time>2011-07-14T12:24:46Z</time>
      </trkpt>
      <trkpt lat="45.67738" lon="3.00204">
        <ele>906.317505</ele>
        <time>2011-07-14T12:24:52Z</time>
      </trkpt>
      <trkpt lat="45.67738" lon="3.0019">
        <ele>905.382507</ele>
        <time>2011-07-14T12:24:57Z</time>
      </trkpt>
      <trkpt lat="45.67738" lon="3.00176">
        <ele>904.565002</ele>
        <time>2011-07-14T12:25:01Z</time>
      </trkpt>
      <trkpt lat="45.67738" lon="3.00159">
        <ele>903.504517</ele>
        <time>2011-07-14T12:25:10Z</time>
      </trkpt>
      <trkpt lat="45.67738" lon="3.00145">
        <ele>902.769775</ele>
        <time>2011-07-14T12:25:17Z</time>
      </trkpt>
      <trkpt lat="45.67737" lon="3.0013">
        <ele>901.894775</ele>
        <time>2011-07-14T12:25:25Z</time>
      </trkpt>
      <trkpt lat="45.67737" lon="3.00115">
        <ele>901.136841</ele>
        <time>2011-07-14T12:25:32Z</time>
      </trkpt>
      <trkpt lat="45.67737" lon="3.001">
        <ele>900.387878</ele>
        <time>2011-07-14T12:25:39Z</time>
      </trkpt>
      <trkpt lat="45.67735" lon="3.00085">
        <ele>899.913574</ele>
        <time>2011-07-14T12:25:47Z</time>
      </trkpt>
      <trkpt lat="45.67732" lon="3.00072">
        <ele>899.348511</ele>
        <time>2011-07-14T12:25:54Z</time>
      </trkpt>
      <trkpt lat="45.6773" lon="3.00057">
        <ele>898.688538</ele>
        <time>2011-07-14T12:26:02Z</time>
      </trkpt>
      <trkpt lat="45.67731" lon="3.00043">
        <ele>898.39801</ele>
        <time>2011-07-14T12:26:11Z</time>
      </trkpt>
      <trkpt lat="45.67731" lon="3.00029">
        <ele>898.461182</ele>
        <time>2011-07-14T12:26:19Z</time>
      </trkpt>
      <trkpt lat="45.67733" lon="3.00014">
        <ele>898.797791</ele>
        <time>2011-07-14T12:26:26Z</time>
      </trkpt>
      <trkpt lat="45.67734" lon="3">
        <ele>899.117249</ele>
        <time>2011-07-14T12:26:33Z</time>
      </trkpt>
      <trkpt lat="45.67736" lon="2.99987">
        <ele>899.810913</ele>
        <time>2011-07-14T12:26:40Z</time>
      </trkpt>
      <trkpt lat="45.67739" lon="2.99973">
        <ele>900.661804</ele>
        <time>2011-07-14T12:26:47Z</time>
      </trkpt>
      <trkpt lat="45.67742" lon="2.99959">
        <ele>901.198181</ele>
        <time>2011-07-14T12:26:54Z</time>
      </trkpt>
      <trkpt lat="45.67744" lon="2.99946">
        <ele>901.50061</ele>
        <time>2011-07-14T12:27:01Z</time>
      </trkpt>
      <trkpt lat="45.67746" lon="2.9993">
        <ele>901.669434</ele>
        <time>2011-07-14T12:27:08Z</time>
      </trkpt>
      <trkpt lat="45.6775" lon="2.99915">
        <ele>902.468018</ele>
        <time>2011-07-14T12:27:15Z</time>
      </trkpt>
      <trkpt lat="45.67756" lon="2.99901">
        <ele>902.347473</ele>
        <time>2011-07-14T12:27:23Z</time>
      </trkpt>
      <trkpt lat="45.67761" lon="2.99887">
        <ele>901.566528</ele>
        <time>2011-07-14T12:27:30Z</time>
      </trkpt>
      <trkpt lat="45.67767" lon="2.99873">
        <ele>900.406921</ele>
        <time>2011-07-14T12:27:37Z</time>
      </trkpt>
      <trkpt lat="45.67772" lon="2.99859">
        <ele>898.446411</ele>
        <time>2011-07-14T12:27:44Z</time>
      </trkpt>
      <trkpt lat="45.67775" lon="2.99846">
        <ele>896.377625</ele>
        <time>2011-07-14T12:27:51Z</time>
      </trkpt>
      <trkpt lat="45.67779" lon="2.99834">
        <ele>894.343323</ele>
        <time>2011-07-14T12:27:58Z</time>
      </trkpt>
      <trkpt lat="45.67784" lon="2.99819">
        <ele>891.970886</ele>
        <time>2011-07-14T12:28:06Z</time>
      </trkpt>
      <trkpt lat="45.67781" lon="2.99806">
        <ele>889.488892</ele>
        <time>2011-07-14T12:28:15Z</time>
      </trkpt>
      <trkpt lat="45.67771" lon="2.99804">
        <ele>888.772583</ele>
        <time>2011-07-14T12:28:23Z</time>
      </trkpt>
      <trkpt lat="45.67759" lon="2.99803">
        <ele>887.755005</ele>
        <time>2011-07-14T12:28:31Z</time>
      </trkpt>
      <trkpt lat="45.6775" lon="2.99802">
        <ele>886.852417</ele>
        <time>2011-07-14T12:28:38Z</time>
      </trkpt>
      <trkpt lat="45.6774" lon="2.99803">
        <ele>886.150635</ele>
        <time>2011-07-14T12:28:45Z</time>
      </trkpt>
      <trkpt lat="45.6773" lon="2.99803">
        <ele>885.179199</ele>
        <time>2011-07-14T12:28:52Z</time>
      </trkpt>
      <trkpt lat="45.6772" lon="2.99804">
        <ele>884.493225</ele>
        <time>2011-07-14T12:28:59Z</time>
      </trkpt>
      <trkpt lat="45.6771" lon="2.99806">
        <ele>883.673401</ele>
        <time>2011-07-14T12:29:07Z</time>
      </trkpt>
      <trkpt lat="45.67699" lon="2.99809">
        <ele>882.806396</ele>
        <time>2011-07-14T12:29:15Z</time>
      </trkpt>
      <trkpt lat="45.67689" lon="2.99815">
        <ele>882.420288</ele>
        <time>2011-07-14T12:29:23Z</time>
      </trkpt>
      <trkpt lat="45.67681" lon="2.99821">
        <ele>882.046814</ele>
        <time>2011-07-14T12:29:31Z</time>
      </trkpt>
      <trkpt lat="45.67672" lon="2.9982">
        <ele>880.783997</ele>
        <time>2011-07-14T12:29:44Z</time>
      </trkpt>
      <trkpt lat="45.67663" lon="2.99813">
        <ele>879.044373</ele>
        <time>2011-07-14T12:29:52Z</time>
      </trkpt>
      <trkpt lat="45.67652" lon="2.99814">
        <ele>877.676086</ele>
        <time>2011-07-14T12:30:05Z</time>
      </trkpt>
      <trkpt lat="45.67642" lon="2.99815">
        <ele>876.469177</ele>
        <time>2011-07-14T12:30:14Z</time>
      </trkpt>
      <trkpt lat="45.67635" lon="2.99809">
        <ele>875.062866</ele>
        <time>2011-07-14T12:30:22Z</time>
      </trkpt>
      <trkpt lat="45.67626" lon="2.99802">
        <ele>873.499329</ele>
        <time>2011-07-14T12:30:30Z</time>
      </trkpt>
      <trkpt lat="45.67618" lon="2.99795">
        <ele>872.05249</ele>
        <time>2011-07-14T12:30:37Z</time>
      </trkpt>
      <trkpt lat="45.6761" lon="2.99788">
        <ele>870.78595</ele>
        <time>2011-07-14T12:30:45Z</time>
      </trkpt>
      <trkpt lat="45.676" lon="2.99776">
        <ele>869.144104</ele>
        <time>2011-07-14T12:30:53Z</time>
      </trkpt>
      <trkpt lat="45.67593" lon="2.99765">
        <ele>868.099487</ele>
        <time>2011-07-14T12:31:03Z</time>
      </trkpt>
      <trkpt lat="45.67583" lon="2.99767">
        <ele>867.20636</ele>
        <time>2011-07-14T12:31:13Z</time>
      </trkpt>
      <trkpt lat="45.67572" lon="2.99769">
        <ele>866.134766</ele>
        <time>2011-07-14T12:31:32Z</time>
      </trkpt>
      <trkpt lat="45.67562" lon="2.99772">
        <ele>865.122314</ele>
        <time>2011-07-14T12:31:42Z</time>
      </trkpt>
      <trkpt lat="45.67543" lon="2.99781">
        <ele>863.037598</ele>
        <time>2011-07-14T12:32:08Z</time>
      </trkpt>
      <trkpt lat="45.6753" lon="2.99787">
        <ele>861.899902</ele>
        <time>2011-07-14T12:32:21Z</time>
      </trkpt>
      <trkpt lat="45.67517" lon="2.99803">
        <ele>860.612915</ele>
        <time>2011-07-14T12:32:37Z</time>
      </trkpt>
      <trkpt lat="45.67509" lon="2.99812">
        <ele>859.720459</ele>
        <time>2011-07-14T12:32:49Z</time>
      </trkpt>
      <trkpt lat="45.67498" lon="2.99821">
        <ele>858.410583</ele>
        <time>2011-07-14T12:33:00Z</time>
      </trkpt>
      <trkpt lat="45.67487" lon="2.99832">
        <ele>857.431702</ele>
        <time>2011-07-14T12:33:10Z</time>
      </trkpt>
      <trkpt lat="45.67476" lon="2.99845">
        <ele>856.618347</ele>
        <time>2011-07-14T12:33:30Z</time>
      </trkpt>
      <trkpt lat="45.67464" lon="2.9985">
        <ele>855.967834</ele>
        <time>2011-07-14T12:33:46Z</time>
      </trkpt>
      <trkpt lat="45.67452" lon="2.99853">
        <ele>855.202087</ele>
        <time>2011-07-14T12:33:53Z</time>
      </trkpt>
      <trkpt lat="45.67443" lon="2.99849">
        <ele>853.949341</ele>
        <time>2011-07-14T12:34:00Z</time>
      </trkpt>
      <trkpt lat="45.67439" lon="2.99832">
        <ele>853.153748</ele>
        <time>2011-07-14T12:34:14Z</time>
      </trkpt>
      <trkpt lat="45.6744" lon="2.99814">
        <ele>852.877502</ele>
        <time>2011-07-14T12:34:28Z</time>
      </trkpt>
      <trkpt lat="45.6744" lon="2.99794">
        <ele>852.575012</ele>
        <time>2011-07-14T12:34:45Z</time>
      </trkpt>
      <trkpt lat="45.67435" lon="2.99767">
        <ele>851.469116</ele>
        <time>2011-07-14T12:35:04Z</time>
      </trkpt>
      <trkpt lat="45.6741" lon="2.99752">
        <ele>847.095581</ele>
        <time>2011-07-14T12:35:22Z</time>
      </trkpt>
      <trkpt lat="45.67401" lon="2.99734">
        <ele>844.934021</ele>
        <time>2011-07-14T12:35:32Z</time>
      </trkpt>
      <trkpt lat="45.67403" lon="2.99721">
        <ele>844.700256</ele>
        <time>2011-07-14T12:35:40Z</time>
      </trkpt>
      <trkpt lat="45.67402" lon="2.99705">
        <ele>844.182434</ele>
        <time>2011-07-14T12:35:47Z</time>
      </trkpt>
      <trkpt lat="45.67402" lon="2.99689">
        <ele>844.122986</ele>
        <time>2011-07-14T12:35:50Z</time>
      </trkpt>
      <trkpt lat="45.67398" lon="2.99674">
        <ele>843.757324</ele>
        <time>2011-07-14T12:35:52Z</time>
      </trkpt>
      <trkpt lat="45.67399" lon="2.9965">
        <ele>843.817444</ele>
        <time>2011-07-14T12:35:55Z</time>
      </trkpt>
      <trkpt lat="45.67404" lon="2.99636">
        <ele>844.137268</ele>
        <time>2011-07-14T12:35:57Z</time>
      </trkpt>
      <trkpt lat="45.67405" lon="2.99623">
        <ele>844.384644</ele>
        <time>2011-07-14T12:35:59Z</time>
      </trkpt>
      <trkpt lat="45.67406" lon="2.99608">
        <ele>844.636475</ele>
        <time>2011-07-14T12:36:01Z</time>
      </trkpt>
      <trkpt lat="45.67408" lon="2.99591">
        <ele>844.918396</ele>
        <time>2011-07-14T12:36:03Z</time>
      </trkpt>
      <trkpt lat="45.67406" lon="2.99576">
        <ele>845.606384</ele>
        <time>2011-07-14T12:36:05Z</time>
      </trkpt>
      <trkpt lat="45.67403" lon="2.9956">
        <ele>846.512268</ele>
        <time>2011-07-14T12:36:07Z</time>
      </trkpt>
      <trkpt lat="45.67405" lon="2.99544">
        <ele>847.429138</ele>
        <time>2011-07-14T12:36:09Z</time>
      </trkpt>
      <trkpt lat="45.67407" lon="2.99529">
        <ele>848.456177</ele>
        <time>2011-07-14T12:36:11Z</time>
      </trkpt>
      <trkpt lat="45.6741" lon="2.99516">
        <ele>849.138306</ele>
        <time>2011-07-14T12:36:13Z</time>
      </trkpt>
      <trkpt lat="45.67415" lon="2.99499">
        <ele>849.558105</ele>
        <time>2011-07-14T12:36:16Z</time>
      </trkpt>
      <trkpt lat="45.67417" lon="2.99479">
        <ele>849.980408</ele>
        <time>2011-07-14T12:36:19Z</time>
      </trkpt>
      <trkpt lat="45.67413" lon="2.99464">
        <ele>850.077087</ele>
        <time>2011-07-14T12:36:22Z</time>
      </trkpt>
      <trkpt lat="45.6741" lon="2.9945">
        <ele>849.89624</ele>
        <time>2011-07-14T12:36:25Z</time>
      </trkpt>
      <trkpt lat="45.67405" lon="2.9943">
        <ele>849.229736</ele>
        <time>2011-07-14T12:36:28Z</time>
      </trkpt>
      <trkpt lat="45.67402" lon="2.99415">
        <ele>848.753479</ele>
        <time>2011-07-14T12:36:30Z</time>
      </trkpt>
      <trkpt lat="45.67398" lon="2.99397">
        <ele>848.273193</ele>
        <time>2011-07-14T12:36:33Z</time>
      </trkpt>
      <trkpt lat="45.67392" lon="2.99379">
        <ele>847.799622</ele>
        <time>2011-07-14T12:36:37Z</time>
      </trkpt>
      <trkpt lat="45.67385" lon="2.99369">
        <ele>847.404358</ele>
        <time>2011-07-14T12:36:41Z</time>
      </trkpt>
      <trkpt lat="45.67375" lon="2.99374">
        <ele>846.872742</ele>
        <time>2011-07-14T12:36:45Z</time>
      </trkpt>
      <trkpt lat="45.67366" lon="2.99381">
        <ele>846.2948</ele>
        <time>2011-07-14T12:36:50Z</time>
      </trkpt>
      <trkpt lat="45.67354" lon="2.99374">
        <ele>846.043762</ele>
        <time>2011-07-14T12:36:58Z</time>
      </trkpt>
      <trkpt lat="45.67348" lon="2.99365">
        <ele>846.075012</ele>
        <time>2011-07-14T12:37:06Z</time>
      </trkpt>
      <trkpt lat="45.67348" lon="2.99351">
        <ele>846.29248</ele>
        <time>2011-07-14T12:37:13Z</time>
      </trkpt>
      <trkpt lat="45.67352" lon="2.99338">
        <ele>846.561279</ele>
        <time>2011-07-14T12:37:21Z</time>
      </trkpt>
      <trkpt lat="45.67354" lon="2.99324">
        <ele>846.835205</ele>
        <time>2011-07-14T12:37:28Z</time>
      </trkpt>
      <trkpt lat="45.67356" lon="2.99309">
        <ele>847.1651</ele>
        <time>2011-07-14T12:37:35Z</time>
      </trkpt>
      <trkpt lat="45.67354" lon="2.9929">
        <ele>847.502136</ele>
        <time>2011-07-14T12:37:44Z</time>
      </trkpt>
      <trkpt lat="45.6735" lon="2.99278">
        <ele>847.728149</ele>
        <time>2011-07-14T12:37:51Z</time>
      </trkpt>
      <trkpt lat="45.67343" lon="2.99265">
        <ele>847.984985</ele>
        <time>2011-07-14T12:37:59Z</time>
      </trkpt>
      <trkpt lat="45.67333" lon="2.99256">
        <ele>848.359741</ele>
        <time>2011-07-14T12:38:04Z</time>
      </trkpt>
      <trkpt lat="45.67326" lon="2.99247">
        <ele>848.78772</ele>
        <time>2011-07-14T12:38:08Z</time>
      </trkpt>
      <trkpt lat="45.67317" lon="2.99239">
        <ele>849.299927</ele>
        <time>2011-07-14T12:38:12Z</time>
      </trkpt>
      <trkpt lat="45.67308" lon="2.99231">
        <ele>849.946594</ele>
        <time>2011-07-14T12:38:16Z</time>
      </trkpt>
      <trkpt lat="45.67298" lon="2.99222">
        <ele>850.647583</ele>
        <time>2011-07-14T12:38:20Z</time>
      </trkpt>
      <trkpt lat="45.67286" lon="2.99212">
        <ele>851.335144</ele>
        <time>2011-07-14T12:38:24Z</time>
      </trkpt>
      <trkpt lat="45.67277" lon="2.99204">
        <ele>851.827515</ele>
        <time>2011-07-14T12:38:28Z</time>
      </trkpt>
      <trkpt lat="45.67268" lon="2.99197">
        <ele>851.83252</ele>
        <time>2011-07-14T12:38:32Z</time>
      </trkpt>
      <trkpt lat="45.67258" lon="2.99188">
        <ele>851.60498</ele>
        <time>2011-07-14T12:38:36Z</time>
      </trkpt>
      <trkpt lat="45.67247" lon="2.99179">
        <ele>851.36499</ele>
        <time>2011-07-14T12:38:40Z</time>
      </trkpt>
      <trkpt lat="45.67237" lon="2.99171">
        <ele>851.13501</ele>
        <time>2011-07-14T12:38:45Z</time>
      </trkpt>
      <trkpt lat="45.67228" lon="2.99162">
        <ele>850.893433</ele>
        <time>2011-07-14T12:38:52Z</time>
      </trkpt>
      <trkpt lat="45.67219" lon="2.99153">
        <ele>850.536926</ele>
        <time>2011-07-14T12:38:58Z</time>
      </trkpt>
      <trkpt lat="45.67208" lon="2.99145">
        <ele>850.05957</ele>
        <time>2011-07-14T12:39:02Z</time>
      </trkpt>
      <trkpt lat="45.67199" lon="2.99135">
        <ele>849.583923</ele>
        <time>2011-07-14T12:39:07Z</time>
      </trkpt>
      <trkpt lat="45.67188" lon="2.99124">
        <ele>849.235962</ele>
        <time>2011-07-14T12:39:14Z</time>
      </trkpt>
      <trkpt lat="45.67176" lon="2.99113">
        <ele>849.09375</ele>
        <time>2011-07-14T12:39:23Z</time>
      </trkpt>
      <trkpt lat="45.67166" lon="2.991">
        <ele>849.081238</ele>
        <time>2011-07-14T12:39:28Z</time>
      </trkpt>
      <trkpt lat="45.67159" lon="2.9909">
        <ele>849.076233</ele>
        <time>2011-07-14T12:39:32Z</time>
      </trkpt>
      <trkpt lat="45.67152" lon="2.99081">
        <ele>849.070007</ele>
        <time>2011-07-14T12:39:37Z</time>
      </trkpt>
      <trkpt lat="45.67145" lon="2.9907">
        <ele>849.082214</ele>
        <time>2011-07-14T12:39:45Z</time>
      </trkpt>
      <trkpt lat="45.67134" lon="2.99055">
        <ele>849.41687</ele>
        <time>2011-07-14T12:39:50Z</time>
      </trkpt>
      <trkpt lat="45.67123" lon="2.99041">
        <ele>849.695435</ele>
        <time>2011-07-14T12:39:54Z</time>
      </trkpt>
      <trkpt lat="45.67112" lon="2.9903">
        <ele>849.82605</ele>
        <time>2011-07-14T12:40:02Z</time>
      </trkpt>
      <trkpt lat="45.67102" lon="2.99019">
        <ele>849.864441</ele>
        <time>2011-07-14T12:40:10Z</time>
      </trkpt>
      <trkpt lat="45.67092" lon="2.99006">
        <ele>849.758301</ele>
        <time>2011-07-14T12:40:18Z</time>
      </trkpt>
      <trkpt lat="45.67078" lon="2.98995">
        <ele>849.236938</ele>
        <time>2011-07-14T12:40:25Z</time>
      </trkpt>
      <trkpt lat="45.67062" lon="2.9899">
        <ele>848.485046</ele>
        <time>2011-07-14T12:40:32Z</time>
      </trkpt>
      <trkpt lat="45.6705" lon="2.98993">
        <ele>847.84314</ele>
        <time>2011-07-14T12:40:38Z</time>
      </trkpt>
      <trkpt lat="45.67042" lon="2.98991">
        <ele>847.107239</ele>
        <time>2011-07-14T12:40:52Z</time>
      </trkpt>
      <trkpt lat="45.67031" lon="2.98994">
        <ele>846.01123</ele>
        <time>2011-07-14T12:40:57Z</time>
      </trkpt>
      <trkpt lat="45.6702" lon="2.99">
        <ele>845.120483</ele>
        <time>2011-07-14T12:41:04Z</time>
      </trkpt>
      <trkpt lat="45.6701" lon="2.99001">
        <ele>844.200073</ele>
        <time>2011-07-14T12:41:12Z</time>
      </trkpt>
      <trkpt lat="45.66999" lon="2.98999">
        <ele>843.383728</ele>
        <time>2011-07-14T12:41:20Z</time>
      </trkpt>
      <trkpt lat="45.66988" lon="2.98992">
        <ele>842.547485</ele>
        <time>2011-07-14T12:41:31Z</time>
      </trkpt>
      <trkpt lat="45.6698" lon="2.98982">
        <ele>841.880005</ele>
        <time>2011-07-14T12:41:39Z</time>
      </trkpt>
      <trkpt lat="45.66975" lon="2.98967">
        <ele>841.265015</ele>
        <time>2011-07-14T12:41:46Z</time>
      </trkpt>
      <trkpt lat="45.66966" lon="2.98957">
        <ele>840.546265</ele>
        <time>2011-07-14T12:41:56Z</time>
      </trkpt>
      <trkpt lat="45.66959" lon="2.98949">
        <ele>840.06897</ele>
        <time>2011-07-14T12:42:03Z</time>
      </trkpt>
      <trkpt lat="45.66949" lon="2.98941">
        <ele>839.728638</ele>
        <time>2011-07-14T12:42:11Z</time>
      </trkpt>
      <trkpt lat="45.6694" lon="2.98932">
        <ele>839.272522</ele>
        <time>2011-07-14T12:42:21Z</time>
      </trkpt>
      <trkpt lat="45.66931" lon="2.98922">
        <ele>838.752502</ele>
        <time>2011-07-14T12:42:29Z</time>
      </trkpt>
      <trkpt lat="45.66922" lon="2.98913">
        <ele>838.289978</ele>
        <time>2011-07-14T12:42:37Z</time>
      </trkpt>
      <trkpt lat="45.66913" lon="2.98903">
        <ele>837.892578</ele>
        <time>2011-07-14T12:42:46Z</time>
      </trkpt>
      <trkpt lat="45.66904" lon="2.98894">
        <ele>837.737061</ele>
        <time>2011-07-14T12:42:54Z</time>
      </trkpt>
      <trkpt lat="45.66897" lon="2.98884">
        <ele>837.632996</ele>
        <time>2011-07-14T12:43:03Z</time>
      </trkpt>
      <trkpt lat="45.6689" lon="2.98887">
        <ele>837.761047</ele>
        <time>2011-07-14T12:49:29Z</time>
      </trkpt>
      <trkpt lat="45.66896" lon="2.98892">
        <ele>837.773804</ele>
        <time>2011-07-14T12:59:09Z</time>
      </trkpt>
      <trkpt lat="45.66899" lon="2.98881">
        <ele>837.539307</ele>
        <time>2011-07-14T13:09:38Z</time>
      </trkpt>
      <trkpt lat="45.66897" lon="2.98879">
        <ele>837.541016</ele>
        <time>2011-07-14T13:19:27Z</time>
      </trkpt>
      <trkpt lat="45.66895" lon="2.98878">
        <ele>837.566895</ele>
        <time>2011-07-14T13:26:01Z</time>
      </trkpt>
      <trkpt lat="45.66899" lon="2.98879">
        <ele>837.497253</ele>
        <time>2011-07-14T13:48:29Z</time>
      </trkpt>
      <trkpt lat="45.66893" lon="2.98875">
        <ele>837.562561</ele>
        <time>2011-07-14T13:52:22Z</time>
      </trkpt>
      <trkpt lat="45.66895" lon="2.98886">
        <ele>837.674622</ele>
        <time>2011-07-14T13:56:07Z</time>
      </trkpt>
      <trkpt lat="45.66905" lon="2.9889">
        <ele>837.631287</ele>
        <time>2011-07-14T13:56:18Z</time>
      </trkpt>
      <trkpt lat="45.66914" lon="2.98899">
        <ele>837.781006</ele>
        <time>2011-07-14T13:56:29Z</time>
      </trkpt>
      <trkpt lat="45.66921" lon="2.98908">
        <ele>838.11499</ele>
        <time>2011-07-14T13:56:39Z</time>
      </trkpt>
      <trkpt lat="45.66928" lon="2.98918">
        <ele>838.592468</ele>
        <time>2011-07-14T13:56:50Z</time>
      </trkpt>
      <trkpt lat="45.66936" lon="2.98929">
        <ele>839.097473</ele>
        <time>2011-07-14T13:57:00Z</time>
      </trkpt>
      <trkpt lat="45.66944" lon="2.98924">
        <ele>839.117493</ele>
        <time>2011-07-14T13:57:09Z</time>
      </trkpt>
      <trkpt lat="45.66953" lon="2.9892">
        <ele>839.184998</ele>
        <time>2011-07-14T13:57:18Z</time>
      </trkpt>
      <trkpt lat="45.66964" lon="2.98918">
        <ele>839.428345</ele>
        <time>2011-07-14T13:57:29Z</time>
      </trkpt>
      <trkpt lat="45.66975" lon="2.98913">
        <ele>839.903137</ele>
        <time>2011-07-14T13:57:59Z</time>
      </trkpt>
      <trkpt lat="45.66985" lon="2.98914">
        <ele>840.525269</ele>
        <time>2011-07-14T13:58:09Z</time>
      </trkpt>
      <trkpt lat="45.6699" lon="2.98918">
        <ele>840.948853</ele>
        <time>2011-07-14T14:01:38Z</time>
      </trkpt>
      <trkpt lat="45.66991" lon="2.98922">
        <ele>841.163208</ele>
        <time>2011-07-14T14:07:03Z</time>
      </trkpt>
      <trkpt lat="45.66985" lon="2.98937">
        <ele>841.373901</ele>
        <time>2011-07-14T14:07:14Z</time>
      </trkpt>
      <trkpt lat="45.66978" lon="2.98951">
        <ele>841.226257</ele>
        <time>2011-07-14T14:07:23Z</time>
      </trkpt>
      <trkpt lat="45.66973" lon="2.98966">
        <ele>841.109985</ele>
        <time>2011-07-14T14:07:34Z</time>
      </trkpt>
      <trkpt lat="45.66977" lon="2.98981">
        <ele>841.661255</ele>
        <time>2011-07-14T14:07:44Z</time>
      </trkpt>
      <trkpt lat="45.66985" lon="2.98992">
        <ele>842.371216</ele>
        <time>2011-07-14T14:07:54Z</time>
      </trkpt>
      <trkpt lat="45.66996" lon="2.98999">
        <ele>843.190002</ele>
        <time>2011-07-14T14:08:03Z</time>
      </trkpt>
      <trkpt lat="45.66996" lon="2.99019">
        <ele>842.85321</ele>
        <time>2011-07-14T14:08:29Z</time>
      </trkpt>
      <trkpt lat="45.66997" lon="2.99033">
        <ele>842.568665</ele>
        <time>2011-07-14T14:09:04Z</time>
      </trkpt>
      <trkpt lat="45.66996" lon="2.99055">
        <ele>841.89624</ele>
        <time>2011-07-14T14:09:16Z</time>
      </trkpt>
      <trkpt lat="45.66996" lon="2.99074">
        <ele>841.429993</ele>
        <time>2011-07-14T14:09:32Z</time>
      </trkpt>
      <trkpt lat="45.66997" lon="2.99098">
        <ele>841.137512</ele>
        <time>2011-07-14T14:09:45Z</time>
      </trkpt>
      <trkpt lat="45.67" lon="2.99119">
        <ele>840.919983</ele>
        <time>2011-07-14T14:09:55Z</time>
      </trkpt>
      <trkpt lat="45.66999" lon="2.99139">
        <ele>840.600769</ele>
        <time>2011-07-14T14:10:09Z</time>
      </trkpt>
      <trkpt lat="45.66992" lon="2.9916">
        <ele>840.085083</ele>
        <time>2011-07-14T14:10:24Z</time>
      </trkpt>
      <trkpt lat="45.6698" lon="2.99172">
        <ele>839.579895</ele>
        <time>2011-07-14T14:10:37Z</time>
      </trkpt>
      <trkpt lat="45.66982" lon="2.99196">
        <ele>839.47052</ele>
        <time>2011-07-14T14:10:51Z</time>
      </trkpt>
      <trkpt lat="45.66989" lon="2.99214">
        <ele>839.537354</ele>
        <time>2011-07-14T14:11:02Z</time>
      </trkpt>
      <trkpt lat="45.67001" lon="2.99228">
        <ele>839.854004</ele>
        <time>2011-07-14T14:11:13Z</time>
      </trkpt>
      <trkpt lat="45.67015" lon="2.99239">
        <ele>840.466736</ele>
        <time>2011-07-14T14:11:25Z</time>
      </trkpt>
      <trkpt lat="45.67018" lon="2.9926">
        <ele>840.548767</ele>
        <time>2011-07-14T14:11:37Z</time>
      </trkpt>
      <trkpt lat="45.67024" lon="2.99277">
        <ele>840.565002</ele>
        <time>2011-07-14T14:11:46Z</time>
      </trkpt>
      <trkpt lat="45.67028" lon="2.99291">
        <ele>840.526245</ele>
        <time>2011-07-14T14:11:57Z</time>
      </trkpt>
      <trkpt lat="45.67035" lon="2.99306">
        <ele>840.602478</ele>
        <time>2011-07-14T14:12:09Z</time>
      </trkpt>
      <trkpt lat="45.67038" lon="2.99328">
        <ele>840.434998</ele>
        <time>2011-07-14T14:12:22Z</time>
      </trkpt>
      <trkpt lat="45.67036" lon="2.99352">
        <ele>839.943726</ele>
        <time>2011-07-14T14:12:35Z</time>
      </trkpt>
      <trkpt lat="45.67035" lon="2.99375">
        <ele>839.547485</ele>
        <time>2011-07-14T14:12:49Z</time>
      </trkpt>
      <trkpt lat="45.67032" lon="2.99397">
        <ele>839.109985</ele>
        <time>2011-07-14T14:13:01Z</time>
      </trkpt>
      <trkpt lat="45.67024" lon="2.99419">
        <ele>838.399963</ele>
        <time>2011-07-14T14:13:12Z</time>
      </trkpt>
      <trkpt lat="45.67027" lon="2.99443">
        <ele>838.174988</ele>
        <time>2011-07-14T14:13:26Z</time>
      </trkpt>
      <trkpt lat="45.67032" lon="2.9946">
        <ele>838.14624</ele>
        <time>2011-07-14T14:13:39Z</time>
      </trkpt>
      <trkpt lat="45.67043" lon="2.99473">
        <ele>838.422485</ele>
        <time>2011-07-14T14:13:49Z</time>
      </trkpt>
      <trkpt lat="45.67057" lon="2.99481">
        <ele>838.956299</ele>
        <time>2011-07-14T14:14:00Z</time>
      </trkpt>
      <trkpt lat="45.67066" lon="2.99489">
        <ele>839.183716</ele>
        <time>2011-07-14T14:14:10Z</time>
      </trkpt>
      <trkpt lat="45.67072" lon="2.99505">
        <ele>838.907959</ele>
        <time>2011-07-14T14:14:18Z</time>
      </trkpt>
      <trkpt lat="45.67075" lon="2.99529">
        <ele>838.234985</ele>
        <time>2011-07-14T14:14:25Z</time>
      </trkpt>
      <trkpt lat="45.67075" lon="2.99549">
        <ele>837.61499</ele>
        <time>2011-07-14T14:14:29Z</time>
      </trkpt>
      <trkpt lat="45.67073" lon="2.99569">
        <ele>836.945007</ele>
        <time>2011-07-14T14:14:34Z</time>
      </trkpt>
      <trkpt lat="45.67075" lon="2.99587">
        <ele>836.472717</ele>
        <time>2011-07-14T14:14:40Z</time>
      </trkpt>
      <trkpt lat="45.67073" lon="2.99606">
        <ele>835.966797</ele>
        <time>2011-07-14T14:14:47Z</time>
      </trkpt>
      <trkpt lat="45.67071" lon="2.99627">
        <ele>835.46344</ele>
        <time>2011-07-14T14:14:57Z</time>
      </trkpt>
      <trkpt lat="45.67061" lon="2.99645">
        <ele>835.033875</ele>
        <time>2011-07-14T14:15:07Z</time>
      </trkpt>
      <trkpt lat="45.67054" lon="2.99665">
        <ele>834.419983</ele>
        <time>2011-07-14T14:15:16Z</time>
      </trkpt>
      <trkpt lat="45.67046" lon="2.9968">
        <ele>833.965393</ele>
        <time>2011-07-14T14:15:25Z</time>
      </trkpt>
      <trkpt lat="45.67037" lon="2.99698">
        <ele>833.574036</ele>
        <time>2011-07-14T14:15:34Z</time>
      </trkpt>
      <trkpt lat="45.67031" lon="2.99718">
        <ele>833.048828</ele>
        <time>2011-07-14T14:15:44Z</time>
      </trkpt>
      <trkpt lat="45.67028" lon="2.99735">
        <ele>832.424744</ele>
        <time>2011-07-14T14:15:53Z</time>
      </trkpt>
      <trkpt lat="45.67036" lon="2.99749">
        <ele>831.619446</ele>
        <time>2011-07-14T14:16:03Z</time>
      </trkpt>
      <trkpt lat="45.6704" lon="2.99764">
        <ele>830.78894</ele>
        <time>2011-07-14T14:16:10Z</time>
      </trkpt>
      <trkpt lat="45.67042" lon="2.99784">
        <ele>829.91864</ele>
        <time>2011-07-14T14:16:20Z</time>
      </trkpt>
      <trkpt lat="45.67046" lon="2.99799">
        <ele>829.287109</ele>
        <time>2011-07-14T14:16:28Z</time>
      </trkpt>
      <trkpt lat="45.67051" lon="2.99813">
        <ele>828.877502</ele>
        <time>2011-07-14T14:16:36Z</time>
      </trkpt>
      <trkpt lat="45.67057" lon="2.99826">
        <ele>828.630005</ele>
        <time>2011-07-14T14:16:44Z</time>
      </trkpt>
      <trkpt lat="45.67066" lon="2.99833">
        <ele>828.592468</ele>
        <time>2011-07-14T14:16:51Z</time>
      </trkpt>
      <trkpt lat="45.67076" lon="2.9984">
        <ele>828.634033</ele>
        <time>2011-07-14T14:16:59Z</time>
      </trkpt>
      <trkpt lat="45.67081" lon="2.99855">
        <ele>828.695251</ele>
        <time>2011-07-14T14:17:07Z</time>
      </trkpt>
      <trkpt lat="45.67086" lon="2.99873">
        <ele>828.786316</ele>
        <time>2011-07-14T14:17:20Z</time>
      </trkpt>
      <trkpt lat="45.67085" lon="2.99888">
        <ele>828.752563</ele>
        <time>2011-07-14T14:17:28Z</time>
      </trkpt>
      <trkpt lat="45.67088" lon="2.99903">
        <ele>828.845398</ele>
        <time>2011-07-14T14:17:36Z</time>
      </trkpt>
      <trkpt lat="45.67092" lon="2.99917">
        <ele>828.393799</ele>
        <time>2011-07-14T14:17:43Z</time>
      </trkpt>
      <trkpt lat="45.67093" lon="2.99932">
        <ele>827.707764</ele>
        <time>2011-07-14T14:17:51Z</time>
      </trkpt>
      <trkpt lat="45.67094" lon="2.99947">
        <ele>827.037903</ele>
        <time>2011-07-14T14:17:59Z</time>
      </trkpt>
      <trkpt lat="45.67092" lon="2.99963">
        <ele>826.215149</ele>
        <time>2011-07-14T14:18:06Z</time>
      </trkpt>
      <trkpt lat="45.67095" lon="2.99977">
        <ele>825.61377</ele>
        <time>2011-07-14T14:18:14Z</time>
      </trkpt>
      <trkpt lat="45.67094" lon="2.99992">
        <ele>824.881897</ele>
        <time>2011-07-14T14:18:22Z</time>
      </trkpt>
      <trkpt lat="45.67095" lon="3.00008">
        <ele>824.119202</ele>
        <time>2011-07-14T14:18:31Z</time>
      </trkpt>
      <trkpt lat="45.67095" lon="3.00028">
        <ele>823.16571</ele>
        <time>2011-07-14T14:18:48Z</time>
      </trkpt>
      <trkpt lat="45.67097" lon="3.00041">
        <ele>822.715576</ele>
        <time>2011-07-14T14:18:56Z</time>
      </trkpt>
      <trkpt lat="45.67098" lon="3.00056">
        <ele>822.293152</ele>
        <time>2011-07-14T14:19:04Z</time>
      </trkpt>
      <trkpt lat="45.671" lon="3.00073">
        <ele>821.856323</ele>
        <time>2011-07-14T14:19:12Z</time>
      </trkpt>
      <trkpt lat="45.67106" lon="3.00087">
        <ele>821.587036</ele>
        <time>2011-07-14T14:19:19Z</time>
      </trkpt>
      <trkpt lat="45.67108" lon="3.001">
        <ele>821.292053</ele>
        <time>2011-07-14T14:19:26Z</time>
      </trkpt>
      <trkpt lat="45.67112" lon="3.00113">
        <ele>820.96283</ele>
        <time>2011-07-14T14:19:34Z</time>
      </trkpt>
      <trkpt lat="45.67118" lon="3.00126">
        <ele>820.583069</ele>
        <time>2011-07-14T14:19:42Z</time>
      </trkpt>
      <trkpt lat="45.67123" lon="3.00138">
        <ele>820.120239</ele>
        <time>2011-07-14T14:19:49Z</time>
      </trkpt>
      <trkpt lat="45.67127" lon="3.00151">
        <ele>819.575806</ele>
        <time>2011-07-14T14:19:56Z</time>
      </trkpt>
      <trkpt lat="45.6713" lon="3.00164">
        <ele>819.150452</ele>
        <time>2011-07-14T14:20:03Z</time>
      </trkpt>
      <trkpt lat="45.67136" lon="3.00177">
        <ele>819.28125</ele>
        <time>2011-07-14T14:20:11Z</time>
      </trkpt>
      <trkpt lat="45.67142" lon="3.00191">
        <ele>819.61499</ele>
        <time>2011-07-14T14:20:20Z</time>
      </trkpt>
      <trkpt lat="45.67147" lon="3.00203">
        <ele>819.929993</ele>
        <time>2011-07-14T14:20:27Z</time>
      </trkpt>
      <trkpt lat="45.67152" lon="3.00215">
        <ele>820.232483</ele>
        <time>2011-07-14T14:20:34Z</time>
      </trkpt>
      <trkpt lat="45.67159" lon="3.00227">
        <ele>820.486511</ele>
        <time>2011-07-14T14:20:41Z</time>
      </trkpt>
      <trkpt lat="45.67164" lon="3.00238">
        <ele>820.309631</ele>
        <time>2011-07-14T14:20:49Z</time>
      </trkpt>
      <trkpt lat="45.67168" lon="3.00251">
        <ele>820.036194</ele>
        <time>2011-07-14T14:20:56Z</time>
      </trkpt>
      <trkpt lat="45.67173" lon="3.00264">
        <ele>819.74231</ele>
        <time>2011-07-14T14:21:03Z</time>
      </trkpt>
      <trkpt lat="45.67176" lon="3.00276">
        <ele>819.394226</ele>
        <time>2011-07-14T14:21:10Z</time>
      </trkpt>
      <trkpt lat="45.67181" lon="3.00288">
        <ele>819.041504</ele>
        <time>2011-07-14T14:21:17Z</time>
      </trkpt>
      <trkpt lat="45.67188" lon="3.00299">
        <ele>818.695007</ele>
        <time>2011-07-14T14:21:24Z</time>
      </trkpt>
      <trkpt lat="45.67195" lon="3.00311">
        <ele>818.330017</ele>
        <time>2011-07-14T14:21:32Z</time>
      </trkpt>
      <trkpt lat="45.672" lon="3.00323">
        <ele>817.945007</ele>
        <time>2011-07-14T14:21:40Z</time>
      </trkpt>
      <trkpt lat="45.67206" lon="3.00334">
        <ele>817.632507</ele>
        <time>2011-07-14T14:21:47Z</time>
      </trkpt>
      <trkpt lat="45.67213" lon="3.00344">
        <ele>817.320007</ele>
        <time>2011-07-14T14:21:55Z</time>
      </trkpt>
      <trkpt lat="45.67221" lon="3.00352">
        <ele>817.05249</ele>
        <time>2011-07-14T14:22:03Z</time>
      </trkpt>
      <trkpt lat="45.67228" lon="3.00363">
        <ele>817.090027</ele>
        <time>2011-07-14T14:22:11Z</time>
      </trkpt>
      <trkpt lat="45.67233" lon="3.00375">
        <ele>817.202515</ele>
        <time>2011-07-14T14:22:19Z</time>
      </trkpt>
      <trkpt lat="45.67238" lon="3.00386">
        <ele>817.307495</ele>
        <time>2011-07-14T14:22:26Z</time>
      </trkpt>
      <trkpt lat="45.67239" lon="3.00399">
        <ele>817.349976</ele>
        <time>2011-07-14T14:22:33Z</time>
      </trkpt>
      <trkpt lat="45.67241" lon="3.00412">
        <ele>817.392517</ele>
        <time>2011-07-14T14:22:40Z</time>
      </trkpt>
      <trkpt lat="45.67245" lon="3.00426">
        <ele>817.573425</ele>
        <time>2011-07-14T14:22:48Z</time>
      </trkpt>
      <trkpt lat="45.67244" lon="3.0044">
        <ele>817.768188</ele>
        <time>2011-07-14T14:22:56Z</time>
      </trkpt>
      <trkpt lat="45.67245" lon="3.00452">
        <ele>817.983643</ele>
        <time>2011-07-14T14:23:03Z</time>
      </trkpt>
      <trkpt lat="45.67244" lon="3.00466">
        <ele>818.124451</ele>
        <time>2011-07-14T14:23:12Z</time>
      </trkpt>
      <trkpt lat="45.67238" lon="3.00478">
        <ele>817.917542</ele>
        <time>2011-07-14T14:23:21Z</time>
      </trkpt>
      <trkpt lat="45.67232" lon="3.00489">
        <ele>817.646912</ele>
        <time>2011-07-14T14:23:28Z</time>
      </trkpt>
      <trkpt lat="45.67227" lon="3.00501">
        <ele>817.553101</ele>
        <time>2011-07-14T14:23:36Z</time>
      </trkpt>
      <trkpt lat="45.67219" lon="3.00513">
        <ele>817.279724</ele>
        <time>2011-07-14T14:23:44Z</time>
      </trkpt>
      <trkpt lat="45.6721" lon="3.00521">
        <ele>816.86731</ele>
        <time>2011-07-14T14:23:50Z</time>
      </trkpt>
      <trkpt lat="45.67201" lon="3.00529">
        <ele>816.380554</ele>
        <time>2011-07-14T14:23:57Z</time>
      </trkpt>
      <trkpt lat="45.67192" lon="3.00537">
        <ele>815.87793</ele>
        <time>2011-07-14T14:24:04Z</time>
      </trkpt>
      <trkpt lat="45.67184" lon="3.00547">
        <ele>815.442505</ele>
        <time>2011-07-14T14:24:12Z</time>
      </trkpt>
      <trkpt lat="45.67177" lon="3.00556">
        <ele>814.973083</ele>
        <time>2011-07-14T14:24:19Z</time>
      </trkpt>
      <trkpt lat="45.67173" lon="3.00568">
        <ele>814.766113</ele>
        <time>2011-07-14T14:24:27Z</time>
      </trkpt>
      <trkpt lat="45.6717" lon="3.0058">
        <ele>814.582153</ele>
        <time>2011-07-14T14:24:34Z</time>
      </trkpt>
      <trkpt lat="45.67168" lon="3.00594">
        <ele>814.423279</ele>
        <time>2011-07-14T14:24:40Z</time>
      </trkpt>
      <trkpt lat="45.67165" lon="3.00608">
        <ele>814.151794</ele>
        <time>2011-07-14T14:24:45Z</time>
      </trkpt>
      <trkpt lat="45.67162" lon="3.00621">
        <ele>813.753967</ele>
        <time>2011-07-14T14:24:49Z</time>
      </trkpt>
      <trkpt lat="45.67159" lon="3.00633">
        <ele>813.335083</ele>
        <time>2011-07-14T14:24:56Z</time>
      </trkpt>
      <trkpt lat="45.67156" lon="3.00646">
        <ele>812.999756</ele>
        <time>2011-07-14T14:25:05Z</time>
      </trkpt>
      <trkpt lat="45.67159" lon="3.00659">
        <ele>812.874512</ele>
        <time>2011-07-14T14:25:13Z</time>
      </trkpt>
      <trkpt lat="45.67164" lon="3.00672">
        <ele>812.742004</ele>
        <time>2011-07-14T14:25:21Z</time>
      </trkpt>
      <trkpt lat="45.67167" lon="3.00685">
        <ele>812.48407</ele>
        <time>2011-07-14T14:25:28Z</time>
      </trkpt>
      <trkpt lat="45.6717" lon="3.00698">
        <ele>812.145386</ele>
        <time>2011-07-14T14:25:35Z</time>
      </trkpt>
      <trkpt lat="45.67176" lon="3.00707">
        <ele>811.971436</ele>
        <time>2011-07-14T14:25:42Z</time>
      </trkpt>
      <trkpt lat="45.67186" lon="3.00713">
        <ele>812.200012</ele>
        <time>2011-07-14T14:25:48Z</time>
      </trkpt>
      <trkpt lat="45.67195" lon="3.00717">
        <ele>812.474976</ele>
        <time>2011-07-14T14:25:52Z</time>
      </trkpt>
      <trkpt lat="45.67203" lon="3.00721">
        <ele>812.722473</ele>
        <time>2011-07-14T14:25:56Z</time>
      </trkpt>
      <trkpt lat="45.67213" lon="3.00725">
        <ele>813.025024</ele>
        <time>2011-07-14T14:26:00Z</time>
      </trkpt>
      <trkpt lat="45.67222" lon="3.0073">
        <ele>813.307495</ele>
        <time>2011-07-14T14:26:04Z</time>
      </trkpt>
      <trkpt lat="45.67232" lon="3.00734">
        <ele>813.632507</ele>
        <time>2011-07-14T14:26:09Z</time>
      </trkpt>
      <trkpt lat="45.6724" lon="3.00743">
        <ele>813.758728</ele>
        <time>2011-07-14T14:26:16Z</time>
      </trkpt>
      <trkpt lat="45.67239" lon="3.00757">
        <ele>813.502502</ele>
        <time>2011-07-14T14:26:22Z</time>
      </trkpt>
      <trkpt lat="45.67237" lon="3.0077">
        <ele>813.20752</ele>
        <time>2011-07-14T14:26:27Z</time>
      </trkpt>
      <trkpt lat="45.67234" lon="3.00783">
        <ele>812.887512</ele>
        <time>2011-07-14T14:26:33Z</time>
      </trkpt>
      <trkpt lat="45.67231" lon="3.00796">
        <ele>812.557495</ele>
        <time>2011-07-14T14:26:40Z</time>
      </trkpt>
      <trkpt lat="45.67228" lon="3.00808">
        <ele>812.315002</ele>
        <time>2011-07-14T14:26:47Z</time>
      </trkpt>
      <trkpt lat="45.67225" lon="3.00821">
        <ele>812.169983</ele>
        <time>2011-07-14T14:26:55Z</time>
      </trkpt>
      <trkpt lat="45.67222" lon="3.00836">
        <ele>812.049988</ele>
        <time>2011-07-14T14:27:03Z</time>
      </trkpt>
      <trkpt lat="45.67221" lon="3.00851">
        <ele>811.979431</ele>
        <time>2011-07-14T14:27:11Z</time>
      </trkpt>
      <trkpt lat="45.67222" lon="3.00866">
        <ele>812.025024</ele>
        <time>2011-07-14T14:27:18Z</time>
      </trkpt>
      <trkpt lat="45.67221" lon="3.00882">
        <ele>812.01001</ele>
        <time>2011-07-14T14:27:26Z</time>
      </trkpt>
      <trkpt lat="45.67221" lon="3.00896">
        <ele>812.005005</ele>
        <time>2011-07-14T14:27:33Z</time>
      </trkpt>
      <trkpt lat="45.6722" lon="3.00911">
        <ele>811.944885</ele>
        <time>2011-07-14T14:27:40Z</time>
      </trkpt>
      <trkpt lat="45.67222" lon="3.00927">
        <ele>812.080017</ele>
        <time>2011-07-14T14:27:48Z</time>
      </trkpt>
      <trkpt lat="45.67225" lon="3.0094">
        <ele>812.058777</ele>
        <time>2011-07-14T14:27:55Z</time>
      </trkpt>
      <trkpt lat="45.6723" lon="3.00953">
        <ele>812.08374</ele>
        <time>2011-07-14T14:28:02Z</time>
      </trkpt>
      <trkpt lat="45.67234" lon="3.00966">
        <ele>812.058777</ele>
        <time>2011-07-14T14:28:06Z</time>
      </trkpt>
      <trkpt lat="45.67237" lon="3.00982">
        <ele>811.95874</ele>
        <time>2011-07-14T14:28:11Z</time>
      </trkpt>
      <trkpt lat="45.67242" lon="3.00998">
        <ele>811.951416</ele>
        <time>2011-07-14T14:28:16Z</time>
      </trkpt>
      <trkpt lat="45.67246" lon="3.01014">
        <ele>812.038818</ele>
        <time>2011-07-14T14:28:21Z</time>
      </trkpt>
      <trkpt lat="45.6725" lon="3.01029">
        <ele>812.168823</ele>
        <time>2011-07-14T14:28:26Z</time>
      </trkpt>
      <trkpt lat="45.67254" lon="3.01045">
        <ele>812.318115</ele>
        <time>2011-07-14T14:28:31Z</time>
      </trkpt>
      <trkpt lat="45.67258" lon="3.01059">
        <ele>812.582458</ele>
        <time>2011-07-14T14:28:36Z</time>
      </trkpt>
      <trkpt lat="45.6726" lon="3.01073">
        <ele>812.900024</ele>
        <time>2011-07-14T14:28:40Z</time>
      </trkpt>
      <trkpt lat="45.6726" lon="3.01086">
        <ele>813.119995</ele>
        <time>2011-07-14T14:28:44Z</time>
      </trkpt>
      <trkpt lat="45.6726" lon="3.01099">
        <ele>813.330017</ele>
        <time>2011-07-14T14:28:48Z</time>
      </trkpt>
      <trkpt lat="45.6726" lon="3.01115">
        <ele>813.57251</ele>
        <time>2011-07-14T14:28:53Z</time>
      </trkpt>
      <trkpt lat="45.6726" lon="3.01129">
        <ele>813.822571</ele>
        <time>2011-07-14T14:29:00Z</time>
      </trkpt>
      <trkpt lat="45.6726" lon="3.01141">
        <ele>814.165771</ele>
        <time>2011-07-14T14:29:07Z</time>
      </trkpt>
      <trkpt lat="45.67256" lon="3.01155">
        <ele>814.234924</ele>
        <time>2011-07-14T14:29:14Z</time>
      </trkpt>
      <trkpt lat="45.6725" lon="3.01166">
        <ele>813.990234</ele>
        <time>2011-07-14T14:29:27Z</time>
      </trkpt>
      <trkpt lat="45.67253" lon="3.01179">
        <ele>814.503357</ele>
        <time>2011-07-14T14:29:33Z</time>
      </trkpt>
      <trkpt lat="45.67256" lon="3.01192">
        <ele>815.256409</ele>
        <time>2011-07-14T14:29:37Z</time>
      </trkpt>
      <trkpt lat="45.67261" lon="3.01208">
        <ele>816.21936</ele>
        <time>2011-07-14T14:29:42Z</time>
      </trkpt>
      <trkpt lat="45.67265" lon="3.01222">
        <ele>817.284119</ele>
        <time>2011-07-14T14:29:47Z</time>
      </trkpt>
      <trkpt lat="45.67269" lon="3.01237">
        <ele>819.084473</ele>
        <time>2011-07-14T14:29:52Z</time>
      </trkpt>
      <trkpt lat="45.67269" lon="3.01252">
        <ele>819.798279</ele>
        <time>2011-07-14T14:29:56Z</time>
      </trkpt>
      <trkpt lat="45.67268" lon="3.0127">
        <ele>820.911133</ele>
        <time>2011-07-14T14:30:01Z</time>
      </trkpt>
      <trkpt lat="45.67267" lon="3.01285">
        <ele>821.913208</ele>
        <time>2011-07-14T14:30:05Z</time>
      </trkpt>
      <trkpt lat="45.67266" lon="3.01299">
        <ele>822.835876</ele>
        <time>2011-07-14T14:30:09Z</time>
      </trkpt>
      <trkpt lat="45.67261" lon="3.01312">
        <ele>823.268127</ele>
        <time>2011-07-14T14:30:13Z</time>
      </trkpt>
      <trkpt lat="45.67255" lon="3.01326">
        <ele>823.905762</ele>
        <time>2011-07-14T14:30:17Z</time>
      </trkpt>
      <trkpt lat="45.67248" lon="3.01339">
        <ele>824.518433</ele>
        <time>2011-07-14T14:30:21Z</time>
      </trkpt>
      <trkpt lat="45.67242" lon="3.01351">
        <ele>825.072449</ele>
        <time>2011-07-14T14:30:25Z</time>
      </trkpt>
      <trkpt lat="45.67236" lon="3.01362">
        <ele>825.176025</ele>
        <time>2011-07-14T14:30:29Z</time>
      </trkpt>
      <trkpt lat="45.67231" lon="3.01372">
        <ele>825.571411</ele>
        <time>2011-07-14T14:30:33Z</time>
      </trkpt>
      <trkpt lat="45.67225" lon="3.01384">
        <ele>825.642517</ele>
        <time>2011-07-14T14:30:37Z</time>
      </trkpt>
      <trkpt lat="45.6722" lon="3.01399">
        <ele>825.584412</ele>
        <time>2011-07-14T14:30:42Z</time>
      </trkpt>
      <trkpt lat="45.67216" lon="3.01413">
        <ele>825.776062</ele>
        <time>2011-07-14T14:30:47Z</time>
      </trkpt>
      <trkpt lat="45.67209" lon="3.01429">
        <ele>825.916199</ele>
        <time>2011-07-14T14:30:52Z</time>
      </trkpt>
      <trkpt lat="45.67205" lon="3.01443">
        <ele>826.547791</ele>
        <time>2011-07-14T14:30:56Z</time>
      </trkpt>
      <trkpt lat="45.67203" lon="3.01457">
        <ele>827.015991</ele>
        <time>2011-07-14T14:31:00Z</time>
      </trkpt>
      <trkpt lat="45.67199" lon="3.01474">
        <ele>827.555481</ele>
        <time>2011-07-14T14:31:04Z</time>
      </trkpt>
      <trkpt lat="45.67197" lon="3.01488">
        <ele>828.139221</ele>
        <time>2011-07-14T14:31:07Z</time>
      </trkpt>
      <trkpt lat="45.67194" lon="3.01503">
        <ele>828.684998</ele>
        <time>2011-07-14T14:31:11Z</time>
      </trkpt>
      <trkpt lat="45.67189" lon="3.0152">
        <ele>828.877502</ele>
        <time>2011-07-14T14:31:15Z</time>
      </trkpt>
      <trkpt lat="45.67184" lon="3.01533">
        <ele>828.852478</ele>
        <time>2011-07-14T14:31:19Z</time>
      </trkpt>
      <trkpt lat="45.67179" lon="3.01546">
        <ele>828.807495</ele>
        <time>2011-07-14T14:31:23Z</time>
      </trkpt>
      <trkpt lat="45.67176" lon="3.01558">
        <ele>828.904968</ele>
        <time>2011-07-14T14:31:28Z</time>
      </trkpt>
      <trkpt lat="45.67174" lon="3.01573">
        <ele>829.234741</ele>
        <time>2011-07-14T14:31:35Z</time>
      </trkpt>
      <trkpt lat="45.67172" lon="3.01586">
        <ele>829.250366</ele>
        <time>2011-07-14T14:31:42Z</time>
      </trkpt>
      <trkpt lat="45.6717" lon="3.016">
        <ele>829.27124</ele>
        <time>2011-07-14T14:31:47Z</time>
      </trkpt>
      <trkpt lat="45.67166" lon="3.01616">
        <ele>829.159973</ele>
        <time>2011-07-14T14:31:50Z</time>
      </trkpt>
      <trkpt lat="45.67162" lon="3.01631">
        <ele>829.086243</ele>
        <time>2011-07-14T14:31:52Z</time>
      </trkpt>
      <trkpt lat="45.67159" lon="3.01649">
        <ele>829.243103</ele>
        <time>2011-07-14T14:31:54Z</time>
      </trkpt>
      <trkpt lat="45.67157" lon="3.01667">
        <ele>829.527954</ele>
        <time>2011-07-14T14:31:56Z</time>
      </trkpt>
      <trkpt lat="45.67154" lon="3.01687">
        <ele>829.847839</ele>
        <time>2011-07-14T14:31:58Z</time>
      </trkpt>
      <trkpt lat="45.6715" lon="3.01707">
        <ele>829.963013</ele>
        <time>2011-07-14T14:32:00Z</time>
      </trkpt>
      <trkpt lat="45.67147" lon="3.01726">
        <ele>829.567505</ele>
        <time>2011-07-14T14:32:02Z</time>
      </trkpt>
      <trkpt lat="45.67144" lon="3.01745">
        <ele>829.247437</ele>
        <time>2011-07-14T14:32:04Z</time>
      </trkpt>
      <trkpt lat="45.67141" lon="3.01764">
        <ele>829.012085</ele>
        <time>2011-07-14T14:32:06Z</time>
      </trkpt>
      <trkpt lat="45.67142" lon="3.01783">
        <ele>827.88501</ele>
        <time>2011-07-14T14:32:08Z</time>
      </trkpt>
      <trkpt lat="45.67146" lon="3.01801">
        <ele>826.734985</ele>
        <time>2011-07-14T14:32:10Z</time>
      </trkpt>
      <trkpt lat="45.6715" lon="3.01817">
        <ele>825.744995</ele>
        <time>2011-07-14T14:32:12Z</time>
      </trkpt>
      <trkpt lat="45.67154" lon="3.0183">
        <ele>824.932495</ele>
        <time>2011-07-14T14:32:14Z</time>
      </trkpt>
      <trkpt lat="45.67159" lon="3.01847">
        <ele>824.174988</ele>
        <time>2011-07-14T14:32:17Z</time>
      </trkpt>
      <trkpt lat="45.67162" lon="3.01861">
        <ele>823.492493</ele>
        <time>2011-07-14T14:32:20Z</time>
      </trkpt>
      <trkpt lat="45.67164" lon="3.01876">
        <ele>822.821228</ele>
        <time>2011-07-14T14:32:23Z</time>
      </trkpt>
      <trkpt lat="45.67159" lon="3.01896">
        <ele>821.91748</ele>
        <time>2011-07-14T14:32:26Z</time>
      </trkpt>
      <trkpt lat="45.67155" lon="3.01909">
        <ele>821.494995</ele>
        <time>2011-07-14T14:32:28Z</time>
      </trkpt>
      <trkpt lat="45.6715" lon="3.01923">
        <ele>821.0625</ele>
        <time>2011-07-14T14:32:30Z</time>
      </trkpt>
      <trkpt lat="45.67146" lon="3.01939">
        <ele>820.577515</ele>
        <time>2011-07-14T14:32:32Z</time>
      </trkpt>
      <trkpt lat="45.67142" lon="3.01955">
        <ele>820.054993</ele>
        <time>2011-07-14T14:32:34Z</time>
      </trkpt>
      <trkpt lat="45.67138" lon="3.01971">
        <ele>819.165894</ele>
        <time>2011-07-14T14:32:36Z</time>
      </trkpt>
      <trkpt lat="45.67133" lon="3.01987">
        <ele>818.067993</ele>
        <time>2011-07-14T14:32:38Z</time>
      </trkpt>
      <trkpt lat="45.67128" lon="3.02001">
        <ele>816.805908</ele>
        <time>2011-07-14T14:32:40Z</time>
      </trkpt>
      <trkpt lat="45.67122" lon="3.02014">
        <ele>815.679932</ele>
        <time>2011-07-14T14:32:42Z</time>
      </trkpt>
      <trkpt lat="45.67117" lon="3.0203">
        <ele>815.153625</ele>
        <time>2011-07-14T14:32:44Z</time>
      </trkpt>
      <trkpt lat="45.67114" lon="3.02049">
        <ele>814.502014</ele>
        <time>2011-07-14T14:32:46Z</time>
      </trkpt>
      <trkpt lat="45.67109" lon="3.02071">
        <ele>813.681824</ele>
        <time>2011-07-14T14:32:48Z</time>
      </trkpt>
      <trkpt lat="45.67105" lon="3.02094">
        <ele>812.921997</ele>
        <time>2011-07-14T14:32:50Z</time>
      </trkpt>
      <trkpt lat="45.671" lon="3.02115">
        <ele>812.353455</ele>
        <time>2011-07-14T14:32:52Z</time>
      </trkpt>
      <trkpt lat="45.67095" lon="3.02138">
        <ele>811.703918</ele>
        <time>2011-07-14T14:32:54Z</time>
      </trkpt>
      <trkpt lat="45.6709" lon="3.0216">
        <ele>811.140015</ele>
        <time>2011-07-14T14:32:56Z</time>
      </trkpt>
      <trkpt lat="45.67084" lon="3.02183">
        <ele>810.650024</ele>
        <time>2011-07-14T14:32:58Z</time>
      </trkpt>
      <trkpt lat="45.67079" lon="3.02206">
        <ele>810.159973</ele>
        <time>2011-07-14T14:33:00Z</time>
      </trkpt>
      <trkpt lat="45.67075" lon="3.02227">
        <ele>809.97876</ele>
        <time>2011-07-14T14:33:02Z</time>
      </trkpt>
      <trkpt lat="45.67071" lon="3.02246">
        <ele>809.89502</ele>
        <time>2011-07-14T14:33:04Z</time>
      </trkpt>
      <trkpt lat="45.67069" lon="3.02266">
        <ele>809.744995</ele>
        <time>2011-07-14T14:33:06Z</time>
      </trkpt>
      <trkpt lat="45.67065" lon="3.02287">
        <ele>809.730896</ele>
        <time>2011-07-14T14:33:08Z</time>
      </trkpt>
      <trkpt lat="45.6706" lon="3.02307">
        <ele>809.828125</ele>
        <time>2011-07-14T14:33:10Z</time>
      </trkpt>
      <trkpt lat="45.67056" lon="3.02327">
        <ele>809.948669</ele>
        <time>2011-07-14T14:33:12Z</time>
      </trkpt>
      <trkpt lat="45.67054" lon="3.02346">
        <ele>810.028809</ele>
        <time>2011-07-14T14:33:14Z</time>
      </trkpt>
      <trkpt lat="45.67052" lon="3.02364">
        <ele>810.196777</ele>
        <time>2011-07-14T14:33:16Z</time>
      </trkpt>
      <trkpt lat="45.67049" lon="3.02382">
        <ele>810.34552</ele>
        <time>2011-07-14T14:33:18Z</time>
      </trkpt>
      <trkpt lat="45.67046" lon="3.02399">
        <ele>810.423462</ele>
        <time>2011-07-14T14:33:20Z</time>
      </trkpt>
      <trkpt lat="45.67043" lon="3.02414">
        <ele>810.201599</ele>
        <time>2011-07-14T14:33:22Z</time>
      </trkpt>
      <trkpt lat="45.67039" lon="3.02428">
        <ele>809.885193</ele>
        <time>2011-07-14T14:33:24Z</time>
      </trkpt>
      <trkpt lat="45.67034" lon="3.02442">
        <ele>809.682617</ele>
        <time>2011-07-14T14:33:26Z</time>
      </trkpt>
      <trkpt lat="45.67029" lon="3.02455">
        <ele>809.48999</ele>
        <time>2011-07-14T14:33:28Z</time>
      </trkpt>
      <trkpt lat="45.67023" lon="3.02469">
        <ele>809.174988</ele>
        <time>2011-07-14T14:33:30Z</time>
      </trkpt>
      <trkpt lat="45.67018" lon="3.02483">
        <ele>807.825989</ele>
        <time>2011-07-14T14:33:32Z</time>
      </trkpt>
      <trkpt lat="45.67013" lon="3.02497">
        <ele>806.515015</ele>
        <time>2011-07-14T14:33:34Z</time>
      </trkpt>
      <trkpt lat="45.67008" lon="3.02511">
        <ele>805.218323</ele>
        <time>2011-07-14T14:33:36Z</time>
      </trkpt>
      <trkpt lat="45.67004" lon="3.02526">
        <ele>803.945435</ele>
        <time>2011-07-14T14:33:39Z</time>
      </trkpt>
      <trkpt lat="45.66999" lon="3.02538">
        <ele>802.848755</ele>
        <time>2011-07-14T14:33:43Z</time>
      </trkpt>
      <trkpt lat="45.66994" lon="3.02549">
        <ele>801.850037</ele>
        <time>2011-07-14T14:33:49Z</time>
      </trkpt>
      <trkpt lat="45.66988" lon="3.02559">
        <ele>800.998779</ele>
        <time>2011-07-14T14:33:56Z</time>
      </trkpt>
      <trkpt lat="45.66981" lon="3.02569">
        <ele>800.192139</ele>
        <time>2011-07-14T14:34:03Z</time>
      </trkpt>
      <trkpt lat="45.66973" lon="3.02578">
        <ele>799.523621</ele>
        <time>2011-07-14T14:34:10Z</time>
      </trkpt>
      <trkpt lat="45.66966" lon="3.02586">
        <ele>798.700745</ele>
        <time>2011-07-14T14:34:17Z</time>
      </trkpt>
      <trkpt lat="45.66958" lon="3.02596">
        <ele>797.635803</ele>
        <time>2011-07-14T14:34:24Z</time>
      </trkpt>
      <trkpt lat="45.6695" lon="3.02604">
        <ele>797.454163</ele>
        <time>2011-07-14T14:34:30Z</time>
      </trkpt>
      <trkpt lat="45.66942" lon="3.02608">
        <ele>797.585938</ele>
        <time>2011-07-14T14:34:36Z</time>
      </trkpt>
      <trkpt lat="45.66935" lon="3.02614">
        <ele>797.835938</ele>
        <time>2011-07-14T14:35:00Z</time>
      </trkpt>
      <trkpt lat="45.66926" lon="3.02623">
        <ele>798.262817</ele>
        <time>2011-07-14T14:35:05Z</time>
      </trkpt>
      <trkpt lat="45.66919" lon="3.02632">
        <ele>798.548157</ele>
        <time>2011-07-14T14:35:12Z</time>
      </trkpt>
      <trkpt lat="45.66912" lon="3.0264">
        <ele>798.975769</ele>
        <time>2011-07-14T14:35:19Z</time>
      </trkpt>
      <trkpt lat="45.66904" lon="3.02648">
        <ele>799.419006</ele>
        <time>2011-07-14T14:35:25Z</time>
      </trkpt>
      <trkpt lat="45.66898" lon="3.02658">
        <ele>799.81958</ele>
        <time>2011-07-14T14:35:31Z</time>
      </trkpt>
      <trkpt lat="45.66891" lon="3.02669">
        <ele>800.184998</ele>
        <time>2011-07-14T14:35:38Z</time>
      </trkpt>
      <trkpt lat="45.66884" lon="3.02679">
        <ele>800.47998</ele>
        <time>2011-07-14T14:35:45Z</time>
      </trkpt>
      <trkpt lat="45.66878" lon="3.0269">
        <ele>800.73999</ele>
        <time>2011-07-14T14:35:52Z</time>
      </trkpt>
      <trkpt lat="45.66875" lon="3.02702">
        <ele>800.86499</ele>
        <time>2011-07-14T14:36:00Z</time>
      </trkpt>
      <trkpt lat="45.66872" lon="3.02715">
        <ele>801</ele>
        <time>2011-07-14T14:36:08Z</time>
      </trkpt>
      <trkpt lat="45.66869" lon="3.02729">
        <ele>801.056091</ele>
        <time>2011-07-14T14:36:16Z</time>
      </trkpt>
      <trkpt lat="45.66866" lon="3.02742">
        <ele>801.04541</ele>
        <time>2011-07-14T14:36:23Z</time>
      </trkpt>
      <trkpt lat="45.66863" lon="3.02755">
        <ele>801.087463</ele>
        <time>2011-07-14T14:36:29Z</time>
      </trkpt>
      <trkpt lat="45.6686" lon="3.02767">
        <ele>801.190063</ele>
        <time>2011-07-14T14:36:33Z</time>
      </trkpt>
      <trkpt lat="45.66857" lon="3.02779">
        <ele>801.326782</ele>
        <time>2011-07-14T14:36:39Z</time>
      </trkpt>
      <trkpt lat="45.66854" lon="3.02793">
        <ele>801.529907</ele>
        <time>2011-07-14T14:36:46Z</time>
      </trkpt>
      <trkpt lat="45.66852" lon="3.02807">
        <ele>801.72052</ele>
        <time>2011-07-14T14:36:53Z</time>
      </trkpt>
      <trkpt lat="45.66851" lon="3.02821">
        <ele>801.819031</ele>
        <time>2011-07-14T14:37:00Z</time>
      </trkpt>
      <trkpt lat="45.6685" lon="3.02835">
        <ele>801.905151</ele>
        <time>2011-07-14T14:37:07Z</time>
      </trkpt>
      <trkpt lat="45.66848" lon="3.02851">
        <ele>802.074341</ele>
        <time>2011-07-14T14:37:20Z</time>
      </trkpt>
      <trkpt lat="45.66845" lon="3.02863">
        <ele>802.738403</ele>
        <time>2011-07-14T14:37:23Z</time>
      </trkpt>
      <trkpt lat="45.66841" lon="3.02875">
        <ele>803.485474</ele>
        <time>2011-07-14T14:37:26Z</time>
      </trkpt>
      <trkpt lat="45.66837" lon="3.02887">
        <ele>804.221252</ele>
        <time>2011-07-14T14:37:31Z</time>
      </trkpt>
      <trkpt lat="45.66835" lon="3.029">
        <ele>804.832336</ele>
        <time>2011-07-14T14:37:37Z</time>
      </trkpt>
      <trkpt lat="45.66831" lon="3.02912">
        <ele>805.432922</ele>
        <time>2011-07-14T14:37:43Z</time>
      </trkpt>
      <trkpt lat="45.66829" lon="3.02926">
        <ele>805.825073</ele>
        <time>2011-07-14T14:37:50Z</time>
      </trkpt>
      <trkpt lat="45.66828" lon="3.02939">
        <ele>806.046875</ele>
        <time>2011-07-14T14:37:56Z</time>
      </trkpt>
      <trkpt lat="45.66826" lon="3.02953">
        <ele>806.297913</ele>
        <time>2011-07-14T14:38:02Z</time>
      </trkpt>
      <trkpt lat="45.66824" lon="3.02966">
        <ele>806.526306</ele>
        <time>2011-07-14T14:38:08Z</time>
      </trkpt>
      <trkpt lat="45.66821" lon="3.02978">
        <ele>806.804138</ele>
        <time>2011-07-14T14:38:14Z</time>
      </trkpt>
      <trkpt lat="45.66817" lon="3.02992">
        <ele>807.068726</ele>
        <time>2011-07-14T14:38:21Z</time>
      </trkpt>
      <trkpt lat="45.66812" lon="3.03002">
        <ele>807.258484</ele>
        <time>2011-07-14T14:38:29Z</time>
      </trkpt>
      <trkpt lat="45.66814" lon="3.03003">
        <ele>807.158752</ele>
        <time>2011-07-14T14:39:21Z</time>
      </trkpt>
      <trkpt lat="45.66808" lon="3.03016">
        <ele>807.283264</ele>
        <time>2011-07-14T14:39:55Z</time>
      </trkpt>
      <trkpt lat="45.66801" lon="3.03023">
        <ele>807.320007</ele>
        <time>2011-07-14T14:40:15Z</time>
      </trkpt>
      <trkpt lat="45.66793" lon="3.0303">
        <ele>807.210022</ele>
        <time>2011-07-14T14:40:21Z</time>
      </trkpt>
      <trkpt lat="45.66785" lon="3.03038">
        <ele>807.08252</ele>
        <time>2011-07-14T14:40:27Z</time>
      </trkpt>
      <trkpt lat="45.66776" lon="3.03046">
        <ele>807.14801</ele>
        <time>2011-07-14T14:40:33Z</time>
      </trkpt>
      <trkpt lat="45.66766" lon="3.03046">
        <ele>807.139038</ele>
        <time>2011-07-14T14:40:39Z</time>
      </trkpt>
      <trkpt lat="45.66757" lon="3.0304">
        <ele>806.992126</ele>
        <time>2011-07-14T14:40:46Z</time>
      </trkpt>
      <trkpt lat="45.66751" lon="3.03029">
        <ele>806.697144</ele>
        <time>2011-07-14T14:40:52Z</time>
      </trkpt>
      <trkpt lat="45.66745" lon="3.03018">
        <ele>806.284851</ele>
        <time>2011-07-14T14:40:58Z</time>
      </trkpt>
      <trkpt lat="45.66739" lon="3.03007">
        <ele>805.809021</ele>
        <time>2011-07-14T14:41:04Z</time>
      </trkpt>
      <trkpt lat="45.66733" lon="3.02997">
        <ele>805.20166</ele>
        <time>2011-07-14T14:41:10Z</time>
      </trkpt>
      <trkpt lat="45.66725" lon="3.02987">
        <ele>804.410339</ele>
        <time>2011-07-14T14:41:17Z</time>
      </trkpt>
      <trkpt lat="45.66718" lon="3.02977">
        <ele>803.60498</ele>
        <time>2011-07-14T14:41:24Z</time>
      </trkpt>
      <trkpt lat="45.66713" lon="3.02965">
        <ele>803.38092</ele>
        <time>2011-07-14T14:41:31Z</time>
      </trkpt>
      <trkpt lat="45.66706" lon="3.02956">
        <ele>802.658936</ele>
        <time>2011-07-14T14:41:38Z</time>
      </trkpt>
      <trkpt lat="45.66697" lon="3.02953">
        <ele>801.4599</ele>
        <time>2011-07-14T14:41:45Z</time>
      </trkpt>
      <trkpt lat="45.66693" lon="3.0294">
        <ele>801.115662</ele>
        <time>2011-07-14T14:41:52Z</time>
      </trkpt>
      <trkpt lat="45.6669" lon="3.02926">
        <ele>801.021729</ele>
        <time>2011-07-14T14:41:59Z</time>
      </trkpt>
      <trkpt lat="45.66687" lon="3.02912">
        <ele>800.897461</ele>
        <time>2011-07-14T14:42:05Z</time>
      </trkpt>
      <trkpt lat="45.66687" lon="3.02897">
        <ele>800.635498</ele>
        <time>2011-07-14T14:42:11Z</time>
      </trkpt>
      <trkpt lat="45.66685" lon="3.02882">
        <ele>800.205017</ele>
        <time>2011-07-14T14:42:17Z</time>
      </trkpt>
      <trkpt lat="45.66681" lon="3.0287">
        <ele>799.463806</ele>
        <time>2011-07-14T14:42:23Z</time>
      </trkpt>
      <trkpt lat="45.66673" lon="3.02861">
        <ele>798.494202</ele>
        <time>2011-07-14T14:42:31Z</time>
      </trkpt>
      <trkpt lat="45.66667" lon="3.02851">
        <ele>797.785461</ele>
        <time>2011-07-14T14:42:41Z</time>
      </trkpt>
      <trkpt lat="45.66663" lon="3.02857">
        <ele>797.268127</ele>
        <time>2011-07-14T14:43:01Z</time>
      </trkpt>
      <trkpt lat="45.66657" lon="3.02869">
        <ele>796.538818</ele>
        <time>2011-07-14T14:43:08Z</time>
      </trkpt>
      <trkpt lat="45.66653" lon="3.02881">
        <ele>795.83136</ele>
        <time>2011-07-14T14:43:14Z</time>
      </trkpt>
      <trkpt lat="45.66649" lon="3.02894">
        <ele>795.180725</ele>
        <time>2011-07-14T14:43:21Z</time>
      </trkpt>
      <trkpt lat="45.66646" lon="3.02907">
        <ele>794.63031</ele>
        <time>2011-07-14T14:43:27Z</time>
      </trkpt>
      <trkpt lat="45.66642" lon="3.0292">
        <ele>793.662903</ele>
        <time>2011-07-14T14:43:34Z</time>
      </trkpt>
      <trkpt lat="45.66632" lon="3.02924">
        <ele>791.952698</ele>
        <time>2011-07-14T14:43:41Z</time>
      </trkpt>
      <trkpt lat="45.66623" lon="3.02927">
        <ele>790.289124</ele>
        <time>2011-07-14T14:43:48Z</time>
      </trkpt>
      <trkpt lat="45.66614" lon="3.02934">
        <ele>789.00061</ele>
        <time>2011-07-14T14:43:55Z</time>
      </trkpt>
      <trkpt lat="45.66607" lon="3.02944">
        <ele>787.57959</ele>
        <time>2011-07-14T14:44:02Z</time>
      </trkpt>
      <trkpt lat="45.66602" lon="3.02955">
        <ele>786.103027</ele>
        <time>2011-07-14T14:44:09Z</time>
      </trkpt>
      <trkpt lat="45.66599" lon="3.02968">
        <ele>784.851257</ele>
        <time>2011-07-14T14:44:15Z</time>
      </trkpt>
      <trkpt lat="45.66597" lon="3.02982">
        <ele>783.837036</ele>
        <time>2011-07-14T14:44:21Z</time>
      </trkpt>
      <trkpt lat="45.66594" lon="3.02995">
        <ele>783.421997</ele>
        <time>2011-07-14T14:44:25Z</time>
      </trkpt>
      <trkpt lat="45.66592" lon="3.03012">
        <ele>782.959595</ele>
        <time>2011-07-14T14:44:29Z</time>
      </trkpt>
      <trkpt lat="45.6659" lon="3.03026">
        <ele>782.582458</ele>
        <time>2011-07-14T14:44:31Z</time>
      </trkpt>
      <trkpt lat="45.66589" lon="3.03042">
        <ele>782.153503</ele>
        <time>2011-07-14T14:44:33Z</time>
      </trkpt>
      <trkpt lat="45.66586" lon="3.03061">
        <ele>781.938538</ele>
        <time>2011-07-14T14:44:35Z</time>
      </trkpt>
      <trkpt lat="45.66585" lon="3.0308">
        <ele>781.67981</ele>
        <time>2011-07-14T14:44:37Z</time>
      </trkpt>
      <trkpt lat="45.66582" lon="3.03099">
        <ele>781.140747</ele>
        <time>2011-07-14T14:44:39Z</time>
      </trkpt>
      <trkpt lat="45.66578" lon="3.03116">
        <ele>780.554993</ele>
        <time>2011-07-14T14:44:41Z</time>
      </trkpt>
      <trkpt lat="45.66573" lon="3.03133">
        <ele>780.477783</ele>
        <time>2011-07-14T14:44:43Z</time>
      </trkpt>
      <trkpt lat="45.66569" lon="3.03149">
        <ele>780.257385</ele>
        <time>2011-07-14T14:44:45Z</time>
      </trkpt>
      <trkpt lat="45.66565" lon="3.03164">
        <ele>779.90094</ele>
        <time>2011-07-14T14:44:47Z</time>
      </trkpt>
      <trkpt lat="45.66561" lon="3.03179">
        <ele>779.524841</ele>
        <time>2011-07-14T14:44:49Z</time>
      </trkpt>
      <trkpt lat="45.66557" lon="3.03195">
        <ele>779.070007</ele>
        <time>2011-07-14T14:44:51Z</time>
      </trkpt>
      <trkpt lat="45.66552" lon="3.03209">
        <ele>778.40625</ele>
        <time>2011-07-14T14:44:53Z</time>
      </trkpt>
      <trkpt lat="45.66546" lon="3.03223">
        <ele>777.385803</ele>
        <time>2011-07-14T14:44:55Z</time>
      </trkpt>
      <trkpt lat="45.6654" lon="3.03237">
        <ele>776.150574</ele>
        <time>2011-07-14T14:44:57Z</time>
      </trkpt>
      <trkpt lat="45.66533" lon="3.03251">
        <ele>774.755981</ele>
        <time>2011-07-14T14:44:59Z</time>
      </trkpt>
      <trkpt lat="45.66528" lon="3.03265">
        <ele>773.801453</ele>
        <time>2011-07-14T14:45:01Z</time>
      </trkpt>
      <trkpt lat="45.66523" lon="3.03281">
        <ele>773.068604</ele>
        <time>2011-07-14T14:45:04Z</time>
      </trkpt>
      <trkpt lat="45.66521" lon="3.03298">
        <ele>772.653442</ele>
        <time>2011-07-14T14:45:07Z</time>
      </trkpt>
      <trkpt lat="45.66518" lon="3.03317">
        <ele>771.646912</ele>
        <time>2011-07-14T14:45:10Z</time>
      </trkpt>
      <trkpt lat="45.66514" lon="3.03334">
        <ele>770.311584</ele>
        <time>2011-07-14T14:45:13Z</time>
      </trkpt>
      <trkpt lat="45.66509" lon="3.0335">
        <ele>768.756897</ele>
        <time>2011-07-14T14:45:16Z</time>
      </trkpt>
      <trkpt lat="45.66503" lon="3.03363">
        <ele>767.264832</ele>
        <time>2011-07-14T14:45:18Z</time>
      </trkpt>
      <trkpt lat="45.66498" lon="3.03378">
        <ele>765.886475</ele>
        <time>2011-07-14T14:45:20Z</time>
      </trkpt>
      <trkpt lat="45.66495" lon="3.03391">
        <ele>764.883301</ele>
        <time>2011-07-14T14:45:22Z</time>
      </trkpt>
      <trkpt lat="45.66493" lon="3.03404">
        <ele>764.132507</ele>
        <time>2011-07-14T14:45:25Z</time>
      </trkpt>
      <trkpt lat="45.6649" lon="3.03417">
        <ele>763.313599</ele>
        <time>2011-07-14T14:45:31Z</time>
      </trkpt>
      <trkpt lat="45.66487" lon="3.03431">
        <ele>762.483643</ele>
        <time>2011-07-14T14:45:38Z</time>
      </trkpt>
      <trkpt lat="45.66484" lon="3.03443">
        <ele>761.784302</ele>
        <time>2011-07-14T14:45:44Z</time>
      </trkpt>
      <trkpt lat="45.66482" lon="3.03458">
        <ele>761.24646</ele>
        <time>2011-07-14T14:45:51Z</time>
      </trkpt>
      <trkpt lat="45.66479" lon="3.03472">
        <ele>760.610718</ele>
        <time>2011-07-14T14:45:57Z</time>
      </trkpt>
      <trkpt lat="45.66477" lon="3.03486">
        <ele>759.950623</ele>
        <time>2011-07-14T14:46:03Z</time>
      </trkpt>
      <trkpt lat="45.66472" lon="3.035">
        <ele>759.007507</ele>
        <time>2011-07-14T14:46:09Z</time>
      </trkpt>
      <trkpt lat="45.66467" lon="3.03513">
        <ele>757.976257</ele>
        <time>2011-07-14T14:46:13Z</time>
      </trkpt>
      <trkpt lat="45.66462" lon="3.03524">
        <ele>757.085022</ele>
        <time>2011-07-14T14:46:16Z</time>
      </trkpt>
      <trkpt lat="45.66458" lon="3.03536">
        <ele>756.107483</ele>
        <time>2011-07-14T14:46:21Z</time>
      </trkpt>
      <trkpt lat="45.66454" lon="3.03547">
        <ele>755.30127</ele>
        <time>2011-07-14T14:46:27Z</time>
      </trkpt>
      <trkpt lat="45.6645" lon="3.03561">
        <ele>754.03949</ele>
        <time>2011-07-14T14:46:35Z</time>
      </trkpt>
      <trkpt lat="45.66448" lon="3.03574">
        <ele>752.874878</ele>
        <time>2011-07-14T14:46:41Z</time>
      </trkpt>
      <trkpt lat="45.66446" lon="3.03589">
        <ele>751.455444</ele>
        <time>2011-07-14T14:46:48Z</time>
      </trkpt>
      <trkpt lat="45.66443" lon="3.03601">
        <ele>749.984131</ele>
        <time>2011-07-14T14:46:55Z</time>
      </trkpt>
      <trkpt lat="45.66441" lon="3.03614">
        <ele>748.494019</ele>
        <time>2011-07-14T14:47:04Z</time>
      </trkpt>
      <trkpt lat="45.66435" lon="3.03625">
        <ele>745.3526</ele>
        <time>2011-07-14T14:47:12Z</time>
      </trkpt>
      <trkpt lat="45.66429" lon="3.03635">
        <ele>741.919922</ele>
        <time>2011-07-14T14:47:19Z</time>
      </trkpt>
      <trkpt lat="45.66427" lon="3.03648">
        <ele>739.278076</ele>
        <time>2011-07-14T14:47:26Z</time>
      </trkpt>
      <trkpt lat="45.6643" lon="3.03661">
        <ele>738.310242</ele>
        <time>2011-07-14T14:47:33Z</time>
      </trkpt>
      <trkpt lat="45.66436" lon="3.03677">
        <ele>737.794678</ele>
        <time>2011-07-14T14:47:40Z</time>
      </trkpt>
      <trkpt lat="45.66443" lon="3.03688">
        <ele>738.540466</ele>
        <time>2011-07-14T14:47:42Z</time>
      </trkpt>
      <trkpt lat="45.6645" lon="3.03701">
        <ele>739.564941</ele>
        <time>2011-07-14T14:47:44Z</time>
      </trkpt>
      <trkpt lat="45.66456" lon="3.03714">
        <ele>740.230225</ele>
        <time>2011-07-14T14:47:46Z</time>
      </trkpt>
      <trkpt lat="45.66462" lon="3.03727">
        <ele>740.697815</ele>
        <time>2011-07-14T14:47:48Z</time>
      </trkpt>
      <trkpt lat="45.66468" lon="3.03742">
        <ele>740.758362</ele>
        <time>2011-07-14T14:47:50Z</time>
      </trkpt>
      <trkpt lat="45.6647" lon="3.0376">
        <ele>741.338257</ele>
        <time>2011-07-14T14:47:52Z</time>
      </trkpt>
      <trkpt lat="45.6647" lon="3.03778">
        <ele>741.662903</ele>
        <time>2011-07-14T14:47:54Z</time>
      </trkpt>
      <trkpt lat="45.66469" lon="3.03795">
        <ele>741.878235</ele>
        <time>2011-07-14T14:47:56Z</time>
      </trkpt>
      <trkpt lat="45.66467" lon="3.03813">
        <ele>741.634216</ele>
        <time>2011-07-14T14:47:58Z</time>
      </trkpt>
      <trkpt lat="45.6646" lon="3.03829">
        <ele>740.045288</ele>
        <time>2011-07-14T14:48:00Z</time>
      </trkpt>
      <trkpt lat="45.66453" lon="3.03842">
        <ele>738.633362</ele>
        <time>2011-07-14T14:48:02Z</time>
      </trkpt>
      <trkpt lat="45.66443" lon="3.03854">
        <ele>737.149475</ele>
        <time>2011-07-14T14:48:05Z</time>
      </trkpt>
      <trkpt lat="45.66439" lon="3.03868">
        <ele>736.313354</ele>
        <time>2011-07-14T14:48:09Z</time>
      </trkpt>
      <trkpt lat="45.6644" lon="3.03883">
        <ele>734.309387</ele>
        <time>2011-07-14T14:48:14Z</time>
      </trkpt>
      <trkpt lat="45.66441" lon="3.03898">
        <ele>731.507935</ele>
        <time>2011-07-14T14:48:21Z</time>
      </trkpt>
      <trkpt lat="45.66447" lon="3.03912">
        <ele>729.367004</ele>
        <time>2011-07-14T14:48:29Z</time>
      </trkpt>
      <trkpt lat="45.66453" lon="3.03923">
        <ele>727.469604</ele>
        <time>2011-07-14T14:48:36Z</time>
      </trkpt>
      <trkpt lat="45.66459" lon="3.03935">
        <ele>725.494019</ele>
        <time>2011-07-14T14:48:46Z</time>
      </trkpt>
      <trkpt lat="45.66467" lon="3.03945">
        <ele>723.986267</ele>
        <time>2011-07-14T14:48:53Z</time>
      </trkpt>
      <trkpt lat="45.66474" lon="3.03955">
        <ele>722.641235</ele>
        <time>2011-07-14T14:49:00Z</time>
      </trkpt>
      <trkpt lat="45.66482" lon="3.03962">
        <ele>721.938721</ele>
        <time>2011-07-14T14:49:08Z</time>
      </trkpt>
      <trkpt lat="45.6649" lon="3.0397">
        <ele>720.507202</ele>
        <time>2011-07-14T14:49:15Z</time>
      </trkpt>
      <trkpt lat="45.66498" lon="3.03977">
        <ele>719.174255</ele>
        <time>2011-07-14T14:49:22Z</time>
      </trkpt>
      <trkpt lat="45.66507" lon="3.03985">
        <ele>717.819458</ele>
        <time>2011-07-14T14:49:29Z</time>
      </trkpt>
      <trkpt lat="45.66515" lon="3.03994">
        <ele>716.413147</ele>
        <time>2011-07-14T14:49:35Z</time>
      </trkpt>
      <trkpt lat="45.66523" lon="3.04002">
        <ele>715.138611</ele>
        <time>2011-07-14T14:49:42Z</time>
      </trkpt>
      <trkpt lat="45.66532" lon="3.04006">
        <ele>713.976074</ele>
        <time>2011-07-14T14:49:49Z</time>
      </trkpt>
      <trkpt lat="45.66541" lon="3.04013">
        <ele>712.007507</ele>
        <time>2011-07-14T14:49:56Z</time>
      </trkpt>
      <trkpt lat="45.6654" lon="3.04027">
        <ele>709.645935</ele>
        <time>2011-07-14T14:50:03Z</time>
      </trkpt>
      <trkpt lat="45.66538" lon="3.04042">
        <ele>707.498474</ele>
        <time>2011-07-14T14:50:09Z</time>
      </trkpt>
      <trkpt lat="45.66536" lon="3.04056">
        <ele>705.346008</ele>
        <time>2011-07-14T14:50:15Z</time>
      </trkpt>
      <trkpt lat="45.66533" lon="3.04071">
        <ele>703.405029</ele>
        <time>2011-07-14T14:50:21Z</time>
      </trkpt>
      <trkpt lat="45.66531" lon="3.04085">
        <ele>701.848755</ele>
        <time>2011-07-14T14:50:27Z</time>
      </trkpt>
      <trkpt lat="45.66527" lon="3.04097">
        <ele>700.602478</ele>
        <time>2011-07-14T14:50:33Z</time>
      </trkpt>
      <trkpt lat="45.66523" lon="3.0411">
        <ele>699.331604</ele>
        <time>2011-07-14T14:50:39Z</time>
      </trkpt>
      <trkpt lat="45.66521" lon="3.04125">
        <ele>697.687195</ele>
        <time>2011-07-14T14:50:45Z</time>
      </trkpt>
      <trkpt lat="45.66517" lon="3.04138">
        <ele>696.372559</ele>
        <time>2011-07-14T14:50:51Z</time>
      </trkpt>
      <trkpt lat="45.66514" lon="3.04154">
        <ele>694.489258</ele>
        <time>2011-07-14T14:50:57Z</time>
      </trkpt>
      <trkpt lat="45.6651" lon="3.04166">
        <ele>693.505127</ele>
        <time>2011-07-14T14:51:01Z</time>
      </trkpt>
      <trkpt lat="45.66507" lon="3.0418">
        <ele>692.200745</ele>
        <time>2011-07-14T14:51:07Z</time>
      </trkpt>
      <trkpt lat="45.66505" lon="3.04194">
        <ele>690.703796</ele>
        <time>2011-07-14T14:51:13Z</time>
      </trkpt>
      <trkpt lat="45.66502" lon="3.04207">
        <ele>690.066711</ele>
        <time>2011-07-14T14:51:19Z</time>
      </trkpt>
      <trkpt lat="45.665" lon="3.04222">
        <ele>689.372986</ele>
        <time>2011-07-14T14:51:26Z</time>
      </trkpt>
      <trkpt lat="45.66499" lon="3.04236">
        <ele>688.490784</ele>
        <time>2011-07-14T14:51:34Z</time>
      </trkpt>
      <trkpt lat="45.66499" lon="3.04253">
        <ele>686.853943</ele>
        <time>2011-07-14T14:51:40Z</time>
      </trkpt>
      <trkpt lat="45.665" lon="3.04267">
        <ele>686.570007</ele>
        <time>2011-07-14T14:51:43Z</time>
      </trkpt>
      <trkpt lat="45.66501" lon="3.04284">
        <ele>687.102478</ele>
        <time>2011-07-14T14:51:47Z</time>
      </trkpt>
      <trkpt lat="45.66503" lon="3.04299">
        <ele>687.336243</ele>
        <time>2011-07-14T14:51:51Z</time>
      </trkpt>
      <trkpt lat="45.66507" lon="3.04312">
        <ele>686.838745</ele>
        <time>2011-07-14T14:51:55Z</time>
      </trkpt>
      <trkpt lat="45.66513" lon="3.04325">
        <ele>685.996643</ele>
        <time>2011-07-14T14:52:01Z</time>
      </trkpt>
      <trkpt lat="45.66518" lon="3.04337">
        <ele>685.282959</ele>
        <time>2011-07-14T14:52:07Z</time>
      </trkpt>
      <trkpt lat="45.66523" lon="3.04351">
        <ele>684.800537</ele>
        <time>2011-07-14T14:52:12Z</time>
      </trkpt>
      <trkpt lat="45.66526" lon="3.04366">
        <ele>684.377563</ele>
        <time>2011-07-14T14:52:17Z</time>
      </trkpt>
      <trkpt lat="45.6653" lon="3.04378">
        <ele>683.394348</ele>
        <time>2011-07-14T14:52:20Z</time>
      </trkpt>
      <trkpt lat="45.66534" lon="3.04391">
        <ele>682.452515</ele>
        <time>2011-07-14T14:52:26Z</time>
      </trkpt>
      <trkpt lat="45.66538" lon="3.04406">
        <ele>681.167236</ele>
        <time>2011-07-14T14:52:33Z</time>
      </trkpt>
      <trkpt lat="45.66542" lon="3.0442">
        <ele>679.762756</ele>
        <time>2011-07-14T14:52:39Z</time>
      </trkpt>
      <trkpt lat="45.66546" lon="3.04436">
        <ele>678.755066</ele>
        <time>2011-07-14T14:52:45Z</time>
      </trkpt>
      <trkpt lat="45.66552" lon="3.0445">
        <ele>676.602356</ele>
        <time>2011-07-14T14:52:50Z</time>
      </trkpt>
      <trkpt lat="45.66558" lon="3.04463">
        <ele>674.234253</ele>
        <time>2011-07-14T14:53:04Z</time>
      </trkpt>
      <trkpt lat="45.66562" lon="3.04476">
        <ele>672.755554</ele>
        <time>2011-07-14T14:53:10Z</time>
      </trkpt>
      <trkpt lat="45.66564" lon="3.0449">
        <ele>671.787903</ele>
        <time>2011-07-14T14:53:15Z</time>
      </trkpt>
      <trkpt lat="45.66562" lon="3.04507">
        <ele>671.697998</ele>
        <time>2011-07-14T14:53:21Z</time>
      </trkpt>
      <trkpt lat="45.6656" lon="3.04524">
        <ele>671.232605</ele>
        <time>2011-07-14T14:53:25Z</time>
      </trkpt>
      <trkpt lat="45.66557" lon="3.0454">
        <ele>670.348694</ele>
        <time>2011-07-14T14:53:27Z</time>
      </trkpt>
      <trkpt lat="45.66554" lon="3.04557">
        <ele>669.135803</ele>
        <time>2011-07-14T14:53:29Z</time>
      </trkpt>
      <trkpt lat="45.66551" lon="3.04574">
        <ele>668.004578</ele>
        <time>2011-07-14T14:53:31Z</time>
      </trkpt>
      <trkpt lat="45.66548" lon="3.04588">
        <ele>667.112488</ele>
        <time>2011-07-14T14:53:33Z</time>
      </trkpt>
      <trkpt lat="45.66547" lon="3.04604">
        <ele>666.02124</ele>
        <time>2011-07-14T14:53:36Z</time>
      </trkpt>
      <trkpt lat="45.66544" lon="3.04621">
        <ele>665.023743</ele>
        <time>2011-07-14T14:53:40Z</time>
      </trkpt>
      <trkpt lat="45.6654" lon="3.04636">
        <ele>664.337463</ele>
        <time>2011-07-14T14:53:44Z</time>
      </trkpt>
      <trkpt lat="45.66537" lon="3.0465">
        <ele>664.150757</ele>
        <time>2011-07-14T14:53:48Z</time>
      </trkpt>
      <trkpt lat="45.66533" lon="3.04664">
        <ele>664.649231</ele>
        <time>2011-07-14T14:53:54Z</time>
      </trkpt>
      <trkpt lat="45.66531" lon="3.0468">
        <ele>664.967102</ele>
        <time>2011-07-14T14:54:01Z</time>
      </trkpt>
      <trkpt lat="45.66527" lon="3.04696">
        <ele>665.532104</ele>
        <time>2011-07-14T14:54:10Z</time>
      </trkpt>
      <trkpt lat="45.66521" lon="3.0471">
        <ele>665.696228</ele>
        <time>2011-07-14T14:54:19Z</time>
      </trkpt>
      <trkpt lat="45.66516" lon="3.04724">
        <ele>664.746277</ele>
        <time>2011-07-14T14:54:27Z</time>
      </trkpt>
      <trkpt lat="45.66507" lon="3.04731">
        <ele>663.308777</ele>
        <time>2011-07-14T14:54:35Z</time>
      </trkpt>
      <trkpt lat="45.665" lon="3.04746">
        <ele>661.891235</ele>
        <time>2011-07-14T14:54:40Z</time>
      </trkpt>
      <trkpt lat="45.66496" lon="3.04761">
        <ele>661.11377</ele>
        <time>2011-07-14T14:54:42Z</time>
      </trkpt>
      <trkpt lat="45.66493" lon="3.04778">
        <ele>660.651917</ele>
        <time>2011-07-14T14:54:44Z</time>
      </trkpt>
      <trkpt lat="45.66489" lon="3.04798">
        <ele>660.828491</ele>
        <time>2011-07-14T14:54:46Z</time>
      </trkpt>
      <trkpt lat="45.66487" lon="3.04818">
        <ele>661.213562</ele>
        <time>2011-07-14T14:54:48Z</time>
      </trkpt>
      <trkpt lat="45.66485" lon="3.04837">
        <ele>661.760803</ele>
        <time>2011-07-14T14:54:50Z</time>
      </trkpt>
      <trkpt lat="45.66483" lon="3.04856">
        <ele>662.078552</ele>
        <time>2011-07-14T14:54:52Z</time>
      </trkpt>
      <trkpt lat="45.66482" lon="3.04871">
        <ele>662.359436</ele>
        <time>2011-07-14T14:54:54Z</time>
      </trkpt>
      <trkpt lat="45.66475" lon="3.0488">
        <ele>662.194641</ele>
        <time>2011-07-14T14:54:59Z</time>
      </trkpt>
      <trkpt lat="45.66481" lon="3.04869">
        <ele>662.306213</ele>
        <time>2011-07-14T14:55:10Z</time>
      </trkpt>
      <trkpt lat="45.66486" lon="3.04851">
        <ele>662.191589</ele>
        <time>2011-07-14T14:55:13Z</time>
      </trkpt>
      <trkpt lat="45.66489" lon="3.04835">
        <ele>662.015076</ele>
        <time>2011-07-14T14:55:15Z</time>
      </trkpt>
      <trkpt lat="45.6649" lon="3.04817">
        <ele>661.495361</ele>
        <time>2011-07-14T14:55:17Z</time>
      </trkpt>
      <trkpt lat="45.66491" lon="3.048">
        <ele>661.109192</ele>
        <time>2011-07-14T14:55:19Z</time>
      </trkpt>
      <trkpt lat="45.66492" lon="3.04784">
        <ele>660.772278</ele>
        <time>2011-07-14T14:55:21Z</time>
      </trkpt>
      <trkpt lat="45.66494" lon="3.04769">
        <ele>660.633728</ele>
        <time>2011-07-14T14:55:23Z</time>
      </trkpt>
      <trkpt lat="45.66496" lon="3.04754">
        <ele>661.256226</ele>
        <time>2011-07-14T14:55:27Z</time>
      </trkpt>
      <trkpt lat="45.66503" lon="3.04739">
        <ele>662.466248</ele>
        <time>2011-07-14T14:55:37Z</time>
      </trkpt>
      <trkpt lat="45.66513" lon="3.04737">
        <ele>664.109985</ele>
        <time>2011-07-14T14:55:45Z</time>
      </trkpt>
      <trkpt lat="45.66521" lon="3.04747">
        <ele>665.223755</ele>
        <time>2011-07-14T14:55:53Z</time>
      </trkpt>
      <trkpt lat="45.66527" lon="3.04759">
        <ele>664.693726</ele>
        <time>2011-07-14T14:55:58Z</time>
      </trkpt>
      <trkpt lat="45.66531" lon="3.04771">
        <ele>664.047485</ele>
        <time>2011-07-14T14:56:01Z</time>
      </trkpt>
      <trkpt lat="45.66536" lon="3.04786">
        <ele>663.275696</ele>
        <time>2011-07-14T14:56:05Z</time>
      </trkpt>
      <trkpt lat="45.6654" lon="3.048">
        <ele>662.410034</ele>
        <time>2011-07-14T14:56:09Z</time>
      </trkpt>
      <trkpt lat="45.66545" lon="3.04812">
        <ele>661.547058</ele>
        <time>2011-07-14T14:56:12Z</time>
      </trkpt>
      <trkpt lat="45.66548" lon="3.04826">
        <ele>660.697571</ele>
        <time>2011-07-14T14:56:15Z</time>
      </trkpt>
      <trkpt lat="45.66549" lon="3.0484">
        <ele>660.183167</ele>
        <time>2011-07-14T14:56:18Z</time>
      </trkpt>
      <trkpt lat="45.66553" lon="3.04854">
        <ele>659.735657</ele>
        <time>2011-07-14T14:56:22Z</time>
      </trkpt>
      <trkpt lat="45.66557" lon="3.04869">
        <ele>659.341858</ele>
        <time>2011-07-14T14:56:25Z</time>
      </trkpt>
      <trkpt lat="45.66562" lon="3.04883">
        <ele>659.004883</ele>
        <time>2011-07-14T14:56:27Z</time>
      </trkpt>
      <trkpt lat="45.66567" lon="3.04896">
        <ele>658.507507</ele>
        <time>2011-07-14T14:56:29Z</time>
      </trkpt>
      <trkpt lat="45.66573" lon="3.0491">
        <ele>656.51178</ele>
        <time>2011-07-14T14:56:31Z</time>
      </trkpt>
      <trkpt lat="45.6658" lon="3.04926">
        <ele>654.205383</ele>
        <time>2011-07-14T14:56:34Z</time>
      </trkpt>
      <trkpt lat="45.66585" lon="3.0494">
        <ele>652.871216</ele>
        <time>2011-07-14T14:56:37Z</time>
      </trkpt>
      <trkpt lat="45.66587" lon="3.04954">
        <ele>652.641907</ele>
        <time>2011-07-14T14:56:41Z</time>
      </trkpt>
      <trkpt lat="45.66588" lon="3.0497">
        <ele>652.536499</ele>
        <time>2011-07-14T14:56:47Z</time>
      </trkpt>
      <trkpt lat="45.66589" lon="3.04986">
        <ele>651.826111</ele>
        <time>2011-07-14T14:56:52Z</time>
      </trkpt>
      <trkpt lat="45.66594" lon="3.05002">
        <ele>650.751953</ele>
        <time>2011-07-14T14:56:58Z</time>
      </trkpt>
      <trkpt lat="45.66596" lon="3.05018">
        <ele>650.134033</ele>
        <time>2011-07-14T14:57:03Z</time>
      </trkpt>
      <trkpt lat="45.66601" lon="3.05038">
        <ele>648.866272</ele>
        <time>2011-07-14T14:57:10Z</time>
      </trkpt>
      <trkpt lat="45.66608" lon="3.05055">
        <ele>647.186279</ele>
        <time>2011-07-14T14:57:15Z</time>
      </trkpt>
      <trkpt lat="45.66615" lon="3.05074">
        <ele>645.016235</ele>
        <time>2011-07-14T14:57:24Z</time>
      </trkpt>
      <trkpt lat="45.66624" lon="3.05091">
        <ele>642.763733</ele>
        <time>2011-07-14T14:57:31Z</time>
      </trkpt>
      <trkpt lat="45.6663" lon="3.05103">
        <ele>640.713196</ele>
        <time>2011-07-14T14:57:38Z</time>
      </trkpt>
      <trkpt lat="45.66635" lon="3.05116">
        <ele>638.640137</ele>
        <time>2011-07-14T14:57:45Z</time>
      </trkpt>
      <trkpt lat="45.6664" lon="3.0513">
        <ele>636.661926</ele>
        <time>2011-07-14T14:57:53Z</time>
      </trkpt>
      <trkpt lat="45.66646" lon="3.05142">
        <ele>634.626221</ele>
        <time>2011-07-14T14:58:01Z</time>
      </trkpt>
      <trkpt lat="45.66652" lon="3.05157">
        <ele>632.584473</ele>
        <time>2011-07-14T14:58:09Z</time>
      </trkpt>
      <trkpt lat="45.66656" lon="3.05171">
        <ele>630.613281</ele>
        <time>2011-07-14T14:58:16Z</time>
      </trkpt>
      <trkpt lat="45.66659" lon="3.05185">
        <ele>628.731995</ele>
        <time>2011-07-14T14:58:23Z</time>
      </trkpt>
      <trkpt lat="45.66663" lon="3.05201">
        <ele>626.607971</ele>
        <time>2011-07-14T14:58:31Z</time>
      </trkpt>
      <trkpt lat="45.66666" lon="3.05215">
        <ele>625.097168</ele>
        <time>2011-07-14T14:58:38Z</time>
      </trkpt>
      <trkpt lat="45.66668" lon="3.0523">
        <ele>623.594482</ele>
        <time>2011-07-14T14:58:47Z</time>
      </trkpt>
      <trkpt lat="45.6667" lon="3.05248">
        <ele>622.051147</ele>
        <time>2011-07-14T14:58:58Z</time>
      </trkpt>
      <trkpt lat="45.66674" lon="3.05268">
        <ele>620.179443</ele>
        <time>2011-07-14T14:59:24Z</time>
      </trkpt>
      <trkpt lat="45.66675" lon="3.05282">
        <ele>619.054871</ele>
        <time>2011-07-14T14:59:31Z</time>
      </trkpt>
      <trkpt lat="45.66677" lon="3.05295">
        <ele>617.912903</ele>
        <time>2011-07-14T14:59:37Z</time>
      </trkpt>
      <trkpt lat="45.6668" lon="3.05309">
        <ele>616.804016</ele>
        <time>2011-07-14T14:59:43Z</time>
      </trkpt>
      <trkpt lat="45.66678" lon="3.05322">
        <ele>616.163513</ele>
        <time>2011-07-14T14:59:50Z</time>
      </trkpt>
      <trkpt lat="45.66679" lon="3.05336">
        <ele>615.223083</ele>
        <time>2011-07-14T14:59:56Z</time>
      </trkpt>
      <trkpt lat="45.66682" lon="3.05348">
        <ele>614.303223</ele>
        <time>2011-07-14T15:00:02Z</time>
      </trkpt>
      <trkpt lat="45.66688" lon="3.0536">
        <ele>613.284851</ele>
        <time>2011-07-14T15:00:08Z</time>
      </trkpt>
      <trkpt lat="45.66694" lon="3.05371">
        <ele>612.325623</ele>
        <time>2011-07-14T15:00:14Z</time>
      </trkpt>
      <trkpt lat="45.66701" lon="3.05383">
        <ele>611.362671</ele>
        <time>2011-07-14T15:00:21Z</time>
      </trkpt>
      <trkpt lat="45.66709" lon="3.05394">
        <ele>610.510559</ele>
        <time>2011-07-14T15:00:27Z</time>
      </trkpt>
      <trkpt lat="45.66715" lon="3.05405">
        <ele>609.694153</ele>
        <time>2011-07-14T15:00:34Z</time>
      </trkpt>
      <trkpt lat="45.66721" lon="3.05418">
        <ele>608.953918</ele>
        <time>2011-07-14T15:00:41Z</time>
      </trkpt>
      <trkpt lat="45.66727" lon="3.0543">
        <ele>608.429993</ele>
        <time>2011-07-14T15:00:48Z</time>
      </trkpt>
      <trkpt lat="45.66736" lon="3.05436">
        <ele>607.964844</ele>
        <time>2011-07-14T15:00:57Z</time>
      </trkpt>
      <trkpt lat="45.66745" lon="3.05441">
        <ele>607.513733</ele>
        <time>2011-07-14T15:01:04Z</time>
      </trkpt>
      <trkpt lat="45.66755" lon="3.05447">
        <ele>607.002502</ele>
        <time>2011-07-14T15:01:10Z</time>
      </trkpt>
      <trkpt lat="45.66765" lon="3.05453">
        <ele>606.460022</ele>
        <time>2011-07-14T15:01:18Z</time>
      </trkpt>
      <trkpt lat="45.66775" lon="3.0546">
        <ele>605.890015</ele>
        <time>2011-07-14T15:01:25Z</time>
      </trkpt>
      <trkpt lat="45.66785" lon="3.05464">
        <ele>605.366272</ele>
        <time>2011-07-14T15:01:30Z</time>
      </trkpt>
      <trkpt lat="45.66797" lon="3.05469">
        <ele>604.638489</ele>
        <time>2011-07-14T15:01:35Z</time>
      </trkpt>
      <trkpt lat="45.66807" lon="3.05475">
        <ele>603.879944</ele>
        <time>2011-07-14T15:01:40Z</time>
      </trkpt>
      <trkpt lat="45.66817" lon="3.05478">
        <ele>603.129028</ele>
        <time>2011-07-14T15:01:46Z</time>
      </trkpt>
      <trkpt lat="45.6683" lon="3.05483">
        <ele>602.15094</ele>
        <time>2011-07-14T15:01:52Z</time>
      </trkpt>
      <trkpt lat="45.66839" lon="3.05499">
        <ele>601.474548</ele>
        <time>2011-07-14T15:01:55Z</time>
      </trkpt>
      <trkpt lat="45.66843" lon="3.05515">
        <ele>601.15033</ele>
        <time>2011-07-14T15:01:57Z</time>
      </trkpt>
      <trkpt lat="45.66842" lon="3.05531">
        <ele>600.975647</ele>
        <time>2011-07-14T15:01:59Z</time>
      </trkpt>
      <trkpt lat="45.66836" lon="3.05547">
        <ele>600.898621</ele>
        <time>2011-07-14T15:02:01Z</time>
      </trkpt>
      <trkpt lat="45.66826" lon="3.05561">
        <ele>601.201843</ele>
        <time>2011-07-14T15:02:03Z</time>
      </trkpt>
      <trkpt lat="45.66812" lon="3.05569">
        <ele>601.572937</ele>
        <time>2011-07-14T15:02:05Z</time>
      </trkpt>
      <trkpt lat="45.66797" lon="3.05573">
        <ele>601.911621</ele>
        <time>2011-07-14T15:02:07Z</time>
      </trkpt>
      <trkpt lat="45.66781" lon="3.05571">
        <ele>602.241333</ele>
        <time>2011-07-14T15:02:09Z</time>
      </trkpt>
      <trkpt lat="45.66768" lon="3.05565">
        <ele>602.579163</ele>
        <time>2011-07-14T15:02:11Z</time>
      </trkpt>
      <trkpt lat="45.66757" lon="3.05554">
        <ele>603.240417</ele>
        <time>2011-07-14T15:02:13Z</time>
      </trkpt>
      <trkpt lat="45.66747" lon="3.05542">
        <ele>604.032532</ele>
        <time>2011-07-14T15:02:15Z</time>
      </trkpt>
      <trkpt lat="45.66736" lon="3.05539">
        <ele>604.418762</ele>
        <time>2011-07-14T15:02:17Z</time>
      </trkpt>
      <trkpt lat="45.66727" lon="3.05548">
        <ele>604.168762</ele>
        <time>2011-07-14T15:02:19Z</time>
      </trkpt>
      <trkpt lat="45.66724" lon="3.05564">
        <ele>603.304504</ele>
        <time>2011-07-14T15:02:21Z</time>
      </trkpt>
      <trkpt lat="45.66725" lon="3.05579">
        <ele>602.43634</ele>
        <time>2011-07-14T15:02:23Z</time>
      </trkpt>
      <trkpt lat="45.66731" lon="3.05593">
        <ele>601.428101</ele>
        <time>2011-07-14T15:02:25Z</time>
      </trkpt>
      <trkpt lat="45.66741" lon="3.05605">
        <ele>600.313782</ele>
        <time>2011-07-14T15:02:27Z</time>
      </trkpt>
      <trkpt lat="45.66752" lon="3.05613">
        <ele>600.11499</ele>
        <time>2011-07-14T15:02:29Z</time>
      </trkpt>
      <trkpt lat="45.66764" lon="3.05622">
        <ele>600.125</ele>
        <time>2011-07-14T15:02:31Z</time>
      </trkpt>
      <trkpt lat="45.66777" lon="3.05632">
        <ele>600.097473</ele>
        <time>2011-07-14T15:02:33Z</time>
      </trkpt>
      <trkpt lat="45.6679" lon="3.05643">
        <ele>599.974976</ele>
        <time>2011-07-14T15:02:35Z</time>
      </trkpt>
      <trkpt lat="45.66804" lon="3.05649">
        <ele>599.777527</ele>
        <time>2011-07-14T15:02:37Z</time>
      </trkpt>
      <trkpt lat="45.66818" lon="3.05651">
        <ele>599.744995</ele>
        <time>2011-07-14T15:02:39Z</time>
      </trkpt>
      <trkpt lat="45.66829" lon="3.05655">
        <ele>599.607483</ele>
        <time>2011-07-14T15:02:41Z</time>
      </trkpt>
      <trkpt lat="45.66839" lon="3.0566">
        <ele>599.373535</ele>
        <time>2011-07-14T15:02:43Z</time>
      </trkpt>
      <trkpt lat="45.6685" lon="3.05662">
        <ele>599.236938</ele>
        <time>2011-07-14T15:02:46Z</time>
      </trkpt>
      <trkpt lat="45.6686" lon="3.05658">
        <ele>599.195557</ele>
        <time>2011-07-14T15:04:10Z</time>
      </trkpt>
      <trkpt lat="45.6687" lon="3.05655">
        <ele>599.094788</ele>
        <time>2011-07-14T15:04:15Z</time>
      </trkpt>
      <trkpt lat="45.66878" lon="3.05646">
        <ele>599.027527</ele>
        <time>2011-07-14T15:04:20Z</time>
      </trkpt>
      <trkpt lat="45.66885" lon="3.05638">
        <ele>599.1875</ele>
        <time>2011-07-14T15:04:27Z</time>
      </trkpt>
      <trkpt lat="45.66892" lon="3.05628">
        <ele>599.352478</ele>
        <time>2011-07-14T15:04:35Z</time>
      </trkpt>
      <trkpt lat="45.66899" lon="3.0562">
        <ele>599.51001</ele>
        <time>2011-07-14T15:04:42Z</time>
      </trkpt>
      <trkpt lat="45.66907" lon="3.05611">
        <ele>599.673767</ele>
        <time>2011-07-14T15:04:49Z</time>
      </trkpt>
      <trkpt lat="45.66916" lon="3.05605">
        <ele>599.966248</ele>
        <time>2011-07-14T15:04:56Z</time>
      </trkpt>
      <trkpt lat="45.66923" lon="3.056">
        <ele>600.252502</ele>
        <time>2011-07-14T15:06:19Z</time>
      </trkpt>
      <trkpt lat="45.66925" lon="3.05587">
        <ele>600.54126</ele>
        <time>2011-07-14T15:06:26Z</time>
      </trkpt>
      <trkpt lat="45.66923" lon="3.05572">
        <ele>600.683777</ele>
        <time>2011-07-14T15:06:34Z</time>
      </trkpt>
      <trkpt lat="45.66921" lon="3.05559">
        <ele>600.79248</ele>
        <time>2011-07-14T15:06:41Z</time>
      </trkpt>
      <trkpt lat="45.66918" lon="3.05546">
        <ele>600.917175</ele>
        <time>2011-07-14T15:06:48Z</time>
      </trkpt>
      <trkpt lat="45.66914" lon="3.05533">
        <ele>601.020935</ele>
        <time>2011-07-14T15:06:56Z</time>
      </trkpt>
      <trkpt lat="45.66911" lon="3.05519">
        <ele>601.067322</ele>
        <time>2011-07-14T15:07:03Z</time>
      </trkpt>
      <trkpt lat="45.66907" lon="3.05507">
        <ele>601.069275</ele>
        <time>2011-07-14T15:07:10Z</time>
      </trkpt>
      <trkpt lat="45.66902" lon="3.05494">
        <ele>601.017456</ele>
        <time>2011-07-14T15:07:17Z</time>
      </trkpt>
      <trkpt lat="45.66899" lon="3.05479">
        <ele>601.066833</ele>
        <time>2011-07-14T15:07:25Z</time>
      </trkpt>
      <trkpt lat="45.66897" lon="3.05466">
        <ele>601.274536</ele>
        <time>2011-07-14T15:07:33Z</time>
      </trkpt>
      <trkpt lat="45.6689" lon="3.05455">
        <ele>601.290833</ele>
        <time>2011-07-14T15:07:41Z</time>
      </trkpt>
      <trkpt lat="45.66883" lon="3.05442">
        <ele>601.419128</ele>
        <time>2011-07-14T15:07:52Z</time>
      </trkpt>
      <trkpt lat="45.66875" lon="3.05428">
        <ele>601.85498</ele>
        <time>2011-07-14T15:08:02Z</time>
      </trkpt>
      <trkpt lat="45.66866" lon="3.0541">
        <ele>602.884644</ele>
        <time>2011-07-14T15:08:13Z</time>
      </trkpt>
      <trkpt lat="45.66858" lon="3.05392">
        <ele>603.94397</ele>
        <time>2011-07-14T15:08:25Z</time>
      </trkpt>
      <trkpt lat="45.6685" lon="3.05372">
        <ele>604.957031</ele>
        <time>2011-07-14T15:08:38Z</time>
      </trkpt>
      <trkpt lat="45.66847" lon="3.05352">
        <ele>605.725952</ele>
        <time>2011-07-14T15:08:48Z</time>
      </trkpt>
      <trkpt lat="45.66844" lon="3.05334">
        <ele>605.986206</ele>
        <time>2011-07-14T15:08:56Z</time>
      </trkpt>
      <trkpt lat="45.66843" lon="3.05315">
        <ele>606.166565</ele>
        <time>2011-07-14T15:09:01Z</time>
      </trkpt>
      <trkpt lat="45.66841" lon="3.053">
        <ele>606.252686</ele>
        <time>2011-07-14T15:09:05Z</time>
      </trkpt>
      <trkpt lat="45.66836" lon="3.05284">
        <ele>606.098206</ele>
        <time>2011-07-14T15:09:11Z</time>
      </trkpt>
      <trkpt lat="45.66832" lon="3.05266">
        <ele>606.06543</ele>
        <time>2011-07-14T15:09:21Z</time>
      </trkpt>
      <trkpt lat="45.66829" lon="3.05249">
        <ele>606.164551</ele>
        <time>2011-07-14T15:09:30Z</time>
      </trkpt>
      <trkpt lat="45.66824" lon="3.05232">
        <ele>606.252686</ele>
        <time>2011-07-14T15:09:38Z</time>
      </trkpt>
      <trkpt lat="45.66821" lon="3.05215">
        <ele>606.312988</ele>
        <time>2011-07-14T15:09:46Z</time>
      </trkpt>
      <trkpt lat="45.66818" lon="3.05197">
        <ele>606.319458</ele>
        <time>2011-07-14T15:09:55Z</time>
      </trkpt>
      <trkpt lat="45.66817" lon="3.0518">
        <ele>606.262939</ele>
        <time>2011-07-14T15:10:03Z</time>
      </trkpt>
      <trkpt lat="45.66816" lon="3.0516">
        <ele>606.241821</ele>
        <time>2011-07-14T15:10:08Z</time>
      </trkpt>
      <trkpt lat="45.66822" lon="3.05142">
        <ele>607.221802</ele>
        <time>2011-07-14T15:10:12Z</time>
      </trkpt>
      <trkpt lat="45.66828" lon="3.05126">
        <ele>608.510803</ele>
        <time>2011-07-14T15:10:16Z</time>
      </trkpt>
      <trkpt lat="45.66829" lon="3.05106">
        <ele>609.668274</ele>
        <time>2011-07-14T15:10:20Z</time>
      </trkpt>
      <trkpt lat="45.66828" lon="3.05086">
        <ele>610.74054</ele>
        <time>2011-07-14T15:10:24Z</time>
      </trkpt>
      <trkpt lat="45.66827" lon="3.05062">
        <ele>612.236267</ele>
        <time>2011-07-14T15:10:29Z</time>
      </trkpt>
      <trkpt lat="45.66828" lon="3.05041">
        <ele>613.907166</ele>
        <time>2011-07-14T15:10:33Z</time>
      </trkpt>
      <trkpt lat="45.66829" lon="3.05021">
        <ele>615.577515</ele>
        <time>2011-07-14T15:10:37Z</time>
      </trkpt>
      <trkpt lat="45.66825" lon="3.05001">
        <ele>616.625</ele>
        <time>2011-07-14T15:10:41Z</time>
      </trkpt>
      <trkpt lat="45.66818" lon="3.04983">
        <ele>616.807495</ele>
        <time>2011-07-14T15:10:45Z</time>
      </trkpt>
      <trkpt lat="45.66813" lon="3.04968">
        <ele>617.037476</ele>
        <time>2011-07-14T15:10:48Z</time>
      </trkpt>
      <trkpt lat="45.6681" lon="3.04954">
        <ele>617.688354</ele>
        <time>2011-07-14T15:10:51Z</time>
      </trkpt>
      <trkpt lat="45.66811" lon="3.0494">
        <ele>619.32843</ele>
        <time>2011-07-14T15:10:54Z</time>
      </trkpt>
      <trkpt lat="45.6681" lon="3.04925">
        <ele>620.361023</ele>
        <time>2011-07-14T15:10:57Z</time>
      </trkpt>
      <trkpt lat="45.66807" lon="3.0491">
        <ele>621.273926</ele>
        <time>2011-07-14T15:11:00Z</time>
      </trkpt>
      <trkpt lat="45.668" lon="3.04897">
        <ele>620.94751</ele>
        <time>2011-07-14T15:11:03Z</time>
      </trkpt>
      <trkpt lat="45.66796" lon="3.0488">
        <ele>620.923767</ele>
        <time>2011-07-14T15:11:07Z</time>
      </trkpt>
      <trkpt lat="45.66788" lon="3.04865">
        <ele>620.306274</ele>
        <time>2011-07-14T15:11:11Z</time>
      </trkpt>
      <trkpt lat="45.66785" lon="3.04844">
        <ele>620.67749</ele>
        <time>2011-07-14T15:11:22Z</time>
      </trkpt>
      <trkpt lat="45.6678" lon="3.04825">
        <ele>621.24115</ele>
        <time>2011-07-14T15:11:32Z</time>
      </trkpt>
      <trkpt lat="45.66773" lon="3.04806">
        <ele>621.718018</ele>
        <time>2011-07-14T15:11:42Z</time>
      </trkpt>
      <trkpt lat="45.66763" lon="3.04791">
        <ele>620.971863</ele>
        <time>2011-07-14T15:11:48Z</time>
      </trkpt>
      <trkpt lat="45.66747" lon="3.04775">
        <ele>618.986267</ele>
        <time>2011-07-14T15:11:54Z</time>
      </trkpt>
      <trkpt lat="45.66742" lon="3.04757">
        <ele>621.464294</ele>
        <time>2011-07-14T15:11:57Z</time>
      </trkpt>
      <trkpt lat="45.66739" lon="3.04741">
        <ele>623.545044</ele>
        <time>2011-07-14T15:11:59Z</time>
      </trkpt>
      <trkpt lat="45.66738" lon="3.04724">
        <ele>625.896179</ele>
        <time>2011-07-14T15:12:01Z</time>
      </trkpt>
      <trkpt lat="45.66739" lon="3.04709">
        <ele>628.102417</ele>
        <time>2011-07-14T15:12:03Z</time>
      </trkpt>
      <trkpt lat="45.66737" lon="3.04688">
        <ele>629.25592</ele>
        <time>2011-07-14T15:12:06Z</time>
      </trkpt>
      <trkpt lat="45.66733" lon="3.0467">
        <ele>629.38208</ele>
        <time>2011-07-14T15:12:09Z</time>
      </trkpt>
      <trkpt lat="45.66729" lon="3.04649">
        <ele>629.69281</ele>
        <time>2011-07-14T15:12:12Z</time>
      </trkpt>
      <trkpt lat="45.66726" lon="3.04626">
        <ele>629.508789</ele>
        <time>2011-07-14T15:12:15Z</time>
      </trkpt>
      <trkpt lat="45.66729" lon="3.04611">
        <ele>630.215149</ele>
        <time>2011-07-14T15:12:17Z</time>
      </trkpt>
      <trkpt lat="45.66731" lon="3.04596">
        <ele>630.899353</ele>
        <time>2011-07-14T15:12:19Z</time>
      </trkpt>
      <trkpt lat="45.6673" lon="3.0458">
        <ele>630.812378</ele>
        <time>2011-07-14T15:12:21Z</time>
      </trkpt>
      <trkpt lat="45.66735" lon="3.04569">
        <ele>631.437805</ele>
        <time>2011-07-14T15:12:29Z</time>
      </trkpt>
      <trkpt lat="45.66724" lon="3.04571">
        <ele>629.816528</ele>
        <time>2011-07-14T15:12:53Z</time>
      </trkpt>
      <trkpt lat="45.66722" lon="3.04584">
        <ele>629.237732</ele>
        <time>2011-07-14T15:13:13Z</time>
      </trkpt>
      <trkpt lat="45.66713" lon="3.04586">
        <ele>627.607666</ele>
        <time>2011-07-14T15:14:36Z</time>
      </trkpt>
      <trkpt lat="45.66728" lon="3.04566">
        <ele>630.501099</ele>
        <time>2011-07-14T15:15:11Z</time>
      </trkpt>
      <trkpt lat="45.66732" lon="3.04538">
        <ele>630.802734</ele>
        <time>2011-07-14T15:15:43Z</time>
      </trkpt>
      <trkpt lat="45.66742" lon="3.04523">
        <ele>630.991272</ele>
        <time>2011-07-14T15:15:53Z</time>
      </trkpt>
      <trkpt lat="45.66756" lon="3.04509">
        <ele>632.250732</ele>
        <time>2011-07-14T15:16:06Z</time>
      </trkpt>
      <trkpt lat="45.66771" lon="3.04498">
        <ele>634.252075</ele>
        <time>2011-07-14T15:16:26Z</time>
      </trkpt>
      <trkpt lat="45.66767" lon="3.04497">
        <ele>633.772339</ele>
        <time>2011-07-14T15:17:00Z</time>
      </trkpt>
      <trkpt lat="45.66756" lon="3.0451">
        <ele>632.303467</ele>
        <time>2011-07-14T15:17:15Z</time>
      </trkpt>
      <trkpt lat="45.66748" lon="3.04516">
        <ele>631.018005</ele>
        <time>2011-07-14T15:17:24Z</time>
      </trkpt>
      <trkpt lat="45.66737" lon="3.04527">
        <ele>630.898193</ele>
        <time>2011-07-14T15:17:33Z</time>
      </trkpt>
      <trkpt lat="45.66728" lon="3.04546">
        <ele>630.45697</ele>
        <time>2011-07-14T15:17:53Z</time>
      </trkpt>
      <trkpt lat="45.66724" lon="3.04563">
        <ele>629.935425</ele>
        <time>2011-07-14T15:17:59Z</time>
      </trkpt>
      <trkpt lat="45.66719" lon="3.04579">
        <ele>628.957703</ele>
        <time>2011-07-14T15:18:03Z</time>
      </trkpt>
      <trkpt lat="45.66716" lon="3.04596">
        <ele>627.964111</ele>
        <time>2011-07-14T15:18:07Z</time>
      </trkpt>
      <trkpt lat="45.66711" lon="3.04612">
        <ele>626.440369</ele>
        <time>2011-07-14T15:18:11Z</time>
      </trkpt>
      <trkpt lat="45.66707" lon="3.04626">
        <ele>624.914917</ele>
        <time>2011-07-14T15:18:14Z</time>
      </trkpt>
      <trkpt lat="45.66708" lon="3.04645">
        <ele>624.449829</ele>
        <time>2011-07-14T15:18:17Z</time>
      </trkpt>
      <trkpt lat="45.66711" lon="3.04661">
        <ele>624.247009</ele>
        <time>2011-07-14T15:18:20Z</time>
      </trkpt>
      <trkpt lat="45.66715" lon="3.04683">
        <ele>623.866699</ele>
        <time>2011-07-14T15:18:23Z</time>
      </trkpt>
      <trkpt lat="45.66711" lon="3.04703">
        <ele>621.514648</ele>
        <time>2011-07-14T15:18:26Z</time>
      </trkpt>
      <trkpt lat="45.66711" lon="3.04721">
        <ele>620.452515</ele>
        <time>2011-07-14T15:18:28Z</time>
      </trkpt>
      <trkpt lat="45.66713" lon="3.04738">
        <ele>619.524414</ele>
        <time>2011-07-14T15:18:30Z</time>
      </trkpt>
      <trkpt lat="45.66719" lon="3.04755">
        <ele>619.079102</ele>
        <time>2011-07-14T15:18:32Z</time>
      </trkpt>
      <trkpt lat="45.66729" lon="3.04766">
        <ele>618.862732</ele>
        <time>2011-07-14T15:18:34Z</time>
      </trkpt>
      <trkpt lat="45.66742" lon="3.04782">
        <ele>618.26001</ele>
        <time>2011-07-14T15:18:37Z</time>
      </trkpt>
      <trkpt lat="45.66753" lon="3.04794">
        <ele>618.693726</ele>
        <time>2011-07-14T15:18:39Z</time>
      </trkpt>
      <trkpt lat="45.66761" lon="3.04806">
        <ele>619.28241</ele>
        <time>2011-07-14T15:18:41Z</time>
      </trkpt>
      <trkpt lat="45.66768" lon="3.04823">
        <ele>619.237427</ele>
        <time>2011-07-14T15:18:44Z</time>
      </trkpt>
      <trkpt lat="45.66778" lon="3.04842">
        <ele>619.45752</ele>
        <time>2011-07-14T15:18:47Z</time>
      </trkpt>
      <trkpt lat="45.66783" lon="3.04863">
        <ele>619.502502</ele>
        <time>2011-07-14T15:18:50Z</time>
      </trkpt>
      <trkpt lat="45.6679" lon="3.04881">
        <ele>619.942505</ele>
        <time>2011-07-14T15:18:53Z</time>
      </trkpt>
      <trkpt lat="45.66795" lon="3.04896">
        <ele>620.071289</ele>
        <time>2011-07-14T15:18:55Z</time>
      </trkpt>
      <trkpt lat="45.66797" lon="3.04916">
        <ele>618.788757</ele>
        <time>2011-07-14T15:18:58Z</time>
      </trkpt>
      <trkpt lat="45.66798" lon="3.04938">
        <ele>616.882568</ele>
        <time>2011-07-14T15:19:01Z</time>
      </trkpt>
      <trkpt lat="45.66801" lon="3.04954">
        <ele>615.757202</ele>
        <time>2011-07-14T15:19:03Z</time>
      </trkpt>
      <trkpt lat="45.66804" lon="3.04969">
        <ele>615.025024</ele>
        <time>2011-07-14T15:19:05Z</time>
      </trkpt>
      <trkpt lat="45.6681" lon="3.04983">
        <ele>614.902527</ele>
        <time>2011-07-14T15:19:07Z</time>
      </trkpt>
      <trkpt lat="45.66814" lon="3.04997">
        <ele>614.484985</ele>
        <time>2011-07-14T15:19:09Z</time>
      </trkpt>
      <trkpt lat="45.66817" lon="3.05013">
        <ele>613.815002</ele>
        <time>2011-07-14T15:19:12Z</time>
      </trkpt>
      <trkpt lat="45.66816" lon="3.05029">
        <ele>612.192505</ele>
        <time>2011-07-14T15:19:16Z</time>
      </trkpt>
      <trkpt lat="45.66816" lon="3.05047">
        <ele>611.014587</ele>
        <time>2011-07-14T15:19:19Z</time>
      </trkpt>
      <trkpt lat="45.66817" lon="3.05068">
        <ele>609.982178</ele>
        <time>2011-07-14T15:19:22Z</time>
      </trkpt>
      <trkpt lat="45.66817" lon="3.05086">
        <ele>608.827454</ele>
        <time>2011-07-14T15:19:24Z</time>
      </trkpt>
      <trkpt lat="45.66816" lon="3.05103">
        <ele>607.8797</ele>
        <time>2011-07-14T15:19:26Z</time>
      </trkpt>
      <trkpt lat="45.66813" lon="3.05119">
        <ele>607.111267</ele>
        <time>2011-07-14T15:19:28Z</time>
      </trkpt>
      <trkpt lat="45.6681" lon="3.05137">
        <ele>606.393005</ele>
        <time>2011-07-14T15:19:30Z</time>
      </trkpt>
      <trkpt lat="45.66806" lon="3.05153">
        <ele>605.856079</ele>
        <time>2011-07-14T15:19:32Z</time>
      </trkpt>
      <trkpt lat="45.66804" lon="3.05176">
        <ele>605.873962</ele>
        <time>2011-07-14T15:19:35Z</time>
      </trkpt>
      <trkpt lat="45.66806" lon="3.05198">
        <ele>606.250183</ele>
        <time>2011-07-14T15:19:38Z</time>
      </trkpt>
      <trkpt lat="45.6681" lon="3.05216">
        <ele>606.440125</ele>
        <time>2011-07-14T15:19:41Z</time>
      </trkpt>
      <trkpt lat="45.66815" lon="3.05233">
        <ele>606.478394</ele>
        <time>2011-07-14T15:19:44Z</time>
      </trkpt>
      <trkpt lat="45.66819" lon="3.05255">
        <ele>606.493164</ele>
        <time>2011-07-14T15:19:48Z</time>
      </trkpt>
      <trkpt lat="45.66819" lon="3.05272">
        <ele>606.555908</ele>
        <time>2011-07-14T15:19:50Z</time>
      </trkpt>
      <trkpt lat="45.6682" lon="3.05291">
        <ele>606.590515</ele>
        <time>2011-07-14T15:19:52Z</time>
      </trkpt>
      <trkpt lat="45.66823" lon="3.0531">
        <ele>606.400208</ele>
        <time>2011-07-14T15:19:54Z</time>
      </trkpt>
      <trkpt lat="45.66826" lon="3.05328">
        <ele>606.241272</ele>
        <time>2011-07-14T15:19:56Z</time>
      </trkpt>
      <trkpt lat="45.66828" lon="3.05345">
        <ele>606.133484</ele>
        <time>2011-07-14T15:19:58Z</time>
      </trkpt>
      <trkpt lat="45.6683" lon="3.05359">
        <ele>605.925537</ele>
        <time>2011-07-14T15:20:00Z</time>
      </trkpt>
      <trkpt lat="45.66834" lon="3.05373">
        <ele>605.383362</ele>
        <time>2011-07-14T15:20:06Z</time>
      </trkpt>
      <trkpt lat="45.6684" lon="3.0539">
        <ele>604.631592</ele>
        <time>2011-07-14T15:20:18Z</time>
      </trkpt>
      <trkpt lat="45.66849" lon="3.05408">
        <ele>603.675659</ele>
        <time>2011-07-14T15:20:28Z</time>
      </trkpt>
      <trkpt lat="45.66858" lon="3.05424">
        <ele>602.732483</ele>
        <time>2011-07-14T15:20:37Z</time>
      </trkpt>
      <trkpt lat="45.66867" lon="3.05437">
        <ele>601.904968</ele>
        <time>2011-07-14T15:20:46Z</time>
      </trkpt>
      <trkpt lat="45.66877" lon="3.05452">
        <ele>600.952515</ele>
        <time>2011-07-14T15:20:55Z</time>
      </trkpt>
      <trkpt lat="45.66885" lon="3.05469">
        <ele>600.74707</ele>
        <time>2011-07-14T15:20:59Z</time>
      </trkpt>
      <trkpt lat="45.6689" lon="3.05483">
        <ele>600.575745</ele>
        <time>2011-07-14T15:21:01Z</time>
      </trkpt>
      <trkpt lat="45.66897" lon="3.05499">
        <ele>600.762878</ele>
        <time>2011-07-14T15:21:03Z</time>
      </trkpt>
      <trkpt lat="45.66903" lon="3.05516">
        <ele>600.857605</ele>
        <time>2011-07-14T15:21:05Z</time>
      </trkpt>
      <trkpt lat="45.66908" lon="3.05535">
        <ele>600.812988</ele>
        <time>2011-07-14T15:21:07Z</time>
      </trkpt>
      <trkpt lat="45.6691" lon="3.05554">
        <ele>600.623718</ele>
        <time>2011-07-14T15:21:09Z</time>
      </trkpt>
      <trkpt lat="45.66911" lon="3.05574">
        <ele>600.348755</ele>
        <time>2011-07-14T15:21:11Z</time>
      </trkpt>
      <trkpt lat="45.66913" lon="3.05591">
        <ele>600.13623</ele>
        <time>2011-07-14T15:21:13Z</time>
      </trkpt>
      <trkpt lat="45.6692" lon="3.05605">
        <ele>600.07251</ele>
        <time>2011-07-14T15:21:15Z</time>
      </trkpt>
      <trkpt lat="45.66926" lon="3.05619">
        <ele>600.179321</ele>
        <time>2011-07-14T15:21:17Z</time>
      </trkpt>
      <trkpt lat="45.66932" lon="3.05632">
        <ele>600.395386</ele>
        <time>2011-07-14T15:21:19Z</time>
      </trkpt>
      <trkpt lat="45.66938" lon="3.05645">
        <ele>600.555969</ele>
        <time>2011-07-14T15:21:21Z</time>
      </trkpt>
      <trkpt lat="45.66944" lon="3.05656">
        <ele>600.66156</ele>
        <time>2011-07-14T15:21:23Z</time>
      </trkpt>
      <trkpt lat="45.6695" lon="3.0567">
        <ele>600.705444</ele>
        <time>2011-07-14T15:21:26Z</time>
      </trkpt>
      <trkpt lat="45.66957" lon="3.05684">
        <ele>600.684998</ele>
        <time>2011-07-14T15:21:29Z</time>
      </trkpt>
      <trkpt lat="45.66966" lon="3.05695">
        <ele>600.720886</ele>
        <time>2011-07-14T15:21:32Z</time>
      </trkpt>
      <trkpt lat="45.66978" lon="3.05706">
        <ele>600.824585</ele>
        <time>2011-07-14T15:21:35Z</time>
      </trkpt>
      <trkpt lat="45.66987" lon="3.05713">
        <ele>600.823181</ele>
        <time>2011-07-14T15:21:37Z</time>
      </trkpt>
      <trkpt lat="45.66996" lon="3.05721">
        <ele>600.728149</ele>
        <time>2011-07-14T15:21:39Z</time>
      </trkpt>
      <trkpt lat="45.67006" lon="3.0573">
        <ele>600.491699</ele>
        <time>2011-07-14T15:21:41Z</time>
      </trkpt>
      <trkpt lat="45.67015" lon="3.05738">
        <ele>599.946472</ele>
        <time>2011-07-14T15:21:43Z</time>
      </trkpt>
      <trkpt lat="45.67025" lon="3.05747">
        <ele>599.228882</ele>
        <time>2011-07-14T15:21:45Z</time>
      </trkpt>
      <trkpt lat="45.67035" lon="3.05756">
        <ele>598.602478</ele>
        <time>2011-07-14T15:21:47Z</time>
      </trkpt>
      <trkpt lat="45.67046" lon="3.05763">
        <ele>598.024109</ele>
        <time>2011-07-14T15:21:49Z</time>
      </trkpt>
      <trkpt lat="45.67057" lon="3.05771">
        <ele>597.614075</ele>
        <time>2011-07-14T15:21:51Z</time>
      </trkpt>
      <trkpt lat="45.67069" lon="3.05778">
        <ele>597.922729</ele>
        <time>2011-07-14T15:21:53Z</time>
      </trkpt>
      <trkpt lat="45.67082" lon="3.05784">
        <ele>598.307007</ele>
        <time>2011-07-14T15:21:55Z</time>
      </trkpt>
      <trkpt lat="45.67093" lon="3.05789">
        <ele>598.722412</ele>
        <time>2011-07-14T15:21:57Z</time>
      </trkpt>
      <trkpt lat="45.67105" lon="3.05795">
        <ele>599.561157</ele>
        <time>2011-07-14T15:21:59Z</time>
      </trkpt>
      <trkpt lat="45.67115" lon="3.05802">
        <ele>600.915222</ele>
        <time>2011-07-14T15:22:01Z</time>
      </trkpt>
      <trkpt lat="45.67124" lon="3.0581">
        <ele>602.226257</ele>
        <time>2011-07-14T15:22:03Z</time>
      </trkpt>
      <trkpt lat="45.67133" lon="3.05819">
        <ele>603.561279</ele>
        <time>2011-07-14T15:22:05Z</time>
      </trkpt>
      <trkpt lat="45.67144" lon="3.05826">
        <ele>605.14624</ele>
        <time>2011-07-14T15:22:07Z</time>
      </trkpt>
      <trkpt lat="45.67156" lon="3.05831">
        <ele>606.382935</ele>
        <time>2011-07-14T15:22:09Z</time>
      </trkpt>
      <trkpt lat="45.67166" lon="3.05837">
        <ele>607.565369</ele>
        <time>2011-07-14T15:22:11Z</time>
      </trkpt>
      <trkpt lat="45.67178" lon="3.05844">
        <ele>608.888184</ele>
        <time>2011-07-14T15:22:13Z</time>
      </trkpt>
      <trkpt lat="45.67189" lon="3.05849">
        <ele>610.226135</ele>
        <time>2011-07-14T15:22:15Z</time>
      </trkpt>
      <trkpt lat="45.672" lon="3.05853">
        <ele>611.218628</ele>
        <time>2011-07-14T15:22:17Z</time>
      </trkpt>
      <trkpt lat="45.67208" lon="3.05857">
        <ele>612.076294</ele>
        <time>2011-07-14T15:22:19Z</time>
      </trkpt>
      <trkpt lat="45.67221" lon="3.05863">
        <ele>613.36615</ele>
        <time>2011-07-14T15:22:22Z</time>
      </trkpt>
      <trkpt lat="45.67232" lon="3.05866">
        <ele>614.454956</ele>
        <time>2011-07-14T15:22:25Z</time>
      </trkpt>
      <trkpt lat="45.67242" lon="3.05867">
        <ele>615.264648</ele>
        <time>2011-07-14T15:22:29Z</time>
      </trkpt>
      <trkpt lat="45.67253" lon="3.05868">
        <ele>615.979858</ele>
        <time>2011-07-14T15:22:34Z</time>
      </trkpt>
      <trkpt lat="45.67262" lon="3.05866">
        <ele>616.546753</ele>
        <time>2011-07-14T15:22:37Z</time>
      </trkpt>
      <trkpt lat="45.67275" lon="3.05862">
        <ele>617.350891</ele>
        <time>2011-07-14T15:22:40Z</time>
      </trkpt>
      <trkpt lat="45.67286" lon="3.0586">
        <ele>618.497498</ele>
        <time>2011-07-14T15:22:42Z</time>
      </trkpt>
      <trkpt lat="45.67295" lon="3.05858">
        <ele>619.89502</ele>
        <time>2011-07-14T15:22:44Z</time>
      </trkpt>
      <trkpt lat="45.67307" lon="3.05855">
        <ele>621.717468</ele>
        <time>2011-07-14T15:22:47Z</time>
      </trkpt>
      <trkpt lat="45.67317" lon="3.05853">
        <ele>623.142517</ele>
        <time>2011-07-14T15:22:50Z</time>
      </trkpt>
      <trkpt lat="45.67326" lon="3.05848">
        <ele>624.44989</ele>
        <time>2011-07-14T15:22:55Z</time>
      </trkpt>
      <trkpt lat="45.67336" lon="3.05844">
        <ele>626.573608</ele>
        <time>2011-07-14T15:23:04Z</time>
      </trkpt>
      <trkpt lat="45.67343" lon="3.05853">
        <ele>628.312378</ele>
        <time>2011-07-14T15:23:13Z</time>
      </trkpt>
      <trkpt lat="45.67342" lon="3.05867">
        <ele>628.398865</ele>
        <time>2011-07-14T15:23:22Z</time>
      </trkpt>
      <trkpt lat="45.67345" lon="3.05881">
        <ele>629.09021</ele>
        <time>2011-07-14T15:23:32Z</time>
      </trkpt>
      <trkpt lat="45.67344" lon="3.05896">
        <ele>629.350586</ele>
        <time>2011-07-14T15:23:41Z</time>
      </trkpt>
      <trkpt lat="45.67345" lon="3.05912">
        <ele>629.799438</ele>
        <time>2011-07-14T15:23:50Z</time>
      </trkpt>
      <trkpt lat="45.67345" lon="3.05926">
        <ele>630.020203</ele>
        <time>2011-07-14T15:23:59Z</time>
      </trkpt>
      <trkpt lat="45.67346" lon="3.05943">
        <ele>630.219727</ele>
        <time>2011-07-14T15:24:10Z</time>
      </trkpt>
      <trkpt lat="45.67349" lon="3.05961">
        <ele>629.908325</ele>
        <time>2011-07-14T15:24:20Z</time>
      </trkpt>
      <trkpt lat="45.67352" lon="3.05977">
        <ele>629.793457</ele>
        <time>2011-07-14T15:24:32Z</time>
      </trkpt>
      <trkpt lat="45.67358" lon="3.0599">
        <ele>630.077576</ele>
        <time>2011-07-14T15:24:42Z</time>
      </trkpt>
      <trkpt lat="45.67368" lon="3.05997">
        <ele>631.091003</ele>
        <time>2011-07-14T15:24:51Z</time>
      </trkpt>
      <trkpt lat="45.67376" lon="3.06005">
        <ele>631.809814</ele>
        <time>2011-07-14T15:25:00Z</time>
      </trkpt>
      <trkpt lat="45.67384" lon="3.06014">
        <ele>632.417786</ele>
        <time>2011-07-14T15:25:09Z</time>
      </trkpt>
      <trkpt lat="45.67393" lon="3.06023">
        <ele>633.234802</ele>
        <time>2011-07-14T15:25:19Z</time>
      </trkpt>
      <trkpt lat="45.67402" lon="3.06032">
        <ele>634.033447</ele>
        <time>2011-07-14T15:25:29Z</time>
      </trkpt>
      <trkpt lat="45.67414" lon="3.06039">
        <ele>635.292358</ele>
        <time>2011-07-14T15:25:37Z</time>
      </trkpt>
      <trkpt lat="45.67425" lon="3.06046">
        <ele>636.70166</ele>
        <time>2011-07-14T15:25:44Z</time>
      </trkpt>
      <trkpt lat="45.67435" lon="3.06051">
        <ele>637.928833</ele>
        <time>2011-07-14T15:25:51Z</time>
      </trkpt>
      <trkpt lat="45.67444" lon="3.06059">
        <ele>639.142029</ele>
        <time>2011-07-14T15:25:58Z</time>
      </trkpt>
      <trkpt lat="45.67454" lon="3.06069">
        <ele>640.179993</ele>
        <time>2011-07-14T15:26:02Z</time>
      </trkpt>
      <trkpt lat="45.67462" lon="3.06079">
        <ele>640.988953</ele>
        <time>2011-07-14T15:26:06Z</time>
      </trkpt>
      <trkpt lat="45.67469" lon="3.06089">
        <ele>641.487183</ele>
        <time>2011-07-14T15:26:10Z</time>
      </trkpt>
      <trkpt lat="45.67475" lon="3.06102">
        <ele>641.907776</ele>
        <time>2011-07-14T15:26:19Z</time>
      </trkpt>
      <trkpt lat="45.67482" lon="3.06116">
        <ele>642.362915</ele>
        <time>2011-07-14T15:26:28Z</time>
      </trkpt>
      <trkpt lat="45.67488" lon="3.06131">
        <ele>642.666809</ele>
        <time>2011-07-14T15:26:37Z</time>
      </trkpt>
      <trkpt lat="45.67491" lon="3.06147">
        <ele>642.516113</ele>
        <time>2011-07-14T15:26:44Z</time>
      </trkpt>
      <trkpt lat="45.67494" lon="3.0616">
        <ele>642.388977</ele>
        <time>2011-07-14T15:26:51Z</time>
      </trkpt>
      <trkpt lat="45.67497" lon="3.06173">
        <ele>642.370789</ele>
        <time>2011-07-14T15:26:58Z</time>
      </trkpt>
      <trkpt lat="45.67502" lon="3.06185">
        <ele>642.454773</ele>
        <time>2011-07-14T15:27:05Z</time>
      </trkpt>
      <trkpt lat="45.67506" lon="3.06199">
        <ele>642.566223</ele>
        <time>2011-07-14T15:27:12Z</time>
      </trkpt>
      <trkpt lat="45.6751" lon="3.06214">
        <ele>642.892517</ele>
        <time>2011-07-14T15:27:16Z</time>
      </trkpt>
      <trkpt lat="45.67515" lon="3.0623">
        <ele>643.411255</ele>
        <time>2011-07-14T15:27:19Z</time>
      </trkpt>
      <trkpt lat="45.67519" lon="3.06244">
        <ele>643.897522</ele>
        <time>2011-07-14T15:27:21Z</time>
      </trkpt>
      <trkpt lat="45.67525" lon="3.06259">
        <ele>644.553772</ele>
        <time>2011-07-14T15:27:23Z</time>
      </trkpt>
      <trkpt lat="45.67529" lon="3.06276">
        <ele>645.724182</ele>
        <time>2011-07-14T15:27:25Z</time>
      </trkpt>
      <trkpt lat="45.67533" lon="3.06292">
        <ele>646.946472</ele>
        <time>2011-07-14T15:27:27Z</time>
      </trkpt>
      <trkpt lat="45.67536" lon="3.06308">
        <ele>647.951294</ele>
        <time>2011-07-14T15:27:30Z</time>
      </trkpt>
      <trkpt lat="45.67534" lon="3.06324">
        <ele>648.295959</ele>
        <time>2011-07-14T15:27:37Z</time>
      </trkpt>
      <trkpt lat="45.67534" lon="3.06339">
        <ele>649.063904</ele>
        <time>2011-07-14T15:27:44Z</time>
      </trkpt>
      <trkpt lat="45.67534" lon="3.06354">
        <ele>649.906006</ele>
        <time>2011-07-14T15:27:50Z</time>
      </trkpt>
      <trkpt lat="45.67535" lon="3.06369">
        <ele>650.912476</ele>
        <time>2011-07-14T15:27:55Z</time>
      </trkpt>
      <trkpt lat="45.67536" lon="3.06383">
        <ele>652.023926</ele>
        <time>2011-07-14T15:27:59Z</time>
      </trkpt>
      <trkpt lat="45.67538" lon="3.06398">
        <ele>653.172485</ele>
        <time>2011-07-14T15:28:03Z</time>
      </trkpt>
      <trkpt lat="45.67541" lon="3.06411">
        <ele>654.251221</ele>
        <time>2011-07-14T15:28:06Z</time>
      </trkpt>
      <trkpt lat="45.67545" lon="3.06427">
        <ele>655.576233</ele>
        <time>2011-07-14T15:28:10Z</time>
      </trkpt>
      <trkpt lat="45.67549" lon="3.06441">
        <ele>656.932007</ele>
        <time>2011-07-14T15:28:14Z</time>
      </trkpt>
      <trkpt lat="45.67554" lon="3.06456">
        <ele>658.509094</ele>
        <time>2011-07-14T15:28:18Z</time>
      </trkpt>
      <trkpt lat="45.6756" lon="3.06469">
        <ele>659.99939</ele>
        <time>2011-07-14T15:28:22Z</time>
      </trkpt>
      <trkpt lat="45.67564" lon="3.06483">
        <ele>661.349426</ele>
        <time>2011-07-14T15:28:26Z</time>
      </trkpt>
      <trkpt lat="45.67568" lon="3.06498">
        <ele>662.641113</ele>
        <time>2011-07-14T15:28:30Z</time>
      </trkpt>
      <trkpt lat="45.67571" lon="3.06514">
        <ele>663.991516</ele>
        <time>2011-07-14T15:28:34Z</time>
      </trkpt>
      <trkpt lat="45.67574" lon="3.06527">
        <ele>664.871216</ele>
        <time>2011-07-14T15:28:37Z</time>
      </trkpt>
      <trkpt lat="45.67577" lon="3.06541">
        <ele>665.576233</ele>
        <time>2011-07-14T15:28:40Z</time>
      </trkpt>
      <trkpt lat="45.67578" lon="3.06554">
        <ele>666.16748</ele>
        <time>2011-07-14T15:28:43Z</time>
      </trkpt>
      <trkpt lat="45.6758" lon="3.06568">
        <ele>666.78125</ele>
        <time>2011-07-14T15:28:46Z</time>
      </trkpt>
      <trkpt lat="45.67582" lon="3.06582">
        <ele>667.34375</ele>
        <time>2011-07-14T15:28:49Z</time>
      </trkpt>
      <trkpt lat="45.67583" lon="3.06596">
        <ele>668.158752</ele>
        <time>2011-07-14T15:28:52Z</time>
      </trkpt>
      <trkpt lat="45.67585" lon="3.0661">
        <ele>668.877625</ele>
        <time>2011-07-14T15:28:55Z</time>
      </trkpt>
      <trkpt lat="45.67586" lon="3.06625">
        <ele>669.64801</ele>
        <time>2011-07-14T15:28:58Z</time>
      </trkpt>
      <trkpt lat="45.67587" lon="3.06641">
        <ele>670.427246</ele>
        <time>2011-07-14T15:29:01Z</time>
      </trkpt>
      <trkpt lat="45.67589" lon="3.06656">
        <ele>671.12323</ele>
        <time>2011-07-14T15:29:04Z</time>
      </trkpt>
      <trkpt lat="45.67592" lon="3.06672">
        <ele>671.47876</ele>
        <time>2011-07-14T15:29:07Z</time>
      </trkpt>
      <trkpt lat="45.67594" lon="3.06686">
        <ele>671.811279</ele>
        <time>2011-07-14T15:29:10Z</time>
      </trkpt>
      <trkpt lat="45.67596" lon="3.06701">
        <ele>672.128723</ele>
        <time>2011-07-14T15:29:13Z</time>
      </trkpt>
      <trkpt lat="45.67598" lon="3.06715">
        <ele>672.430237</ele>
        <time>2011-07-14T15:29:16Z</time>
      </trkpt>
      <trkpt lat="45.676" lon="3.06729">
        <ele>672.687622</ele>
        <time>2011-07-14T15:29:19Z</time>
      </trkpt>
      <trkpt lat="45.67602" lon="3.06743">
        <ele>672.918579</ele>
        <time>2011-07-14T15:29:22Z</time>
      </trkpt>
      <trkpt lat="45.67604" lon="3.0676">
        <ele>673.179749</ele>
        <time>2011-07-14T15:29:26Z</time>
      </trkpt>
      <trkpt lat="45.67607" lon="3.06777">
        <ele>673.409729</ele>
        <time>2011-07-14T15:29:30Z</time>
      </trkpt>
      <trkpt lat="45.67609" lon="3.0679">
        <ele>673.568481</ele>
        <time>2011-07-14T15:29:33Z</time>
      </trkpt>
      <trkpt lat="45.67611" lon="3.06807">
        <ele>673.736084</ele>
        <time>2011-07-14T15:29:37Z</time>
      </trkpt>
      <trkpt lat="45.67611" lon="3.06824">
        <ele>673.875061</ele>
        <time>2011-07-14T15:29:41Z</time>
      </trkpt>
      <trkpt lat="45.67612" lon="3.06837">
        <ele>673.974548</ele>
        <time>2011-07-14T15:29:45Z</time>
      </trkpt>
      <trkpt lat="45.67611" lon="3.0685">
        <ele>674</ele>
        <time>2011-07-14T15:29:52Z</time>
      </trkpt>
      <trkpt lat="45.67611" lon="3.0686">
        <ele>674</ele>
        <time>2011-07-14T15:31:21Z</time>
      </trkpt>
      <trkpt lat="45.67616" lon="3.06869">
        <ele>674</ele>
        <time>2011-07-14T15:31:31Z</time>
      </trkpt>
      <trkpt lat="45.67624" lon="3.06871">
        <ele>674</ele>
        <time>2011-07-14T15:31:59Z</time>
      </trkpt>
      <trkpt lat="45.67634" lon="3.06874">
        <ele>674.01001</ele>
        <time>2011-07-14T15:32:17Z</time>
      </trkpt>
      <trkpt lat="45.67641" lon="3.06884">
        <ele>674.179993</ele>
        <time>2011-07-14T15:32:21Z</time>
      </trkpt>
      <trkpt lat="45.67649" lon="3.06897">
        <ele>674.347473</ele>
        <time>2011-07-14T15:32:25Z</time>
      </trkpt>
      <trkpt lat="45.67654" lon="3.06909">
        <ele>674.431274</ele>
        <time>2011-07-14T15:32:28Z</time>
      </trkpt>
      <trkpt lat="45.6766" lon="3.06927">
        <ele>674.401184</ele>
        <time>2011-07-14T15:32:31Z</time>
      </trkpt>
      <trkpt lat="45.67665" lon="3.0694">
        <ele>674.321289</ele>
        <time>2011-07-14T15:32:33Z</time>
      </trkpt>
      <trkpt lat="45.6767" lon="3.06955">
        <ele>674.188416</ele>
        <time>2011-07-14T15:32:35Z</time>
      </trkpt>
      <trkpt lat="45.67676" lon="3.06969">
        <ele>674.001221</ele>
        <time>2011-07-14T15:32:37Z</time>
      </trkpt>
      <trkpt lat="45.67681" lon="3.06984">
        <ele>673.773743</ele>
        <time>2011-07-14T15:32:39Z</time>
      </trkpt>
      <trkpt lat="45.67688" lon="3.06999">
        <ele>673.546265</ele>
        <time>2011-07-14T15:32:41Z</time>
      </trkpt>
      <trkpt lat="45.67695" lon="3.07013">
        <ele>673.313721</ele>
        <time>2011-07-14T15:32:43Z</time>
      </trkpt>
      <trkpt lat="45.67703" lon="3.0703">
        <ele>673.063721</ele>
        <time>2011-07-14T15:32:45Z</time>
      </trkpt>
      <trkpt lat="45.67712" lon="3.07047">
        <ele>672.788757</ele>
        <time>2011-07-14T15:32:47Z</time>
      </trkpt>
      <trkpt lat="45.67719" lon="3.07066">
        <ele>672.496277</ele>
        <time>2011-07-14T15:32:49Z</time>
      </trkpt>
      <trkpt lat="45.67726" lon="3.07085">
        <ele>671.955444</ele>
        <time>2011-07-14T15:32:51Z</time>
      </trkpt>
      <trkpt lat="45.67733" lon="3.07102">
        <ele>671.081238</ele>
        <time>2011-07-14T15:32:53Z</time>
      </trkpt>
      <trkpt lat="45.67739" lon="3.07118">
        <ele>669.922485</ele>
        <time>2011-07-14T15:32:55Z</time>
      </trkpt>
      <trkpt lat="45.67744" lon="3.07133">
        <ele>668.846252</ele>
        <time>2011-07-14T15:32:57Z</time>
      </trkpt>
      <trkpt lat="45.67751" lon="3.07145">
        <ele>667.83374</ele>
        <time>2011-07-14T15:32:59Z</time>
      </trkpt>
      <trkpt lat="45.67758" lon="3.07156">
        <ele>666.881226</ele>
        <time>2011-07-14T15:33:01Z</time>
      </trkpt>
      <trkpt lat="45.67764" lon="3.07166">
        <ele>666.022522</ele>
        <time>2011-07-14T15:33:03Z</time>
      </trkpt>
      <trkpt lat="45.67771" lon="3.0718">
        <ele>664.942383</ele>
        <time>2011-07-14T15:33:06Z</time>
      </trkpt>
      <trkpt lat="45.67778" lon="3.07194">
        <ele>663.931519</ele>
        <time>2011-07-14T15:33:09Z</time>
      </trkpt>
      <trkpt lat="45.67782" lon="3.07206">
        <ele>663.017212</ele>
        <time>2011-07-14T15:33:12Z</time>
      </trkpt>
      <trkpt lat="45.67786" lon="3.07218">
        <ele>662.146118</ele>
        <time>2011-07-14T15:33:16Z</time>
      </trkpt>
      <trkpt lat="45.67792" lon="3.07228">
        <ele>661.248962</ele>
        <time>2011-07-14T15:33:23Z</time>
      </trkpt>
      <trkpt lat="45.67796" lon="3.07239">
        <ele>660.745605</ele>
        <time>2011-07-14T15:33:29Z</time>
      </trkpt>
      <trkpt lat="45.678" lon="3.07251">
        <ele>660.238403</ele>
        <time>2011-07-14T15:33:36Z</time>
      </trkpt>
      <trkpt lat="45.67805" lon="3.07264">
        <ele>659.741638</ele>
        <time>2011-07-14T15:33:41Z</time>
      </trkpt>
      <trkpt lat="45.67809" lon="3.07278">
        <ele>659.27594</ele>
        <time>2011-07-14T15:33:44Z</time>
      </trkpt>
      <trkpt lat="45.67813" lon="3.07293">
        <ele>659.14679</ele>
        <time>2011-07-14T15:33:47Z</time>
      </trkpt>
      <trkpt lat="45.67816" lon="3.07307">
        <ele>658.889465</ele>
        <time>2011-07-14T15:33:50Z</time>
      </trkpt>
      <trkpt lat="45.67819" lon="3.07323">
        <ele>658.505127</ele>
        <time>2011-07-14T15:33:53Z</time>
      </trkpt>
      <trkpt lat="45.67821" lon="3.07336">
        <ele>658.182617</ele>
        <time>2011-07-14T15:33:56Z</time>
      </trkpt>
      <trkpt lat="45.67824" lon="3.07353">
        <ele>657.767578</ele>
        <time>2011-07-14T15:34:00Z</time>
      </trkpt>
      <trkpt lat="45.67829" lon="3.07368">
        <ele>657.947205</ele>
        <time>2011-07-14T15:34:03Z</time>
      </trkpt>
      <trkpt lat="45.67834" lon="3.07384">
        <ele>658.335815</ele>
        <time>2011-07-14T15:34:06Z</time>
      </trkpt>
      <trkpt lat="45.67838" lon="3.07397">
        <ele>658.634827</ele>
        <time>2011-07-14T15:34:08Z</time>
      </trkpt>
      <trkpt lat="45.6784" lon="3.0741">
        <ele>658.913635</ele>
        <time>2011-07-14T15:34:10Z</time>
      </trkpt>
      <trkpt lat="45.67841" lon="3.07425">
        <ele>659.144836</ele>
        <time>2011-07-14T15:34:13Z</time>
      </trkpt>
      <trkpt lat="45.67847" lon="3.0744">
        <ele>659.7771</ele>
        <time>2011-07-14T15:34:17Z</time>
      </trkpt>
      <trkpt lat="45.67854" lon="3.07455">
        <ele>660.531128</ele>
        <time>2011-07-14T15:34:20Z</time>
      </trkpt>
      <trkpt lat="45.67858" lon="3.0747">
        <ele>661.191223</ele>
        <time>2011-07-14T15:34:22Z</time>
      </trkpt>
      <trkpt lat="45.67861" lon="3.07485">
        <ele>661.737488</ele>
        <time>2011-07-14T15:34:24Z</time>
      </trkpt>
      <trkpt lat="45.67863" lon="3.07501">
        <ele>661.72998</ele>
        <time>2011-07-14T15:34:26Z</time>
      </trkpt>
      <trkpt lat="45.67865" lon="3.07517">
        <ele>661.72876</ele>
        <time>2011-07-14T15:34:28Z</time>
      </trkpt>
      <trkpt lat="45.67867" lon="3.07534">
        <ele>661.741272</ele>
        <time>2011-07-14T15:34:30Z</time>
      </trkpt>
      <trkpt lat="45.6787" lon="3.07551">
        <ele>661.792358</ele>
        <time>2011-07-14T15:34:32Z</time>
      </trkpt>
      <trkpt lat="45.67873" lon="3.07568">
        <ele>662.024231</ele>
        <time>2011-07-14T15:34:34Z</time>
      </trkpt>
      <trkpt lat="45.67876" lon="3.07586">
        <ele>662.274231</ele>
        <time>2011-07-14T15:34:36Z</time>
      </trkpt>
      <trkpt lat="45.6788" lon="3.07603">
        <ele>662.433594</ele>
        <time>2011-07-14T15:34:38Z</time>
      </trkpt>
      <trkpt lat="45.67883" lon="3.07622">
        <ele>662.604248</ele>
        <time>2011-07-14T15:34:40Z</time>
      </trkpt>
      <trkpt lat="45.67888" lon="3.07641">
        <ele>662.757568</ele>
        <time>2011-07-14T15:34:42Z</time>
      </trkpt>
      <trkpt lat="45.67891" lon="3.07659">
        <ele>662.804749</ele>
        <time>2011-07-14T15:34:44Z</time>
      </trkpt>
      <trkpt lat="45.67894" lon="3.07678">
        <ele>662.744995</ele>
        <time>2011-07-14T15:34:46Z</time>
      </trkpt>
      <trkpt lat="45.67895" lon="3.07697">
        <ele>663.164307</ele>
        <time>2011-07-14T15:34:48Z</time>
      </trkpt>
      <trkpt lat="45.67897" lon="3.07716">
        <ele>663.542542</ele>
        <time>2011-07-14T15:34:50Z</time>
      </trkpt>
      <trkpt lat="45.67898" lon="3.07734">
        <ele>663.911133</ele>
        <time>2011-07-14T15:34:52Z</time>
      </trkpt>
      <trkpt lat="45.67899" lon="3.07753">
        <ele>664.422119</ele>
        <time>2011-07-14T15:34:54Z</time>
      </trkpt>
      <trkpt lat="45.679" lon="3.0777">
        <ele>665.036743</ele>
        <time>2011-07-14T15:34:56Z</time>
      </trkpt>
      <trkpt lat="45.67902" lon="3.07787">
        <ele>665.653809</ele>
        <time>2011-07-14T15:34:58Z</time>
      </trkpt>
      <trkpt lat="45.67905" lon="3.07801">
        <ele>666.222534</ele>
        <time>2011-07-14T15:35:00Z</time>
      </trkpt>
      <trkpt lat="45.67908" lon="3.07816">
        <ele>666.886047</ele>
        <time>2011-07-14T15:35:02Z</time>
      </trkpt>
      <trkpt lat="45.67911" lon="3.07834">
        <ele>667.795166</ele>
        <time>2011-07-14T15:35:05Z</time>
      </trkpt>
      <trkpt lat="45.67911" lon="3.07848">
        <ele>668.385376</ele>
        <time>2011-07-14T15:35:09Z</time>
      </trkpt>
      <trkpt lat="45.67911" lon="3.07852">
        <ele>668.536072</ele>
        <time>2011-07-14T15:37:39Z</time>
      </trkpt>
      <trkpt lat="45.67902" lon="3.07848">
        <ele>668.100586</ele>
        <time>2011-07-14T15:37:48Z</time>
      </trkpt>
      <trkpt lat="45.67895" lon="3.07839">
        <ele>667.66449</ele>
        <time>2011-07-14T15:38:18Z</time>
      </trkpt>
      <trkpt lat="45.67887" lon="3.0783">
        <ele>667.657227</ele>
        <time>2011-07-14T15:38:27Z</time>
      </trkpt>
      <trkpt lat="45.67878" lon="3.07823">
        <ele>667.717712</ele>
        <time>2011-07-14T15:38:36Z</time>
      </trkpt>
      <trkpt lat="45.67869" lon="3.07819">
        <ele>667.958496</ele>
        <time>2011-07-14T15:38:46Z</time>
      </trkpt>
      <trkpt lat="45.67869" lon="3.07832">
        <ele>668.680542</ele>
        <time>2011-07-14T15:38:54Z</time>
      </trkpt>
      <trkpt lat="45.67872" lon="3.07844">
        <ele>669.213928</ele>
        <time>2011-07-14T15:39:01Z</time>
      </trkpt>
      <trkpt lat="45.67874" lon="3.07857">
        <ele>669.761536</ele>
        <time>2011-07-14T15:39:09Z</time>
      </trkpt>
      <trkpt lat="45.67878" lon="3.07869">
        <ele>670.179871</ele>
        <time>2011-07-14T15:39:16Z</time>
      </trkpt>
      <trkpt lat="45.67881" lon="3.07881">
        <ele>671.048279</ele>
        <time>2011-07-14T15:39:23Z</time>
      </trkpt>
      <trkpt lat="45.67884" lon="3.07893">
        <ele>671.855164</ele>
        <time>2011-07-14T15:39:30Z</time>
      </trkpt>
      <trkpt lat="45.67888" lon="3.07905">
        <ele>672.499329</ele>
        <time>2011-07-14T15:39:36Z</time>
      </trkpt>
      <trkpt lat="45.67894" lon="3.07918">
        <ele>672.974365</ele>
        <time>2011-07-14T15:39:40Z</time>
      </trkpt>
      <trkpt lat="45.67898" lon="3.07931">
        <ele>673.690491</ele>
        <time>2011-07-14T15:39:44Z</time>
      </trkpt>
      <trkpt lat="45.67904" lon="3.07943">
        <ele>675.170288</ele>
        <time>2011-07-14T15:39:48Z</time>
      </trkpt>
      <trkpt lat="45.6791" lon="3.07955">
        <ele>676.717163</ele>
        <time>2011-07-14T15:39:54Z</time>
      </trkpt>
      <trkpt lat="45.67916" lon="3.07966">
        <ele>678.06958</ele>
        <time>2011-07-14T15:40:01Z</time>
      </trkpt>
      <trkpt lat="45.67924" lon="3.07976">
        <ele>679.289856</ele>
        <time>2011-07-14T15:40:08Z</time>
      </trkpt>
      <trkpt lat="45.67931" lon="3.07985">
        <ele>680.425781</ele>
        <time>2011-07-14T15:40:15Z</time>
      </trkpt>
      <trkpt lat="45.67938" lon="3.07994">
        <ele>681.371704</ele>
        <time>2011-07-14T15:40:23Z</time>
      </trkpt>
      <trkpt lat="45.67945" lon="3.08003">
        <ele>683.196472</ele>
        <time>2011-07-14T15:40:30Z</time>
      </trkpt>
      <trkpt lat="45.67954" lon="3.08011">
        <ele>685.550476</ele>
        <time>2011-07-14T15:40:37Z</time>
      </trkpt>
      <trkpt lat="45.67962" lon="3.08014">
        <ele>687.155579</ele>
        <time>2011-07-14T15:40:44Z</time>
      </trkpt>
      <trkpt lat="45.67973" lon="3.08013">
        <ele>688.249817</ele>
        <time>2011-07-14T15:40:52Z</time>
      </trkpt>
      <trkpt lat="45.67982" lon="3.08009">
        <ele>688.733704</ele>
        <time>2011-07-14T15:40:59Z</time>
      </trkpt>
      <trkpt lat="45.6799" lon="3.08002">
        <ele>688.748962</ele>
        <time>2011-07-14T15:41:06Z</time>
      </trkpt>
      <trkpt lat="45.67999" lon="3.07998">
        <ele>689.178772</ele>
        <time>2011-07-14T15:41:13Z</time>
      </trkpt>
      <trkpt lat="45.68006" lon="3.08007">
        <ele>691.140991</ele>
        <time>2011-07-14T15:41:21Z</time>
      </trkpt>
      <trkpt lat="45.68009" lon="3.0802">
        <ele>693.000061</ele>
        <time>2011-07-14T15:41:31Z</time>
      </trkpt>
      <trkpt lat="45.68008" lon="3.08033">
        <ele>694.530029</ele>
        <time>2011-07-14T15:41:40Z</time>
      </trkpt>
      <trkpt lat="45.68002" lon="3.08044">
        <ele>695.395691</ele>
        <time>2011-07-14T15:41:47Z</time>
      </trkpt>
      <trkpt lat="45.67994" lon="3.08053">
        <ele>695.996826</ele>
        <time>2011-07-14T15:41:51Z</time>
      </trkpt>
      <trkpt lat="45.67985" lon="3.08063">
        <ele>696.854919</ele>
        <time>2011-07-14T15:41:55Z</time>
      </trkpt>
      <trkpt lat="45.67978" lon="3.08073">
        <ele>697.371338</ele>
        <time>2011-07-14T15:42:00Z</time>
      </trkpt>
      <trkpt lat="45.6797" lon="3.08082">
        <ele>697.668091</ele>
        <time>2011-07-14T15:42:07Z</time>
      </trkpt>
      <trkpt lat="45.67963" lon="3.08091">
        <ele>698.130859</ele>
        <time>2011-07-14T15:42:14Z</time>
      </trkpt>
      <trkpt lat="45.67955" lon="3.08098">
        <ele>698.383301</ele>
        <time>2011-07-14T15:42:21Z</time>
      </trkpt>
      <trkpt lat="45.67947" lon="3.08106">
        <ele>698.835449</ele>
        <time>2011-07-14T15:42:29Z</time>
      </trkpt>
      <trkpt lat="45.67939" lon="3.08114">
        <ele>699.190002</ele>
        <time>2011-07-14T15:42:37Z</time>
      </trkpt>
      <trkpt lat="45.6793" lon="3.08121">
        <ele>699.992493</ele>
        <time>2011-07-14T15:42:45Z</time>
      </trkpt>
      <trkpt lat="45.67923" lon="3.08129">
        <ele>700.698914</ele>
        <time>2011-07-14T15:42:53Z</time>
      </trkpt>
      <trkpt lat="45.67914" lon="3.08137">
        <ele>700.958862</ele>
        <time>2011-07-14T15:43:02Z</time>
      </trkpt>
      <trkpt lat="45.67907" lon="3.08146">
        <ele>701.228149</ele>
        <time>2011-07-14T15:43:11Z</time>
      </trkpt>
      <trkpt lat="45.67901" lon="3.08157">
        <ele>701.610535</ele>
        <time>2011-07-14T15:43:20Z</time>
      </trkpt>
      <trkpt lat="45.67908" lon="3.08166">
        <ele>702.276001</ele>
        <time>2011-07-14T15:43:28Z</time>
      </trkpt>
      <trkpt lat="45.67917" lon="3.0817">
        <ele>702.814148</ele>
        <time>2011-07-14T15:43:36Z</time>
      </trkpt>
      <trkpt lat="45.67926" lon="3.08177">
        <ele>703.553833</ele>
        <time>2011-07-14T15:43:44Z</time>
      </trkpt>
      <trkpt lat="45.67931" lon="3.08188">
        <ele>704.410889</ele>
        <time>2011-07-14T15:43:51Z</time>
      </trkpt>
      <trkpt lat="45.67938" lon="3.082">
        <ele>704.920471</ele>
        <time>2011-07-14T15:43:59Z</time>
      </trkpt>
      <trkpt lat="45.67946" lon="3.08208">
        <ele>705.289978</ele>
        <time>2011-07-14T15:44:07Z</time>
      </trkpt>
      <trkpt lat="45.67956" lon="3.08212">
        <ele>705.724976</ele>
        <time>2011-07-14T15:44:16Z</time>
      </trkpt>
      <trkpt lat="45.67965" lon="3.08213">
        <ele>706.140015</ele>
        <time>2011-07-14T15:44:24Z</time>
      </trkpt>
      <trkpt lat="45.67971" lon="3.08221">
        <ele>706.414978</ele>
        <time>2011-07-14T15:44:32Z</time>
      </trkpt>
      <trkpt lat="45.67974" lon="3.08235">
        <ele>706.544983</ele>
        <time>2011-07-14T15:44:39Z</time>
      </trkpt>
      <trkpt lat="45.67979" lon="3.0825">
        <ele>706.765015</ele>
        <time>2011-07-14T15:44:43Z</time>
      </trkpt>
      <trkpt lat="45.67985" lon="3.08263">
        <ele>706.892517</ele>
        <time>2011-07-14T15:44:47Z</time>
      </trkpt>
      <trkpt lat="45.6799" lon="3.08273">
        <ele>706.799988</ele>
        <time>2011-07-14T15:44:54Z</time>
      </trkpt>
      <trkpt lat="45.67993" lon="3.08286">
        <ele>706.529968</ele>
        <time>2011-07-14T15:45:01Z</time>
      </trkpt>
      <trkpt lat="45.67997" lon="3.08299">
        <ele>706.277527</ele>
        <time>2011-07-14T15:45:09Z</time>
      </trkpt>
      <trkpt lat="45.67999" lon="3.08313">
        <ele>705.9375</ele>
        <time>2011-07-14T15:45:17Z</time>
      </trkpt>
      <trkpt lat="45.67998" lon="3.08326">
        <ele>705.517517</ele>
        <time>2011-07-14T15:45:24Z</time>
      </trkpt>
      <trkpt lat="45.68001" lon="3.0834">
        <ele>705.224976</ele>
        <time>2011-07-14T15:45:31Z</time>
      </trkpt>
      <trkpt lat="45.68003" lon="3.08353">
        <ele>704.880005</ele>
        <time>2011-07-14T15:45:37Z</time>
      </trkpt>
      <trkpt lat="45.68003" lon="3.08366">
        <ele>704.515015</ele>
        <time>2011-07-14T15:45:43Z</time>
      </trkpt>
      <trkpt lat="45.68004" lon="3.08378">
        <ele>704.174988</ele>
        <time>2011-07-14T15:45:49Z</time>
      </trkpt>
      <trkpt lat="45.68004" lon="3.08393">
        <ele>703.695007</ele>
        <time>2011-07-14T15:45:56Z</time>
      </trkpt>
      <trkpt lat="45.68005" lon="3.08409">
        <ele>703.247498</ele>
        <time>2011-07-14T15:46:03Z</time>
      </trkpt>
      <trkpt lat="45.68007" lon="3.08423">
        <ele>702.902527</ele>
        <time>2011-07-14T15:46:09Z</time>
      </trkpt>
      <trkpt lat="45.68009" lon="3.08437">
        <ele>702.587524</ele>
        <time>2011-07-14T15:46:15Z</time>
      </trkpt>
      <trkpt lat="45.68012" lon="3.0845">
        <ele>702.289978</ele>
        <time>2011-07-14T15:46:21Z</time>
      </trkpt>
      <trkpt lat="45.68016" lon="3.08464">
        <ele>702.030029</ele>
        <time>2011-07-14T15:46:28Z</time>
      </trkpt>
      <trkpt lat="45.68019" lon="3.08477">
        <ele>701.757507</ele>
        <time>2011-07-14T15:46:35Z</time>
      </trkpt>
      <trkpt lat="45.68021" lon="3.08491">
        <ele>701.440002</ele>
        <time>2011-07-14T15:46:41Z</time>
      </trkpt>
      <trkpt lat="45.68024" lon="3.08504">
        <ele>701.155029</ele>
        <time>2011-07-14T15:46:47Z</time>
      </trkpt>
      <trkpt lat="45.68027" lon="3.0852">
        <ele>700.731689</ele>
        <time>2011-07-14T15:46:52Z</time>
      </trkpt>
      <trkpt lat="45.68031" lon="3.08537">
        <ele>700.040039</ele>
        <time>2011-07-14T15:46:56Z</time>
      </trkpt>
      <trkpt lat="45.68034" lon="3.08553">
        <ele>699.437805</ele>
        <time>2011-07-14T15:47:00Z</time>
      </trkpt>
      <trkpt lat="45.68037" lon="3.0857">
        <ele>698.814087</ele>
        <time>2011-07-14T15:47:04Z</time>
      </trkpt>
      <trkpt lat="45.6804" lon="3.08584">
        <ele>698.316284</ele>
        <time>2011-07-14T15:47:08Z</time>
      </trkpt>
      <trkpt lat="45.68043" lon="3.08597">
        <ele>697.835022</ele>
        <time>2011-07-14T15:47:15Z</time>
      </trkpt>
      <trkpt lat="45.68045" lon="3.0861">
        <ele>697.347473</ele>
        <time>2011-07-14T15:47:22Z</time>
      </trkpt>
      <trkpt lat="45.68049" lon="3.08624">
        <ele>696.901245</ele>
        <time>2011-07-14T15:47:29Z</time>
      </trkpt>
      <trkpt lat="45.68054" lon="3.08636">
        <ele>696.566223</ele>
        <time>2011-07-14T15:47:36Z</time>
      </trkpt>
      <trkpt lat="45.6806" lon="3.08646">
        <ele>696.307251</ele>
        <time>2011-07-14T15:47:42Z</time>
      </trkpt>
      <trkpt lat="45.68063" lon="3.08658">
        <ele>695.7005</ele>
        <time>2011-07-14T15:47:49Z</time>
      </trkpt>
      <trkpt lat="45.68068" lon="3.08673">
        <ele>695.04834</ele>
        <time>2011-07-14T15:47:57Z</time>
      </trkpt>
      <trkpt lat="45.68075" lon="3.08685">
        <ele>694.520691</ele>
        <time>2011-07-14T15:48:04Z</time>
      </trkpt>
      <trkpt lat="45.68079" lon="3.08698">
        <ele>693.923584</ele>
        <time>2011-07-14T15:48:10Z</time>
      </trkpt>
      <trkpt lat="45.68082" lon="3.08711">
        <ele>693.290955</ele>
        <time>2011-07-14T15:48:16Z</time>
      </trkpt>
      <trkpt lat="45.68085" lon="3.08726">
        <ele>692.551086</ele>
        <time>2011-07-14T15:48:20Z</time>
      </trkpt>
      <trkpt lat="45.68088" lon="3.08743">
        <ele>691.654419</ele>
        <time>2011-07-14T15:48:24Z</time>
      </trkpt>
      <trkpt lat="45.68092" lon="3.08759">
        <ele>690.801758</ele>
        <time>2011-07-14T15:48:30Z</time>
      </trkpt>
      <trkpt lat="45.68095" lon="3.08771">
        <ele>690.04071</ele>
        <time>2011-07-14T15:48:36Z</time>
      </trkpt>
      <trkpt lat="45.68098" lon="3.08785">
        <ele>689.226501</ele>
        <time>2011-07-14T15:48:42Z</time>
      </trkpt>
      <trkpt lat="45.68101" lon="3.08797">
        <ele>688.389404</ele>
        <time>2011-07-14T15:48:48Z</time>
      </trkpt>
      <trkpt lat="45.68104" lon="3.08812">
        <ele>687.334351</ele>
        <time>2011-07-14T15:48:54Z</time>
      </trkpt>
      <trkpt lat="45.68103" lon="3.08825">
        <ele>686.545166</ele>
        <time>2011-07-14T15:48:59Z</time>
      </trkpt>
      <trkpt lat="45.68099" lon="3.08837">
        <ele>686.010986</ele>
        <time>2011-07-14T15:49:03Z</time>
      </trkpt>
      <trkpt lat="45.68094" lon="3.08852">
        <ele>685.985107</ele>
        <time>2011-07-14T15:49:07Z</time>
      </trkpt>
      <trkpt lat="45.68089" lon="3.08864">
        <ele>686.140808</ele>
        <time>2011-07-14T15:49:11Z</time>
      </trkpt>
      <trkpt lat="45.68086" lon="3.08879">
        <ele>686.186584</ele>
        <time>2011-07-14T15:49:15Z</time>
      </trkpt>
      <trkpt lat="45.68084" lon="3.08896">
        <ele>686.1474</ele>
        <time>2011-07-14T15:49:19Z</time>
      </trkpt>
      <trkpt lat="45.68083" lon="3.08912">
        <ele>686.405029</ele>
        <time>2011-07-14T15:49:22Z</time>
      </trkpt>
      <trkpt lat="45.68083" lon="3.08929">
        <ele>686.69751</ele>
        <time>2011-07-14T15:49:25Z</time>
      </trkpt>
      <trkpt lat="45.68083" lon="3.08945">
        <ele>686.828735</ele>
        <time>2011-07-14T15:49:28Z</time>
      </trkpt>
      <trkpt lat="45.68085" lon="3.0896">
        <ele>686.778748</ele>
        <time>2011-07-14T15:49:31Z</time>
      </trkpt>
      <trkpt lat="45.68087" lon="3.08978">
        <ele>686.490356</ele>
        <time>2011-07-14T15:49:34Z</time>
      </trkpt>
      <trkpt lat="45.68089" lon="3.08994">
        <ele>685.884888</ele>
        <time>2011-07-14T15:49:36Z</time>
      </trkpt>
      <trkpt lat="45.68093" lon="3.0901">
        <ele>685.058105</ele>
        <time>2011-07-14T15:49:38Z</time>
      </trkpt>
      <trkpt lat="45.68096" lon="3.09028">
        <ele>684.119995</ele>
        <time>2011-07-14T15:49:40Z</time>
      </trkpt>
      <trkpt lat="45.68099" lon="3.09046">
        <ele>682.679871</ele>
        <time>2011-07-14T15:49:42Z</time>
      </trkpt>
      <trkpt lat="45.68101" lon="3.09065">
        <ele>681.369629</ele>
        <time>2011-07-14T15:49:44Z</time>
      </trkpt>
      <trkpt lat="45.68102" lon="3.09083">
        <ele>680.227417</ele>
        <time>2011-07-14T15:49:46Z</time>
      </trkpt>
      <trkpt lat="45.68104" lon="3.09101">
        <ele>679.003113</ele>
        <time>2011-07-14T15:49:48Z</time>
      </trkpt>
      <trkpt lat="45.68107" lon="3.09118">
        <ele>677.535583</ele>
        <time>2011-07-14T15:49:50Z</time>
      </trkpt>
      <trkpt lat="45.68111" lon="3.09136">
        <ele>675.704712</ele>
        <time>2011-07-14T15:49:52Z</time>
      </trkpt>
      <trkpt lat="45.68114" lon="3.09155">
        <ele>673.637024</ele>
        <time>2011-07-14T15:49:54Z</time>
      </trkpt>
      <trkpt lat="45.68116" lon="3.09172">
        <ele>670.962524</ele>
        <time>2011-07-14T15:49:56Z</time>
      </trkpt>
      <trkpt lat="45.68117" lon="3.09189">
        <ele>668.637512</ele>
        <time>2011-07-14T15:49:58Z</time>
      </trkpt>
      <trkpt lat="45.68118" lon="3.09205">
        <ele>666.380005</ele>
        <time>2011-07-14T15:50:00Z</time>
      </trkpt>
      <trkpt lat="45.68118" lon="3.09221">
        <ele>665.037476</ele>
        <time>2011-07-14T15:50:02Z</time>
      </trkpt>
      <trkpt lat="45.68118" lon="3.09236">
        <ele>664.368103</ele>
        <time>2011-07-14T15:50:04Z</time>
      </trkpt>
      <trkpt lat="45.68117" lon="3.09253">
        <ele>663.730286</ele>
        <time>2011-07-14T15:50:06Z</time>
      </trkpt>
      <trkpt lat="45.68116" lon="3.09269">
        <ele>663.320007</ele>
        <time>2011-07-14T15:50:08Z</time>
      </trkpt>
      <trkpt lat="45.68114" lon="3.09286">
        <ele>663.047974</ele>
        <time>2011-07-14T15:50:10Z</time>
      </trkpt>
      <trkpt lat="45.68113" lon="3.09299">
        <ele>663.308716</ele>
        <time>2011-07-14T15:50:12Z</time>
      </trkpt>
      <trkpt lat="45.68112" lon="3.09317">
        <ele>663.600098</ele>
        <time>2011-07-14T15:50:15Z</time>
      </trkpt>
      <trkpt lat="45.68111" lon="3.0933">
        <ele>663.481079</ele>
        <time>2011-07-14T15:50:18Z</time>
      </trkpt>
      <trkpt lat="45.6811" lon="3.09345">
        <ele>663.5802</ele>
        <time>2011-07-14T15:50:24Z</time>
      </trkpt>
      <trkpt lat="45.6811" lon="3.09359">
        <ele>663.40979</ele>
        <time>2011-07-14T15:50:30Z</time>
      </trkpt>
      <trkpt lat="45.6811" lon="3.09372">
        <ele>663.165649</ele>
        <time>2011-07-14T15:50:34Z</time>
      </trkpt>
      <trkpt lat="45.6811" lon="3.09389">
        <ele>662.996704</ele>
        <time>2011-07-14T15:50:38Z</time>
      </trkpt>
      <trkpt lat="45.68109" lon="3.09403">
        <ele>662.88562</ele>
        <time>2011-07-14T15:50:41Z</time>
      </trkpt>
      <trkpt lat="45.68108" lon="3.09417">
        <ele>663.37439</ele>
        <time>2011-07-14T15:50:46Z</time>
      </trkpt>
      <trkpt lat="45.68108" lon="3.09431">
        <ele>664.474365</ele>
        <time>2011-07-14T15:50:52Z</time>
      </trkpt>
      <trkpt lat="45.68106" lon="3.09449">
        <ele>666.623474</ele>
        <time>2011-07-14T15:50:57Z</time>
      </trkpt>
      <trkpt lat="45.68105" lon="3.09464">
        <ele>667.996033</ele>
        <time>2011-07-14T15:50:59Z</time>
      </trkpt>
      <trkpt lat="45.68104" lon="3.09482">
        <ele>669.31543</ele>
        <time>2011-07-14T15:51:01Z</time>
      </trkpt>
      <trkpt lat="45.68105" lon="3.095">
        <ele>670.331604</ele>
        <time>2011-07-14T15:51:03Z</time>
      </trkpt>
      <trkpt lat="45.68105" lon="3.09518">
        <ele>671.408813</ele>
        <time>2011-07-14T15:51:05Z</time>
      </trkpt>
      <trkpt lat="45.68105" lon="3.09535">
        <ele>672.599731</ele>
        <time>2011-07-14T15:51:07Z</time>
      </trkpt>
      <trkpt lat="45.68103" lon="3.09552">
        <ele>673.43689</ele>
        <time>2011-07-14T15:51:09Z</time>
      </trkpt>
      <trkpt lat="45.681" lon="3.09568">
        <ele>673.996887</ele>
        <time>2011-07-14T15:51:11Z</time>
      </trkpt>
      <trkpt lat="45.68096" lon="3.09585">
        <ele>674.583069</ele>
        <time>2011-07-14T15:51:13Z</time>
      </trkpt>
      <trkpt lat="45.68092" lon="3.09601">
        <ele>675.130981</ele>
        <time>2011-07-14T15:51:15Z</time>
      </trkpt>
      <trkpt lat="45.6809" lon="3.09616">
        <ele>675.471985</ele>
        <time>2011-07-14T15:51:17Z</time>
      </trkpt>
      <trkpt lat="45.68086" lon="3.09633">
        <ele>675.958496</ele>
        <time>2011-07-14T15:51:20Z</time>
      </trkpt>
      <trkpt lat="45.68085" lon="3.09647">
        <ele>675.987244</ele>
        <time>2011-07-14T15:51:23Z</time>
      </trkpt>
      <trkpt lat="45.68084" lon="3.09661">
        <ele>675.880798</ele>
        <time>2011-07-14T15:51:26Z</time>
      </trkpt>
      <trkpt lat="45.68082" lon="3.09677">
        <ele>675.911255</ele>
        <time>2011-07-14T15:51:29Z</time>
      </trkpt>
      <trkpt lat="45.6808" lon="3.0969">
        <ele>675.918762</ele>
        <time>2011-07-14T15:51:31Z</time>
      </trkpt>
      <trkpt lat="45.68078" lon="3.09705">
        <ele>675.887512</ele>
        <time>2011-07-14T15:51:33Z</time>
      </trkpt>
      <trkpt lat="45.68077" lon="3.09722">
        <ele>675.752502</ele>
        <time>2011-07-14T15:51:35Z</time>
      </trkpt>
      <trkpt lat="45.68077" lon="3.0974">
        <ele>675.429993</ele>
        <time>2011-07-14T15:51:37Z</time>
      </trkpt>
      <trkpt lat="45.68076" lon="3.09756">
        <ele>674.91748</ele>
        <time>2011-07-14T15:51:39Z</time>
      </trkpt>
      <trkpt lat="45.68076" lon="3.09773">
        <ele>674.414978</ele>
        <time>2011-07-14T15:51:41Z</time>
      </trkpt>
      <trkpt lat="45.68076" lon="3.09789">
        <ele>673.862488</ele>
        <time>2011-07-14T15:51:43Z</time>
      </trkpt>
      <trkpt lat="45.68075" lon="3.09805">
        <ele>673.328125</ele>
        <time>2011-07-14T15:51:45Z</time>
      </trkpt>
      <trkpt lat="45.68073" lon="3.09821">
        <ele>672.74884</ele>
        <time>2011-07-14T15:51:47Z</time>
      </trkpt>
      <trkpt lat="45.68072" lon="3.09835">
        <ele>672.197815</ele>
        <time>2011-07-14T15:51:49Z</time>
      </trkpt>
      <trkpt lat="45.68071" lon="3.0985">
        <ele>671.612671</ele>
        <time>2011-07-14T15:51:51Z</time>
      </trkpt>
      <trkpt lat="45.68068" lon="3.0987">
        <ele>671.001038</ele>
        <time>2011-07-14T15:51:54Z</time>
      </trkpt>
      <trkpt lat="45.68065" lon="3.09888">
        <ele>670.50061</ele>
        <time>2011-07-14T15:51:57Z</time>
      </trkpt>
      <trkpt lat="45.68064" lon="3.09906">
        <ele>669.785461</ele>
        <time>2011-07-14T15:52:00Z</time>
      </trkpt>
      <trkpt lat="45.68063" lon="3.09924">
        <ele>669.112305</ele>
        <time>2011-07-14T15:52:03Z</time>
      </trkpt>
      <trkpt lat="45.68059" lon="3.09947">
        <ele>668.125854</ele>
        <time>2011-07-14T15:52:06Z</time>
      </trkpt>
      <trkpt lat="45.68058" lon="3.09963">
        <ele>667.460999</ele>
        <time>2011-07-14T15:52:08Z</time>
      </trkpt>
      <trkpt lat="45.6806" lon="3.09981">
        <ele>666.582458</ele>
        <time>2011-07-14T15:52:10Z</time>
      </trkpt>
      <trkpt lat="45.68064" lon="3.1">
        <ele>665.34967</ele>
        <time>2011-07-14T15:52:12Z</time>
      </trkpt>
      <trkpt lat="45.68066" lon="3.10018">
        <ele>663.934753</ele>
        <time>2011-07-14T15:52:14Z</time>
      </trkpt>
      <trkpt lat="45.68068" lon="3.10035">
        <ele>662.745239</ele>
        <time>2011-07-14T15:52:16Z</time>
      </trkpt>
      <trkpt lat="45.68069" lon="3.10051">
        <ele>661.670898</ele>
        <time>2011-07-14T15:52:18Z</time>
      </trkpt>
      <trkpt lat="45.68069" lon="3.10067">
        <ele>661.319092</ele>
        <time>2011-07-14T15:52:20Z</time>
      </trkpt>
      <trkpt lat="45.6807" lon="3.10083">
        <ele>661.01593</ele>
        <time>2011-07-14T15:52:22Z</time>
      </trkpt>
      <trkpt lat="45.68071" lon="3.101">
        <ele>660.673279</ele>
        <time>2011-07-14T15:52:24Z</time>
      </trkpt>
      <trkpt lat="45.68071" lon="3.10115">
        <ele>660.757813</ele>
        <time>2011-07-14T15:52:26Z</time>
      </trkpt>
      <trkpt lat="45.68069" lon="3.10132">
        <ele>661.580627</ele>
        <time>2011-07-14T15:52:29Z</time>
      </trkpt>
      <trkpt lat="45.68069" lon="3.10148">
        <ele>662.292542</ele>
        <time>2011-07-14T15:52:32Z</time>
      </trkpt>
      <trkpt lat="45.68069" lon="3.10165">
        <ele>662.988281</ele>
        <time>2011-07-14T15:52:35Z</time>
      </trkpt>
      <trkpt lat="45.6807" lon="3.1018">
        <ele>663.350952</ele>
        <time>2011-07-14T15:52:37Z</time>
      </trkpt>
      <trkpt lat="45.68071" lon="3.10195">
        <ele>663.837463</ele>
        <time>2011-07-14T15:52:39Z</time>
      </trkpt>
      <trkpt lat="45.68073" lon="3.1021">
        <ele>664.150879</ele>
        <time>2011-07-14T15:52:41Z</time>
      </trkpt>
      <trkpt lat="45.68075" lon="3.10226">
        <ele>664.377625</ele>
        <time>2011-07-14T15:52:43Z</time>
      </trkpt>
      <trkpt lat="45.68077" lon="3.10243">
        <ele>664.522461</ele>
        <time>2011-07-14T15:52:45Z</time>
      </trkpt>
      <trkpt lat="45.68079" lon="3.10261">
        <ele>664.055176</ele>
        <time>2011-07-14T15:52:47Z</time>
      </trkpt>
      <trkpt lat="45.68083" lon="3.10278">
        <ele>662.818176</ele>
        <time>2011-07-14T15:52:49Z</time>
      </trkpt>
      <trkpt lat="45.68087" lon="3.10295">
        <ele>661.980164</ele>
        <time>2011-07-14T15:52:51Z</time>
      </trkpt>
      <trkpt lat="45.68092" lon="3.10313">
        <ele>660.938477</ele>
        <time>2011-07-14T15:52:53Z</time>
      </trkpt>
      <trkpt lat="45.68096" lon="3.1033">
        <ele>660.278625</ele>
        <time>2011-07-14T15:52:55Z</time>
      </trkpt>
      <trkpt lat="45.68099" lon="3.10347">
        <ele>660.081482</ele>
        <time>2011-07-14T15:52:57Z</time>
      </trkpt>
      <trkpt lat="45.68101" lon="3.10363">
        <ele>660.161011</ele>
        <time>2011-07-14T15:52:59Z</time>
      </trkpt>
      <trkpt lat="45.68103" lon="3.10383">
        <ele>660.23999</ele>
        <time>2011-07-14T15:53:02Z</time>
      </trkpt>
      <trkpt lat="45.68105" lon="3.10402">
        <ele>659.786865</ele>
        <time>2011-07-14T15:53:08Z</time>
      </trkpt>
      <trkpt lat="45.68107" lon="3.10419">
        <ele>659.282715</ele>
        <time>2011-07-14T15:53:15Z</time>
      </trkpt>
      <trkpt lat="45.68109" lon="3.10436">
        <ele>658.523438</ele>
        <time>2011-07-14T15:53:19Z</time>
      </trkpt>
      <trkpt lat="45.68113" lon="3.10453">
        <ele>657.817993</ele>
        <time>2011-07-14T15:53:21Z</time>
      </trkpt>
      <trkpt lat="45.68117" lon="3.10471">
        <ele>657.371826</ele>
        <time>2011-07-14T15:53:23Z</time>
      </trkpt>
      <trkpt lat="45.6812" lon="3.10491">
        <ele>657.053406</ele>
        <time>2011-07-14T15:53:25Z</time>
      </trkpt>
      <trkpt lat="45.68124" lon="3.1051">
        <ele>656.799377</ele>
        <time>2011-07-14T15:53:27Z</time>
      </trkpt>
      <trkpt lat="45.68126" lon="3.10527">
        <ele>656.700012</ele>
        <time>2011-07-14T15:53:29Z</time>
      </trkpt>
      <trkpt lat="45.68128" lon="3.10545">
        <ele>656.777466</ele>
        <time>2011-07-14T15:53:31Z</time>
      </trkpt>
      <trkpt lat="45.6813" lon="3.10561">
        <ele>656.904358</ele>
        <time>2011-07-14T15:53:33Z</time>
      </trkpt>
      <trkpt lat="45.68131" lon="3.10578">
        <ele>656.966187</ele>
        <time>2011-07-14T15:53:35Z</time>
      </trkpt>
      <trkpt lat="45.68133" lon="3.10595">
        <ele>656.817627</ele>
        <time>2011-07-14T15:53:37Z</time>
      </trkpt>
      <trkpt lat="45.68136" lon="3.10616">
        <ele>656.461853</ele>
        <time>2011-07-14T15:53:40Z</time>
      </trkpt>
      <trkpt lat="45.68139" lon="3.10631">
        <ele>656.326172</ele>
        <time>2011-07-14T15:53:43Z</time>
      </trkpt>
      <trkpt lat="45.68142" lon="3.10647">
        <ele>655.90271</ele>
        <time>2011-07-14T15:53:48Z</time>
      </trkpt>
      <trkpt lat="45.68145" lon="3.10663">
        <ele>655.318787</ele>
        <time>2011-07-14T15:53:54Z</time>
      </trkpt>
      <trkpt lat="45.6815" lon="3.10679">
        <ele>654.355042</ele>
        <time>2011-07-14T15:54:00Z</time>
      </trkpt>
      <trkpt lat="45.68153" lon="3.10696">
        <ele>653.33551</ele>
        <time>2011-07-14T15:54:05Z</time>
      </trkpt>
      <trkpt lat="45.68156" lon="3.1071">
        <ele>652.925415</ele>
        <time>2011-07-14T15:54:07Z</time>
      </trkpt>
      <trkpt lat="45.68159" lon="3.10727">
        <ele>652.405273</ele>
        <time>2011-07-14T15:54:09Z</time>
      </trkpt>
      <trkpt lat="45.68162" lon="3.10745">
        <ele>652.099243</ele>
        <time>2011-07-14T15:54:11Z</time>
      </trkpt>
      <trkpt lat="45.68167" lon="3.10762">
        <ele>651.63269</ele>
        <time>2011-07-14T15:54:13Z</time>
      </trkpt>
      <trkpt lat="45.68172" lon="3.10777">
        <ele>651.026001</ele>
        <time>2011-07-14T15:54:15Z</time>
      </trkpt>
      <trkpt lat="45.68176" lon="3.10794">
        <ele>650.89032</ele>
        <time>2011-07-14T15:54:17Z</time>
      </trkpt>
      <trkpt lat="45.68178" lon="3.1081">
        <ele>651.087646</ele>
        <time>2011-07-14T15:54:19Z</time>
      </trkpt>
      <trkpt lat="45.68179" lon="3.10825">
        <ele>651.346008</ele>
        <time>2011-07-14T15:54:21Z</time>
      </trkpt>
      <trkpt lat="45.68183" lon="3.10841">
        <ele>651.42688</ele>
        <time>2011-07-14T15:54:23Z</time>
      </trkpt>
      <trkpt lat="45.68188" lon="3.10856">
        <ele>651.403625</ele>
        <time>2011-07-14T15:54:25Z</time>
      </trkpt>
      <trkpt lat="45.68191" lon="3.10873">
        <ele>651.869995</ele>
        <time>2011-07-14T15:54:27Z</time>
      </trkpt>
      <trkpt lat="45.68195" lon="3.10887">
        <ele>651.688904</ele>
        <time>2011-07-14T15:54:29Z</time>
      </trkpt>
      <trkpt lat="45.68201" lon="3.10903">
        <ele>651.031372</ele>
        <time>2011-07-14T15:54:32Z</time>
      </trkpt>
      <trkpt lat="45.68208" lon="3.1092">
        <ele>650.35199</ele>
        <time>2011-07-14T15:54:35Z</time>
      </trkpt>
      <trkpt lat="45.68216" lon="3.10938">
        <ele>649.580627</ele>
        <time>2011-07-14T15:54:38Z</time>
      </trkpt>
      <trkpt lat="45.68224" lon="3.10952">
        <ele>649.056152</ele>
        <time>2011-07-14T15:54:40Z</time>
      </trkpt>
      <trkpt lat="45.6823" lon="3.10967">
        <ele>649.234375</ele>
        <time>2011-07-14T15:54:42Z</time>
      </trkpt>
      <trkpt lat="45.68236" lon="3.10982">
        <ele>649.640015</ele>
        <time>2011-07-14T15:54:44Z</time>
      </trkpt>
      <trkpt lat="45.68243" lon="3.10997">
        <ele>649.460083</ele>
        <time>2011-07-14T15:54:46Z</time>
      </trkpt>
      <trkpt lat="45.68251" lon="3.1101">
        <ele>649.079773</ele>
        <time>2011-07-14T15:54:48Z</time>
      </trkpt>
      <trkpt lat="45.68258" lon="3.11025">
        <ele>648.822205</ele>
        <time>2011-07-14T15:54:50Z</time>
      </trkpt>
      <trkpt lat="45.68266" lon="3.1104">
        <ele>648.723633</ele>
        <time>2011-07-14T15:54:52Z</time>
      </trkpt>
      <trkpt lat="45.68274" lon="3.11055">
        <ele>648.757813</ele>
        <time>2011-07-14T15:54:54Z</time>
      </trkpt>
      <trkpt lat="45.68283" lon="3.11066">
        <ele>648.25</ele>
        <time>2011-07-14T15:54:56Z</time>
      </trkpt>
      <trkpt lat="45.68291" lon="3.11077">
        <ele>647.051208</ele>
        <time>2011-07-14T15:54:58Z</time>
      </trkpt>
      <trkpt lat="45.68298" lon="3.11088">
        <ele>645.937988</ele>
        <time>2011-07-14T15:55:00Z</time>
      </trkpt>
      <trkpt lat="45.68305" lon="3.11098">
        <ele>644.554016</ele>
        <time>2011-07-14T15:55:02Z</time>
      </trkpt>
      <trkpt lat="45.68312" lon="3.11111">
        <ele>643.458557</ele>
        <time>2011-07-14T15:55:05Z</time>
      </trkpt>
      <trkpt lat="45.68317" lon="3.11126">
        <ele>643.287292</ele>
        <time>2011-07-14T15:55:08Z</time>
      </trkpt>
      <trkpt lat="45.68323" lon="3.1114">
        <ele>643.305664</ele>
        <time>2011-07-14T15:55:10Z</time>
      </trkpt>
      <trkpt lat="45.68328" lon="3.11155">
        <ele>642.971924</ele>
        <time>2011-07-14T15:55:12Z</time>
      </trkpt>
      <trkpt lat="45.68332" lon="3.1117">
        <ele>642.40271</ele>
        <time>2011-07-14T15:55:14Z</time>
      </trkpt>
      <trkpt lat="45.68338" lon="3.11186">
        <ele>641.525391</ele>
        <time>2011-07-14T15:55:16Z</time>
      </trkpt>
      <trkpt lat="45.68343" lon="3.11202">
        <ele>640.724915</ele>
        <time>2011-07-14T15:55:18Z</time>
      </trkpt>
      <trkpt lat="45.68346" lon="3.11219">
        <ele>640.653687</ele>
        <time>2011-07-14T15:55:20Z</time>
      </trkpt>
      <trkpt lat="45.68348" lon="3.11236">
        <ele>640.641052</ele>
        <time>2011-07-14T15:55:22Z</time>
      </trkpt>
      <trkpt lat="45.6835" lon="3.11255">
        <ele>640.774475</ele>
        <time>2011-07-14T15:55:24Z</time>
      </trkpt>
      <trkpt lat="45.68353" lon="3.11272">
        <ele>640.930786</ele>
        <time>2011-07-14T15:55:26Z</time>
      </trkpt>
      <trkpt lat="45.68353" lon="3.11287">
        <ele>641.285095</ele>
        <time>2011-07-14T15:55:28Z</time>
      </trkpt>
      <trkpt lat="45.68354" lon="3.11304">
        <ele>641.51062</ele>
        <time>2011-07-14T15:55:31Z</time>
      </trkpt>
      <trkpt lat="45.68356" lon="3.11321">
        <ele>641.479004</ele>
        <time>2011-07-14T15:55:35Z</time>
      </trkpt>
      <trkpt lat="45.68358" lon="3.11337">
        <ele>641.509216</ele>
        <time>2011-07-14T15:55:39Z</time>
      </trkpt>
      <trkpt lat="45.68362" lon="3.11352">
        <ele>641.395325</ele>
        <time>2011-07-14T15:55:43Z</time>
      </trkpt>
      <trkpt lat="45.68366" lon="3.1137">
        <ele>641.525696</ele>
        <time>2011-07-14T15:55:48Z</time>
      </trkpt>
      <trkpt lat="45.68369" lon="3.11388">
        <ele>641.6026</ele>
        <time>2011-07-14T15:55:52Z</time>
      </trkpt>
      <trkpt lat="45.68371" lon="3.11405">
        <ele>641.655823</ele>
        <time>2011-07-14T15:55:55Z</time>
      </trkpt>
      <trkpt lat="45.68376" lon="3.11422">
        <ele>641.251953</ele>
        <time>2011-07-14T15:55:58Z</time>
      </trkpt>
      <trkpt lat="45.68381" lon="3.11442">
        <ele>641.012756</ele>
        <time>2011-07-14T15:56:01Z</time>
      </trkpt>
      <trkpt lat="45.68384" lon="3.11458">
        <ele>641.084167</ele>
        <time>2011-07-14T15:56:03Z</time>
      </trkpt>
      <trkpt lat="45.68386" lon="3.11474">
        <ele>641.705933</ele>
        <time>2011-07-14T15:56:05Z</time>
      </trkpt>
      <trkpt lat="45.68389" lon="3.1149">
        <ele>642.074951</ele>
        <time>2011-07-14T15:56:07Z</time>
      </trkpt>
      <trkpt lat="45.68395" lon="3.11506">
        <ele>641.990051</ele>
        <time>2011-07-14T15:56:09Z</time>
      </trkpt>
      <trkpt lat="45.68401" lon="3.1152">
        <ele>642.012939</ele>
        <time>2011-07-14T15:56:11Z</time>
      </trkpt>
      <trkpt lat="45.68408" lon="3.11535">
        <ele>642.477783</ele>
        <time>2011-07-14T15:56:13Z</time>
      </trkpt>
      <trkpt lat="45.68415" lon="3.11552">
        <ele>641.466003</ele>
        <time>2011-07-14T15:56:15Z</time>
      </trkpt>
      <trkpt lat="45.68422" lon="3.11572">
        <ele>640.376221</ele>
        <time>2011-07-14T15:56:17Z</time>
      </trkpt>
      <trkpt lat="45.68428" lon="3.11594">
        <ele>640.384766</ele>
        <time>2011-07-14T15:56:19Z</time>
      </trkpt>
      <trkpt lat="45.68434" lon="3.11615">
        <ele>640.511658</ele>
        <time>2011-07-14T15:56:21Z</time>
      </trkpt>
      <trkpt lat="45.68439" lon="3.11636">
        <ele>641.042542</ele>
        <time>2011-07-14T15:56:23Z</time>
      </trkpt>
      <trkpt lat="45.68443" lon="3.11656">
        <ele>641.746521</ele>
        <time>2011-07-14T15:56:25Z</time>
      </trkpt>
      <trkpt lat="45.68448" lon="3.11675">
        <ele>641.632019</ele>
        <time>2011-07-14T15:56:27Z</time>
      </trkpt>
      <trkpt lat="45.68455" lon="3.11693">
        <ele>641.006165</ele>
        <time>2011-07-14T15:56:29Z</time>
      </trkpt>
      <trkpt lat="45.68461" lon="3.11712">
        <ele>639.103088</ele>
        <time>2011-07-14T15:56:31Z</time>
      </trkpt>
      <trkpt lat="45.68467" lon="3.11732">
        <ele>637.449951</ele>
        <time>2011-07-14T15:56:33Z</time>
      </trkpt>
      <trkpt lat="45.68473" lon="3.11751">
        <ele>635.994751</ele>
        <time>2011-07-14T15:56:35Z</time>
      </trkpt>
      <trkpt lat="45.68478" lon="3.1177">
        <ele>635.228394</ele>
        <time>2011-07-14T15:56:37Z</time>
      </trkpt>
      <trkpt lat="45.68484" lon="3.11786">
        <ele>634.963074</ele>
        <time>2011-07-14T15:56:39Z</time>
      </trkpt>
      <trkpt lat="45.68488" lon="3.118">
        <ele>634.741272</ele>
        <time>2011-07-14T15:56:41Z</time>
      </trkpt>
      <trkpt lat="45.68491" lon="3.11812">
        <ele>634.384277</ele>
        <time>2011-07-14T15:56:43Z</time>
      </trkpt>
      <trkpt lat="45.68494" lon="3.11828">
        <ele>634.300415</ele>
        <time>2011-07-14T15:56:46Z</time>
      </trkpt>
      <trkpt lat="45.68498" lon="3.11845">
        <ele>634.520996</ele>
        <time>2011-07-14T15:56:49Z</time>
      </trkpt>
      <trkpt lat="45.68501" lon="3.11861">
        <ele>634.214172</ele>
        <time>2011-07-14T15:56:51Z</time>
      </trkpt>
      <trkpt lat="45.68503" lon="3.11878">
        <ele>632.652161</ele>
        <time>2011-07-14T15:56:53Z</time>
      </trkpt>
      <trkpt lat="45.68506" lon="3.11895">
        <ele>631.287659</ele>
        <time>2011-07-14T15:56:55Z</time>
      </trkpt>
      <trkpt lat="45.68508" lon="3.11912">
        <ele>629.808472</ele>
        <time>2011-07-14T15:56:57Z</time>
      </trkpt>
      <trkpt lat="45.6851" lon="3.11929">
        <ele>628.339355</ele>
        <time>2011-07-14T15:56:59Z</time>
      </trkpt>
      <trkpt lat="45.68511" lon="3.11946">
        <ele>626.750244</ele>
        <time>2011-07-14T15:57:01Z</time>
      </trkpt>
      <trkpt lat="45.68513" lon="3.1196">
        <ele>625.264648</ele>
        <time>2011-07-14T15:57:03Z</time>
      </trkpt>
      <trkpt lat="45.68515" lon="3.11972">
        <ele>623.670471</ele>
        <time>2011-07-14T15:57:07Z</time>
      </trkpt>
      <trkpt lat="45.68519" lon="3.11984">
        <ele>621.638489</ele>
        <time>2011-07-14T15:57:14Z</time>
      </trkpt>
      <trkpt lat="45.68524" lon="3.11993">
        <ele>620.02002</ele>
        <time>2011-07-14T15:58:18Z</time>
      </trkpt>
      <trkpt lat="45.68526" lon="3.12">
        <ele>619.460022</ele>
        <time>2011-07-14T15:59:47Z</time>
      </trkpt>
      <trkpt lat="45.68527" lon="3.12013">
        <ele>618.86499</ele>
        <time>2011-07-14T16:00:04Z</time>
      </trkpt>
      <trkpt lat="45.68529" lon="3.12027">
        <ele>618.27002</ele>
        <time>2011-07-14T16:00:12Z</time>
      </trkpt>
      <trkpt lat="45.68529" lon="3.12041">
        <ele>618.445007</ele>
        <time>2011-07-14T16:00:26Z</time>
      </trkpt>
      <trkpt lat="45.68527" lon="3.12054">
        <ele>618.765015</ele>
        <time>2011-07-14T16:00:33Z</time>
      </trkpt>
      <trkpt lat="45.6853" lon="3.12068">
        <ele>617.44751</ele>
        <time>2011-07-14T16:00:40Z</time>
      </trkpt>
      <trkpt lat="45.68533" lon="3.1208">
        <ele>616.032532</ele>
        <time>2011-07-14T16:00:46Z</time>
      </trkpt>
      <trkpt lat="45.68536" lon="3.12092">
        <ele>614.817505</ele>
        <time>2011-07-14T16:00:53Z</time>
      </trkpt>
      <trkpt lat="45.68539" lon="3.12105">
        <ele>613.465027</ele>
        <time>2011-07-14T16:01:00Z</time>
      </trkpt>
      <trkpt lat="45.6854" lon="3.12118">
        <ele>612.37616</ele>
        <time>2011-07-14T16:01:07Z</time>
      </trkpt>
      <trkpt lat="45.68542" lon="3.12131">
        <ele>610.103699</ele>
        <time>2011-07-14T16:01:14Z</time>
      </trkpt>
      <trkpt lat="45.68545" lon="3.12144">
        <ele>607.484741</ele>
        <time>2011-07-14T16:01:22Z</time>
      </trkpt>
      <trkpt lat="45.68546" lon="3.12158">
        <ele>605.414856</ele>
        <time>2011-07-14T16:01:30Z</time>
      </trkpt>
      <trkpt lat="45.68544" lon="3.12172">
        <ele>604.231323</ele>
        <time>2011-07-14T16:01:39Z</time>
      </trkpt>
      <trkpt lat="45.68544" lon="3.12186">
        <ele>602.649292</ele>
        <time>2011-07-14T16:01:47Z</time>
      </trkpt>
      <trkpt lat="45.68542" lon="3.122">
        <ele>601.251526</ele>
        <time>2011-07-14T16:01:54Z</time>
      </trkpt>
      <trkpt lat="45.6854" lon="3.12213">
        <ele>600.277527</ele>
        <time>2011-07-14T16:02:00Z</time>
      </trkpt>
      <trkpt lat="45.68538" lon="3.12227">
        <ele>599.32251</ele>
        <time>2011-07-14T16:02:06Z</time>
      </trkpt>
      <trkpt lat="45.68537" lon="3.1224">
        <ele>598.289978</ele>
        <time>2011-07-14T16:02:12Z</time>
      </trkpt>
      <trkpt lat="45.68535" lon="3.12255">
        <ele>597.419739</ele>
        <time>2011-07-14T16:02:18Z</time>
      </trkpt>
      <trkpt lat="45.68534" lon="3.12269">
        <ele>596.174316</ele>
        <time>2011-07-14T16:02:24Z</time>
      </trkpt>
      <trkpt lat="45.68533" lon="3.12283">
        <ele>595.092041</ele>
        <time>2011-07-14T16:02:30Z</time>
      </trkpt>
      <trkpt lat="45.68534" lon="3.12296">
        <ele>593.155762</ele>
        <time>2011-07-14T16:02:36Z</time>
      </trkpt>
      <trkpt lat="45.68536" lon="3.12309">
        <ele>591.343994</ele>
        <time>2011-07-14T16:02:44Z</time>
      </trkpt>
      <trkpt lat="45.68538" lon="3.12324">
        <ele>589.982178</ele>
        <time>2011-07-14T16:02:53Z</time>
      </trkpt>
      <trkpt lat="45.68538" lon="3.12338">
        <ele>589.18988</ele>
        <time>2011-07-14T16:03:03Z</time>
      </trkpt>
      <trkpt lat="45.68539" lon="3.12352">
        <ele>588.367249</ele>
        <time>2011-07-14T16:03:10Z</time>
      </trkpt>
      <trkpt lat="45.68538" lon="3.12365">
        <ele>587.857239</ele>
        <time>2011-07-14T16:03:21Z</time>
      </trkpt>
      <trkpt lat="45.6854" lon="3.12379">
        <ele>587.1521</ele>
        <time>2011-07-14T16:03:28Z</time>
      </trkpt>
      <trkpt lat="45.68543" lon="3.12391">
        <ele>586.564758</ele>
        <time>2011-07-14T16:03:35Z</time>
      </trkpt>
      <trkpt lat="45.68546" lon="3.12404">
        <ele>586.000366</ele>
        <time>2011-07-14T16:03:42Z</time>
      </trkpt>
      <trkpt lat="45.68548" lon="3.12418">
        <ele>585.674377</ele>
        <time>2011-07-14T16:03:50Z</time>
      </trkpt>
      <trkpt lat="45.68555" lon="3.12425">
        <ele>584.323486</ele>
        <time>2011-07-14T16:03:59Z</time>
      </trkpt>
      <trkpt lat="45.68566" lon="3.1243">
        <ele>582.403931</ele>
        <time>2011-07-14T16:04:09Z</time>
      </trkpt>
      <trkpt lat="45.68578" lon="3.1244">
        <ele>580.422485</ele>
        <time>2011-07-14T16:04:19Z</time>
      </trkpt>
      <trkpt lat="45.68588" lon="3.12447">
        <ele>579.030029</ele>
        <time>2011-07-14T16:04:28Z</time>
      </trkpt>
      <trkpt lat="45.68598" lon="3.12455">
        <ele>578.080017</ele>
        <time>2011-07-14T16:04:36Z</time>
      </trkpt>
      <trkpt lat="45.6861" lon="3.12461">
        <ele>576.97998</ele>
        <time>2011-07-14T16:04:44Z</time>
      </trkpt>
      <trkpt lat="45.68621" lon="3.12464">
        <ele>575.780029</ele>
        <time>2011-07-14T16:04:52Z</time>
      </trkpt>
      <trkpt lat="45.68631" lon="3.12465">
        <ele>574.796021</ele>
        <time>2011-07-14T16:04:59Z</time>
      </trkpt>
      <trkpt lat="45.6864" lon="3.12468">
        <ele>573.896179</ele>
        <time>2011-07-14T16:05:06Z</time>
      </trkpt>
      <trkpt lat="45.6865" lon="3.12476">
        <ele>573.106873</ele>
        <time>2011-07-14T16:05:15Z</time>
      </trkpt>
      <trkpt lat="45.68659" lon="3.12482">
        <ele>572.309753</ele>
        <time>2011-07-14T16:05:22Z</time>
      </trkpt>
      <trkpt lat="45.68671" lon="3.12488">
        <ele>571.196899</ele>
        <time>2011-07-14T16:05:31Z</time>
      </trkpt>
      <trkpt lat="45.68681" lon="3.12501">
        <ele>569.9198</ele>
        <time>2011-07-14T16:05:42Z</time>
      </trkpt>
      <trkpt lat="45.68687" lon="3.12512">
        <ele>569.412476</ele>
        <time>2011-07-14T16:05:52Z</time>
      </trkpt>
      <trkpt lat="45.68698" lon="3.12512">
        <ele>567.609985</ele>
        <time>2011-07-14T16:06:03Z</time>
      </trkpt>
      <trkpt lat="45.68708" lon="3.12512">
        <ele>566.037476</ele>
        <time>2011-07-14T16:06:13Z</time>
      </trkpt>
      <trkpt lat="45.68715" lon="3.12518">
        <ele>565.210022</ele>
        <time>2011-07-14T16:06:34Z</time>
      </trkpt>
      <trkpt lat="45.68723" lon="3.12526">
        <ele>563.989136</ele>
        <time>2011-07-14T16:06:48Z</time>
      </trkpt>
      <trkpt lat="45.68732" lon="3.12533">
        <ele>562.509338</ele>
        <time>2011-07-14T16:06:59Z</time>
      </trkpt>
      <trkpt lat="45.68739" lon="3.12542">
        <ele>561.174988</ele>
        <time>2011-07-14T16:07:09Z</time>
      </trkpt>
      <trkpt lat="45.68746" lon="3.12552">
        <ele>559.856628</ele>
        <time>2011-07-14T16:07:19Z</time>
      </trkpt>
      <trkpt lat="45.68753" lon="3.12563">
        <ele>558.388</ele>
        <time>2011-07-14T16:07:28Z</time>
      </trkpt>
      <trkpt lat="45.6876" lon="3.12572">
        <ele>556.937012</ele>
        <time>2011-07-14T16:07:36Z</time>
      </trkpt>
      <trkpt lat="45.68766" lon="3.12583">
        <ele>555.619812</ele>
        <time>2011-07-14T16:07:45Z</time>
      </trkpt>
      <trkpt lat="45.68774" lon="3.12593">
        <ele>554.429382</ele>
        <time>2011-07-14T16:07:53Z</time>
      </trkpt>
      <trkpt lat="45.68781" lon="3.12602">
        <ele>553.065735</ele>
        <time>2011-07-14T16:08:02Z</time>
      </trkpt>
      <trkpt lat="45.68791" lon="3.12608">
        <ele>551.485168</ele>
        <time>2011-07-14T16:08:11Z</time>
      </trkpt>
      <trkpt lat="45.68798" lon="3.12616">
        <ele>550.116638</ele>
        <time>2011-07-14T16:08:19Z</time>
      </trkpt>
      <trkpt lat="45.68807" lon="3.12621">
        <ele>548.41095</ele>
        <time>2011-07-14T16:08:28Z</time>
      </trkpt>
      <trkpt lat="45.68815" lon="3.1263">
        <ele>546.875977</ele>
        <time>2011-07-14T16:08:36Z</time>
      </trkpt>
      <trkpt lat="45.68824" lon="3.12636">
        <ele>545.166016</ele>
        <time>2011-07-14T16:08:44Z</time>
      </trkpt>
      <trkpt lat="45.68833" lon="3.12641">
        <ele>543.474915</ele>
        <time>2011-07-14T16:08:51Z</time>
      </trkpt>
      <trkpt lat="45.68844" lon="3.12644">
        <ele>541.445862</ele>
        <time>2011-07-14T16:08:59Z</time>
      </trkpt>
      <trkpt lat="45.68852" lon="3.1265">
        <ele>539.679077</ele>
        <time>2011-07-14T16:09:07Z</time>
      </trkpt>
      <trkpt lat="45.68856" lon="3.12662">
        <ele>538.636414</ele>
        <time>2011-07-14T16:09:16Z</time>
      </trkpt>
      <trkpt lat="45.68857" lon="3.12677">
        <ele>538.028198</ele>
        <time>2011-07-14T16:09:23Z</time>
      </trkpt>
      <trkpt lat="45.68857" lon="3.12691">
        <ele>537.525879</ele>
        <time>2011-07-14T16:09:30Z</time>
      </trkpt>
      <trkpt lat="45.68858" lon="3.12704">
        <ele>537.224365</ele>
        <time>2011-07-14T16:09:36Z</time>
      </trkpt>
      <trkpt lat="45.6886" lon="3.12717">
        <ele>537.015259</ele>
        <time>2011-07-14T16:09:42Z</time>
      </trkpt>
      <trkpt lat="45.68862" lon="3.1273">
        <ele>536.772888</ele>
        <time>2011-07-14T16:09:50Z</time>
      </trkpt>
      <trkpt lat="45.68864" lon="3.12743">
        <ele>536.356873</ele>
        <time>2011-07-14T16:09:57Z</time>
      </trkpt>
      <trkpt lat="45.68866" lon="3.12756">
        <ele>535.966492</ele>
        <time>2011-07-14T16:10:05Z</time>
      </trkpt>
      <trkpt lat="45.68868" lon="3.12752">
        <ele>535.524597</ele>
        <time>2011-07-14T16:11:11Z</time>
      </trkpt>
      <trkpt lat="45.68876" lon="3.12748">
        <ele>533.904297</ele>
        <time>2011-07-14T16:11:30Z</time>
      </trkpt>
      <trkpt lat="45.68887" lon="3.12749">
        <ele>531.481323</ele>
        <time>2011-07-14T16:11:40Z</time>
      </trkpt>
      <trkpt lat="45.68902" lon="3.12752">
        <ele>528.603821</ele>
        <time>2011-07-14T16:11:49Z</time>
      </trkpt>
      <trkpt lat="45.68914" lon="3.12755">
        <ele>526.620911</ele>
        <time>2011-07-14T16:11:58Z</time>
      </trkpt>
      <trkpt lat="45.68926" lon="3.12758">
        <ele>524.781494</ele>
        <time>2011-07-14T16:12:06Z</time>
      </trkpt>
      <trkpt lat="45.68939" lon="3.12759">
        <ele>522.630859</ele>
        <time>2011-07-14T16:12:15Z</time>
      </trkpt>
      <trkpt lat="45.6895" lon="3.12762">
        <ele>521.093079</ele>
        <time>2011-07-14T16:12:23Z</time>
      </trkpt>
      <trkpt lat="45.68959" lon="3.12765">
        <ele>519.768433</ele>
        <time>2011-07-14T16:12:30Z</time>
      </trkpt>
      <trkpt lat="45.6897" lon="3.12768">
        <ele>518.369446</ele>
        <time>2011-07-14T16:12:37Z</time>
      </trkpt>
      <trkpt lat="45.68981" lon="3.1277">
        <ele>516.841248</ele>
        <time>2011-07-14T16:12:45Z</time>
      </trkpt>
      <trkpt lat="45.68991" lon="3.1277">
        <ele>515.52002</ele>
        <time>2011-07-14T16:12:53Z</time>
      </trkpt>
      <trkpt lat="45.69001" lon="3.12765">
        <ele>514.482483</ele>
        <time>2011-07-14T16:13:04Z</time>
      </trkpt>
      <trkpt lat="45.69011" lon="3.1276">
        <ele>513.495117</ele>
        <time>2011-07-14T16:13:11Z</time>
      </trkpt>
      <trkpt lat="45.6902" lon="3.12755">
        <ele>512.43988</ele>
        <time>2011-07-14T16:13:18Z</time>
      </trkpt>
      <trkpt lat="45.6903" lon="3.1275">
        <ele>511.32608</ele>
        <time>2011-07-14T16:13:25Z</time>
      </trkpt>
      <trkpt lat="45.6904" lon="3.12745">
        <ele>509.880005</ele>
        <time>2011-07-14T16:13:32Z</time>
      </trkpt>
      <trkpt lat="45.6905" lon="3.1274">
        <ele>508.339996</ele>
        <time>2011-07-14T16:13:39Z</time>
      </trkpt>
      <trkpt lat="45.6906" lon="3.12735">
        <ele>506.817505</ele>
        <time>2011-07-14T16:13:46Z</time>
      </trkpt>
      <trkpt lat="45.6907" lon="3.1273">
        <ele>505.295013</ele>
        <time>2011-07-14T16:13:53Z</time>
      </trkpt>
      <trkpt lat="45.69079" lon="3.12725">
        <ele>503.862488</ele>
        <time>2011-07-14T16:14:01Z</time>
      </trkpt>
      <trkpt lat="45.69089" lon="3.12721">
        <ele>502.799988</ele>
        <time>2011-07-14T16:14:09Z</time>
      </trkpt>
      <trkpt lat="45.69098" lon="3.12716">
        <ele>501.762512</ele>
        <time>2011-07-14T16:14:16Z</time>
      </trkpt>
      <trkpt lat="45.69108" lon="3.12713">
        <ele>500.725006</ele>
        <time>2011-07-14T16:14:23Z</time>
      </trkpt>
      <trkpt lat="45.69117" lon="3.12709">
        <ele>499.649994</ele>
        <time>2011-07-14T16:14:30Z</time>
      </trkpt>
      <trkpt lat="45.69127" lon="3.12703">
        <ele>498.5979</ele>
        <time>2011-07-14T16:14:37Z</time>
      </trkpt>
      <trkpt lat="45.69136" lon="3.12698">
        <ele>497.601685</ele>
        <time>2011-07-14T16:14:45Z</time>
      </trkpt>
      <trkpt lat="45.69146" lon="3.12691">
        <ele>496.584381</ele>
        <time>2011-07-14T16:14:52Z</time>
      </trkpt>
      <trkpt lat="45.69157" lon="3.12687">
        <ele>495.306244</ele>
        <time>2011-07-14T16:14:59Z</time>
      </trkpt>
      <trkpt lat="45.69168" lon="3.12685">
        <ele>493.983154</ele>
        <time>2011-07-14T16:15:06Z</time>
      </trkpt>
      <trkpt lat="45.69179" lon="3.12685">
        <ele>492.35022</ele>
        <time>2011-07-14T16:15:13Z</time>
      </trkpt>
      <trkpt lat="45.69189" lon="3.12683">
        <ele>490.902405</ele>
        <time>2011-07-14T16:15:19Z</time>
      </trkpt>
      <trkpt lat="45.69199" lon="3.12682">
        <ele>489.504333</ele>
        <time>2011-07-14T16:15:25Z</time>
      </trkpt>
      <trkpt lat="45.69209" lon="3.12683">
        <ele>487.936493</ele>
        <time>2011-07-14T16:15:32Z</time>
      </trkpt>
      <trkpt lat="45.69219" lon="3.12688">
        <ele>486.340027</ele>
        <time>2011-07-14T16:15:39Z</time>
      </trkpt>
      <trkpt lat="45.6923" lon="3.12693">
        <ele>484.654877</ele>
        <time>2011-07-14T16:15:46Z</time>
      </trkpt>
      <trkpt lat="45.69239" lon="3.12696">
        <ele>483.081329</ele>
        <time>2011-07-14T16:15:52Z</time>
      </trkpt>
      <trkpt lat="45.69251" lon="3.12696">
        <ele>481.387817</ele>
        <time>2011-07-14T16:15:59Z</time>
      </trkpt>
      <trkpt lat="45.6926" lon="3.12691">
        <ele>480.155151</ele>
        <time>2011-07-14T16:16:05Z</time>
      </trkpt>
      <trkpt lat="45.6927" lon="3.12686">
        <ele>479.444824</ele>
        <time>2011-07-14T16:16:11Z</time>
      </trkpt>
      <trkpt lat="45.69279" lon="3.1268">
        <ele>478.725311</ele>
        <time>2011-07-14T16:16:17Z</time>
      </trkpt>
      <trkpt lat="45.69288" lon="3.12676">
        <ele>477.946259</ele>
        <time>2011-07-14T16:16:23Z</time>
      </trkpt>
      <trkpt lat="45.69297" lon="3.1267">
        <ele>477.164093</ele>
        <time>2011-07-14T16:16:29Z</time>
      </trkpt>
      <trkpt lat="45.69306" lon="3.12665">
        <ele>476.306244</ele>
        <time>2011-07-14T16:16:35Z</time>
      </trkpt>
      <trkpt lat="45.69316" lon="3.12659">
        <ele>475.320007</ele>
        <time>2011-07-14T16:16:41Z</time>
      </trkpt>
      <trkpt lat="45.69325" lon="3.12654">
        <ele>474.350006</ele>
        <time>2011-07-14T16:16:48Z</time>
      </trkpt>
      <trkpt lat="45.69334" lon="3.1265">
        <ele>473.399994</ele>
        <time>2011-07-14T16:16:54Z</time>
      </trkpt>
      <trkpt lat="45.69343" lon="3.12645">
        <ele>472.503754</ele>
        <time>2011-07-14T16:17:00Z</time>
      </trkpt>
      <trkpt lat="45.69352" lon="3.1264">
        <ele>471.598328</ele>
        <time>2011-07-14T16:17:06Z</time>
      </trkpt>
      <trkpt lat="45.69363" lon="3.12635">
        <ele>470.55069</ele>
        <time>2011-07-14T16:17:13Z</time>
      </trkpt>
      <trkpt lat="45.69373" lon="3.12629">
        <ele>469.607605</ele>
        <time>2011-07-14T16:17:20Z</time>
      </trkpt>
      <trkpt lat="45.69383" lon="3.12626">
        <ele>468.614532</ele>
        <time>2011-07-14T16:17:27Z</time>
      </trkpt>
      <trkpt lat="45.69393" lon="3.12626">
        <ele>467.579681</ele>
        <time>2011-07-14T16:17:33Z</time>
      </trkpt>
      <trkpt lat="45.69403" lon="3.12627">
        <ele>466.347504</ele>
        <time>2011-07-14T16:17:40Z</time>
      </trkpt>
      <trkpt lat="45.69413" lon="3.12628">
        <ele>465.235016</ele>
        <time>2011-07-14T16:17:46Z</time>
      </trkpt>
      <trkpt lat="45.69424" lon="3.12629">
        <ele>464.045013</ele>
        <time>2011-07-14T16:17:53Z</time>
      </trkpt>
      <trkpt lat="45.69434" lon="3.12631">
        <ele>462.875</ele>
        <time>2011-07-14T16:18:00Z</time>
      </trkpt>
      <trkpt lat="45.69444" lon="3.12632">
        <ele>461.699982</ele>
        <time>2011-07-14T16:18:07Z</time>
      </trkpt>
      <trkpt lat="45.6945" lon="3.12639">
        <ele>460.767487</ele>
        <time>2011-07-14T16:18:14Z</time>
      </trkpt>
      <trkpt lat="45.69448" lon="3.12653">
        <ele>460.72229</ele>
        <time>2011-07-14T16:18:20Z</time>
      </trkpt>
      <trkpt lat="45.69446" lon="3.12666">
        <ele>460.738495</ele>
        <time>2011-07-14T16:18:26Z</time>
      </trkpt>
      <trkpt lat="45.69443" lon="3.12679">
        <ele>460.827209</ele>
        <time>2011-07-14T16:18:32Z</time>
      </trkpt>
      <trkpt lat="45.6944" lon="3.12692">
        <ele>460.980988</ele>
        <time>2011-07-14T16:18:39Z</time>
      </trkpt>
      <trkpt lat="45.69437" lon="3.12706">
        <ele>461.104889</ele>
        <time>2011-07-14T16:18:46Z</time>
      </trkpt>
      <trkpt lat="45.69435" lon="3.12719">
        <ele>461.78186</ele>
        <time>2011-07-14T16:18:52Z</time>
      </trkpt>
      <trkpt lat="45.69432" lon="3.12732">
        <ele>462.544373</ele>
        <time>2011-07-14T16:18:58Z</time>
      </trkpt>
      <trkpt lat="45.69429" lon="3.12745">
        <ele>463.250793</ele>
        <time>2011-07-14T16:19:04Z</time>
      </trkpt>
      <trkpt lat="45.69425" lon="3.12759">
        <ele>464.062347</ele>
        <time>2011-07-14T16:19:11Z</time>
      </trkpt>
      <trkpt lat="45.69422" lon="3.12772">
        <ele>464.674988</ele>
        <time>2011-07-14T16:19:18Z</time>
      </trkpt>
      <trkpt lat="45.69418" lon="3.12785">
        <ele>465.162506</ele>
        <time>2011-07-14T16:19:25Z</time>
      </trkpt>
      <trkpt lat="45.69414" lon="3.12798">
        <ele>465.625</ele>
        <time>2011-07-14T16:19:32Z</time>
      </trkpt>
      <trkpt lat="45.6941" lon="3.1281">
        <ele>466.012512</ele>
        <time>2011-07-14T16:19:39Z</time>
      </trkpt>
      <trkpt lat="45.69407" lon="3.12822">
        <ele>466.399994</ele>
        <time>2011-07-14T16:19:46Z</time>
      </trkpt>
      <trkpt lat="45.69402" lon="3.12834">
        <ele>466.882507</ele>
        <time>2011-07-14T16:19:53Z</time>
      </trkpt>
      <trkpt lat="45.69396" lon="3.12847">
        <ele>467.308746</ele>
        <time>2011-07-14T16:20:01Z</time>
      </trkpt>
      <trkpt lat="45.69392" lon="3.12858">
        <ele>467.646362</ele>
        <time>2011-07-14T16:20:08Z</time>
      </trkpt>
      <trkpt lat="45.69386" lon="3.12871">
        <ele>467.882141</ele>
        <time>2011-07-14T16:20:16Z</time>
      </trkpt>
      <trkpt lat="45.69382" lon="3.12884">
        <ele>468.013397</ele>
        <time>2011-07-14T16:20:24Z</time>
      </trkpt>
      <trkpt lat="45.69389" lon="3.12893">
        <ele>467.344604</ele>
        <time>2011-07-14T16:20:32Z</time>
      </trkpt>
      <trkpt lat="45.69397" lon="3.12895">
        <ele>466.388763</ele>
        <time>2011-07-14T16:20:40Z</time>
      </trkpt>
      <trkpt lat="45.69408" lon="3.12897">
        <ele>465.227509</ele>
        <time>2011-07-14T16:20:48Z</time>
      </trkpt>
      <trkpt lat="45.69417" lon="3.12898">
        <ele>464.144989</ele>
        <time>2011-07-14T16:20:56Z</time>
      </trkpt>
      <trkpt lat="45.69427" lon="3.12899">
        <ele>463.055603</ele>
        <time>2011-07-14T16:21:05Z</time>
      </trkpt>
      <trkpt lat="45.69436" lon="3.12901">
        <ele>461.981476</ele>
        <time>2011-07-14T16:21:13Z</time>
      </trkpt>
      <trkpt lat="45.69445" lon="3.12905">
        <ele>460.748749</ele>
        <time>2011-07-14T16:21:21Z</time>
      </trkpt>
      <trkpt lat="45.69454" lon="3.1291">
        <ele>459.473755</ele>
        <time>2011-07-14T16:21:29Z</time>
      </trkpt>
      <trkpt lat="45.69463" lon="3.12916">
        <ele>458.195007</ele>
        <time>2011-07-14T16:21:37Z</time>
      </trkpt>
      <trkpt lat="45.69472" lon="3.12922">
        <ele>456.953766</ele>
        <time>2011-07-14T16:21:46Z</time>
      </trkpt>
      <trkpt lat="45.6948" lon="3.12929">
        <ele>455.695007</ele>
        <time>2011-07-14T16:21:54Z</time>
      </trkpt>
      <trkpt lat="45.69489" lon="3.12936">
        <ele>454.460388</ele>
        <time>2011-07-14T16:22:02Z</time>
      </trkpt>
      <trkpt lat="45.69491" lon="3.12947">
        <ele>454.012238</ele>
        <time>2011-07-14T16:22:15Z</time>
      </trkpt>
      <trkpt lat="45.69491" lon="3.12961">
        <ele>453.747955</ele>
        <time>2011-07-14T16:22:22Z</time>
      </trkpt>
      <trkpt lat="45.6949" lon="3.12976">
        <ele>453.88504</ele>
        <time>2011-07-14T16:22:29Z</time>
      </trkpt>
      <trkpt lat="45.69489" lon="3.12989">
        <ele>454.160583</ele>
        <time>2011-07-14T16:22:36Z</time>
      </trkpt>
      <trkpt lat="45.69488" lon="3.13003">
        <ele>454.554749</ele>
        <time>2011-07-14T16:22:44Z</time>
      </trkpt>
      <trkpt lat="45.69486" lon="3.13018">
        <ele>454.904877</ele>
        <time>2011-07-14T16:22:51Z</time>
      </trkpt>
      <trkpt lat="45.69484" lon="3.13031">
        <ele>455.324982</ele>
        <time>2011-07-14T16:22:58Z</time>
      </trkpt>
      <trkpt lat="45.69484" lon="3.13046">
        <ele>455.421478</ele>
        <time>2011-07-14T16:23:06Z</time>
      </trkpt>
      <trkpt lat="45.69483" lon="3.13063">
        <ele>455.534454</ele>
        <time>2011-07-14T16:23:12Z</time>
      </trkpt>
      <trkpt lat="45.69482" lon="3.13077">
        <ele>455.71109</ele>
        <time>2011-07-14T16:23:15Z</time>
      </trkpt>
      <trkpt lat="45.69481" lon="3.13092">
        <ele>455.807465</ele>
        <time>2011-07-14T16:23:17Z</time>
      </trkpt>
      <trkpt lat="45.69481" lon="3.13107">
        <ele>456.153748</ele>
        <time>2011-07-14T16:23:19Z</time>
      </trkpt>
      <trkpt lat="45.6948" lon="3.13123">
        <ele>456.483765</ele>
        <time>2011-07-14T16:23:21Z</time>
      </trkpt>
      <trkpt lat="45.69479" lon="3.13138">
        <ele>456.796814</ele>
        <time>2011-07-14T16:23:23Z</time>
      </trkpt>
      <trkpt lat="45.69479" lon="3.13156">
        <ele>457.046265</ele>
        <time>2011-07-14T16:23:25Z</time>
      </trkpt>
      <trkpt lat="45.6948" lon="3.13174">
        <ele>456.722504</ele>
        <time>2011-07-14T16:23:27Z</time>
      </trkpt>
      <trkpt lat="45.6948" lon="3.1319">
        <ele>456.41156</ele>
        <time>2011-07-14T16:23:29Z</time>
      </trkpt>
      <trkpt lat="45.69481" lon="3.13206">
        <ele>456.038239</ele>
        <time>2011-07-14T16:23:31Z</time>
      </trkpt>
      <trkpt lat="45.69481" lon="3.13221">
        <ele>455.710907</ele>
        <time>2011-07-14T16:23:33Z</time>
      </trkpt>
      <trkpt lat="45.69481" lon="3.13238">
        <ele>455.464996</ele>
        <time>2011-07-14T16:23:35Z</time>
      </trkpt>
      <trkpt lat="45.69481" lon="3.13253">
        <ele>455.228027</ele>
        <time>2011-07-14T16:23:37Z</time>
      </trkpt>
      <trkpt lat="45.69481" lon="3.1327">
        <ele>454.936432</ele>
        <time>2011-07-14T16:23:40Z</time>
      </trkpt>
      <trkpt lat="45.69483" lon="3.13285">
        <ele>454.5625</ele>
        <time>2011-07-14T16:23:45Z</time>
      </trkpt>
      <trkpt lat="45.69487" lon="3.13296">
        <ele>454.112488</ele>
        <time>2011-07-14T16:23:53Z</time>
      </trkpt>
      <trkpt lat="45.69495" lon="3.13289">
        <ele>453.162506</ele>
        <time>2011-07-14T16:24:00Z</time>
      </trkpt>
      <trkpt lat="45.69504" lon="3.13281">
        <ele>452.22641</ele>
        <time>2011-07-14T16:24:08Z</time>
      </trkpt>
      <trkpt lat="45.69514" lon="3.13272">
        <ele>451.090424</ele>
        <time>2011-07-14T16:24:17Z</time>
      </trkpt>
      <trkpt lat="45.69524" lon="3.13265">
        <ele>449.952667</ele>
        <time>2011-07-14T16:24:25Z</time>
      </trkpt>
      <trkpt lat="45.69534" lon="3.13257">
        <ele>448.649963</ele>
        <time>2011-07-14T16:24:33Z</time>
      </trkpt>
      <trkpt lat="45.69543" lon="3.13251">
        <ele>447.205231</ele>
        <time>2011-07-14T16:24:44Z</time>
      </trkpt>
      <trkpt lat="45.69554" lon="3.13244">
        <ele>445.667389</ele>
        <time>2011-07-14T16:24:51Z</time>
      </trkpt>
      <trkpt lat="45.69564" lon="3.13238">
        <ele>444.064392</ele>
        <time>2011-07-14T16:24:59Z</time>
      </trkpt>
      <trkpt lat="45.69573" lon="3.13231">
        <ele>442.630676</ele>
        <time>2011-07-14T16:25:07Z</time>
      </trkpt>
      <trkpt lat="45.69583" lon="3.13223">
        <ele>441.158966</ele>
        <time>2011-07-14T16:25:17Z</time>
      </trkpt>
      <trkpt lat="45.69594" lon="3.13215">
        <ele>439.672089</ele>
        <time>2011-07-14T16:25:25Z</time>
      </trkpt>
      <trkpt lat="45.69605" lon="3.13209">
        <ele>438.108917</ele>
        <time>2011-07-14T16:25:32Z</time>
      </trkpt>
      <trkpt lat="45.69616" lon="3.13205">
        <ele>436.523376</ele>
        <time>2011-07-14T16:25:39Z</time>
      </trkpt>
      <trkpt lat="45.69627" lon="3.132">
        <ele>434.823059</ele>
        <time>2011-07-14T16:25:47Z</time>
      </trkpt>
      <trkpt lat="45.69638" lon="3.13196">
        <ele>433.181488</ele>
        <time>2011-07-14T16:25:55Z</time>
      </trkpt>
      <trkpt lat="45.69648" lon="3.13192">
        <ele>431.696167</ele>
        <time>2011-07-14T16:26:02Z</time>
      </trkpt>
      <trkpt lat="45.69659" lon="3.13188">
        <ele>430.016144</ele>
        <time>2011-07-14T16:26:10Z</time>
      </trkpt>
      <trkpt lat="45.69671" lon="3.13184">
        <ele>428.774994</ele>
        <time>2011-07-14T16:26:17Z</time>
      </trkpt>
      <trkpt lat="45.69681" lon="3.1318">
        <ele>427.575012</ele>
        <time>2011-07-14T16:26:24Z</time>
      </trkpt>
      <trkpt lat="45.69691" lon="3.13177">
        <ele>426.487488</ele>
        <time>2011-07-14T16:26:31Z</time>
      </trkpt>
      <trkpt lat="45.69702" lon="3.13174">
        <ele>425.325012</ele>
        <time>2011-07-14T16:26:38Z</time>
      </trkpt>
      <trkpt lat="45.69713" lon="3.13171">
        <ele>424.100006</ele>
        <time>2011-07-14T16:26:46Z</time>
      </trkpt>
      <trkpt lat="45.69723" lon="3.13169">
        <ele>422.899994</ele>
        <time>2011-07-14T16:26:53Z</time>
      </trkpt>
      <trkpt lat="45.69735" lon="3.13166">
        <ele>421.612488</ele>
        <time>2011-07-14T16:27:01Z</time>
      </trkpt>
      <trkpt lat="45.69746" lon="3.13165">
        <ele>420.362488</ele>
        <time>2011-07-14T16:27:09Z</time>
      </trkpt>
      <trkpt lat="45.69759" lon="3.13163">
        <ele>418.987488</ele>
        <time>2011-07-14T16:27:17Z</time>
      </trkpt>
      <trkpt lat="45.69769" lon="3.13161">
        <ele>417.799988</ele>
        <time>2011-07-14T16:27:24Z</time>
      </trkpt>
      <trkpt lat="45.69781" lon="3.13157">
        <ele>416.492676</ele>
        <time>2011-07-14T16:27:32Z</time>
      </trkpt>
      <trkpt lat="45.69791" lon="3.13151">
        <ele>415.297394</ele>
        <time>2011-07-14T16:27:41Z</time>
      </trkpt>
      <trkpt lat="45.69795" lon="3.13166">
        <ele>415.012512</ele>
        <time>2011-07-14T16:27:49Z</time>
      </trkpt>
      <trkpt lat="45.69799" lon="3.13182">
        <ele>414.599365</ele>
        <time>2011-07-14T16:27:54Z</time>
      </trkpt>
      <trkpt lat="45.69801" lon="3.13196">
        <ele>414.317688</ele>
        <time>2011-07-14T16:27:56Z</time>
      </trkpt>
      <trkpt lat="45.69804" lon="3.13212">
        <ele>414.015472</ele>
        <time>2011-07-14T16:27:58Z</time>
      </trkpt>
      <trkpt lat="45.69806" lon="3.13229">
        <ele>413.632507</ele>
        <time>2011-07-14T16:28:00Z</time>
      </trkpt>
      <trkpt lat="45.69808" lon="3.13246">
        <ele>413.151245</ele>
        <time>2011-07-14T16:28:02Z</time>
      </trkpt>
      <trkpt lat="45.69809" lon="3.13264">
        <ele>412.703735</ele>
        <time>2011-07-14T16:28:04Z</time>
      </trkpt>
      <trkpt lat="45.6981" lon="3.13281">
        <ele>412.320007</ele>
        <time>2011-07-14T16:28:06Z</time>
      </trkpt>
      <trkpt lat="45.6981" lon="3.13298">
        <ele>412.159332</ele>
        <time>2011-07-14T16:28:08Z</time>
      </trkpt>
      <trkpt lat="45.69809" lon="3.13315">
        <ele>412.160187</ele>
        <time>2011-07-14T16:28:10Z</time>
      </trkpt>
      <trkpt lat="45.69809" lon="3.13331">
        <ele>412.06189</ele>
        <time>2011-07-14T16:28:12Z</time>
      </trkpt>
      <trkpt lat="45.69808" lon="3.13348">
        <ele>412.046387</ele>
        <time>2011-07-14T16:28:14Z</time>
      </trkpt>
      <trkpt lat="45.69808" lon="3.13366">
        <ele>411.883759</ele>
        <time>2011-07-14T16:28:16Z</time>
      </trkpt>
      <trkpt lat="45.69807" lon="3.13384">
        <ele>411.647491</ele>
        <time>2011-07-14T16:28:18Z</time>
      </trkpt>
      <trkpt lat="45.69806" lon="3.13402">
        <ele>411.493744</ele>
        <time>2011-07-14T16:28:20Z</time>
      </trkpt>
      <trkpt lat="45.69804" lon="3.13423">
        <ele>411.390015</ele>
        <time>2011-07-14T16:28:22Z</time>
      </trkpt>
      <trkpt lat="45.69803" lon="3.13442">
        <ele>411.168762</ele>
        <time>2011-07-14T16:28:24Z</time>
      </trkpt>
      <trkpt lat="45.69803" lon="3.1346">
        <ele>410.981232</ele>
        <time>2011-07-14T16:28:26Z</time>
      </trkpt>
      <trkpt lat="45.698" lon="3.13477">
        <ele>411.027496</ele>
        <time>2011-07-14T16:28:28Z</time>
      </trkpt>
      <trkpt lat="45.69797" lon="3.13495">
        <ele>411.022614</ele>
        <time>2011-07-14T16:28:30Z</time>
      </trkpt>
      <trkpt lat="45.69793" lon="3.13511">
        <ele>410.899017</ele>
        <time>2011-07-14T16:28:32Z</time>
      </trkpt>
      <trkpt lat="45.69793" lon="3.13527">
        <ele>410.513855</ele>
        <time>2011-07-14T16:28:34Z</time>
      </trkpt>
      <trkpt lat="45.69793" lon="3.13543">
        <ele>410.009369</ele>
        <time>2011-07-14T16:28:36Z</time>
      </trkpt>
      <trkpt lat="45.69793" lon="3.13561">
        <ele>409.668304</ele>
        <time>2011-07-14T16:28:38Z</time>
      </trkpt>
      <trkpt lat="45.69792" lon="3.13578">
        <ele>409.494995</ele>
        <time>2011-07-14T16:28:40Z</time>
      </trkpt>
      <trkpt lat="45.6979" lon="3.13594">
        <ele>409.423737</ele>
        <time>2011-07-14T16:28:42Z</time>
      </trkpt>
      <trkpt lat="45.69789" lon="3.1361">
        <ele>409.413757</ele>
        <time>2011-07-14T16:28:44Z</time>
      </trkpt>
      <trkpt lat="45.69785" lon="3.13628">
        <ele>409.17749</ele>
        <time>2011-07-14T16:28:46Z</time>
      </trkpt>
      <trkpt lat="45.6978" lon="3.13642">
        <ele>409.26001</ele>
        <time>2011-07-14T16:28:48Z</time>
      </trkpt>
      <trkpt lat="45.69773" lon="3.13655">
        <ele>409.623749</ele>
        <time>2011-07-14T16:28:51Z</time>
      </trkpt>
      <trkpt lat="45.69764" lon="3.13673">
        <ele>410.226257</ele>
        <time>2011-07-14T16:28:54Z</time>
      </trkpt>
      <trkpt lat="45.69759" lon="3.13688">
        <ele>410.377686</ele>
        <time>2011-07-14T16:28:56Z</time>
      </trkpt>
      <trkpt lat="45.69758" lon="3.13703">
        <ele>410.008545</ele>
        <time>2011-07-14T16:28:58Z</time>
      </trkpt>
      <trkpt lat="45.69753" lon="3.13726">
        <ele>409.598816</ele>
        <time>2011-07-14T16:29:01Z</time>
      </trkpt>
      <trkpt lat="45.6975" lon="3.1374">
        <ele>409.340149</ele>
        <time>2011-07-14T16:29:03Z</time>
      </trkpt>
      <trkpt lat="45.69746" lon="3.13761">
        <ele>408.797699</ele>
        <time>2011-07-14T16:29:06Z</time>
      </trkpt>
      <trkpt lat="45.69744" lon="3.13777">
        <ele>408.374695</ele>
        <time>2011-07-14T16:29:08Z</time>
      </trkpt>
      <trkpt lat="45.69739" lon="3.13791">
        <ele>408.357483</ele>
        <time>2011-07-14T16:29:10Z</time>
      </trkpt>
      <trkpt lat="45.69732" lon="3.13806">
        <ele>408.522491</ele>
        <time>2011-07-14T16:29:12Z</time>
      </trkpt>
      <trkpt lat="45.69726" lon="3.1382">
        <ele>408.506653</ele>
        <time>2011-07-14T16:29:14Z</time>
      </trkpt>
      <trkpt lat="45.69719" lon="3.13835">
        <ele>408.626984</ele>
        <time>2011-07-14T16:29:16Z</time>
      </trkpt>
      <trkpt lat="45.69713" lon="3.13848">
        <ele>408.774506</ele>
        <time>2011-07-14T16:29:18Z</time>
      </trkpt>
      <trkpt lat="45.69708" lon="3.13862">
        <ele>408.920349</ele>
        <time>2011-07-14T16:29:20Z</time>
      </trkpt>
      <trkpt lat="45.69702" lon="3.13876">
        <ele>409.16925</ele>
        <time>2011-07-14T16:29:22Z</time>
      </trkpt>
      <trkpt lat="45.69697" lon="3.13891">
        <ele>409.15329</ele>
        <time>2011-07-14T16:29:24Z</time>
      </trkpt>
      <trkpt lat="45.69694" lon="3.13907">
        <ele>408.864624</ele>
        <time>2011-07-14T16:29:26Z</time>
      </trkpt>
      <trkpt lat="45.69691" lon="3.13924">
        <ele>408.472198</ele>
        <time>2011-07-14T16:29:28Z</time>
      </trkpt>
      <trkpt lat="45.69687" lon="3.13941">
        <ele>408.313751</ele>
        <time>2011-07-14T16:29:30Z</time>
      </trkpt>
      <trkpt lat="45.69683" lon="3.13957">
        <ele>408.139984</ele>
        <time>2011-07-14T16:29:32Z</time>
      </trkpt>
      <trkpt lat="45.69681" lon="3.13972">
        <ele>407.766235</ele>
        <time>2011-07-14T16:29:34Z</time>
      </trkpt>
      <trkpt lat="45.69679" lon="3.13989">
        <ele>407.317505</ele>
        <time>2011-07-14T16:29:36Z</time>
      </trkpt>
      <trkpt lat="45.69675" lon="3.14007">
        <ele>406.977509</ele>
        <time>2011-07-14T16:29:38Z</time>
      </trkpt>
      <trkpt lat="45.69673" lon="3.14023">
        <ele>406.554993</ele>
        <time>2011-07-14T16:29:40Z</time>
      </trkpt>
      <trkpt lat="45.69671" lon="3.14039">
        <ele>406.084991</ele>
        <time>2011-07-14T16:29:42Z</time>
      </trkpt>
      <trkpt lat="45.69667" lon="3.14054">
        <ele>406.091248</ele>
        <time>2011-07-14T16:29:44Z</time>
      </trkpt>
      <trkpt lat="45.6966" lon="3.14067">
        <ele>406.459808</ele>
        <time>2011-07-14T16:29:46Z</time>
      </trkpt>
      <trkpt lat="45.69654" lon="3.14081">
        <ele>406.792175</ele>
        <time>2011-07-14T16:29:48Z</time>
      </trkpt>
      <trkpt lat="45.69648" lon="3.14094">
        <ele>407.07251</ele>
        <time>2011-07-14T16:29:50Z</time>
      </trkpt>
      <trkpt lat="45.69643" lon="3.14109">
        <ele>407.049988</ele>
        <time>2011-07-14T16:29:52Z</time>
      </trkpt>
      <trkpt lat="45.69639" lon="3.14123">
        <ele>407.033203</ele>
        <time>2011-07-14T16:29:54Z</time>
      </trkpt>
      <trkpt lat="45.69632" lon="3.14136">
        <ele>407.586914</ele>
        <time>2011-07-14T16:29:56Z</time>
      </trkpt>
      <trkpt lat="45.69627" lon="3.14147">
        <ele>408.006165</ele>
        <time>2011-07-14T16:29:58Z</time>
      </trkpt>
      <trkpt lat="45.69622" lon="3.14164">
        <ele>408.243958</ele>
        <time>2011-07-14T16:30:01Z</time>
      </trkpt>
      <trkpt lat="45.69618" lon="3.14178">
        <ele>408.292664</ele>
        <time>2011-07-14T16:30:04Z</time>
      </trkpt>
      <trkpt lat="45.69616" lon="3.14191">
        <ele>408.292816</ele>
        <time>2011-07-14T16:30:11Z</time>
      </trkpt>
      <trkpt lat="45.69623" lon="3.14199">
        <ele>406.791931</ele>
        <time>2011-07-14T16:30:19Z</time>
      </trkpt>
      <trkpt lat="45.69634" lon="3.14203">
        <ele>404.948425</ele>
        <time>2011-07-14T16:30:26Z</time>
      </trkpt>
      <trkpt lat="45.69643" lon="3.14205">
        <ele>403.312469</ele>
        <time>2011-07-14T16:30:33Z</time>
      </trkpt>
      <trkpt lat="45.69653" lon="3.14204">
        <ele>401.582886</ele>
        <time>2011-07-14T16:30:41Z</time>
      </trkpt>
      <trkpt lat="45.69666" lon="3.14205">
        <ele>400.095123</ele>
        <time>2011-07-14T16:30:49Z</time>
      </trkpt>
      <trkpt lat="45.69677" lon="3.14207">
        <ele>398.698517</ele>
        <time>2011-07-14T16:30:56Z</time>
      </trkpt>
      <trkpt lat="45.69688" lon="3.1421">
        <ele>397.318329</ele>
        <time>2011-07-14T16:31:03Z</time>
      </trkpt>
      <trkpt lat="45.69697" lon="3.14216">
        <ele>396.060394</ele>
        <time>2011-07-14T16:31:10Z</time>
      </trkpt>
      <trkpt lat="45.69705" lon="3.14223">
        <ele>395.279083</ele>
        <time>2011-07-14T16:31:16Z</time>
      </trkpt>
      <trkpt lat="45.69712" lon="3.14233">
        <ele>394.422119</ele>
        <time>2011-07-14T16:31:21Z</time>
      </trkpt>
      <trkpt lat="45.69714" lon="3.14249">
        <ele>393.519928</ele>
        <time>2011-07-14T16:31:25Z</time>
      </trkpt>
      <trkpt lat="45.69713" lon="3.14262">
        <ele>393.045013</ele>
        <time>2011-07-14T16:31:28Z</time>
      </trkpt>
      <trkpt lat="45.6971" lon="3.14277">
        <ele>392.611237</ele>
        <time>2011-07-14T16:31:31Z</time>
      </trkpt>
      <trkpt lat="45.69707" lon="3.1429">
        <ele>392.238739</ele>
        <time>2011-07-14T16:31:33Z</time>
      </trkpt>
      <trkpt lat="45.69704" lon="3.14304">
        <ele>391.85376</ele>
        <time>2011-07-14T16:31:35Z</time>
      </trkpt>
      <trkpt lat="45.69699" lon="3.14319">
        <ele>391.604095</ele>
        <time>2011-07-14T16:31:37Z</time>
      </trkpt>
      <trkpt lat="45.69696" lon="3.14334">
        <ele>391.445221</ele>
        <time>2011-07-14T16:31:39Z</time>
      </trkpt>
      <trkpt lat="45.69694" lon="3.14349">
        <ele>391.210693</ele>
        <time>2011-07-14T16:31:41Z</time>
      </trkpt>
      <trkpt lat="45.69693" lon="3.14364">
        <ele>390.883148</ele>
        <time>2011-07-14T16:31:43Z</time>
      </trkpt>
      <trkpt lat="45.69693" lon="3.1438">
        <ele>390.375641</ele>
        <time>2011-07-14T16:31:45Z</time>
      </trkpt>
      <trkpt lat="45.69694" lon="3.14396">
        <ele>390.006104</ele>
        <time>2011-07-14T16:31:47Z</time>
      </trkpt>
      <trkpt lat="45.69696" lon="3.14411">
        <ele>389.483765</ele>
        <time>2011-07-14T16:31:49Z</time>
      </trkpt>
      <trkpt lat="45.69696" lon="3.14428">
        <ele>389.210938</ele>
        <time>2011-07-14T16:31:51Z</time>
      </trkpt>
      <trkpt lat="45.69697" lon="3.14445">
        <ele>388.938477</ele>
        <time>2011-07-14T16:31:53Z</time>
      </trkpt>
      <trkpt lat="45.69698" lon="3.1446">
        <ele>388.69812</ele>
        <time>2011-07-14T16:31:55Z</time>
      </trkpt>
      <trkpt lat="45.69697" lon="3.14472">
        <ele>388.515869</ele>
        <time>2011-07-14T16:31:57Z</time>
      </trkpt>
      <trkpt lat="45.69695" lon="3.14489">
        <ele>388.319</ele>
        <time>2011-07-14T16:32:00Z</time>
      </trkpt>
      <trkpt lat="45.69693" lon="3.14505">
        <ele>388.221436</ele>
        <time>2011-07-14T16:32:03Z</time>
      </trkpt>
      <trkpt lat="45.69696" lon="3.14524">
        <ele>388</ele>
        <time>2011-07-14T16:32:06Z</time>
      </trkpt>
      <trkpt lat="45.69699" lon="3.14539">
        <ele>388</ele>
        <time>2011-07-14T16:32:08Z</time>
      </trkpt>
      <trkpt lat="45.69703" lon="3.14554">
        <ele>388</ele>
        <time>2011-07-14T16:32:10Z</time>
      </trkpt>
      <trkpt lat="45.69703" lon="3.14571">
        <ele>388</ele>
        <time>2011-07-14T16:32:12Z</time>
      </trkpt>
      <trkpt lat="45.69701" lon="3.14588">
        <ele>388</ele>
        <time>2011-07-14T16:32:14Z</time>
      </trkpt>
      <trkpt lat="45.69697" lon="3.14605">
        <ele>388</ele>
        <time>2011-07-14T16:32:16Z</time>
      </trkpt>
      <trkpt lat="45.69696" lon="3.14623">
        <ele>388</ele>
        <time>2011-07-14T16:32:18Z</time>
      </trkpt>
      <trkpt lat="45.69697" lon="3.1464">
        <ele>387.995453</ele>
        <time>2011-07-14T16:32:20Z</time>
      </trkpt>
      <trkpt lat="45.69697" lon="3.14665">
        <ele>387.97052</ele>
        <time>2011-07-14T16:32:23Z</time>
      </trkpt>
      <trkpt lat="45.69695" lon="3.14683">
        <ele>387.981628</ele>
        <time>2011-07-14T16:32:25Z</time>
      </trkpt>
      <trkpt lat="45.69692" lon="3.147">
        <ele>388</ele>
        <time>2011-07-14T16:32:27Z</time>
      </trkpt>
      <trkpt lat="45.69689" lon="3.14714">
        <ele>387.821136</ele>
        <time>2011-07-14T16:32:29Z</time>
      </trkpt>
      <trkpt lat="45.69685" lon="3.14729">
        <ele>387.708679</ele>
        <time>2011-07-14T16:32:32Z</time>
      </trkpt>
      <trkpt lat="45.69682" lon="3.14742">
        <ele>387.684387</ele>
        <time>2011-07-14T16:32:38Z</time>
      </trkpt>
      <trkpt lat="45.69679" lon="3.14754">
        <ele>387.704163</ele>
        <time>2011-07-14T16:32:45Z</time>
      </trkpt>
      <trkpt lat="45.69675" lon="3.14767">
        <ele>387.778503</ele>
        <time>2011-07-14T16:32:52Z</time>
      </trkpt>
      <trkpt lat="45.69673" lon="3.14781">
        <ele>387.774567</ele>
        <time>2011-07-14T16:32:59Z</time>
      </trkpt>
      <trkpt lat="45.69673" lon="3.14796">
        <ele>387.659454</ele>
        <time>2011-07-14T16:33:06Z</time>
      </trkpt>
      <trkpt lat="45.69674" lon="3.14818">
        <ele>387.488739</ele>
        <time>2011-07-14T16:33:25Z</time>
      </trkpt>
      <trkpt lat="45.69671" lon="3.14844">
        <ele>386.968018</ele>
        <time>2011-07-14T16:33:32Z</time>
      </trkpt>
      <trkpt lat="45.69664" lon="3.14856">
        <ele>386.625671</ele>
        <time>2011-07-14T16:33:39Z</time>
      </trkpt>
      <trkpt lat="45.69654" lon="3.14863">
        <ele>386.36087</ele>
        <time>2011-07-14T16:33:46Z</time>
      </trkpt>
      <trkpt lat="45.69643" lon="3.14869">
        <ele>385.853546</ele>
        <time>2011-07-14T16:33:54Z</time>
      </trkpt>
      <trkpt lat="45.69631" lon="3.14875">
        <ele>384.949219</ele>
        <time>2011-07-14T16:34:00Z</time>
      </trkpt>
      <trkpt lat="45.6962" lon="3.14879">
        <ele>384.020935</ele>
        <time>2011-07-14T16:34:06Z</time>
      </trkpt>
      <trkpt lat="45.69608" lon="3.14884">
        <ele>383.000793</ele>
        <time>2011-07-14T16:34:11Z</time>
      </trkpt>
      <trkpt lat="45.69595" lon="3.14888">
        <ele>382.38501</ele>
        <time>2011-07-14T16:34:16Z</time>
      </trkpt>
      <trkpt lat="45.69583" lon="3.14892">
        <ele>382.385956</ele>
        <time>2011-07-14T16:34:20Z</time>
      </trkpt>
      <trkpt lat="45.69569" lon="3.14895">
        <ele>382.487518</ele>
        <time>2011-07-14T16:34:23Z</time>
      </trkpt>
      <trkpt lat="45.69553" lon="3.14898">
        <ele>382.592499</ele>
        <time>2011-07-14T16:34:26Z</time>
      </trkpt>
      <trkpt lat="45.69542" lon="3.14902">
        <ele>382.597504</ele>
        <time>2011-07-14T16:34:30Z</time>
      </trkpt>
      <trkpt lat="45.69531" lon="3.14905">
        <ele>382.609985</ele>
        <time>2011-07-14T16:34:37Z</time>
      </trkpt>
      <trkpt lat="45.6952" lon="3.14912">
        <ele>382.404999</ele>
        <time>2011-07-14T16:34:44Z</time>
      </trkpt>
      <trkpt lat="45.69511" lon="3.14924">
        <ele>381.893066</ele>
        <time>2011-07-14T16:34:49Z</time>
      </trkpt>
      <trkpt lat="45.69502" lon="3.14938">
        <ele>381.28186</ele>
        <time>2011-07-14T16:34:52Z</time>
      </trkpt>
      <trkpt lat="45.69493" lon="3.14951">
        <ele>380.628418</ele>
        <time>2011-07-14T16:34:54Z</time>
      </trkpt>
      <trkpt lat="45.69481" lon="3.14966">
        <ele>380.287506</ele>
        <time>2011-07-14T16:34:56Z</time>
      </trkpt>
      <trkpt lat="45.69467" lon="3.14984">
        <ele>380.037506</ele>
        <time>2011-07-14T16:34:58Z</time>
      </trkpt>
      <trkpt lat="45.69453" lon="3.15">
        <ele>379.901428</ele>
        <time>2011-07-14T16:35:00Z</time>
      </trkpt>
      <trkpt lat="45.69445" lon="3.15009">
        <ele>379.788025</ele>
        <time>2011-07-14T16:35:01Z</time>
      </trkpt>
      <trkpt lat="45.69438" lon="3.15017">
        <ele>379.63501</ele>
        <time>2011-07-14T16:35:02Z</time>
      </trkpt>
      <trkpt lat="45.6943" lon="3.15025">
        <ele>379.663757</ele>
        <time>2011-07-14T16:35:03Z</time>
      </trkpt>
      <trkpt lat="45.69416" lon="3.15042">
        <ele>379.61792</ele>
        <time>2011-07-14T16:35:05Z</time>
      </trkpt>
      <trkpt lat="45.6941" lon="3.15051">
        <ele>379.439209</ele>
        <time>2011-07-14T16:35:06Z</time>
      </trkpt>
      <trkpt lat="45.69396" lon="3.15068">
        <ele>378.87149</ele>
        <time>2011-07-14T16:35:08Z</time>
      </trkpt>
      <trkpt lat="45.69384" lon="3.15083">
        <ele>378.182648</ele>
        <time>2011-07-14T16:35:10Z</time>
      </trkpt>
      <trkpt lat="45.69374" lon="3.15095">
        <ele>377.950012</ele>
        <time>2011-07-14T16:35:12Z</time>
      </trkpt>
      <trkpt lat="45.69363" lon="3.15108">
        <ele>377.722504</ele>
        <time>2011-07-14T16:35:14Z</time>
      </trkpt>
      <trkpt lat="45.69354" lon="3.1512">
        <ele>377.515015</ele>
        <time>2011-07-14T16:35:16Z</time>
      </trkpt>
      <trkpt lat="45.69346" lon="3.1513">
        <ele>377.334991</ele>
        <time>2011-07-14T16:35:18Z</time>
      </trkpt>
      <trkpt lat="45.69337" lon="3.15142">
        <ele>377.140015</ele>
        <time>2011-07-14T16:35:21Z</time>
      </trkpt>
      <trkpt lat="45.69329" lon="3.15152">
        <ele>377.130005</ele>
        <time>2011-07-14T16:35:24Z</time>
      </trkpt>
      <trkpt lat="45.69321" lon="3.15162">
        <ele>377.295013</ele>
        <time>2011-07-14T16:35:27Z</time>
      </trkpt>
      <trkpt lat="45.69312" lon="3.15177">
        <ele>377.528748</ele>
        <time>2011-07-14T16:35:30Z</time>
      </trkpt>
      <trkpt lat="45.69303" lon="3.15193">
        <ele>377.773743</ele>
        <time>2011-07-14T16:35:32Z</time>
      </trkpt>
      <trkpt lat="45.69291" lon="3.15212">
        <ele>378</ele>
        <time>2011-07-14T16:35:34Z</time>
      </trkpt>
      <trkpt lat="45.69284" lon="3.15222">
        <ele>378</ele>
        <time>2011-07-14T16:35:35Z</time>
      </trkpt>
      <trkpt lat="45.69277" lon="3.15233">
        <ele>378</ele>
        <time>2011-07-14T16:35:36Z</time>
      </trkpt>
      <trkpt lat="45.6927" lon="3.15245">
        <ele>378</ele>
        <time>2011-07-14T16:35:37Z</time>
      </trkpt>
      <trkpt lat="45.69262" lon="3.15256">
        <ele>378</ele>
        <time>2011-07-14T16:35:38Z</time>
      </trkpt>
      <trkpt lat="45.69254" lon="3.15268">
        <ele>378</ele>
        <time>2011-07-14T16:35:39Z</time>
      </trkpt>
      <trkpt lat="45.69246" lon="3.15279">
        <ele>378</ele>
        <time>2011-07-14T16:35:40Z</time>
      </trkpt>
      <trkpt lat="45.69238" lon="3.15291">
        <ele>378</ele>
        <time>2011-07-14T16:35:41Z</time>
      </trkpt>
      <trkpt lat="45.69231" lon="3.15302">
        <ele>378</ele>
        <time>2011-07-14T16:35:42Z</time>
      </trkpt>
      <trkpt lat="45.69224" lon="3.15313">
        <ele>378</ele>
        <time>2011-07-14T16:35:43Z</time>
      </trkpt>
      <trkpt lat="45.69217" lon="3.15324">
        <ele>378</ele>
        <time>2011-07-14T16:35:44Z</time>
      </trkpt>
      <trkpt lat="45.69206" lon="3.15343">
        <ele>378</ele>
        <time>2011-07-14T16:35:46Z</time>
      </trkpt>
      <trkpt lat="45.69199" lon="3.15359">
        <ele>378</ele>
        <time>2011-07-14T16:35:48Z</time>
      </trkpt>
      <trkpt lat="45.69195" lon="3.15377">
        <ele>378</ele>
        <time>2011-07-14T16:35:50Z</time>
      </trkpt>
      <trkpt lat="45.69193" lon="3.15394">
        <ele>378.022491</ele>
        <time>2011-07-14T16:35:52Z</time>
      </trkpt>
      <trkpt lat="45.69192" lon="3.1541">
        <ele>378.040009</ele>
        <time>2011-07-14T16:35:54Z</time>
      </trkpt>
      <trkpt lat="45.69193" lon="3.15426">
        <ele>378.012512</ele>
        <time>2011-07-14T16:35:56Z</time>
      </trkpt>
      <trkpt lat="45.69195" lon="3.15441">
        <ele>378</ele>
        <time>2011-07-14T16:35:58Z</time>
      </trkpt>
      <trkpt lat="45.69202" lon="3.15461">
        <ele>378</ele>
        <time>2011-07-14T16:36:01Z</time>
      </trkpt>
      <trkpt lat="45.69208" lon="3.15476">
        <ele>377.930664</ele>
        <time>2011-07-14T16:36:04Z</time>
      </trkpt>
      <trkpt lat="45.69213" lon="3.15492">
        <ele>377.794678</ele>
        <time>2011-07-14T16:36:07Z</time>
      </trkpt>
      <trkpt lat="45.69217" lon="3.15508">
        <ele>377.6185</ele>
        <time>2011-07-14T16:36:10Z</time>
      </trkpt>
      <trkpt lat="45.69222" lon="3.15524">
        <ele>377.375305</ele>
        <time>2011-07-14T16:36:13Z</time>
      </trkpt>
      <trkpt lat="45.69227" lon="3.15538">
        <ele>377.25</ele>
        <time>2011-07-14T16:36:16Z</time>
      </trkpt>
      <trkpt lat="45.69231" lon="3.15553">
        <ele>377.149994</ele>
        <time>2011-07-14T16:36:21Z</time>
      </trkpt>
      <trkpt lat="45.69234" lon="3.15566">
        <ele>377.082489</ele>
        <time>2011-07-14T16:36:27Z</time>
      </trkpt>
      <trkpt lat="45.69236" lon="3.15579">
        <ele>377.035004</ele>
        <time>2011-07-14T16:36:33Z</time>
      </trkpt>
      <trkpt lat="45.69241" lon="3.1559">
        <ele>376.917511</ele>
        <time>2011-07-14T16:36:39Z</time>
      </trkpt>
      <trkpt lat="45.69245" lon="3.15603">
        <ele>376.82251</ele>
        <time>2011-07-14T16:36:45Z</time>
      </trkpt>
      <trkpt lat="45.6925" lon="3.15615">
        <ele>376.709991</ele>
        <time>2011-07-14T16:36:51Z</time>
      </trkpt>
      <trkpt lat="45.69255" lon="3.15628">
        <ele>376.607513</ele>
        <time>2011-07-14T16:36:57Z</time>
      </trkpt>
      <trkpt lat="45.6926" lon="3.1564">
        <ele>376.494995</ele>
        <time>2011-07-14T16:37:03Z</time>
      </trkpt>
      <trkpt lat="45.69263" lon="3.15653">
        <ele>376.424988</ele>
        <time>2011-07-14T16:37:09Z</time>
      </trkpt>
      <trkpt lat="45.69264" lon="3.15668">
        <ele>376.38501</ele>
        <time>2011-07-14T16:37:15Z</time>
      </trkpt>
      <trkpt lat="45.69263" lon="3.15681">
        <ele>376.424988</ele>
        <time>2011-07-14T16:37:21Z</time>
      </trkpt>
      <trkpt lat="45.69254" lon="3.15687">
        <ele>376.607513</ele>
        <time>2011-07-14T16:37:29Z</time>
      </trkpt>
      <trkpt lat="45.69245" lon="3.15691">
        <ele>376.807495</ele>
        <time>2011-07-14T16:37:38Z</time>
      </trkpt>
      <trkpt lat="45.69236" lon="3.15696">
        <ele>377.008148</ele>
        <time>2011-07-14T16:37:44Z</time>
      </trkpt>
      <trkpt lat="45.69227" lon="3.15702">
        <ele>377.365753</ele>
        <time>2011-07-14T16:37:50Z</time>
      </trkpt>
      <trkpt lat="45.69217" lon="3.15707">
        <ele>377.799805</ele>
        <time>2011-07-14T16:37:56Z</time>
      </trkpt>
      <trkpt lat="45.69207" lon="3.15713">
        <ele>378.247589</ele>
        <time>2011-07-14T16:38:02Z</time>
      </trkpt>
      <trkpt lat="45.69197" lon="3.15719">
        <ele>378.754486</ele>
        <time>2011-07-14T16:38:07Z</time>
      </trkpt>
      <trkpt lat="45.69188" lon="3.15724">
        <ele>379.231201</ele>
        <time>2011-07-14T16:38:13Z</time>
      </trkpt>
      <trkpt lat="45.69179" lon="3.1573">
        <ele>379.85791</ele>
        <time>2011-07-14T16:38:20Z</time>
      </trkpt>
      <trkpt lat="45.6917" lon="3.15735">
        <ele>380.521118</ele>
        <time>2011-07-14T16:38:27Z</time>
      </trkpt>
      <trkpt lat="45.69161" lon="3.1574">
        <ele>381.225281</ele>
        <time>2011-07-14T16:38:34Z</time>
      </trkpt>
      <trkpt lat="45.69153" lon="3.15746">
        <ele>381.933716</ele>
        <time>2011-07-14T16:38:41Z</time>
      </trkpt>
      <trkpt lat="45.69144" lon="3.15751">
        <ele>382.706238</ele>
        <time>2011-07-14T16:38:48Z</time>
      </trkpt>
      <trkpt lat="45.69135" lon="3.15756">
        <ele>383.623749</ele>
        <time>2011-07-14T16:38:55Z</time>
      </trkpt>
      <trkpt lat="45.69125" lon="3.15759">
        <ele>384.543762</ele>
        <time>2011-07-14T16:39:02Z</time>
      </trkpt>
      <trkpt lat="45.69118" lon="3.15769">
        <ele>385.297516</ele>
        <time>2011-07-14T16:39:09Z</time>
      </trkpt>
      <trkpt lat="45.69117" lon="3.15782">
        <ele>385.559998</ele>
        <time>2011-07-14T16:39:15Z</time>
      </trkpt>
      <trkpt lat="45.69116" lon="3.15797">
        <ele>385.77066</ele>
        <time>2011-07-14T16:39:21Z</time>
      </trkpt>
      <trkpt lat="45.69116" lon="3.15811">
        <ele>385.98233</ele>
        <time>2011-07-14T16:39:27Z</time>
      </trkpt>
      <trkpt lat="45.69115" lon="3.15825">
        <ele>386.173065</ele>
        <time>2011-07-14T16:39:33Z</time>
      </trkpt>
      <trkpt lat="45.69115" lon="3.15839">
        <ele>386.362732</ele>
        <time>2011-07-14T16:39:39Z</time>
      </trkpt>
      <trkpt lat="45.69114" lon="3.15854">
        <ele>386.600647</ele>
        <time>2011-07-14T16:39:45Z</time>
      </trkpt>
      <trkpt lat="45.69114" lon="3.15867">
        <ele>386.894531</ele>
        <time>2011-07-14T16:39:51Z</time>
      </trkpt>
      <trkpt lat="45.69113" lon="3.15879">
        <ele>387.198303</ele>
        <time>2011-07-14T16:39:56Z</time>
      </trkpt>
      <trkpt lat="45.69113" lon="3.15894">
        <ele>387.51947</ele>
        <time>2011-07-14T16:40:01Z</time>
      </trkpt>
      <trkpt lat="45.69113" lon="3.15909">
        <ele>387.844788</ele>
        <time>2011-07-14T16:40:06Z</time>
      </trkpt>
      <trkpt lat="45.69113" lon="3.15925">
        <ele>388.645416</ele>
        <time>2011-07-14T16:40:11Z</time>
      </trkpt>
      <trkpt lat="45.69114" lon="3.15941">
        <ele>389.360596</ele>
        <time>2011-07-14T16:40:16Z</time>
      </trkpt>
      <trkpt lat="45.69115" lon="3.15953">
        <ele>389.773865</ele>
        <time>2011-07-14T16:40:22Z</time>
      </trkpt>
      <trkpt lat="45.69118" lon="3.15967">
        <ele>390.201599</ele>
        <time>2011-07-14T16:40:29Z</time>
      </trkpt>
      <trkpt lat="45.6912" lon="3.15979">
        <ele>390.378143</ele>
        <time>2011-07-14T16:40:35Z</time>
      </trkpt>
      <trkpt lat="45.69123" lon="3.15992">
        <ele>390.309082</ele>
        <time>2011-07-14T16:40:41Z</time>
      </trkpt>
      <trkpt lat="45.69125" lon="3.16005">
        <ele>390.221527</ele>
        <time>2011-07-14T16:40:47Z</time>
      </trkpt>
      <trkpt lat="45.69128" lon="3.1602">
        <ele>390.090149</ele>
        <time>2011-07-14T16:40:53Z</time>
      </trkpt>
      <trkpt lat="45.69127" lon="3.16032">
        <ele>390.475464</ele>
        <time>2011-07-14T16:40:59Z</time>
      </trkpt>
      <trkpt lat="45.69117" lon="3.16033">
        <ele>392.01947</ele>
        <time>2011-07-14T16:41:06Z</time>
      </trkpt>
      <trkpt lat="45.69107" lon="3.16034">
        <ele>393.605774</ele>
        <time>2011-07-14T16:41:13Z</time>
      </trkpt>
      <trkpt lat="45.69098" lon="3.16035">
        <ele>395.056488</ele>
        <time>2011-07-14T16:41:20Z</time>
      </trkpt>
      <trkpt lat="45.69089" lon="3.16037">
        <ele>396.707764</ele>
        <time>2011-07-14T16:41:27Z</time>
      </trkpt>
      <trkpt lat="45.69079" lon="3.16038">
        <ele>398.483398</ele>
        <time>2011-07-14T16:41:34Z</time>
      </trkpt>
      <trkpt lat="45.6907" lon="3.16039">
        <ele>400.181335</ele>
        <time>2011-07-14T16:41:41Z</time>
      </trkpt>
      <trkpt lat="45.69061" lon="3.16039">
        <ele>401.842346</ele>
        <time>2011-07-14T16:41:48Z</time>
      </trkpt>
      <trkpt lat="45.69051" lon="3.1604">
        <ele>403.346313</ele>
        <time>2011-07-14T16:41:55Z</time>
      </trkpt>
      <trkpt lat="45.69042" lon="3.1604">
        <ele>404.355072</ele>
        <time>2011-07-14T16:42:02Z</time>
      </trkpt>
      <trkpt lat="45.69032" lon="3.1604">
        <ele>405.425568</ele>
        <time>2011-07-14T16:42:09Z</time>
      </trkpt>
      <trkpt lat="45.69023" lon="3.1604">
        <ele>406.444</ele>
        <time>2011-07-14T16:42:16Z</time>
      </trkpt>
      <trkpt lat="45.69013" lon="3.16041">
        <ele>407.517944</ele>
        <time>2011-07-14T16:42:23Z</time>
      </trkpt>
      <trkpt lat="45.69003" lon="3.16042">
        <ele>408.290009</ele>
        <time>2011-07-14T16:42:30Z</time>
      </trkpt>
      <trkpt lat="45.68993" lon="3.16043">
        <ele>408.887512</ele>
        <time>2011-07-14T16:42:37Z</time>
      </trkpt>
      <trkpt lat="45.68983" lon="3.16046">
        <ele>409.44751</ele>
        <time>2011-07-14T16:42:44Z</time>
      </trkpt>
      <trkpt lat="45.68972" lon="3.16049">
        <ele>410.100006</ele>
        <time>2011-07-14T16:42:50Z</time>
      </trkpt>
      <trkpt lat="45.68961" lon="3.16051">
        <ele>410.684204</ele>
        <time>2011-07-14T16:42:55Z</time>
      </trkpt>
      <trkpt lat="45.68951" lon="3.16054">
        <ele>411.143127</ele>
        <time>2011-07-14T16:43:00Z</time>
      </trkpt>
      <trkpt lat="45.68939" lon="3.16057">
        <ele>411.64505</ele>
        <time>2011-07-14T16:43:05Z</time>
      </trkpt>
      <trkpt lat="45.6893" lon="3.16059">
        <ele>412.0625</ele>
        <time>2011-07-14T16:43:09Z</time>
      </trkpt>
      <trkpt lat="45.6892" lon="3.16062">
        <ele>412.547272</ele>
        <time>2011-07-14T16:43:16Z</time>
      </trkpt>
      <trkpt lat="45.6891" lon="3.16065">
        <ele>413.183746</ele>
        <time>2011-07-14T16:43:24Z</time>
      </trkpt>
      <trkpt lat="45.68901" lon="3.16067">
        <ele>413.731262</ele>
        <time>2011-07-14T16:43:31Z</time>
      </trkpt>
      <trkpt lat="45.68892" lon="3.16069">
        <ele>414.304993</ele>
        <time>2011-07-14T16:43:38Z</time>
      </trkpt>
      <trkpt lat="45.68882" lon="3.16071">
        <ele>414.88501</ele>
        <time>2011-07-14T16:43:45Z</time>
      </trkpt>
      <trkpt lat="45.68873" lon="3.16073">
        <ele>415.498932</ele>
        <time>2011-07-14T16:43:52Z</time>
      </trkpt>
      <trkpt lat="45.68863" lon="3.16074">
        <ele>416.527008</ele>
        <time>2011-07-14T16:44:00Z</time>
      </trkpt>
      <trkpt lat="45.68853" lon="3.16075">
        <ele>417.551392</ele>
        <time>2011-07-14T16:44:08Z</time>
      </trkpt>
      <trkpt lat="45.68843" lon="3.16076">
        <ele>418.548035</ele>
        <time>2011-07-14T16:44:16Z</time>
      </trkpt>
      <trkpt lat="45.68833" lon="3.16079">
        <ele>419.543579</ele>
        <time>2011-07-14T16:44:24Z</time>
      </trkpt>
      <trkpt lat="45.68824" lon="3.1608">
        <ele>420.459991</ele>
        <time>2011-07-14T16:44:31Z</time>
      </trkpt>
      <trkpt lat="45.68814" lon="3.16081">
        <ele>421.299988</ele>
        <time>2011-07-14T16:44:38Z</time>
      </trkpt>
      <trkpt lat="45.68804" lon="3.16082">
        <ele>422.200012</ele>
        <time>2011-07-14T16:44:46Z</time>
      </trkpt>
      <trkpt lat="45.68795" lon="3.16082">
        <ele>423.029999</ele>
        <time>2011-07-14T16:44:54Z</time>
      </trkpt>
      <trkpt lat="45.68785" lon="3.16084">
        <ele>423.869995</ele>
        <time>2011-07-14T16:45:02Z</time>
      </trkpt>
      <trkpt lat="45.68775" lon="3.16085">
        <ele>424.950012</ele>
        <time>2011-07-14T16:45:10Z</time>
      </trkpt>
      <trkpt lat="45.68765" lon="3.16087">
        <ele>426.0625</ele>
        <time>2011-07-14T16:45:18Z</time>
      </trkpt>
      <trkpt lat="45.68755" lon="3.16088">
        <ele>427.162506</ele>
        <time>2011-07-14T16:45:26Z</time>
      </trkpt>
      <trkpt lat="45.68748" lon="3.16097">
        <ele>427.9375</ele>
        <time>2011-07-14T16:45:35Z</time>
      </trkpt>
      <trkpt lat="45.68747" lon="3.1611">
        <ele>427.815399</ele>
        <time>2011-07-14T16:45:41Z</time>
      </trkpt>
      <trkpt lat="45.68747" lon="3.16123">
        <ele>427.540985</ele>
        <time>2011-07-14T16:45:48Z</time>
      </trkpt>
      <trkpt lat="45.68747" lon="3.16136">
        <ele>427.333008</ele>
        <time>2011-07-14T16:45:54Z</time>
      </trkpt>
      <trkpt lat="45.68747" lon="3.1615">
        <ele>427.03952</ele>
        <time>2011-07-14T16:46:00Z</time>
      </trkpt>
      <trkpt lat="45.68747" lon="3.16163">
        <ele>426.791901</ele>
        <time>2011-07-14T16:46:06Z</time>
      </trkpt>
      <trkpt lat="45.68747" lon="3.16177">
        <ele>425.854523</ele>
        <time>2011-07-14T16:46:13Z</time>
      </trkpt>
      <trkpt lat="45.68745" lon="3.16192">
        <ele>425.143707</ele>
        <time>2011-07-14T16:46:20Z</time>
      </trkpt>
      <trkpt lat="45.68744" lon="3.16206">
        <ele>424.316162</ele>
        <time>2011-07-14T16:46:26Z</time>
      </trkpt>
      <trkpt lat="45.68742" lon="3.16221">
        <ele>423.764404</ele>
        <time>2011-07-14T16:46:32Z</time>
      </trkpt>
      <trkpt lat="45.6874" lon="3.16236">
        <ele>422.791107</ele>
        <time>2011-07-14T16:46:39Z</time>
      </trkpt>
      <trkpt lat="45.68735" lon="3.1625">
        <ele>422.102509</ele>
        <time>2011-07-14T16:46:47Z</time>
      </trkpt>
      <trkpt lat="45.68728" lon="3.16261">
        <ele>421.88501</ele>
        <time>2011-07-14T16:46:55Z</time>
      </trkpt>
      <trkpt lat="45.68721" lon="3.16269">
        <ele>422.140015</ele>
        <time>2011-07-14T16:47:02Z</time>
      </trkpt>
      <trkpt lat="45.68711" lon="3.16276">
        <ele>422.73999</ele>
        <time>2011-07-14T16:47:16Z</time>
      </trkpt>
      <trkpt lat="45.68701" lon="3.16283">
        <ele>423.475006</ele>
        <time>2011-07-14T16:47:23Z</time>
      </trkpt>
      <trkpt lat="45.68691" lon="3.16289">
        <ele>424.164917</ele>
        <time>2011-07-14T16:47:31Z</time>
      </trkpt>
      <trkpt lat="45.68682" lon="3.16298">
        <ele>424.716248</ele>
        <time>2011-07-14T16:47:39Z</time>
      </trkpt>
      <trkpt lat="45.68673" lon="3.16299">
        <ele>425.631256</ele>
        <time>2011-07-14T16:47:47Z</time>
      </trkpt>
      <trkpt lat="45.68672" lon="3.16291">
        <ele>426.222504</ele>
        <time>2011-07-14T16:48:11Z</time>
      </trkpt>
    </trkseg>
  </trk>
</gpx>